<?xml version="1.0" encoding="UTF-8" standalone="no" ?>
<gpx xmlns="http://www.topografix.com/GPX/1/1" xmlns:xsi="http://www.w3.org/2001/XMLSchema-instance" xsi:schemaLocation="http://www.topografix.com/GPX/1/1 http://www.topografix.com/GPX/1/1/gpx.xsd" version="1.1" creator="VisuGPX - https://www.visugpx.com">
  <metadata>
    <name>VTT XC / AM Grabels</name>
    <desc><![CDATA[Sortie Typée AM XC périphérie de Grabels.
De belles grimpettes compensées par des descentes ludiques.]]></desc>
  </metadata>
  <trk>
    <name><![CDATA[Grabels sortie pause déjeuner]]></name>
    <trkseg>
      <trkpt lat="43.63776" lon="3.82846">
        <ele>79</ele>
        <time>2017-11-15T11:20:37Z</time>
      </trkpt>
      <trkpt lat="43.63774" lon="3.82873">
        <ele>79.1</ele>
        <time>2017-11-15T11:20:38Z</time>
      </trkpt>
      <trkpt lat="43.63777" lon="3.82877">
        <ele>79.4</ele>
        <time>2017-11-15T11:20:40Z</time>
      </trkpt>
      <trkpt lat="43.63776" lon="3.82871">
        <ele>79.3</ele>
        <time>2017-11-15T11:20:41Z</time>
      </trkpt>
      <trkpt lat="43.63781" lon="3.82874">
        <ele>79.6</ele>
        <time>2017-11-15T11:20:42Z</time>
      </trkpt>
      <trkpt lat="43.63781" lon="3.82867">
        <ele>79.4</ele>
        <time>2017-11-15T11:20:43Z</time>
      </trkpt>
      <trkpt lat="43.63781" lon="3.82862">
        <ele>79.3</ele>
        <time>2017-11-15T11:20:44Z</time>
      </trkpt>
      <trkpt lat="43.63775" lon="3.82867">
        <ele>79.1</ele>
        <time>2017-11-15T11:20:54Z</time>
      </trkpt>
      <trkpt lat="43.63772" lon="3.8287">
        <ele>79</ele>
        <time>2017-11-15T11:20:55Z</time>
      </trkpt>
      <trkpt lat="43.63768" lon="3.82871">
        <ele>79</ele>
        <time>2017-11-15T11:20:56Z</time>
      </trkpt>
      <trkpt lat="43.63763" lon="3.82871">
        <ele>79</ele>
        <time>2017-11-15T11:20:57Z</time>
      </trkpt>
      <trkpt lat="43.63764" lon="3.82864">
        <ele>78.9</ele>
        <time>2017-11-15T11:21:15Z</time>
      </trkpt>
      <trkpt lat="43.63765" lon="3.82862">
        <ele>79</ele>
        <time>2017-11-15T11:21:23Z</time>
      </trkpt>
      <trkpt lat="43.63766" lon="3.82859">
        <ele>79</ele>
        <time>2017-11-15T11:21:25Z</time>
      </trkpt>
      <trkpt lat="43.63767" lon="3.82857">
        <ele>79</ele>
        <time>2017-11-15T11:21:44Z</time>
      </trkpt>
      <trkpt lat="43.63768" lon="3.82854">
        <ele>79</ele>
        <time>2017-11-15T11:21:59Z</time>
      </trkpt>
      <trkpt lat="43.63769" lon="3.82852">
        <ele>79</ele>
        <time>2017-11-15T11:22:00Z</time>
      </trkpt>
      <trkpt lat="43.63773" lon="3.8285">
        <ele>79</ele>
        <time>2017-11-15T11:22:01Z</time>
      </trkpt>
      <trkpt lat="43.63774" lon="3.82844">
        <ele>79</ele>
        <time>2017-11-15T11:22:03Z</time>
      </trkpt>
      <trkpt lat="43.63772" lon="3.82839">
        <ele>79</ele>
        <time>2017-11-15T11:22:04Z</time>
      </trkpt>
      <trkpt lat="43.63773" lon="3.82834">
        <ele>79</ele>
        <time>2017-11-15T11:22:05Z</time>
      </trkpt>
      <trkpt lat="43.63775" lon="3.82827">
        <ele>79</ele>
        <time>2017-11-15T11:22:06Z</time>
      </trkpt>
      <trkpt lat="43.63778" lon="3.82822">
        <ele>79</ele>
        <time>2017-11-15T11:22:07Z</time>
      </trkpt>
      <trkpt lat="43.63781" lon="3.82819">
        <ele>79</ele>
        <time>2017-11-15T11:22:08Z</time>
      </trkpt>
      <trkpt lat="43.63786" lon="3.82814">
        <ele>79</ele>
        <time>2017-11-15T11:22:09Z</time>
      </trkpt>
      <trkpt lat="43.63791" lon="3.82811">
        <ele>79</ele>
        <time>2017-11-15T11:22:10Z</time>
      </trkpt>
      <trkpt lat="43.63795" lon="3.82809">
        <ele>79</ele>
        <time>2017-11-15T11:22:12Z</time>
      </trkpt>
      <trkpt lat="43.63799" lon="3.82807">
        <ele>79</ele>
        <time>2017-11-15T11:22:13Z</time>
      </trkpt>
      <trkpt lat="43.63803" lon="3.82804">
        <ele>79</ele>
        <time>2017-11-15T11:22:14Z</time>
      </trkpt>
      <trkpt lat="43.63808" lon="3.82803">
        <ele>79</ele>
        <time>2017-11-15T11:22:15Z</time>
      </trkpt>
      <trkpt lat="43.63814" lon="3.82802">
        <ele>79</ele>
        <time>2017-11-15T11:22:16Z</time>
      </trkpt>
      <trkpt lat="43.63818" lon="3.82801">
        <ele>79</ele>
        <time>2017-11-15T11:22:17Z</time>
      </trkpt>
      <trkpt lat="43.63821" lon="3.82798">
        <ele>79</ele>
        <time>2017-11-15T11:22:18Z</time>
      </trkpt>
      <trkpt lat="43.63824" lon="3.82796">
        <ele>79</ele>
        <time>2017-11-15T11:22:19Z</time>
      </trkpt>
      <trkpt lat="43.63828" lon="3.82794">
        <ele>79</ele>
        <time>2017-11-15T11:22:20Z</time>
      </trkpt>
      <trkpt lat="43.63832" lon="3.82794">
        <ele>79.2</ele>
        <time>2017-11-15T11:22:21Z</time>
      </trkpt>
      <trkpt lat="43.63836" lon="3.82795">
        <ele>79.4</ele>
        <time>2017-11-15T11:22:22Z</time>
      </trkpt>
      <trkpt lat="43.6384" lon="3.82796">
        <ele>79.6</ele>
        <time>2017-11-15T11:22:23Z</time>
      </trkpt>
      <trkpt lat="43.63845" lon="3.82798">
        <ele>80</ele>
        <time>2017-11-15T11:22:24Z</time>
      </trkpt>
      <trkpt lat="43.63849" lon="3.82799">
        <ele>80</ele>
        <time>2017-11-15T11:22:25Z</time>
      </trkpt>
      <trkpt lat="43.63853" lon="3.82796">
        <ele>80</ele>
        <time>2017-11-15T11:22:26Z</time>
      </trkpt>
      <trkpt lat="43.63856" lon="3.82793">
        <ele>80</ele>
        <time>2017-11-15T11:22:27Z</time>
      </trkpt>
      <trkpt lat="43.63859" lon="3.8279">
        <ele>80</ele>
        <time>2017-11-15T11:22:28Z</time>
      </trkpt>
      <trkpt lat="43.63862" lon="3.82787">
        <ele>80</ele>
        <time>2017-11-15T11:22:29Z</time>
      </trkpt>
      <trkpt lat="43.63867" lon="3.82784">
        <ele>80</ele>
        <time>2017-11-15T11:22:30Z</time>
      </trkpt>
      <trkpt lat="43.6387" lon="3.82782">
        <ele>80</ele>
        <time>2017-11-15T11:22:31Z</time>
      </trkpt>
      <trkpt lat="43.63874" lon="3.82779">
        <ele>80</ele>
        <time>2017-11-15T11:22:32Z</time>
      </trkpt>
      <trkpt lat="43.63876" lon="3.82776">
        <ele>80</ele>
        <time>2017-11-15T11:22:33Z</time>
      </trkpt>
      <trkpt lat="43.63879" lon="3.82774">
        <ele>80</ele>
        <time>2017-11-15T11:22:34Z</time>
      </trkpt>
      <trkpt lat="43.63883" lon="3.82774">
        <ele>80</ele>
        <time>2017-11-15T11:22:35Z</time>
      </trkpt>
      <trkpt lat="43.63886" lon="3.82774">
        <ele>80</ele>
        <time>2017-11-15T11:22:36Z</time>
      </trkpt>
      <trkpt lat="43.63888" lon="3.82778">
        <ele>80</ele>
        <time>2017-11-15T11:22:37Z</time>
      </trkpt>
      <trkpt lat="43.63892" lon="3.82786">
        <ele>80</ele>
        <time>2017-11-15T11:22:39Z</time>
      </trkpt>
      <trkpt lat="43.63894" lon="3.8279">
        <ele>80</ele>
        <time>2017-11-15T11:22:40Z</time>
      </trkpt>
      <trkpt lat="43.63897" lon="3.82795">
        <ele>80</ele>
        <time>2017-11-15T11:22:41Z</time>
      </trkpt>
      <trkpt lat="43.639" lon="3.82799">
        <ele>80</ele>
        <time>2017-11-15T11:22:42Z</time>
      </trkpt>
      <trkpt lat="43.63903" lon="3.828">
        <ele>80</ele>
        <time>2017-11-15T11:22:43Z</time>
      </trkpt>
      <trkpt lat="43.63909" lon="3.82801">
        <ele>80</ele>
        <time>2017-11-15T11:22:45Z</time>
      </trkpt>
      <trkpt lat="43.63912" lon="3.82801">
        <ele>80</ele>
        <time>2017-11-15T11:22:46Z</time>
      </trkpt>
      <trkpt lat="43.63916" lon="3.82803">
        <ele>80</ele>
        <time>2017-11-15T11:22:47Z</time>
      </trkpt>
      <trkpt lat="43.63921" lon="3.82806">
        <ele>80</ele>
        <time>2017-11-15T11:22:48Z</time>
      </trkpt>
      <trkpt lat="43.63924" lon="3.82809">
        <ele>80</ele>
        <time>2017-11-15T11:22:49Z</time>
      </trkpt>
      <trkpt lat="43.63926" lon="3.82813">
        <ele>80</ele>
        <time>2017-11-15T11:22:50Z</time>
      </trkpt>
      <trkpt lat="43.63927" lon="3.82819">
        <ele>80</ele>
        <time>2017-11-15T11:22:52Z</time>
      </trkpt>
      <trkpt lat="43.6393" lon="3.8282">
        <ele>80</ele>
        <time>2017-11-15T11:22:54Z</time>
      </trkpt>
      <trkpt lat="43.63933" lon="3.82817">
        <ele>80</ele>
        <time>2017-11-15T11:22:55Z</time>
      </trkpt>
      <trkpt lat="43.63936" lon="3.82815">
        <ele>80</ele>
        <time>2017-11-15T11:22:56Z</time>
      </trkpt>
      <trkpt lat="43.63939" lon="3.82812">
        <ele>80</ele>
        <time>2017-11-15T11:22:57Z</time>
      </trkpt>
      <trkpt lat="43.63942" lon="3.82811">
        <ele>80</ele>
        <time>2017-11-15T11:22:58Z</time>
      </trkpt>
      <trkpt lat="43.63946" lon="3.8281">
        <ele>80</ele>
        <time>2017-11-15T11:22:59Z</time>
      </trkpt>
      <trkpt lat="43.63949" lon="3.82809">
        <ele>80</ele>
        <time>2017-11-15T11:23:00Z</time>
      </trkpt>
      <trkpt lat="43.63952" lon="3.82808">
        <ele>80</ele>
        <time>2017-11-15T11:23:01Z</time>
      </trkpt>
      <trkpt lat="43.63957" lon="3.82806">
        <ele>80</ele>
        <time>2017-11-15T11:23:03Z</time>
      </trkpt>
      <trkpt lat="43.63959" lon="3.82805">
        <ele>80</ele>
        <time>2017-11-15T11:23:04Z</time>
      </trkpt>
      <trkpt lat="43.63966" lon="3.82801">
        <ele>80</ele>
        <time>2017-11-15T11:23:06Z</time>
      </trkpt>
      <trkpt lat="43.63969" lon="3.82799">
        <ele>80</ele>
        <time>2017-11-15T11:23:07Z</time>
      </trkpt>
      <trkpt lat="43.63972" lon="3.82798">
        <ele>80</ele>
        <time>2017-11-15T11:23:08Z</time>
      </trkpt>
      <trkpt lat="43.63976" lon="3.82798">
        <ele>80</ele>
        <time>2017-11-15T11:23:09Z</time>
      </trkpt>
      <trkpt lat="43.6398" lon="3.82798">
        <ele>80.2</ele>
        <time>2017-11-15T11:23:10Z</time>
      </trkpt>
      <trkpt lat="43.63986" lon="3.82797">
        <ele>80.5</ele>
        <time>2017-11-15T11:23:11Z</time>
      </trkpt>
      <trkpt lat="43.6399" lon="3.82796">
        <ele>80.7</ele>
        <time>2017-11-15T11:23:12Z</time>
      </trkpt>
      <trkpt lat="43.63994" lon="3.82796">
        <ele>80.8</ele>
        <time>2017-11-15T11:23:13Z</time>
      </trkpt>
      <trkpt lat="43.63998" lon="3.82796">
        <ele>81.1</ele>
        <time>2017-11-15T11:23:14Z</time>
      </trkpt>
      <trkpt lat="43.64003" lon="3.82796">
        <ele>81.3</ele>
        <time>2017-11-15T11:23:15Z</time>
      </trkpt>
      <trkpt lat="43.64007" lon="3.82796">
        <ele>81.5</ele>
        <time>2017-11-15T11:23:16Z</time>
      </trkpt>
      <trkpt lat="43.64011" lon="3.82795">
        <ele>81.6</ele>
        <time>2017-11-15T11:23:17Z</time>
      </trkpt>
      <trkpt lat="43.64015" lon="3.82794">
        <ele>81.8</ele>
        <time>2017-11-15T11:23:18Z</time>
      </trkpt>
      <trkpt lat="43.64018" lon="3.82789">
        <ele>82.1</ele>
        <time>2017-11-15T11:23:19Z</time>
      </trkpt>
      <trkpt lat="43.6402" lon="3.82782">
        <ele>82.4</ele>
        <time>2017-11-15T11:23:20Z</time>
      </trkpt>
      <trkpt lat="43.64021" lon="3.82773">
        <ele>82.7</ele>
        <time>2017-11-15T11:23:22Z</time>
      </trkpt>
      <trkpt lat="43.64025" lon="3.82768">
        <ele>82.9</ele>
        <time>2017-11-15T11:23:24Z</time>
      </trkpt>
      <trkpt lat="43.64027" lon="3.82765">
        <ele>83.1</ele>
        <time>2017-11-15T11:23:25Z</time>
      </trkpt>
      <trkpt lat="43.64031" lon="3.82762">
        <ele>83.3</ele>
        <time>2017-11-15T11:23:27Z</time>
      </trkpt>
      <trkpt lat="43.64034" lon="3.82761">
        <ele>83.4</ele>
        <time>2017-11-15T11:23:28Z</time>
      </trkpt>
      <trkpt lat="43.64037" lon="3.82759">
        <ele>83.6</ele>
        <time>2017-11-15T11:23:29Z</time>
      </trkpt>
      <trkpt lat="43.6404" lon="3.82757">
        <ele>83.7</ele>
        <time>2017-11-15T11:23:30Z</time>
      </trkpt>
      <trkpt lat="43.64044" lon="3.82755">
        <ele>83.8</ele>
        <time>2017-11-15T11:23:31Z</time>
      </trkpt>
      <trkpt lat="43.64047" lon="3.82753">
        <ele>83.9</ele>
        <time>2017-11-15T11:23:32Z</time>
      </trkpt>
      <trkpt lat="43.64051" lon="3.82749">
        <ele>84.1</ele>
        <time>2017-11-15T11:23:33Z</time>
      </trkpt>
      <trkpt lat="43.64055" lon="3.82746">
        <ele>84.2</ele>
        <time>2017-11-15T11:23:34Z</time>
      </trkpt>
      <trkpt lat="43.64058" lon="3.82743">
        <ele>84.3</ele>
        <time>2017-11-15T11:23:35Z</time>
      </trkpt>
      <trkpt lat="43.64063" lon="3.8274">
        <ele>84.4</ele>
        <time>2017-11-15T11:23:36Z</time>
      </trkpt>
      <trkpt lat="43.64067" lon="3.82737">
        <ele>84.6</ele>
        <time>2017-11-15T11:23:37Z</time>
      </trkpt>
      <trkpt lat="43.6407" lon="3.82734">
        <ele>84.8</ele>
        <time>2017-11-15T11:23:38Z</time>
      </trkpt>
      <trkpt lat="43.64073" lon="3.82731">
        <ele>85</ele>
        <time>2017-11-15T11:23:39Z</time>
      </trkpt>
      <trkpt lat="43.64076" lon="3.82728">
        <ele>85.2</ele>
        <time>2017-11-15T11:23:40Z</time>
      </trkpt>
      <trkpt lat="43.64079" lon="3.82726">
        <ele>85.4</ele>
        <time>2017-11-15T11:23:41Z</time>
      </trkpt>
      <trkpt lat="43.64082" lon="3.82724">
        <ele>85.6</ele>
        <time>2017-11-15T11:23:42Z</time>
      </trkpt>
      <trkpt lat="43.64085" lon="3.82722">
        <ele>85.9</ele>
        <time>2017-11-15T11:23:43Z</time>
      </trkpt>
      <trkpt lat="43.64087" lon="3.8272">
        <ele>86.1</ele>
        <time>2017-11-15T11:23:44Z</time>
      </trkpt>
      <trkpt lat="43.6409" lon="3.82717">
        <ele>86.3</ele>
        <time>2017-11-15T11:23:45Z</time>
      </trkpt>
      <trkpt lat="43.64093" lon="3.82715">
        <ele>86.5</ele>
        <time>2017-11-15T11:23:46Z</time>
      </trkpt>
      <trkpt lat="43.64096" lon="3.82713">
        <ele>86.8</ele>
        <time>2017-11-15T11:23:47Z</time>
      </trkpt>
      <trkpt lat="43.64099" lon="3.82711">
        <ele>87</ele>
        <time>2017-11-15T11:23:48Z</time>
      </trkpt>
      <trkpt lat="43.64102" lon="3.82707">
        <ele>87.2</ele>
        <time>2017-11-15T11:23:49Z</time>
      </trkpt>
      <trkpt lat="43.64104" lon="3.82703">
        <ele>87.4</ele>
        <time>2017-11-15T11:23:50Z</time>
      </trkpt>
      <trkpt lat="43.64107" lon="3.827">
        <ele>87.6</ele>
        <time>2017-11-15T11:23:51Z</time>
      </trkpt>
      <trkpt lat="43.64109" lon="3.82697">
        <ele>87.8</ele>
        <time>2017-11-15T11:23:52Z</time>
      </trkpt>
      <trkpt lat="43.64115" lon="3.82691">
        <ele>88.2</ele>
        <time>2017-11-15T11:23:54Z</time>
      </trkpt>
      <trkpt lat="43.64118" lon="3.82687">
        <ele>88.6</ele>
        <time>2017-11-15T11:23:55Z</time>
      </trkpt>
      <trkpt lat="43.64121" lon="3.82684">
        <ele>88.8</ele>
        <time>2017-11-15T11:23:56Z</time>
      </trkpt>
      <trkpt lat="43.64123" lon="3.82682">
        <ele>89.1</ele>
        <time>2017-11-15T11:23:57Z</time>
      </trkpt>
      <trkpt lat="43.64126" lon="3.82679">
        <ele>89.4</ele>
        <time>2017-11-15T11:23:58Z</time>
      </trkpt>
      <trkpt lat="43.64129" lon="3.82676">
        <ele>89.7</ele>
        <time>2017-11-15T11:23:59Z</time>
      </trkpt>
      <trkpt lat="43.64132" lon="3.82672">
        <ele>90</ele>
        <time>2017-11-15T11:24:00Z</time>
      </trkpt>
      <trkpt lat="43.64135" lon="3.82669">
        <ele>90.4</ele>
        <time>2017-11-15T11:24:01Z</time>
      </trkpt>
      <trkpt lat="43.64138" lon="3.82666">
        <ele>90.7</ele>
        <time>2017-11-15T11:24:02Z</time>
      </trkpt>
      <trkpt lat="43.64142" lon="3.82662">
        <ele>91.1</ele>
        <time>2017-11-15T11:24:04Z</time>
      </trkpt>
      <trkpt lat="43.64145" lon="3.8266">
        <ele>91.4</ele>
        <time>2017-11-15T11:24:05Z</time>
      </trkpt>
      <trkpt lat="43.64148" lon="3.82655">
        <ele>91.7</ele>
        <time>2017-11-15T11:24:06Z</time>
      </trkpt>
      <trkpt lat="43.64151" lon="3.82653">
        <ele>91.9</ele>
        <time>2017-11-15T11:24:07Z</time>
      </trkpt>
      <trkpt lat="43.64155" lon="3.82648">
        <ele>92.2</ele>
        <time>2017-11-15T11:24:09Z</time>
      </trkpt>
      <trkpt lat="43.64158" lon="3.82644">
        <ele>92.4</ele>
        <time>2017-11-15T11:24:10Z</time>
      </trkpt>
      <trkpt lat="43.6416" lon="3.82641">
        <ele>92.6</ele>
        <time>2017-11-15T11:24:11Z</time>
      </trkpt>
      <trkpt lat="43.64163" lon="3.82637">
        <ele>92.9</ele>
        <time>2017-11-15T11:24:12Z</time>
      </trkpt>
      <trkpt lat="43.64165" lon="3.82634">
        <ele>93.2</ele>
        <time>2017-11-15T11:24:13Z</time>
      </trkpt>
      <trkpt lat="43.64168" lon="3.82631">
        <ele>93.5</ele>
        <time>2017-11-15T11:24:14Z</time>
      </trkpt>
      <trkpt lat="43.6417" lon="3.82627">
        <ele>93.7</ele>
        <time>2017-11-15T11:24:15Z</time>
      </trkpt>
      <trkpt lat="43.64172" lon="3.82625">
        <ele>93.9</ele>
        <time>2017-11-15T11:24:16Z</time>
      </trkpt>
      <trkpt lat="43.64175" lon="3.82621">
        <ele>94.2</ele>
        <time>2017-11-15T11:24:17Z</time>
      </trkpt>
      <trkpt lat="43.64177" lon="3.82617">
        <ele>94.5</ele>
        <time>2017-11-15T11:24:18Z</time>
      </trkpt>
      <trkpt lat="43.6418" lon="3.82612">
        <ele>94.8</ele>
        <time>2017-11-15T11:24:20Z</time>
      </trkpt>
      <trkpt lat="43.64184" lon="3.82608">
        <ele>95.1</ele>
        <time>2017-11-15T11:24:21Z</time>
      </trkpt>
      <trkpt lat="43.64186" lon="3.82605">
        <ele>95.3</ele>
        <time>2017-11-15T11:24:22Z</time>
      </trkpt>
      <trkpt lat="43.6419" lon="3.82602">
        <ele>95.6</ele>
        <time>2017-11-15T11:24:23Z</time>
      </trkpt>
      <trkpt lat="43.64193" lon="3.82598">
        <ele>95.7</ele>
        <time>2017-11-15T11:24:24Z</time>
      </trkpt>
      <trkpt lat="43.64195" lon="3.82594">
        <ele>95.8</ele>
        <time>2017-11-15T11:24:25Z</time>
      </trkpt>
      <trkpt lat="43.64199" lon="3.82588">
        <ele>96.1</ele>
        <time>2017-11-15T11:24:27Z</time>
      </trkpt>
      <trkpt lat="43.64201" lon="3.82583">
        <ele>96.2</ele>
        <time>2017-11-15T11:24:28Z</time>
      </trkpt>
      <trkpt lat="43.64204" lon="3.82577">
        <ele>96.4</ele>
        <time>2017-11-15T11:24:29Z</time>
      </trkpt>
      <trkpt lat="43.64207" lon="3.82573">
        <ele>96.6</ele>
        <time>2017-11-15T11:24:30Z</time>
      </trkpt>
      <trkpt lat="43.6421" lon="3.82569">
        <ele>96.8</ele>
        <time>2017-11-15T11:24:31Z</time>
      </trkpt>
      <trkpt lat="43.64213" lon="3.82565">
        <ele>97.1</ele>
        <time>2017-11-15T11:24:32Z</time>
      </trkpt>
      <trkpt lat="43.64214" lon="3.82562">
        <ele>97.3</ele>
        <time>2017-11-15T11:24:33Z</time>
      </trkpt>
      <trkpt lat="43.64216" lon="3.82559">
        <ele>97.4</ele>
        <time>2017-11-15T11:24:34Z</time>
      </trkpt>
      <trkpt lat="43.64218" lon="3.82556">
        <ele>97.6</ele>
        <time>2017-11-15T11:24:35Z</time>
      </trkpt>
      <trkpt lat="43.64221" lon="3.82549">
        <ele>98</ele>
        <time>2017-11-15T11:24:37Z</time>
      </trkpt>
      <trkpt lat="43.64223" lon="3.82544">
        <ele>98.3</ele>
        <time>2017-11-15T11:24:38Z</time>
      </trkpt>
      <trkpt lat="43.64226" lon="3.82539">
        <ele>98.6</ele>
        <time>2017-11-15T11:24:39Z</time>
      </trkpt>
      <trkpt lat="43.64228" lon="3.82534">
        <ele>98.8</ele>
        <time>2017-11-15T11:24:40Z</time>
      </trkpt>
      <trkpt lat="43.6423" lon="3.8253">
        <ele>99</ele>
        <time>2017-11-15T11:24:41Z</time>
      </trkpt>
      <trkpt lat="43.64232" lon="3.82525">
        <ele>99.1</ele>
        <time>2017-11-15T11:24:42Z</time>
      </trkpt>
      <trkpt lat="43.64235" lon="3.8252">
        <ele>99.2</ele>
        <time>2017-11-15T11:24:43Z</time>
      </trkpt>
      <trkpt lat="43.64238" lon="3.82515">
        <ele>99.3</ele>
        <time>2017-11-15T11:24:44Z</time>
      </trkpt>
      <trkpt lat="43.64242" lon="3.82506">
        <ele>99.4</ele>
        <time>2017-11-15T11:24:46Z</time>
      </trkpt>
      <trkpt lat="43.64245" lon="3.82499">
        <ele>99.5</ele>
        <time>2017-11-15T11:24:47Z</time>
      </trkpt>
      <trkpt lat="43.64248" lon="3.82494">
        <ele>99.6</ele>
        <time>2017-11-15T11:24:48Z</time>
      </trkpt>
      <trkpt lat="43.6425" lon="3.82489">
        <ele>99.6</ele>
        <time>2017-11-15T11:24:49Z</time>
      </trkpt>
      <trkpt lat="43.64253" lon="3.82484">
        <ele>99.7</ele>
        <time>2017-11-15T11:24:50Z</time>
      </trkpt>
      <trkpt lat="43.64254" lon="3.82481">
        <ele>99.8</ele>
        <time>2017-11-15T11:24:51Z</time>
      </trkpt>
      <trkpt lat="43.64256" lon="3.82476">
        <ele>99.8</ele>
        <time>2017-11-15T11:24:52Z</time>
      </trkpt>
      <trkpt lat="43.64257" lon="3.82471">
        <ele>99.9</ele>
        <time>2017-11-15T11:24:53Z</time>
      </trkpt>
      <trkpt lat="43.64259" lon="3.82465">
        <ele>100</ele>
        <time>2017-11-15T11:24:54Z</time>
      </trkpt>
      <trkpt lat="43.64261" lon="3.82459">
        <ele>100</ele>
        <time>2017-11-15T11:24:55Z</time>
      </trkpt>
      <trkpt lat="43.64263" lon="3.82456">
        <ele>100.1</ele>
        <time>2017-11-15T11:24:56Z</time>
      </trkpt>
      <trkpt lat="43.64264" lon="3.82451">
        <ele>100.1</ele>
        <time>2017-11-15T11:24:57Z</time>
      </trkpt>
      <trkpt lat="43.64265" lon="3.82447">
        <ele>100.2</ele>
        <time>2017-11-15T11:24:58Z</time>
      </trkpt>
      <trkpt lat="43.64267" lon="3.82443">
        <ele>100.2</ele>
        <time>2017-11-15T11:24:59Z</time>
      </trkpt>
      <trkpt lat="43.64269" lon="3.82438">
        <ele>100.3</ele>
        <time>2017-11-15T11:25:00Z</time>
      </trkpt>
      <trkpt lat="43.64271" lon="3.82434">
        <ele>100.3</ele>
        <time>2017-11-15T11:25:01Z</time>
      </trkpt>
      <trkpt lat="43.64272" lon="3.82429">
        <ele>100.4</ele>
        <time>2017-11-15T11:25:02Z</time>
      </trkpt>
      <trkpt lat="43.64274" lon="3.82425">
        <ele>100.4</ele>
        <time>2017-11-15T11:25:03Z</time>
      </trkpt>
      <trkpt lat="43.64275" lon="3.8242">
        <ele>100.4</ele>
        <time>2017-11-15T11:25:04Z</time>
      </trkpt>
      <trkpt lat="43.64278" lon="3.82414">
        <ele>100.5</ele>
        <time>2017-11-15T11:25:06Z</time>
      </trkpt>
      <trkpt lat="43.64279" lon="3.82411">
        <ele>100.6</ele>
        <time>2017-11-15T11:25:07Z</time>
      </trkpt>
      <trkpt lat="43.64281" lon="3.82407">
        <ele>100.6</ele>
        <time>2017-11-15T11:25:08Z</time>
      </trkpt>
      <trkpt lat="43.64283" lon="3.82403">
        <ele>100.6</ele>
        <time>2017-11-15T11:25:09Z</time>
      </trkpt>
      <trkpt lat="43.64288" lon="3.82395">
        <ele>100.7</ele>
        <time>2017-11-15T11:25:11Z</time>
      </trkpt>
      <trkpt lat="43.6429" lon="3.82391">
        <ele>100.8</ele>
        <time>2017-11-15T11:25:12Z</time>
      </trkpt>
      <trkpt lat="43.64293" lon="3.82388">
        <ele>100.8</ele>
        <time>2017-11-15T11:25:13Z</time>
      </trkpt>
      <trkpt lat="43.64296" lon="3.82385">
        <ele>100.9</ele>
        <time>2017-11-15T11:25:14Z</time>
      </trkpt>
      <trkpt lat="43.64298" lon="3.82382">
        <ele>101</ele>
        <time>2017-11-15T11:25:15Z</time>
      </trkpt>
      <trkpt lat="43.64304" lon="3.82379">
        <ele>100.9</ele>
        <time>2017-11-15T11:25:17Z</time>
      </trkpt>
      <trkpt lat="43.64308" lon="3.82375">
        <ele>100.9</ele>
        <time>2017-11-15T11:25:19Z</time>
      </trkpt>
      <trkpt lat="43.64312" lon="3.8237">
        <ele>100.9</ele>
        <time>2017-11-15T11:25:21Z</time>
      </trkpt>
      <trkpt lat="43.64314" lon="3.82364">
        <ele>100.9</ele>
        <time>2017-11-15T11:25:23Z</time>
      </trkpt>
      <trkpt lat="43.64314" lon="3.82361">
        <ele>100.9</ele>
        <time>2017-11-15T11:25:24Z</time>
      </trkpt>
      <trkpt lat="43.64316" lon="3.82357">
        <ele>100.9</ele>
        <time>2017-11-15T11:25:25Z</time>
      </trkpt>
      <trkpt lat="43.64319" lon="3.8235">
        <ele>101</ele>
        <time>2017-11-15T11:25:26Z</time>
      </trkpt>
      <trkpt lat="43.64321" lon="3.82346">
        <ele>101.1</ele>
        <time>2017-11-15T11:25:27Z</time>
      </trkpt>
      <trkpt lat="43.64322" lon="3.82342">
        <ele>101.2</ele>
        <time>2017-11-15T11:25:28Z</time>
      </trkpt>
      <trkpt lat="43.64324" lon="3.82338">
        <ele>101.3</ele>
        <time>2017-11-15T11:25:29Z</time>
      </trkpt>
      <trkpt lat="43.64326" lon="3.82333">
        <ele>101.5</ele>
        <time>2017-11-15T11:25:30Z</time>
      </trkpt>
      <trkpt lat="43.64328" lon="3.82327">
        <ele>101.6</ele>
        <time>2017-11-15T11:25:31Z</time>
      </trkpt>
      <trkpt lat="43.6433" lon="3.82321">
        <ele>101.9</ele>
        <time>2017-11-15T11:25:32Z</time>
      </trkpt>
      <trkpt lat="43.64331" lon="3.82316">
        <ele>102.1</ele>
        <time>2017-11-15T11:25:33Z</time>
      </trkpt>
      <trkpt lat="43.64332" lon="3.82312">
        <ele>102.2</ele>
        <time>2017-11-15T11:25:34Z</time>
      </trkpt>
      <trkpt lat="43.64334" lon="3.82308">
        <ele>102.3</ele>
        <time>2017-11-15T11:25:35Z</time>
      </trkpt>
      <trkpt lat="43.64335" lon="3.82304">
        <ele>102.3</ele>
        <time>2017-11-15T11:25:36Z</time>
      </trkpt>
      <trkpt lat="43.64337" lon="3.82298">
        <ele>102.3</ele>
        <time>2017-11-15T11:25:38Z</time>
      </trkpt>
      <trkpt lat="43.64337" lon="3.82294">
        <ele>102.2</ele>
        <time>2017-11-15T11:25:39Z</time>
      </trkpt>
      <trkpt lat="43.64339" lon="3.82289">
        <ele>102</ele>
        <time>2017-11-15T11:25:40Z</time>
      </trkpt>
      <trkpt lat="43.6434" lon="3.82284">
        <ele>102</ele>
        <time>2017-11-15T11:25:41Z</time>
      </trkpt>
      <trkpt lat="43.64342" lon="3.82278">
        <ele>102</ele>
        <time>2017-11-15T11:25:42Z</time>
      </trkpt>
      <trkpt lat="43.64345" lon="3.82274">
        <ele>102</ele>
        <time>2017-11-15T11:25:43Z</time>
      </trkpt>
      <trkpt lat="43.64347" lon="3.8227">
        <ele>102</ele>
        <time>2017-11-15T11:25:44Z</time>
      </trkpt>
      <trkpt lat="43.6435" lon="3.82266">
        <ele>102</ele>
        <time>2017-11-15T11:25:45Z</time>
      </trkpt>
      <trkpt lat="43.64354" lon="3.82262">
        <ele>102</ele>
        <time>2017-11-15T11:25:46Z</time>
      </trkpt>
      <trkpt lat="43.64358" lon="3.82259">
        <ele>102</ele>
        <time>2017-11-15T11:25:47Z</time>
      </trkpt>
      <trkpt lat="43.64363" lon="3.82258">
        <ele>102</ele>
        <time>2017-11-15T11:25:48Z</time>
      </trkpt>
      <trkpt lat="43.64367" lon="3.82258">
        <ele>102</ele>
        <time>2017-11-15T11:25:49Z</time>
      </trkpt>
      <trkpt lat="43.64369" lon="3.82257">
        <ele>102</ele>
        <time>2017-11-15T11:25:50Z</time>
      </trkpt>
      <trkpt lat="43.64367" lon="3.82252">
        <ele>102.1</ele>
        <time>2017-11-15T11:25:53Z</time>
      </trkpt>
      <trkpt lat="43.64366" lon="3.82246">
        <ele>102.1</ele>
        <time>2017-11-15T11:25:54Z</time>
      </trkpt>
      <trkpt lat="43.64365" lon="3.8224">
        <ele>102.1</ele>
        <time>2017-11-15T11:25:56Z</time>
      </trkpt>
      <trkpt lat="43.64364" lon="3.82235">
        <ele>102</ele>
        <time>2017-11-15T11:25:58Z</time>
      </trkpt>
      <trkpt lat="43.64363" lon="3.8223">
        <ele>101.9</ele>
        <time>2017-11-15T11:25:59Z</time>
      </trkpt>
      <trkpt lat="43.64363" lon="3.82226">
        <ele>102</ele>
        <time>2017-11-15T11:26:00Z</time>
      </trkpt>
      <trkpt lat="43.64362" lon="3.82222">
        <ele>102.1</ele>
        <time>2017-11-15T11:26:01Z</time>
      </trkpt>
      <trkpt lat="43.6436" lon="3.82216">
        <ele>102.3</ele>
        <time>2017-11-15T11:26:03Z</time>
      </trkpt>
      <trkpt lat="43.64354" lon="3.82212">
        <ele>102.9</ele>
        <time>2017-11-15T11:26:05Z</time>
      </trkpt>
      <trkpt lat="43.6435" lon="3.82208">
        <ele>103.4</ele>
        <time>2017-11-15T11:26:07Z</time>
      </trkpt>
      <trkpt lat="43.64346" lon="3.82204">
        <ele>104.1</ele>
        <time>2017-11-15T11:26:09Z</time>
      </trkpt>
      <trkpt lat="43.64343" lon="3.82202">
        <ele>104.5</ele>
        <time>2017-11-15T11:26:10Z</time>
      </trkpt>
      <trkpt lat="43.64342" lon="3.82199">
        <ele>105</ele>
        <time>2017-11-15T11:26:11Z</time>
      </trkpt>
      <trkpt lat="43.64341" lon="3.82192">
        <ele>105.9</ele>
        <time>2017-11-15T11:26:13Z</time>
      </trkpt>
      <trkpt lat="43.64341" lon="3.82187">
        <ele>106.4</ele>
        <time>2017-11-15T11:26:15Z</time>
      </trkpt>
      <trkpt lat="43.64339" lon="3.82181">
        <ele>107.1</ele>
        <time>2017-11-15T11:26:17Z</time>
      </trkpt>
      <trkpt lat="43.64338" lon="3.82175">
        <ele>107.9</ele>
        <time>2017-11-15T11:26:18Z</time>
      </trkpt>
      <trkpt lat="43.64337" lon="3.82171">
        <ele>108.6</ele>
        <time>2017-11-15T11:26:19Z</time>
      </trkpt>
      <trkpt lat="43.64335" lon="3.82166">
        <ele>109.1</ele>
        <time>2017-11-15T11:26:20Z</time>
      </trkpt>
      <trkpt lat="43.64335" lon="3.82161">
        <ele>109.4</ele>
        <time>2017-11-15T11:26:21Z</time>
      </trkpt>
      <trkpt lat="43.64334" lon="3.82154">
        <ele>109.8</ele>
        <time>2017-11-15T11:26:23Z</time>
      </trkpt>
      <trkpt lat="43.64334" lon="3.82148">
        <ele>109</ele>
        <time>2017-11-15T11:26:24Z</time>
      </trkpt>
      <trkpt lat="43.64334" lon="3.82144">
        <ele>108</ele>
        <time>2017-11-15T11:26:25Z</time>
      </trkpt>
      <trkpt lat="43.64334" lon="3.82135">
        <ele>108.1</ele>
        <time>2017-11-15T11:26:27Z</time>
      </trkpt>
      <trkpt lat="43.64334" lon="3.82131">
        <ele>108.1</ele>
        <time>2017-11-15T11:26:28Z</time>
      </trkpt>
      <trkpt lat="43.64336" lon="3.82123">
        <ele>108.2</ele>
        <time>2017-11-15T11:26:29Z</time>
      </trkpt>
      <trkpt lat="43.64336" lon="3.82117">
        <ele>108.3</ele>
        <time>2017-11-15T11:26:30Z</time>
      </trkpt>
      <trkpt lat="43.64337" lon="3.82113">
        <ele>108.4</ele>
        <time>2017-11-15T11:26:31Z</time>
      </trkpt>
      <trkpt lat="43.64337" lon="3.82106">
        <ele>108.6</ele>
        <time>2017-11-15T11:26:32Z</time>
      </trkpt>
      <trkpt lat="43.64338" lon="3.821">
        <ele>108.8</ele>
        <time>2017-11-15T11:26:33Z</time>
      </trkpt>
      <trkpt lat="43.64339" lon="3.82096">
        <ele>108.9</ele>
        <time>2017-11-15T11:26:35Z</time>
      </trkpt>
      <trkpt lat="43.64338" lon="3.8209">
        <ele>109.2</ele>
        <time>2017-11-15T11:26:37Z</time>
      </trkpt>
      <trkpt lat="43.6434" lon="3.82083">
        <ele>109.6</ele>
        <time>2017-11-15T11:26:39Z</time>
      </trkpt>
      <trkpt lat="43.64342" lon="3.82078">
        <ele>109.9</ele>
        <time>2017-11-15T11:26:41Z</time>
      </trkpt>
      <trkpt lat="43.64343" lon="3.82074">
        <ele>110</ele>
        <time>2017-11-15T11:26:42Z</time>
      </trkpt>
      <trkpt lat="43.64345" lon="3.82068">
        <ele>110.3</ele>
        <time>2017-11-15T11:26:44Z</time>
      </trkpt>
      <trkpt lat="43.64346" lon="3.82065">
        <ele>110.4</ele>
        <time>2017-11-15T11:26:45Z</time>
      </trkpt>
      <trkpt lat="43.64348" lon="3.8206">
        <ele>110.7</ele>
        <time>2017-11-15T11:26:46Z</time>
      </trkpt>
      <trkpt lat="43.64352" lon="3.82055">
        <ele>110.9</ele>
        <time>2017-11-15T11:26:48Z</time>
      </trkpt>
      <trkpt lat="43.64356" lon="3.82048">
        <ele>111.2</ele>
        <time>2017-11-15T11:26:50Z</time>
      </trkpt>
      <trkpt lat="43.64358" lon="3.82042">
        <ele>111.3</ele>
        <time>2017-11-15T11:26:51Z</time>
      </trkpt>
      <trkpt lat="43.6436" lon="3.82038">
        <ele>111.4</ele>
        <time>2017-11-15T11:26:52Z</time>
      </trkpt>
      <trkpt lat="43.64361" lon="3.82034">
        <ele>111.7</ele>
        <time>2017-11-15T11:26:53Z</time>
      </trkpt>
      <trkpt lat="43.64363" lon="3.8203">
        <ele>111.9</ele>
        <time>2017-11-15T11:26:54Z</time>
      </trkpt>
      <trkpt lat="43.64365" lon="3.82027">
        <ele>112.3</ele>
        <time>2017-11-15T11:26:55Z</time>
      </trkpt>
      <trkpt lat="43.64366" lon="3.82024">
        <ele>112.6</ele>
        <time>2017-11-15T11:26:56Z</time>
      </trkpt>
      <trkpt lat="43.64369" lon="3.82018">
        <ele>113</ele>
        <time>2017-11-15T11:26:58Z</time>
      </trkpt>
      <trkpt lat="43.6437" lon="3.82014">
        <ele>113.5</ele>
        <time>2017-11-15T11:26:59Z</time>
      </trkpt>
      <trkpt lat="43.64373" lon="3.82011">
        <ele>113.6</ele>
        <time>2017-11-15T11:27:00Z</time>
      </trkpt>
      <trkpt lat="43.64376" lon="3.82004">
        <ele>114.3</ele>
        <time>2017-11-15T11:27:02Z</time>
      </trkpt>
      <trkpt lat="43.64379" lon="3.81998">
        <ele>115.1</ele>
        <time>2017-11-15T11:27:03Z</time>
      </trkpt>
      <trkpt lat="43.64382" lon="3.81994">
        <ele>115.6</ele>
        <time>2017-11-15T11:27:04Z</time>
      </trkpt>
      <trkpt lat="43.64385" lon="3.81987">
        <ele>116.2</ele>
        <time>2017-11-15T11:27:05Z</time>
      </trkpt>
      <trkpt lat="43.64386" lon="3.81983">
        <ele>116.9</ele>
        <time>2017-11-15T11:27:07Z</time>
      </trkpt>
      <trkpt lat="43.64389" lon="3.81976">
        <ele>117.7</ele>
        <time>2017-11-15T11:27:09Z</time>
      </trkpt>
      <trkpt lat="43.6439" lon="3.81972">
        <ele>118.1</ele>
        <time>2017-11-15T11:27:10Z</time>
      </trkpt>
      <trkpt lat="43.64392" lon="3.81967">
        <ele>118</ele>
        <time>2017-11-15T11:27:11Z</time>
      </trkpt>
      <trkpt lat="43.64393" lon="3.81964">
        <ele>118.2</ele>
        <time>2017-11-15T11:27:12Z</time>
      </trkpt>
      <trkpt lat="43.64396" lon="3.81958">
        <ele>117.4</ele>
        <time>2017-11-15T11:27:13Z</time>
      </trkpt>
      <trkpt lat="43.64399" lon="3.81953">
        <ele>117.5</ele>
        <time>2017-11-15T11:27:14Z</time>
      </trkpt>
      <trkpt lat="43.64401" lon="3.81949">
        <ele>117.1</ele>
        <time>2017-11-15T11:27:15Z</time>
      </trkpt>
      <trkpt lat="43.64402" lon="3.81943">
        <ele>117</ele>
        <time>2017-11-15T11:27:17Z</time>
      </trkpt>
      <trkpt lat="43.64403" lon="3.81938">
        <ele>116.9</ele>
        <time>2017-11-15T11:27:19Z</time>
      </trkpt>
      <trkpt lat="43.64403" lon="3.8193">
        <ele>116.8</ele>
        <time>2017-11-15T11:27:21Z</time>
      </trkpt>
      <trkpt lat="43.64405" lon="3.81925">
        <ele>116.9</ele>
        <time>2017-11-15T11:27:23Z</time>
      </trkpt>
      <trkpt lat="43.64407" lon="3.81922">
        <ele>117</ele>
        <time>2017-11-15T11:27:25Z</time>
      </trkpt>
      <trkpt lat="43.64408" lon="3.81917">
        <ele>117</ele>
        <time>2017-11-15T11:27:27Z</time>
      </trkpt>
      <trkpt lat="43.64409" lon="3.81913">
        <ele>117</ele>
        <time>2017-11-15T11:27:28Z</time>
      </trkpt>
      <trkpt lat="43.64409" lon="3.81907">
        <ele>117</ele>
        <time>2017-11-15T11:27:29Z</time>
      </trkpt>
      <trkpt lat="43.6441" lon="3.819">
        <ele>117</ele>
        <time>2017-11-15T11:27:31Z</time>
      </trkpt>
      <trkpt lat="43.6441" lon="3.8189">
        <ele>117.1</ele>
        <time>2017-11-15T11:27:33Z</time>
      </trkpt>
      <trkpt lat="43.6441" lon="3.81885">
        <ele>117.1</ele>
        <time>2017-11-15T11:27:34Z</time>
      </trkpt>
      <trkpt lat="43.6441" lon="3.8188">
        <ele>117.2</ele>
        <time>2017-11-15T11:27:36Z</time>
      </trkpt>
      <trkpt lat="43.6441" lon="3.81876">
        <ele>117.2</ele>
        <time>2017-11-15T11:27:37Z</time>
      </trkpt>
      <trkpt lat="43.64411" lon="3.81868">
        <ele>117.3</ele>
        <time>2017-11-15T11:27:39Z</time>
      </trkpt>
      <trkpt lat="43.64412" lon="3.81863">
        <ele>117.2</ele>
        <time>2017-11-15T11:27:40Z</time>
      </trkpt>
      <trkpt lat="43.64412" lon="3.81857">
        <ele>117.2</ele>
        <time>2017-11-15T11:27:42Z</time>
      </trkpt>
      <trkpt lat="43.64413" lon="3.81853">
        <ele>117.2</ele>
        <time>2017-11-15T11:27:43Z</time>
      </trkpt>
      <trkpt lat="43.64414" lon="3.81848">
        <ele>117.1</ele>
        <time>2017-11-15T11:27:44Z</time>
      </trkpt>
      <trkpt lat="43.64414" lon="3.81841">
        <ele>117.3</ele>
        <time>2017-11-15T11:27:46Z</time>
      </trkpt>
      <trkpt lat="43.64413" lon="3.81837">
        <ele>117.4</ele>
        <time>2017-11-15T11:27:47Z</time>
      </trkpt>
      <trkpt lat="43.64412" lon="3.81833">
        <ele>117.6</ele>
        <time>2017-11-15T11:27:48Z</time>
      </trkpt>
      <trkpt lat="43.64411" lon="3.8183">
        <ele>117.7</ele>
        <time>2017-11-15T11:27:49Z</time>
      </trkpt>
      <trkpt lat="43.64411" lon="3.81826">
        <ele>117.9</ele>
        <time>2017-11-15T11:27:50Z</time>
      </trkpt>
      <trkpt lat="43.64413" lon="3.81823">
        <ele>118</ele>
        <time>2017-11-15T11:27:52Z</time>
      </trkpt>
      <trkpt lat="43.64416" lon="3.81818">
        <ele>118.2</ele>
        <time>2017-11-15T11:27:53Z</time>
      </trkpt>
      <trkpt lat="43.6442" lon="3.81811">
        <ele>118.4</ele>
        <time>2017-11-15T11:27:55Z</time>
      </trkpt>
      <trkpt lat="43.64422" lon="3.81806">
        <ele>118.5</ele>
        <time>2017-11-15T11:27:56Z</time>
      </trkpt>
      <trkpt lat="43.64421" lon="3.81799">
        <ele>118.6</ele>
        <time>2017-11-15T11:27:58Z</time>
      </trkpt>
      <trkpt lat="43.64419" lon="3.81796">
        <ele>118.6</ele>
        <time>2017-11-15T11:27:59Z</time>
      </trkpt>
      <trkpt lat="43.64417" lon="3.8179">
        <ele>118.6</ele>
        <time>2017-11-15T11:28:00Z</time>
      </trkpt>
      <trkpt lat="43.64416" lon="3.81786">
        <ele>118.6</ele>
        <time>2017-11-15T11:28:01Z</time>
      </trkpt>
      <trkpt lat="43.64411" lon="3.81781">
        <ele>118.6</ele>
        <time>2017-11-15T11:28:03Z</time>
      </trkpt>
      <trkpt lat="43.64408" lon="3.81778">
        <ele>118.7</ele>
        <time>2017-11-15T11:28:04Z</time>
      </trkpt>
      <trkpt lat="43.64406" lon="3.81774">
        <ele>118.7</ele>
        <time>2017-11-15T11:28:05Z</time>
      </trkpt>
      <trkpt lat="43.64402" lon="3.81769">
        <ele>118.7</ele>
        <time>2017-11-15T11:28:07Z</time>
      </trkpt>
      <trkpt lat="43.644" lon="3.81766">
        <ele>118.7</ele>
        <time>2017-11-15T11:28:08Z</time>
      </trkpt>
      <trkpt lat="43.64398" lon="3.81764">
        <ele>118.7</ele>
        <time>2017-11-15T11:28:09Z</time>
      </trkpt>
      <trkpt lat="43.64395" lon="3.81761">
        <ele>118.8</ele>
        <time>2017-11-15T11:28:10Z</time>
      </trkpt>
      <trkpt lat="43.64393" lon="3.81757">
        <ele>118.8</ele>
        <time>2017-11-15T11:28:11Z</time>
      </trkpt>
      <trkpt lat="43.64391" lon="3.81752">
        <ele>118.8</ele>
        <time>2017-11-15T11:28:12Z</time>
      </trkpt>
      <trkpt lat="43.64388" lon="3.81748">
        <ele>118.8</ele>
        <time>2017-11-15T11:28:13Z</time>
      </trkpt>
      <trkpt lat="43.64385" lon="3.81743">
        <ele>118.9</ele>
        <time>2017-11-15T11:28:14Z</time>
      </trkpt>
      <trkpt lat="43.64382" lon="3.81739">
        <ele>118.9</ele>
        <time>2017-11-15T11:28:15Z</time>
      </trkpt>
      <trkpt lat="43.64381" lon="3.81734">
        <ele>118.9</ele>
        <time>2017-11-15T11:28:16Z</time>
      </trkpt>
      <trkpt lat="43.64379" lon="3.8173">
        <ele>118.9</ele>
        <time>2017-11-15T11:28:17Z</time>
      </trkpt>
      <trkpt lat="43.64377" lon="3.81726">
        <ele>118.9</ele>
        <time>2017-11-15T11:28:18Z</time>
      </trkpt>
      <trkpt lat="43.64375" lon="3.81722">
        <ele>119</ele>
        <time>2017-11-15T11:28:19Z</time>
      </trkpt>
      <trkpt lat="43.64374" lon="3.81719">
        <ele>119</ele>
        <time>2017-11-15T11:28:20Z</time>
      </trkpt>
      <trkpt lat="43.64373" lon="3.81714">
        <ele>119.1</ele>
        <time>2017-11-15T11:28:21Z</time>
      </trkpt>
      <trkpt lat="43.64372" lon="3.81709">
        <ele>119.3</ele>
        <time>2017-11-15T11:28:22Z</time>
      </trkpt>
      <trkpt lat="43.6437" lon="3.81704">
        <ele>119.5</ele>
        <time>2017-11-15T11:28:23Z</time>
      </trkpt>
      <trkpt lat="43.6437" lon="3.817">
        <ele>119.7</ele>
        <time>2017-11-15T11:28:24Z</time>
      </trkpt>
      <trkpt lat="43.64369" lon="3.81695">
        <ele>119.8</ele>
        <time>2017-11-15T11:28:25Z</time>
      </trkpt>
      <trkpt lat="43.64369" lon="3.81691">
        <ele>119.8</ele>
        <time>2017-11-15T11:28:26Z</time>
      </trkpt>
      <trkpt lat="43.64368" lon="3.81687">
        <ele>119.9</ele>
        <time>2017-11-15T11:28:27Z</time>
      </trkpt>
      <trkpt lat="43.64366" lon="3.81683">
        <ele>120</ele>
        <time>2017-11-15T11:28:28Z</time>
      </trkpt>
      <trkpt lat="43.64365" lon="3.81679">
        <ele>120</ele>
        <time>2017-11-15T11:28:29Z</time>
      </trkpt>
      <trkpt lat="43.64363" lon="3.81675">
        <ele>120.1</ele>
        <time>2017-11-15T11:28:30Z</time>
      </trkpt>
      <trkpt lat="43.64362" lon="3.81671">
        <ele>120.2</ele>
        <time>2017-11-15T11:28:31Z</time>
      </trkpt>
      <trkpt lat="43.64361" lon="3.81667">
        <ele>120.2</ele>
        <time>2017-11-15T11:28:32Z</time>
      </trkpt>
      <trkpt lat="43.64359" lon="3.81664">
        <ele>120.3</ele>
        <time>2017-11-15T11:28:33Z</time>
      </trkpt>
      <trkpt lat="43.64357" lon="3.81659">
        <ele>120.4</ele>
        <time>2017-11-15T11:28:34Z</time>
      </trkpt>
      <trkpt lat="43.64355" lon="3.81654">
        <ele>120.4</ele>
        <time>2017-11-15T11:28:35Z</time>
      </trkpt>
      <trkpt lat="43.64353" lon="3.8165">
        <ele>120.5</ele>
        <time>2017-11-15T11:28:36Z</time>
      </trkpt>
      <trkpt lat="43.64352" lon="3.81647">
        <ele>120.6</ele>
        <time>2017-11-15T11:28:37Z</time>
      </trkpt>
      <trkpt lat="43.64351" lon="3.81643">
        <ele>120.6</ele>
        <time>2017-11-15T11:28:38Z</time>
      </trkpt>
      <trkpt lat="43.64349" lon="3.81639">
        <ele>120.7</ele>
        <time>2017-11-15T11:28:39Z</time>
      </trkpt>
      <trkpt lat="43.64348" lon="3.81635">
        <ele>120.7</ele>
        <time>2017-11-15T11:28:40Z</time>
      </trkpt>
      <trkpt lat="43.64346" lon="3.81632">
        <ele>120.8</ele>
        <time>2017-11-15T11:28:41Z</time>
      </trkpt>
      <trkpt lat="43.64345" lon="3.81627">
        <ele>120.9</ele>
        <time>2017-11-15T11:28:42Z</time>
      </trkpt>
      <trkpt lat="43.64343" lon="3.81622">
        <ele>120.9</ele>
        <time>2017-11-15T11:28:43Z</time>
      </trkpt>
      <trkpt lat="43.64341" lon="3.81616">
        <ele>121</ele>
        <time>2017-11-15T11:28:44Z</time>
      </trkpt>
      <trkpt lat="43.64339" lon="3.81611">
        <ele>121</ele>
        <time>2017-11-15T11:28:45Z</time>
      </trkpt>
      <trkpt lat="43.64338" lon="3.81606">
        <ele>121</ele>
        <time>2017-11-15T11:28:46Z</time>
      </trkpt>
      <trkpt lat="43.64337" lon="3.81602">
        <ele>121</ele>
        <time>2017-11-15T11:28:47Z</time>
      </trkpt>
      <trkpt lat="43.64336" lon="3.81598">
        <ele>121</ele>
        <time>2017-11-15T11:28:48Z</time>
      </trkpt>
      <trkpt lat="43.64334" lon="3.81594">
        <ele>121</ele>
        <time>2017-11-15T11:28:49Z</time>
      </trkpt>
      <trkpt lat="43.64332" lon="3.8159">
        <ele>121</ele>
        <time>2017-11-15T11:28:50Z</time>
      </trkpt>
      <trkpt lat="43.6433" lon="3.81585">
        <ele>120.9</ele>
        <time>2017-11-15T11:28:51Z</time>
      </trkpt>
      <trkpt lat="43.64328" lon="3.81581">
        <ele>120.8</ele>
        <time>2017-11-15T11:28:52Z</time>
      </trkpt>
      <trkpt lat="43.64327" lon="3.81577">
        <ele>120.8</ele>
        <time>2017-11-15T11:28:53Z</time>
      </trkpt>
      <trkpt lat="43.64326" lon="3.81572">
        <ele>120.6</ele>
        <time>2017-11-15T11:28:54Z</time>
      </trkpt>
      <trkpt lat="43.64325" lon="3.81567">
        <ele>120.5</ele>
        <time>2017-11-15T11:28:55Z</time>
      </trkpt>
      <trkpt lat="43.64324" lon="3.81562">
        <ele>120.4</ele>
        <time>2017-11-15T11:28:56Z</time>
      </trkpt>
      <trkpt lat="43.64323" lon="3.81556">
        <ele>120.3</ele>
        <time>2017-11-15T11:28:57Z</time>
      </trkpt>
      <trkpt lat="43.64321" lon="3.81549">
        <ele>120.2</ele>
        <time>2017-11-15T11:28:58Z</time>
      </trkpt>
      <trkpt lat="43.6432" lon="3.81542">
        <ele>120</ele>
        <time>2017-11-15T11:28:59Z</time>
      </trkpt>
      <trkpt lat="43.64319" lon="3.81536">
        <ele>119.9</ele>
        <time>2017-11-15T11:29:00Z</time>
      </trkpt>
      <trkpt lat="43.64318" lon="3.81529">
        <ele>119.8</ele>
        <time>2017-11-15T11:29:01Z</time>
      </trkpt>
      <trkpt lat="43.64316" lon="3.81521">
        <ele>119.7</ele>
        <time>2017-11-15T11:29:02Z</time>
      </trkpt>
      <trkpt lat="43.64315" lon="3.81513">
        <ele>119.7</ele>
        <time>2017-11-15T11:29:03Z</time>
      </trkpt>
      <trkpt lat="43.64314" lon="3.81505">
        <ele>119.6</ele>
        <time>2017-11-15T11:29:04Z</time>
      </trkpt>
      <trkpt lat="43.64312" lon="3.81497">
        <ele>119.5</ele>
        <time>2017-11-15T11:29:05Z</time>
      </trkpt>
      <trkpt lat="43.6431" lon="3.8149">
        <ele>119.3</ele>
        <time>2017-11-15T11:29:06Z</time>
      </trkpt>
      <trkpt lat="43.64308" lon="3.81482">
        <ele>119.2</ele>
        <time>2017-11-15T11:29:07Z</time>
      </trkpt>
      <trkpt lat="43.64305" lon="3.81474">
        <ele>119</ele>
        <time>2017-11-15T11:29:08Z</time>
      </trkpt>
      <trkpt lat="43.64303" lon="3.81466">
        <ele>118.8</ele>
        <time>2017-11-15T11:29:09Z</time>
      </trkpt>
      <trkpt lat="43.64301" lon="3.81458">
        <ele>118.6</ele>
        <time>2017-11-15T11:29:10Z</time>
      </trkpt>
      <trkpt lat="43.64298" lon="3.8145">
        <ele>118.3</ele>
        <time>2017-11-15T11:29:11Z</time>
      </trkpt>
      <trkpt lat="43.64295" lon="3.81443">
        <ele>118.1</ele>
        <time>2017-11-15T11:29:12Z</time>
      </trkpt>
      <trkpt lat="43.64292" lon="3.81435">
        <ele>117.8</ele>
        <time>2017-11-15T11:29:13Z</time>
      </trkpt>
      <trkpt lat="43.64289" lon="3.81426">
        <ele>117.5</ele>
        <time>2017-11-15T11:29:14Z</time>
      </trkpt>
      <trkpt lat="43.64287" lon="3.81416">
        <ele>117</ele>
        <time>2017-11-15T11:29:15Z</time>
      </trkpt>
      <trkpt lat="43.64284" lon="3.81407">
        <ele>116.7</ele>
        <time>2017-11-15T11:29:16Z</time>
      </trkpt>
      <trkpt lat="43.64281" lon="3.81399">
        <ele>116.4</ele>
        <time>2017-11-15T11:29:17Z</time>
      </trkpt>
      <trkpt lat="43.64277" lon="3.81392">
        <ele>116.1</ele>
        <time>2017-11-15T11:29:18Z</time>
      </trkpt>
      <trkpt lat="43.64274" lon="3.81384">
        <ele>115.8</ele>
        <time>2017-11-15T11:29:19Z</time>
      </trkpt>
      <trkpt lat="43.64271" lon="3.81375">
        <ele>115.4</ele>
        <time>2017-11-15T11:29:20Z</time>
      </trkpt>
      <trkpt lat="43.64267" lon="3.81366">
        <ele>115.1</ele>
        <time>2017-11-15T11:29:21Z</time>
      </trkpt>
      <trkpt lat="43.64264" lon="3.81357">
        <ele>114.9</ele>
        <time>2017-11-15T11:29:22Z</time>
      </trkpt>
      <trkpt lat="43.6426" lon="3.81349">
        <ele>114.6</ele>
        <time>2017-11-15T11:29:23Z</time>
      </trkpt>
      <trkpt lat="43.64256" lon="3.81342">
        <ele>114.5</ele>
        <time>2017-11-15T11:29:24Z</time>
      </trkpt>
      <trkpt lat="43.64252" lon="3.81334">
        <ele>114.4</ele>
        <time>2017-11-15T11:29:25Z</time>
      </trkpt>
      <trkpt lat="43.64248" lon="3.81327">
        <ele>114.4</ele>
        <time>2017-11-15T11:29:26Z</time>
      </trkpt>
      <trkpt lat="43.64244" lon="3.81321">
        <ele>114.3</ele>
        <time>2017-11-15T11:29:27Z</time>
      </trkpt>
      <trkpt lat="43.6424" lon="3.81315">
        <ele>114.2</ele>
        <time>2017-11-15T11:29:28Z</time>
      </trkpt>
      <trkpt lat="43.64235" lon="3.81309">
        <ele>114.2</ele>
        <time>2017-11-15T11:29:29Z</time>
      </trkpt>
      <trkpt lat="43.6423" lon="3.81303">
        <ele>114.2</ele>
        <time>2017-11-15T11:29:30Z</time>
      </trkpt>
      <trkpt lat="43.64226" lon="3.81296">
        <ele>114.1</ele>
        <time>2017-11-15T11:29:31Z</time>
      </trkpt>
      <trkpt lat="43.64222" lon="3.81289">
        <ele>114.1</ele>
        <time>2017-11-15T11:29:32Z</time>
      </trkpt>
      <trkpt lat="43.64218" lon="3.81283">
        <ele>114.1</ele>
        <time>2017-11-15T11:29:33Z</time>
      </trkpt>
      <trkpt lat="43.64214" lon="3.81276">
        <ele>114</ele>
        <time>2017-11-15T11:29:34Z</time>
      </trkpt>
      <trkpt lat="43.6421" lon="3.8127">
        <ele>114</ele>
        <time>2017-11-15T11:29:35Z</time>
      </trkpt>
      <trkpt lat="43.64207" lon="3.81264">
        <ele>114</ele>
        <time>2017-11-15T11:29:36Z</time>
      </trkpt>
      <trkpt lat="43.64203" lon="3.81258">
        <ele>114</ele>
        <time>2017-11-15T11:29:37Z</time>
      </trkpt>
      <trkpt lat="43.64198" lon="3.81251">
        <ele>114.1</ele>
        <time>2017-11-15T11:29:38Z</time>
      </trkpt>
      <trkpt lat="43.64195" lon="3.81245">
        <ele>114.1</ele>
        <time>2017-11-15T11:29:39Z</time>
      </trkpt>
      <trkpt lat="43.64191" lon="3.81239">
        <ele>114.1</ele>
        <time>2017-11-15T11:29:40Z</time>
      </trkpt>
      <trkpt lat="43.64188" lon="3.81233">
        <ele>114.1</ele>
        <time>2017-11-15T11:29:41Z</time>
      </trkpt>
      <trkpt lat="43.64184" lon="3.81227">
        <ele>114</ele>
        <time>2017-11-15T11:29:42Z</time>
      </trkpt>
      <trkpt lat="43.6418" lon="3.81221">
        <ele>114</ele>
        <time>2017-11-15T11:29:43Z</time>
      </trkpt>
      <trkpt lat="43.64176" lon="3.81216">
        <ele>114</ele>
        <time>2017-11-15T11:29:44Z</time>
      </trkpt>
      <trkpt lat="43.64173" lon="3.8121">
        <ele>113.9</ele>
        <time>2017-11-15T11:29:45Z</time>
      </trkpt>
      <trkpt lat="43.64169" lon="3.81205">
        <ele>113.9</ele>
        <time>2017-11-15T11:29:46Z</time>
      </trkpt>
      <trkpt lat="43.64165" lon="3.81199">
        <ele>113.9</ele>
        <time>2017-11-15T11:29:47Z</time>
      </trkpt>
      <trkpt lat="43.64161" lon="3.81194">
        <ele>113.8</ele>
        <time>2017-11-15T11:29:48Z</time>
      </trkpt>
      <trkpt lat="43.64156" lon="3.81189">
        <ele>113.7</ele>
        <time>2017-11-15T11:29:49Z</time>
      </trkpt>
      <trkpt lat="43.64152" lon="3.81184">
        <ele>113.6</ele>
        <time>2017-11-15T11:29:50Z</time>
      </trkpt>
      <trkpt lat="43.64148" lon="3.81179">
        <ele>113.6</ele>
        <time>2017-11-15T11:29:51Z</time>
      </trkpt>
      <trkpt lat="43.64143" lon="3.81174">
        <ele>113.5</ele>
        <time>2017-11-15T11:29:52Z</time>
      </trkpt>
      <trkpt lat="43.64139" lon="3.8117">
        <ele>113.4</ele>
        <time>2017-11-15T11:29:53Z</time>
      </trkpt>
      <trkpt lat="43.64135" lon="3.81167">
        <ele>113.4</ele>
        <time>2017-11-15T11:29:54Z</time>
      </trkpt>
      <trkpt lat="43.6413" lon="3.81161">
        <ele>113.3</ele>
        <time>2017-11-15T11:29:55Z</time>
      </trkpt>
      <trkpt lat="43.64125" lon="3.81155">
        <ele>113.3</ele>
        <time>2017-11-15T11:29:56Z</time>
      </trkpt>
      <trkpt lat="43.6412" lon="3.81149">
        <ele>113.2</ele>
        <time>2017-11-15T11:29:57Z</time>
      </trkpt>
      <trkpt lat="43.64115" lon="3.81144">
        <ele>113.2</ele>
        <time>2017-11-15T11:29:58Z</time>
      </trkpt>
      <trkpt lat="43.64111" lon="3.81138">
        <ele>113.2</ele>
        <time>2017-11-15T11:29:59Z</time>
      </trkpt>
      <trkpt lat="43.64106" lon="3.81133">
        <ele>113.1</ele>
        <time>2017-11-15T11:30:00Z</time>
      </trkpt>
      <trkpt lat="43.64102" lon="3.81127">
        <ele>113.1</ele>
        <time>2017-11-15T11:30:01Z</time>
      </trkpt>
      <trkpt lat="43.64098" lon="3.81121">
        <ele>113.1</ele>
        <time>2017-11-15T11:30:02Z</time>
      </trkpt>
      <trkpt lat="43.64095" lon="3.81118">
        <ele>113.1</ele>
        <time>2017-11-15T11:30:03Z</time>
      </trkpt>
      <trkpt lat="43.64091" lon="3.81114">
        <ele>113</ele>
        <time>2017-11-15T11:30:04Z</time>
      </trkpt>
      <trkpt lat="43.64087" lon="3.81111">
        <ele>113</ele>
        <time>2017-11-15T11:30:05Z</time>
      </trkpt>
      <trkpt lat="43.64084" lon="3.81107">
        <ele>113</ele>
        <time>2017-11-15T11:30:06Z</time>
      </trkpt>
      <trkpt lat="43.64082" lon="3.81104">
        <ele>113</ele>
        <time>2017-11-15T11:30:07Z</time>
      </trkpt>
      <trkpt lat="43.64082" lon="3.81099">
        <ele>112.9</ele>
        <time>2017-11-15T11:30:08Z</time>
      </trkpt>
      <trkpt lat="43.64083" lon="3.81091">
        <ele>111.6</ele>
        <time>2017-11-15T11:30:09Z</time>
      </trkpt>
      <trkpt lat="43.64085" lon="3.81085">
        <ele>110.2</ele>
        <time>2017-11-15T11:30:10Z</time>
      </trkpt>
      <trkpt lat="43.64088" lon="3.81078">
        <ele>108.5</ele>
        <time>2017-11-15T11:30:11Z</time>
      </trkpt>
      <trkpt lat="43.64092" lon="3.81071">
        <ele>106.9</ele>
        <time>2017-11-15T11:30:12Z</time>
      </trkpt>
      <trkpt lat="43.64096" lon="3.81061">
        <ele>105.5</ele>
        <time>2017-11-15T11:30:13Z</time>
      </trkpt>
      <trkpt lat="43.64102" lon="3.81049">
        <ele>103.6</ele>
        <time>2017-11-15T11:30:14Z</time>
      </trkpt>
      <trkpt lat="43.64107" lon="3.81038">
        <ele>101.8</ele>
        <time>2017-11-15T11:30:15Z</time>
      </trkpt>
      <trkpt lat="43.6411" lon="3.81026">
        <ele>100.6</ele>
        <time>2017-11-15T11:30:16Z</time>
      </trkpt>
      <trkpt lat="43.64113" lon="3.81013">
        <ele>99.3</ele>
        <time>2017-11-15T11:30:17Z</time>
      </trkpt>
      <trkpt lat="43.64117" lon="3.81002">
        <ele>98.1</ele>
        <time>2017-11-15T11:30:18Z</time>
      </trkpt>
      <trkpt lat="43.64124" lon="3.80992">
        <ele>96.5</ele>
        <time>2017-11-15T11:30:19Z</time>
      </trkpt>
      <trkpt lat="43.64132" lon="3.80982">
        <ele>94.4</ele>
        <time>2017-11-15T11:30:20Z</time>
      </trkpt>
      <trkpt lat="43.64138" lon="3.80972">
        <ele>95</ele>
        <time>2017-11-15T11:30:21Z</time>
      </trkpt>
      <trkpt lat="43.64142" lon="3.80961">
        <ele>96</ele>
        <time>2017-11-15T11:30:22Z</time>
      </trkpt>
      <trkpt lat="43.64145" lon="3.80954">
        <ele>97.5</ele>
        <time>2017-11-15T11:30:23Z</time>
      </trkpt>
      <trkpt lat="43.64148" lon="3.80947">
        <ele>99.2</ele>
        <time>2017-11-15T11:30:24Z</time>
      </trkpt>
      <trkpt lat="43.64151" lon="3.80941">
        <ele>100.1</ele>
        <time>2017-11-15T11:30:25Z</time>
      </trkpt>
      <trkpt lat="43.64155" lon="3.80935">
        <ele>100.7</ele>
        <time>2017-11-15T11:30:26Z</time>
      </trkpt>
      <trkpt lat="43.64158" lon="3.80931">
        <ele>101</ele>
        <time>2017-11-15T11:30:27Z</time>
      </trkpt>
      <trkpt lat="43.64162" lon="3.80928">
        <ele>101.2</ele>
        <time>2017-11-15T11:30:28Z</time>
      </trkpt>
      <trkpt lat="43.64167" lon="3.80923">
        <ele>101.2</ele>
        <time>2017-11-15T11:30:29Z</time>
      </trkpt>
      <trkpt lat="43.64172" lon="3.80917">
        <ele>101.1</ele>
        <time>2017-11-15T11:30:30Z</time>
      </trkpt>
      <trkpt lat="43.64176" lon="3.8091">
        <ele>100.9</ele>
        <time>2017-11-15T11:30:31Z</time>
      </trkpt>
      <trkpt lat="43.64179" lon="3.80903">
        <ele>100</ele>
        <time>2017-11-15T11:30:32Z</time>
      </trkpt>
      <trkpt lat="43.64181" lon="3.80898">
        <ele>99.5</ele>
        <time>2017-11-15T11:30:33Z</time>
      </trkpt>
      <trkpt lat="43.64182" lon="3.80893">
        <ele>99.1</ele>
        <time>2017-11-15T11:30:34Z</time>
      </trkpt>
      <trkpt lat="43.6418" lon="3.80889">
        <ele>98.8</ele>
        <time>2017-11-15T11:30:35Z</time>
      </trkpt>
      <trkpt lat="43.64178" lon="3.80885">
        <ele>98.4</ele>
        <time>2017-11-15T11:30:36Z</time>
      </trkpt>
      <trkpt lat="43.64175" lon="3.80879">
        <ele>97.8</ele>
        <time>2017-11-15T11:30:37Z</time>
      </trkpt>
      <trkpt lat="43.64172" lon="3.80871">
        <ele>97</ele>
        <time>2017-11-15T11:30:38Z</time>
      </trkpt>
      <trkpt lat="43.6417" lon="3.80861">
        <ele>96.2</ele>
        <time>2017-11-15T11:30:39Z</time>
      </trkpt>
      <trkpt lat="43.64168" lon="3.80851">
        <ele>95.5</ele>
        <time>2017-11-15T11:30:40Z</time>
      </trkpt>
      <trkpt lat="43.64166" lon="3.8084">
        <ele>94.8</ele>
        <time>2017-11-15T11:30:41Z</time>
      </trkpt>
      <trkpt lat="43.64164" lon="3.80832">
        <ele>94.2</ele>
        <time>2017-11-15T11:30:42Z</time>
      </trkpt>
      <trkpt lat="43.64163" lon="3.80823">
        <ele>93.8</ele>
        <time>2017-11-15T11:30:43Z</time>
      </trkpt>
      <trkpt lat="43.64162" lon="3.80813">
        <ele>93.4</ele>
        <time>2017-11-15T11:30:44Z</time>
      </trkpt>
      <trkpt lat="43.64163" lon="3.80804">
        <ele>93</ele>
        <time>2017-11-15T11:30:45Z</time>
      </trkpt>
      <trkpt lat="43.64163" lon="3.80795">
        <ele>92.3</ele>
        <time>2017-11-15T11:30:46Z</time>
      </trkpt>
      <trkpt lat="43.64162" lon="3.80787">
        <ele>91.7</ele>
        <time>2017-11-15T11:30:47Z</time>
      </trkpt>
      <trkpt lat="43.64161" lon="3.80779">
        <ele>91</ele>
        <time>2017-11-15T11:30:48Z</time>
      </trkpt>
      <trkpt lat="43.6416" lon="3.80769">
        <ele>89.7</ele>
        <time>2017-11-15T11:30:49Z</time>
      </trkpt>
      <trkpt lat="43.64159" lon="3.80757">
        <ele>88</ele>
        <time>2017-11-15T11:30:50Z</time>
      </trkpt>
      <trkpt lat="43.64158" lon="3.80744">
        <ele>86.2</ele>
        <time>2017-11-15T11:30:51Z</time>
      </trkpt>
      <trkpt lat="43.64158" lon="3.8073">
        <ele>84.4</ele>
        <time>2017-11-15T11:30:52Z</time>
      </trkpt>
      <trkpt lat="43.64157" lon="3.80715">
        <ele>82.5</ele>
        <time>2017-11-15T11:30:53Z</time>
      </trkpt>
      <trkpt lat="43.64155" lon="3.80701">
        <ele>80.7</ele>
        <time>2017-11-15T11:30:54Z</time>
      </trkpt>
      <trkpt lat="43.64153" lon="3.80688">
        <ele>78.9</ele>
        <time>2017-11-15T11:30:55Z</time>
      </trkpt>
      <trkpt lat="43.64152" lon="3.80673">
        <ele>77</ele>
        <time>2017-11-15T11:30:56Z</time>
      </trkpt>
      <trkpt lat="43.64151" lon="3.80659">
        <ele>75.4</ele>
        <time>2017-11-15T11:30:57Z</time>
      </trkpt>
      <trkpt lat="43.64149" lon="3.80647">
        <ele>73.9</ele>
        <time>2017-11-15T11:30:58Z</time>
      </trkpt>
      <trkpt lat="43.64146" lon="3.80637">
        <ele>72.8</ele>
        <time>2017-11-15T11:30:59Z</time>
      </trkpt>
      <trkpt lat="43.64141" lon="3.8063">
        <ele>72.5</ele>
        <time>2017-11-15T11:31:00Z</time>
      </trkpt>
      <trkpt lat="43.64136" lon="3.80626">
        <ele>72.3</ele>
        <time>2017-11-15T11:31:01Z</time>
      </trkpt>
      <trkpt lat="43.64133" lon="3.8062">
        <ele>72.1</ele>
        <time>2017-11-15T11:31:02Z</time>
      </trkpt>
      <trkpt lat="43.64128" lon="3.80618">
        <ele>71.9</ele>
        <time>2017-11-15T11:31:03Z</time>
      </trkpt>
      <trkpt lat="43.64124" lon="3.80614">
        <ele>71.6</ele>
        <time>2017-11-15T11:31:04Z</time>
      </trkpt>
      <trkpt lat="43.64121" lon="3.80612">
        <ele>71.3</ele>
        <time>2017-11-15T11:31:05Z</time>
      </trkpt>
      <trkpt lat="43.64117" lon="3.80611">
        <ele>70.9</ele>
        <time>2017-11-15T11:31:06Z</time>
      </trkpt>
      <trkpt lat="43.64114" lon="3.80611">
        <ele>70.4</ele>
        <time>2017-11-15T11:31:07Z</time>
      </trkpt>
      <trkpt lat="43.64109" lon="3.80611">
        <ele>69.9</ele>
        <time>2017-11-15T11:31:09Z</time>
      </trkpt>
      <trkpt lat="43.64105" lon="3.80613">
        <ele>69.3</ele>
        <time>2017-11-15T11:31:10Z</time>
      </trkpt>
      <trkpt lat="43.64101" lon="3.80616">
        <ele>68.7</ele>
        <time>2017-11-15T11:31:11Z</time>
      </trkpt>
      <trkpt lat="43.64096" lon="3.8062">
        <ele>68.2</ele>
        <time>2017-11-15T11:31:12Z</time>
      </trkpt>
      <trkpt lat="43.64091" lon="3.80621">
        <ele>67.7</ele>
        <time>2017-11-15T11:31:13Z</time>
      </trkpt>
      <trkpt lat="43.64087" lon="3.80621">
        <ele>67.2</ele>
        <time>2017-11-15T11:31:14Z</time>
      </trkpt>
      <trkpt lat="43.64083" lon="3.80622">
        <ele>66.7</ele>
        <time>2017-11-15T11:31:15Z</time>
      </trkpt>
      <trkpt lat="43.6408" lon="3.80623">
        <ele>66.4</ele>
        <time>2017-11-15T11:31:16Z</time>
      </trkpt>
      <trkpt lat="43.64077" lon="3.80621">
        <ele>66.1</ele>
        <time>2017-11-15T11:31:17Z</time>
      </trkpt>
      <trkpt lat="43.64074" lon="3.80621">
        <ele>65.9</ele>
        <time>2017-11-15T11:31:18Z</time>
      </trkpt>
      <trkpt lat="43.6407" lon="3.80622">
        <ele>65.8</ele>
        <time>2017-11-15T11:31:19Z</time>
      </trkpt>
      <trkpt lat="43.64066" lon="3.80626">
        <ele>65.9</ele>
        <time>2017-11-15T11:31:20Z</time>
      </trkpt>
      <trkpt lat="43.64062" lon="3.80629">
        <ele>65.9</ele>
        <time>2017-11-15T11:31:21Z</time>
      </trkpt>
      <trkpt lat="43.64056" lon="3.8063">
        <ele>66.1</ele>
        <time>2017-11-15T11:31:22Z</time>
      </trkpt>
      <trkpt lat="43.64051" lon="3.80631">
        <ele>66.1</ele>
        <time>2017-11-15T11:31:23Z</time>
      </trkpt>
      <trkpt lat="43.64045" lon="3.80632">
        <ele>66.1</ele>
        <time>2017-11-15T11:31:24Z</time>
      </trkpt>
      <trkpt lat="43.6404" lon="3.80634">
        <ele>66</ele>
        <time>2017-11-15T11:31:25Z</time>
      </trkpt>
      <trkpt lat="43.64035" lon="3.80638">
        <ele>65.8</ele>
        <time>2017-11-15T11:31:26Z</time>
      </trkpt>
      <trkpt lat="43.6403" lon="3.80642">
        <ele>65.6</ele>
        <time>2017-11-15T11:31:27Z</time>
      </trkpt>
      <trkpt lat="43.64024" lon="3.80645">
        <ele>65.3</ele>
        <time>2017-11-15T11:31:28Z</time>
      </trkpt>
      <trkpt lat="43.64019" lon="3.80648">
        <ele>65.1</ele>
        <time>2017-11-15T11:31:29Z</time>
      </trkpt>
      <trkpt lat="43.64013" lon="3.80651">
        <ele>64.8</ele>
        <time>2017-11-15T11:31:30Z</time>
      </trkpt>
      <trkpt lat="43.64007" lon="3.80654">
        <ele>64.6</ele>
        <time>2017-11-15T11:31:31Z</time>
      </trkpt>
      <trkpt lat="43.64002" lon="3.80655">
        <ele>64.3</ele>
        <time>2017-11-15T11:31:32Z</time>
      </trkpt>
      <trkpt lat="43.63996" lon="3.80659">
        <ele>63.9</ele>
        <time>2017-11-15T11:31:33Z</time>
      </trkpt>
      <trkpt lat="43.6399" lon="3.8066">
        <ele>63.4</ele>
        <time>2017-11-15T11:31:34Z</time>
      </trkpt>
      <trkpt lat="43.63983" lon="3.80662">
        <ele>62.8</ele>
        <time>2017-11-15T11:31:35Z</time>
      </trkpt>
      <trkpt lat="43.63975" lon="3.80664">
        <ele>61.9</ele>
        <time>2017-11-15T11:31:36Z</time>
      </trkpt>
      <trkpt lat="43.63967" lon="3.80665">
        <ele>61.3</ele>
        <time>2017-11-15T11:31:37Z</time>
      </trkpt>
      <trkpt lat="43.6396" lon="3.80666">
        <ele>60.8</ele>
        <time>2017-11-15T11:31:38Z</time>
      </trkpt>
      <trkpt lat="43.63956" lon="3.80666">
        <ele>60.6</ele>
        <time>2017-11-15T11:31:39Z</time>
      </trkpt>
      <trkpt lat="43.63954" lon="3.80669">
        <ele>60.4</ele>
        <time>2017-11-15T11:31:40Z</time>
      </trkpt>
      <trkpt lat="43.6395" lon="3.80672">
        <ele>60.2</ele>
        <time>2017-11-15T11:31:41Z</time>
      </trkpt>
      <trkpt lat="43.63945" lon="3.80673">
        <ele>59.9</ele>
        <time>2017-11-15T11:31:42Z</time>
      </trkpt>
      <trkpt lat="43.63938" lon="3.80672">
        <ele>59.5</ele>
        <time>2017-11-15T11:31:43Z</time>
      </trkpt>
      <trkpt lat="43.63931" lon="3.80673">
        <ele>59</ele>
        <time>2017-11-15T11:31:44Z</time>
      </trkpt>
      <trkpt lat="43.63924" lon="3.80672">
        <ele>58.5</ele>
        <time>2017-11-15T11:31:45Z</time>
      </trkpt>
      <trkpt lat="43.63918" lon="3.80673">
        <ele>58.1</ele>
        <time>2017-11-15T11:31:46Z</time>
      </trkpt>
      <trkpt lat="43.63913" lon="3.80677">
        <ele>57</ele>
        <time>2017-11-15T11:31:47Z</time>
      </trkpt>
      <trkpt lat="43.63909" lon="3.80682">
        <ele>57</ele>
        <time>2017-11-15T11:31:48Z</time>
      </trkpt>
      <trkpt lat="43.63907" lon="3.80688">
        <ele>57</ele>
        <time>2017-11-15T11:31:49Z</time>
      </trkpt>
      <trkpt lat="43.63907" lon="3.80692">
        <ele>57</ele>
        <time>2017-11-15T11:31:50Z</time>
      </trkpt>
      <trkpt lat="43.63909" lon="3.80697">
        <ele>57</ele>
        <time>2017-11-15T11:31:51Z</time>
      </trkpt>
      <trkpt lat="43.6391" lon="3.80703">
        <ele>57</ele>
        <time>2017-11-15T11:31:52Z</time>
      </trkpt>
      <trkpt lat="43.63907" lon="3.80707">
        <ele>57</ele>
        <time>2017-11-15T11:31:53Z</time>
      </trkpt>
      <trkpt lat="43.63903" lon="3.80706">
        <ele>57</ele>
        <time>2017-11-15T11:31:54Z</time>
      </trkpt>
      <trkpt lat="43.63898" lon="3.80707">
        <ele>57</ele>
        <time>2017-11-15T11:31:55Z</time>
      </trkpt>
      <trkpt lat="43.63896" lon="3.80709">
        <ele>57</ele>
        <time>2017-11-15T11:31:56Z</time>
      </trkpt>
      <trkpt lat="43.63893" lon="3.80712">
        <ele>57</ele>
        <time>2017-11-15T11:31:57Z</time>
      </trkpt>
      <trkpt lat="43.6389" lon="3.80715">
        <ele>57</ele>
        <time>2017-11-15T11:31:58Z</time>
      </trkpt>
      <trkpt lat="43.63883" lon="3.80718">
        <ele>57</ele>
        <time>2017-11-15T11:32:04Z</time>
      </trkpt>
      <trkpt lat="43.63855" lon="3.80743">
        <ele>56.7</ele>
        <time>2017-11-15T11:33:32Z</time>
      </trkpt>
      <trkpt lat="43.63852" lon="3.80742">
        <ele>56.8</ele>
        <time>2017-11-15T11:33:34Z</time>
      </trkpt>
      <trkpt lat="43.63848" lon="3.80741">
        <ele>56.8</ele>
        <time>2017-11-15T11:33:36Z</time>
      </trkpt>
      <trkpt lat="43.63844" lon="3.80739">
        <ele>56.9</ele>
        <time>2017-11-15T11:33:41Z</time>
      </trkpt>
      <trkpt lat="43.6384" lon="3.80737">
        <ele>56.9</ele>
        <time>2017-11-15T11:33:43Z</time>
      </trkpt>
      <trkpt lat="43.63835" lon="3.80737">
        <ele>56.9</ele>
        <time>2017-11-15T11:33:45Z</time>
      </trkpt>
      <trkpt lat="43.6383" lon="3.80738">
        <ele>57</ele>
        <time>2017-11-15T11:33:47Z</time>
      </trkpt>
      <trkpt lat="43.63826" lon="3.80739">
        <ele>57</ele>
        <time>2017-11-15T11:33:49Z</time>
      </trkpt>
      <trkpt lat="43.63822" lon="3.8074">
        <ele>57.1</ele>
        <time>2017-11-15T11:33:51Z</time>
      </trkpt>
      <trkpt lat="43.63819" lon="3.80741">
        <ele>57.3</ele>
        <time>2017-11-15T11:33:52Z</time>
      </trkpt>
      <trkpt lat="43.63817" lon="3.80742">
        <ele>57.3</ele>
        <time>2017-11-15T11:33:53Z</time>
      </trkpt>
      <trkpt lat="43.63812" lon="3.80743">
        <ele>57.5</ele>
        <time>2017-11-15T11:33:55Z</time>
      </trkpt>
      <trkpt lat="43.63807" lon="3.80745">
        <ele>57.7</ele>
        <time>2017-11-15T11:33:57Z</time>
      </trkpt>
      <trkpt lat="43.63803" lon="3.80747">
        <ele>57.6</ele>
        <time>2017-11-15T11:33:59Z</time>
      </trkpt>
      <trkpt lat="43.63798" lon="3.80747">
        <ele>57.5</ele>
        <time>2017-11-15T11:34:01Z</time>
      </trkpt>
      <trkpt lat="43.63793" lon="3.80744">
        <ele>57.2</ele>
        <time>2017-11-15T11:34:03Z</time>
      </trkpt>
      <trkpt lat="43.63789" lon="3.80741">
        <ele>57.1</ele>
        <time>2017-11-15T11:34:05Z</time>
      </trkpt>
      <trkpt lat="43.63786" lon="3.8074">
        <ele>57</ele>
        <time>2017-11-15T11:34:07Z</time>
      </trkpt>
      <trkpt lat="43.63784" lon="3.80736">
        <ele>57</ele>
        <time>2017-11-15T11:34:09Z</time>
      </trkpt>
      <trkpt lat="43.63782" lon="3.8073">
        <ele>57.2</ele>
        <time>2017-11-15T11:34:11Z</time>
      </trkpt>
      <trkpt lat="43.63781" lon="3.80726">
        <ele>57.4</ele>
        <time>2017-11-15T11:34:13Z</time>
      </trkpt>
      <trkpt lat="43.63781" lon="3.80721">
        <ele>57.7</ele>
        <time>2017-11-15T11:34:15Z</time>
      </trkpt>
      <trkpt lat="43.6378" lon="3.80717">
        <ele>58.1</ele>
        <time>2017-11-15T11:34:17Z</time>
      </trkpt>
      <trkpt lat="43.63779" lon="3.80713">
        <ele>58.5</ele>
        <time>2017-11-15T11:34:19Z</time>
      </trkpt>
      <trkpt lat="43.63777" lon="3.80708">
        <ele>59.1</ele>
        <time>2017-11-15T11:34:21Z</time>
      </trkpt>
      <trkpt lat="43.63775" lon="3.80704">
        <ele>59.8</ele>
        <time>2017-11-15T11:34:24Z</time>
      </trkpt>
      <trkpt lat="43.63772" lon="3.80699">
        <ele>60.3</ele>
        <time>2017-11-15T11:34:27Z</time>
      </trkpt>
      <trkpt lat="43.6377" lon="3.80696">
        <ele>60.8</ele>
        <time>2017-11-15T11:34:30Z</time>
      </trkpt>
      <trkpt lat="43.63768" lon="3.80691">
        <ele>61.1</ele>
        <time>2017-11-15T11:34:33Z</time>
      </trkpt>
      <trkpt lat="43.63766" lon="3.80688">
        <ele>61.2</ele>
        <time>2017-11-15T11:34:35Z</time>
      </trkpt>
      <trkpt lat="43.63764" lon="3.80685">
        <ele>61.2</ele>
        <time>2017-11-15T11:34:37Z</time>
      </trkpt>
      <trkpt lat="43.63761" lon="3.80682">
        <ele>61.4</ele>
        <time>2017-11-15T11:34:39Z</time>
      </trkpt>
      <trkpt lat="43.6376" lon="3.80678">
        <ele>61.5</ele>
        <time>2017-11-15T11:34:41Z</time>
      </trkpt>
      <trkpt lat="43.63759" lon="3.80674">
        <ele>61.8</ele>
        <time>2017-11-15T11:34:43Z</time>
      </trkpt>
      <trkpt lat="43.63757" lon="3.80671">
        <ele>62.1</ele>
        <time>2017-11-15T11:34:45Z</time>
      </trkpt>
      <trkpt lat="43.63755" lon="3.80667">
        <ele>62.5</ele>
        <time>2017-11-15T11:34:48Z</time>
      </trkpt>
      <trkpt lat="43.63752" lon="3.80663">
        <ele>63</ele>
        <time>2017-11-15T11:34:51Z</time>
      </trkpt>
      <trkpt lat="43.63749" lon="3.80661">
        <ele>63.1</ele>
        <time>2017-11-15T11:34:53Z</time>
      </trkpt>
      <trkpt lat="43.63747" lon="3.80657">
        <ele>63.9</ele>
        <time>2017-11-15T11:34:55Z</time>
      </trkpt>
      <trkpt lat="43.63744" lon="3.80653">
        <ele>64.9</ele>
        <time>2017-11-15T11:34:57Z</time>
      </trkpt>
      <trkpt lat="43.63742" lon="3.8065">
        <ele>65.7</ele>
        <time>2017-11-15T11:34:59Z</time>
      </trkpt>
      <trkpt lat="43.6374" lon="3.80646">
        <ele>66.8</ele>
        <time>2017-11-15T11:35:01Z</time>
      </trkpt>
      <trkpt lat="43.63737" lon="3.80641">
        <ele>67.8</ele>
        <time>2017-11-15T11:35:03Z</time>
      </trkpt>
      <trkpt lat="43.63736" lon="3.80636">
        <ele>68.5</ele>
        <time>2017-11-15T11:35:05Z</time>
      </trkpt>
      <trkpt lat="43.63734" lon="3.80632">
        <ele>69.5</ele>
        <time>2017-11-15T11:35:07Z</time>
      </trkpt>
      <trkpt lat="43.63733" lon="3.80628">
        <ele>70.3</ele>
        <time>2017-11-15T11:35:09Z</time>
      </trkpt>
      <trkpt lat="43.63731" lon="3.80623">
        <ele>71.2</ele>
        <time>2017-11-15T11:35:11Z</time>
      </trkpt>
      <trkpt lat="43.6373" lon="3.80615">
        <ele>72.6</ele>
        <time>2017-11-15T11:35:20Z</time>
      </trkpt>
      <trkpt lat="43.63728" lon="3.8061">
        <ele>73.2</ele>
        <time>2017-11-15T11:35:23Z</time>
      </trkpt>
      <trkpt lat="43.63726" lon="3.80605">
        <ele>73.8</ele>
        <time>2017-11-15T11:35:26Z</time>
      </trkpt>
      <trkpt lat="43.63725" lon="3.80601">
        <ele>74.6</ele>
        <time>2017-11-15T11:35:30Z</time>
      </trkpt>
      <trkpt lat="43.63723" lon="3.80597">
        <ele>75.2</ele>
        <time>2017-11-15T11:35:33Z</time>
      </trkpt>
      <trkpt lat="43.63721" lon="3.80594">
        <ele>76.1</ele>
        <time>2017-11-15T11:35:35Z</time>
      </trkpt>
      <trkpt lat="43.6372" lon="3.80589">
        <ele>76.7</ele>
        <time>2017-11-15T11:35:37Z</time>
      </trkpt>
      <trkpt lat="43.6372" lon="3.80584">
        <ele>77.2</ele>
        <time>2017-11-15T11:35:40Z</time>
      </trkpt>
      <trkpt lat="43.6372" lon="3.80579">
        <ele>77.7</ele>
        <time>2017-11-15T11:35:43Z</time>
      </trkpt>
      <trkpt lat="43.63718" lon="3.80574">
        <ele>78.6</ele>
        <time>2017-11-15T11:35:46Z</time>
      </trkpt>
      <trkpt lat="43.63718" lon="3.80569">
        <ele>79.1</ele>
        <time>2017-11-15T11:35:50Z</time>
      </trkpt>
      <trkpt lat="43.63717" lon="3.80565">
        <ele>79.6</ele>
        <time>2017-11-15T11:35:53Z</time>
      </trkpt>
      <trkpt lat="43.63715" lon="3.80561">
        <ele>80.6</ele>
        <time>2017-11-15T11:35:56Z</time>
      </trkpt>
      <trkpt lat="43.63714" lon="3.80554">
        <ele>81.4</ele>
        <time>2017-11-15T11:36:02Z</time>
      </trkpt>
      <trkpt lat="43.63711" lon="3.8055">
        <ele>82.5</ele>
        <time>2017-11-15T11:36:05Z</time>
      </trkpt>
      <trkpt lat="43.63709" lon="3.80543">
        <ele>84.5</ele>
        <time>2017-11-15T11:36:11Z</time>
      </trkpt>
      <trkpt lat="43.63708" lon="3.80537">
        <ele>85.2</ele>
        <time>2017-11-15T11:36:16Z</time>
      </trkpt>
      <trkpt lat="43.63696" lon="3.80516">
        <ele>89.6</ele>
        <time>2017-11-15T11:36:37Z</time>
      </trkpt>
      <trkpt lat="43.63694" lon="3.80511">
        <ele>90.4</ele>
        <time>2017-11-15T11:36:40Z</time>
      </trkpt>
      <trkpt lat="43.63693" lon="3.80508">
        <ele>90.7</ele>
        <time>2017-11-15T11:36:42Z</time>
      </trkpt>
      <trkpt lat="43.63691" lon="3.80505">
        <ele>90.7</ele>
        <time>2017-11-15T11:36:45Z</time>
      </trkpt>
      <trkpt lat="43.6369" lon="3.80501">
        <ele>91.6</ele>
        <time>2017-11-15T11:36:48Z</time>
      </trkpt>
      <trkpt lat="43.6369" lon="3.80496">
        <ele>92.4</ele>
        <time>2017-11-15T11:36:51Z</time>
      </trkpt>
      <trkpt lat="43.6369" lon="3.8049">
        <ele>93</ele>
        <time>2017-11-15T11:36:54Z</time>
      </trkpt>
      <trkpt lat="43.63689" lon="3.80486">
        <ele>93.7</ele>
        <time>2017-11-15T11:36:58Z</time>
      </trkpt>
      <trkpt lat="43.63687" lon="3.80482">
        <ele>95.1</ele>
        <time>2017-11-15T11:37:01Z</time>
      </trkpt>
      <trkpt lat="43.63687" lon="3.80476">
        <ele>95.8</ele>
        <time>2017-11-15T11:37:08Z</time>
      </trkpt>
      <trkpt lat="43.63684" lon="3.80474">
        <ele>97.1</ele>
        <time>2017-11-15T11:37:11Z</time>
      </trkpt>
      <trkpt lat="43.63682" lon="3.80471">
        <ele>97.8</ele>
        <time>2017-11-15T11:37:13Z</time>
      </trkpt>
      <trkpt lat="43.63679" lon="3.80468">
        <ele>98.3</ele>
        <time>2017-11-15T11:37:15Z</time>
      </trkpt>
      <trkpt lat="43.63678" lon="3.80465">
        <ele>99.3</ele>
        <time>2017-11-15T11:37:17Z</time>
      </trkpt>
      <trkpt lat="43.63675" lon="3.80461">
        <ele>100.2</ele>
        <time>2017-11-15T11:37:20Z</time>
      </trkpt>
      <trkpt lat="43.63674" lon="3.80457">
        <ele>100.6</ele>
        <time>2017-11-15T11:37:22Z</time>
      </trkpt>
      <trkpt lat="43.63671" lon="3.80453">
        <ele>101.2</ele>
        <time>2017-11-15T11:37:25Z</time>
      </trkpt>
      <trkpt lat="43.63669" lon="3.8045">
        <ele>101.3</ele>
        <time>2017-11-15T11:37:28Z</time>
      </trkpt>
      <trkpt lat="43.63667" lon="3.80447">
        <ele>101.5</ele>
        <time>2017-11-15T11:37:31Z</time>
      </trkpt>
      <trkpt lat="43.63664" lon="3.80444">
        <ele>101.8</ele>
        <time>2017-11-15T11:37:34Z</time>
      </trkpt>
      <trkpt lat="43.63661" lon="3.80439">
        <ele>102.2</ele>
        <time>2017-11-15T11:37:37Z</time>
      </trkpt>
      <trkpt lat="43.63659" lon="3.80434">
        <ele>102.7</ele>
        <time>2017-11-15T11:37:39Z</time>
      </trkpt>
      <trkpt lat="43.63657" lon="3.80431">
        <ele>103.2</ele>
        <time>2017-11-15T11:37:41Z</time>
      </trkpt>
      <trkpt lat="43.63656" lon="3.80426">
        <ele>103.6</ele>
        <time>2017-11-15T11:37:43Z</time>
      </trkpt>
      <trkpt lat="43.63654" lon="3.80422">
        <ele>104.1</ele>
        <time>2017-11-15T11:37:46Z</time>
      </trkpt>
      <trkpt lat="43.63651" lon="3.80418">
        <ele>104.4</ele>
        <time>2017-11-15T11:37:49Z</time>
      </trkpt>
      <trkpt lat="43.63649" lon="3.80416">
        <ele>104.7</ele>
        <time>2017-11-15T11:37:51Z</time>
      </trkpt>
      <trkpt lat="43.63647" lon="3.80413">
        <ele>105.3</ele>
        <time>2017-11-15T11:37:53Z</time>
      </trkpt>
      <trkpt lat="43.63646" lon="3.80409">
        <ele>105.7</ele>
        <time>2017-11-15T11:37:55Z</time>
      </trkpt>
      <trkpt lat="43.63644" lon="3.80404">
        <ele>106.4</ele>
        <time>2017-11-15T11:37:58Z</time>
      </trkpt>
      <trkpt lat="43.63641" lon="3.80401">
        <ele>107.2</ele>
        <time>2017-11-15T11:38:00Z</time>
      </trkpt>
      <trkpt lat="43.63638" lon="3.80397">
        <ele>108.1</ele>
        <time>2017-11-15T11:38:02Z</time>
      </trkpt>
      <trkpt lat="43.63635" lon="3.80392">
        <ele>108.9</ele>
        <time>2017-11-15T11:38:04Z</time>
      </trkpt>
      <trkpt lat="43.63634" lon="3.80389">
        <ele>108.9</ele>
        <time>2017-11-15T11:38:06Z</time>
      </trkpt>
      <trkpt lat="43.63629" lon="3.80384">
        <ele>110.6</ele>
        <time>2017-11-15T11:38:10Z</time>
      </trkpt>
      <trkpt lat="43.63627" lon="3.8038">
        <ele>110.5</ele>
        <time>2017-11-15T11:38:12Z</time>
      </trkpt>
      <trkpt lat="43.63624" lon="3.80376">
        <ele>111.3</ele>
        <time>2017-11-15T11:38:14Z</time>
      </trkpt>
      <trkpt lat="43.6362" lon="3.80371">
        <ele>112.1</ele>
        <time>2017-11-15T11:38:16Z</time>
      </trkpt>
      <trkpt lat="43.63619" lon="3.80366">
        <ele>112.6</ele>
        <time>2017-11-15T11:38:18Z</time>
      </trkpt>
      <trkpt lat="43.63617" lon="3.80363">
        <ele>113</ele>
        <time>2017-11-15T11:38:20Z</time>
      </trkpt>
      <trkpt lat="43.63614" lon="3.8036">
        <ele>113.3</ele>
        <time>2017-11-15T11:38:23Z</time>
      </trkpt>
      <trkpt lat="43.6361" lon="3.80358">
        <ele>113.6</ele>
        <time>2017-11-15T11:38:25Z</time>
      </trkpt>
      <trkpt lat="43.63607" lon="3.80356">
        <ele>113.9</ele>
        <time>2017-11-15T11:38:27Z</time>
      </trkpt>
      <trkpt lat="43.63604" lon="3.80353">
        <ele>114.3</ele>
        <time>2017-11-15T11:38:29Z</time>
      </trkpt>
      <trkpt lat="43.63602" lon="3.8035">
        <ele>114.3</ele>
        <time>2017-11-15T11:38:30Z</time>
      </trkpt>
      <trkpt lat="43.636" lon="3.80346">
        <ele>114.8</ele>
        <time>2017-11-15T11:38:32Z</time>
      </trkpt>
      <trkpt lat="43.63597" lon="3.80343">
        <ele>115.2</ele>
        <time>2017-11-15T11:38:34Z</time>
      </trkpt>
      <trkpt lat="43.63595" lon="3.80339">
        <ele>115.3</ele>
        <time>2017-11-15T11:38:36Z</time>
      </trkpt>
      <trkpt lat="43.63593" lon="3.80333">
        <ele>115.6</ele>
        <time>2017-11-15T11:38:38Z</time>
      </trkpt>
      <trkpt lat="43.63592" lon="3.80328">
        <ele>115.8</ele>
        <time>2017-11-15T11:38:40Z</time>
      </trkpt>
      <trkpt lat="43.63591" lon="3.80324">
        <ele>115.6</ele>
        <time>2017-11-15T11:38:41Z</time>
      </trkpt>
      <trkpt lat="43.63593" lon="3.80317">
        <ele>115.3</ele>
        <time>2017-11-15T11:38:43Z</time>
      </trkpt>
      <trkpt lat="43.63594" lon="3.80313">
        <ele>115.1</ele>
        <time>2017-11-15T11:38:44Z</time>
      </trkpt>
      <trkpt lat="43.63595" lon="3.80309">
        <ele>114.8</ele>
        <time>2017-11-15T11:38:45Z</time>
      </trkpt>
      <trkpt lat="43.63596" lon="3.80303">
        <ele>114.4</ele>
        <time>2017-11-15T11:38:47Z</time>
      </trkpt>
      <trkpt lat="43.63597" lon="3.80299">
        <ele>114.4</ele>
        <time>2017-11-15T11:38:48Z</time>
      </trkpt>
      <trkpt lat="43.63598" lon="3.80294">
        <ele>114.2</ele>
        <time>2017-11-15T11:38:49Z</time>
      </trkpt>
      <trkpt lat="43.63598" lon="3.8029">
        <ele>113.9</ele>
        <time>2017-11-15T11:38:50Z</time>
      </trkpt>
      <trkpt lat="43.63599" lon="3.80283">
        <ele>113.5</ele>
        <time>2017-11-15T11:38:52Z</time>
      </trkpt>
      <trkpt lat="43.63599" lon="3.80278">
        <ele>113.3</ele>
        <time>2017-11-15T11:38:53Z</time>
      </trkpt>
      <trkpt lat="43.636" lon="3.80275">
        <ele>113.1</ele>
        <time>2017-11-15T11:38:54Z</time>
      </trkpt>
      <trkpt lat="43.636" lon="3.80271">
        <ele>112.8</ele>
        <time>2017-11-15T11:38:55Z</time>
      </trkpt>
      <trkpt lat="43.63601" lon="3.80267">
        <ele>112.6</ele>
        <time>2017-11-15T11:38:56Z</time>
      </trkpt>
      <trkpt lat="43.63601" lon="3.80263">
        <ele>112.3</ele>
        <time>2017-11-15T11:38:57Z</time>
      </trkpt>
      <trkpt lat="43.63602" lon="3.80258">
        <ele>112.1</ele>
        <time>2017-11-15T11:38:58Z</time>
      </trkpt>
      <trkpt lat="43.63602" lon="3.80254">
        <ele>111.9</ele>
        <time>2017-11-15T11:38:59Z</time>
      </trkpt>
      <trkpt lat="43.63603" lon="3.80248">
        <ele>111.8</ele>
        <time>2017-11-15T11:39:00Z</time>
      </trkpt>
      <trkpt lat="43.63603" lon="3.80244">
        <ele>111.7</ele>
        <time>2017-11-15T11:39:01Z</time>
      </trkpt>
      <trkpt lat="43.63603" lon="3.80238">
        <ele>111.6</ele>
        <time>2017-11-15T11:39:02Z</time>
      </trkpt>
      <trkpt lat="43.63603" lon="3.80233">
        <ele>111.5</ele>
        <time>2017-11-15T11:39:03Z</time>
      </trkpt>
      <trkpt lat="43.63602" lon="3.80228">
        <ele>111.5</ele>
        <time>2017-11-15T11:39:04Z</time>
      </trkpt>
      <trkpt lat="43.636" lon="3.80222">
        <ele>111.6</ele>
        <time>2017-11-15T11:39:05Z</time>
      </trkpt>
      <trkpt lat="43.63597" lon="3.80218">
        <ele>111.8</ele>
        <time>2017-11-15T11:39:06Z</time>
      </trkpt>
      <trkpt lat="43.63593" lon="3.80214">
        <ele>112</ele>
        <time>2017-11-15T11:39:07Z</time>
      </trkpt>
      <trkpt lat="43.6359" lon="3.8021">
        <ele>112.2</ele>
        <time>2017-11-15T11:39:08Z</time>
      </trkpt>
      <trkpt lat="43.63588" lon="3.80206">
        <ele>112.4</ele>
        <time>2017-11-15T11:39:09Z</time>
      </trkpt>
      <trkpt lat="43.63585" lon="3.80201">
        <ele>112.6</ele>
        <time>2017-11-15T11:39:10Z</time>
      </trkpt>
      <trkpt lat="43.63582" lon="3.80196">
        <ele>112.9</ele>
        <time>2017-11-15T11:39:11Z</time>
      </trkpt>
      <trkpt lat="43.63579" lon="3.80192">
        <ele>113.2</ele>
        <time>2017-11-15T11:39:12Z</time>
      </trkpt>
      <trkpt lat="43.63576" lon="3.80186">
        <ele>113.4</ele>
        <time>2017-11-15T11:39:13Z</time>
      </trkpt>
      <trkpt lat="43.63573" lon="3.80181">
        <ele>113.4</ele>
        <time>2017-11-15T11:39:14Z</time>
      </trkpt>
      <trkpt lat="43.6357" lon="3.80176">
        <ele>113.2</ele>
        <time>2017-11-15T11:39:15Z</time>
      </trkpt>
      <trkpt lat="43.63568" lon="3.80172">
        <ele>113.1</ele>
        <time>2017-11-15T11:39:16Z</time>
      </trkpt>
      <trkpt lat="43.63566" lon="3.80167">
        <ele>112.8</ele>
        <time>2017-11-15T11:39:17Z</time>
      </trkpt>
      <trkpt lat="43.63564" lon="3.80162">
        <ele>112.5</ele>
        <time>2017-11-15T11:39:18Z</time>
      </trkpt>
      <trkpt lat="43.63562" lon="3.80156">
        <ele>112.1</ele>
        <time>2017-11-15T11:39:19Z</time>
      </trkpt>
      <trkpt lat="43.6356" lon="3.80149">
        <ele>111.9</ele>
        <time>2017-11-15T11:39:20Z</time>
      </trkpt>
      <trkpt lat="43.63558" lon="3.80142">
        <ele>111.7</ele>
        <time>2017-11-15T11:39:21Z</time>
      </trkpt>
      <trkpt lat="43.63557" lon="3.80135">
        <ele>111.3</ele>
        <time>2017-11-15T11:39:22Z</time>
      </trkpt>
      <trkpt lat="43.63554" lon="3.80129">
        <ele>111</ele>
        <time>2017-11-15T11:39:23Z</time>
      </trkpt>
      <trkpt lat="43.63551" lon="3.80123">
        <ele>110.7</ele>
        <time>2017-11-15T11:39:24Z</time>
      </trkpt>
      <trkpt lat="43.63549" lon="3.80114">
        <ele>110.3</ele>
        <time>2017-11-15T11:39:25Z</time>
      </trkpt>
      <trkpt lat="43.63548" lon="3.80105">
        <ele>109.9</ele>
        <time>2017-11-15T11:39:26Z</time>
      </trkpt>
      <trkpt lat="43.63548" lon="3.80096">
        <ele>109.5</ele>
        <time>2017-11-15T11:39:27Z</time>
      </trkpt>
      <trkpt lat="43.63551" lon="3.80086">
        <ele>109</ele>
        <time>2017-11-15T11:39:28Z</time>
      </trkpt>
      <trkpt lat="43.63556" lon="3.8008">
        <ele>108.9</ele>
        <time>2017-11-15T11:39:29Z</time>
      </trkpt>
      <trkpt lat="43.6356" lon="3.80074">
        <ele>108.8</ele>
        <time>2017-11-15T11:39:30Z</time>
      </trkpt>
      <trkpt lat="43.63565" lon="3.80069">
        <ele>108.7</ele>
        <time>2017-11-15T11:39:31Z</time>
      </trkpt>
      <trkpt lat="43.63568" lon="3.80062">
        <ele>108.6</ele>
        <time>2017-11-15T11:39:32Z</time>
      </trkpt>
      <trkpt lat="43.63571" lon="3.80056">
        <ele>108.5</ele>
        <time>2017-11-15T11:39:33Z</time>
      </trkpt>
      <trkpt lat="43.63573" lon="3.80049">
        <ele>108.3</ele>
        <time>2017-11-15T11:39:34Z</time>
      </trkpt>
      <trkpt lat="43.63576" lon="3.80042">
        <ele>108.3</ele>
        <time>2017-11-15T11:39:35Z</time>
      </trkpt>
      <trkpt lat="43.63578" lon="3.80036">
        <ele>108.3</ele>
        <time>2017-11-15T11:39:36Z</time>
      </trkpt>
      <trkpt lat="43.63581" lon="3.8003">
        <ele>108.3</ele>
        <time>2017-11-15T11:39:37Z</time>
      </trkpt>
      <trkpt lat="43.63583" lon="3.80024">
        <ele>108.4</ele>
        <time>2017-11-15T11:39:38Z</time>
      </trkpt>
      <trkpt lat="43.63586" lon="3.80019">
        <ele>108.4</ele>
        <time>2017-11-15T11:39:39Z</time>
      </trkpt>
      <trkpt lat="43.63588" lon="3.80013">
        <ele>108.5</ele>
        <time>2017-11-15T11:39:40Z</time>
      </trkpt>
      <trkpt lat="43.6359" lon="3.80008">
        <ele>108.6</ele>
        <time>2017-11-15T11:39:41Z</time>
      </trkpt>
      <trkpt lat="43.63592" lon="3.80003">
        <ele>108.7</ele>
        <time>2017-11-15T11:39:42Z</time>
      </trkpt>
      <trkpt lat="43.63594" lon="3.79997">
        <ele>108.8</ele>
        <time>2017-11-15T11:39:43Z</time>
      </trkpt>
      <trkpt lat="43.63597" lon="3.79992">
        <ele>108.9</ele>
        <time>2017-11-15T11:39:44Z</time>
      </trkpt>
      <trkpt lat="43.63599" lon="3.79987">
        <ele>108.9</ele>
        <time>2017-11-15T11:39:45Z</time>
      </trkpt>
      <trkpt lat="43.63602" lon="3.79983">
        <ele>109</ele>
        <time>2017-11-15T11:39:46Z</time>
      </trkpt>
      <trkpt lat="43.63605" lon="3.79979">
        <ele>109</ele>
        <time>2017-11-15T11:39:47Z</time>
      </trkpt>
      <trkpt lat="43.63608" lon="3.79975">
        <ele>109</ele>
        <time>2017-11-15T11:39:48Z</time>
      </trkpt>
      <trkpt lat="43.6361" lon="3.79972">
        <ele>109</ele>
        <time>2017-11-15T11:39:49Z</time>
      </trkpt>
      <trkpt lat="43.63613" lon="3.79968">
        <ele>109</ele>
        <time>2017-11-15T11:39:50Z</time>
      </trkpt>
      <trkpt lat="43.63615" lon="3.79964">
        <ele>109</ele>
        <time>2017-11-15T11:39:51Z</time>
      </trkpt>
      <trkpt lat="43.63616" lon="3.7996">
        <ele>109.1</ele>
        <time>2017-11-15T11:39:52Z</time>
      </trkpt>
      <trkpt lat="43.63617" lon="3.79956">
        <ele>109.1</ele>
        <time>2017-11-15T11:39:53Z</time>
      </trkpt>
      <trkpt lat="43.63619" lon="3.79952">
        <ele>109.1</ele>
        <time>2017-11-15T11:39:54Z</time>
      </trkpt>
      <trkpt lat="43.63622" lon="3.79949">
        <ele>109.1</ele>
        <time>2017-11-15T11:39:55Z</time>
      </trkpt>
      <trkpt lat="43.63625" lon="3.79946">
        <ele>109.1</ele>
        <time>2017-11-15T11:39:56Z</time>
      </trkpt>
      <trkpt lat="43.63627" lon="3.79943">
        <ele>109.2</ele>
        <time>2017-11-15T11:39:57Z</time>
      </trkpt>
      <trkpt lat="43.6363" lon="3.7994">
        <ele>109.2</ele>
        <time>2017-11-15T11:39:58Z</time>
      </trkpt>
      <trkpt lat="43.63633" lon="3.79936">
        <ele>109.2</ele>
        <time>2017-11-15T11:39:59Z</time>
      </trkpt>
      <trkpt lat="43.63635" lon="3.79931">
        <ele>109.2</ele>
        <time>2017-11-15T11:40:00Z</time>
      </trkpt>
      <trkpt lat="43.63637" lon="3.79927">
        <ele>109.3</ele>
        <time>2017-11-15T11:40:01Z</time>
      </trkpt>
      <trkpt lat="43.6364" lon="3.79923">
        <ele>109.3</ele>
        <time>2017-11-15T11:40:02Z</time>
      </trkpt>
      <trkpt lat="43.63643" lon="3.79919">
        <ele>109.4</ele>
        <time>2017-11-15T11:40:03Z</time>
      </trkpt>
      <trkpt lat="43.63645" lon="3.79915">
        <ele>109.4</ele>
        <time>2017-11-15T11:40:04Z</time>
      </trkpt>
      <trkpt lat="43.63647" lon="3.79911">
        <ele>109.4</ele>
        <time>2017-11-15T11:40:05Z</time>
      </trkpt>
      <trkpt lat="43.6365" lon="3.79906">
        <ele>109.5</ele>
        <time>2017-11-15T11:40:06Z</time>
      </trkpt>
      <trkpt lat="43.63652" lon="3.79902">
        <ele>109.5</ele>
        <time>2017-11-15T11:40:07Z</time>
      </trkpt>
      <trkpt lat="43.63655" lon="3.79899">
        <ele>109.5</ele>
        <time>2017-11-15T11:40:08Z</time>
      </trkpt>
      <trkpt lat="43.63657" lon="3.79895">
        <ele>109.6</ele>
        <time>2017-11-15T11:40:09Z</time>
      </trkpt>
      <trkpt lat="43.6366" lon="3.7989">
        <ele>109.8</ele>
        <time>2017-11-15T11:40:10Z</time>
      </trkpt>
      <trkpt lat="43.63663" lon="3.79886">
        <ele>110</ele>
        <time>2017-11-15T11:40:11Z</time>
      </trkpt>
      <trkpt lat="43.63666" lon="3.79883">
        <ele>110.1</ele>
        <time>2017-11-15T11:40:12Z</time>
      </trkpt>
      <trkpt lat="43.63668" lon="3.7988">
        <ele>110.3</ele>
        <time>2017-11-15T11:40:13Z</time>
      </trkpt>
      <trkpt lat="43.63671" lon="3.79877">
        <ele>110.5</ele>
        <time>2017-11-15T11:40:14Z</time>
      </trkpt>
      <trkpt lat="43.63673" lon="3.79873">
        <ele>110.7</ele>
        <time>2017-11-15T11:40:15Z</time>
      </trkpt>
      <trkpt lat="43.63674" lon="3.79868">
        <ele>110.8</ele>
        <time>2017-11-15T11:40:16Z</time>
      </trkpt>
      <trkpt lat="43.63676" lon="3.79864">
        <ele>110.9</ele>
        <time>2017-11-15T11:40:17Z</time>
      </trkpt>
      <trkpt lat="43.63678" lon="3.79859">
        <ele>111.1</ele>
        <time>2017-11-15T11:40:18Z</time>
      </trkpt>
      <trkpt lat="43.63681" lon="3.79854">
        <ele>111.2</ele>
        <time>2017-11-15T11:40:19Z</time>
      </trkpt>
      <trkpt lat="43.63684" lon="3.79849">
        <ele>111.4</ele>
        <time>2017-11-15T11:40:20Z</time>
      </trkpt>
      <trkpt lat="43.63686" lon="3.79845">
        <ele>111.5</ele>
        <time>2017-11-15T11:40:21Z</time>
      </trkpt>
      <trkpt lat="43.63689" lon="3.79841">
        <ele>111.6</ele>
        <time>2017-11-15T11:40:22Z</time>
      </trkpt>
      <trkpt lat="43.63692" lon="3.79837">
        <ele>111.8</ele>
        <time>2017-11-15T11:40:23Z</time>
      </trkpt>
      <trkpt lat="43.63695" lon="3.79833">
        <ele>112.1</ele>
        <time>2017-11-15T11:40:24Z</time>
      </trkpt>
      <trkpt lat="43.63698" lon="3.7983">
        <ele>112.3</ele>
        <time>2017-11-15T11:40:25Z</time>
      </trkpt>
      <trkpt lat="43.63701" lon="3.79826">
        <ele>112.6</ele>
        <time>2017-11-15T11:40:26Z</time>
      </trkpt>
      <trkpt lat="43.63704" lon="3.79822">
        <ele>112.9</ele>
        <time>2017-11-15T11:40:27Z</time>
      </trkpt>
      <trkpt lat="43.63706" lon="3.79818">
        <ele>113.1</ele>
        <time>2017-11-15T11:40:28Z</time>
      </trkpt>
      <trkpt lat="43.63707" lon="3.79814">
        <ele>113.2</ele>
        <time>2017-11-15T11:40:29Z</time>
      </trkpt>
      <trkpt lat="43.63709" lon="3.7981">
        <ele>113.2</ele>
        <time>2017-11-15T11:40:30Z</time>
      </trkpt>
      <trkpt lat="43.6371" lon="3.79807">
        <ele>113.3</ele>
        <time>2017-11-15T11:40:31Z</time>
      </trkpt>
      <trkpt lat="43.63712" lon="3.79802">
        <ele>113.3</ele>
        <time>2017-11-15T11:40:32Z</time>
      </trkpt>
      <trkpt lat="43.63713" lon="3.79798">
        <ele>113.4</ele>
        <time>2017-11-15T11:40:33Z</time>
      </trkpt>
      <trkpt lat="43.63715" lon="3.79794">
        <ele>113.5</ele>
        <time>2017-11-15T11:40:34Z</time>
      </trkpt>
      <trkpt lat="43.63717" lon="3.7979">
        <ele>113.5</ele>
        <time>2017-11-15T11:40:35Z</time>
      </trkpt>
      <trkpt lat="43.63719" lon="3.79787">
        <ele>113.6</ele>
        <time>2017-11-15T11:40:36Z</time>
      </trkpt>
      <trkpt lat="43.63721" lon="3.79783">
        <ele>113.7</ele>
        <time>2017-11-15T11:40:37Z</time>
      </trkpt>
      <trkpt lat="43.63724" lon="3.79779">
        <ele>113.8</ele>
        <time>2017-11-15T11:40:38Z</time>
      </trkpt>
      <trkpt lat="43.63726" lon="3.79776">
        <ele>113.8</ele>
        <time>2017-11-15T11:40:39Z</time>
      </trkpt>
      <trkpt lat="43.63728" lon="3.79772">
        <ele>113.9</ele>
        <time>2017-11-15T11:40:40Z</time>
      </trkpt>
      <trkpt lat="43.6373" lon="3.79769">
        <ele>113.9</ele>
        <time>2017-11-15T11:40:41Z</time>
      </trkpt>
      <trkpt lat="43.63732" lon="3.79766">
        <ele>113.9</ele>
        <time>2017-11-15T11:40:42Z</time>
      </trkpt>
      <trkpt lat="43.63735" lon="3.79762">
        <ele>113.9</ele>
        <time>2017-11-15T11:40:43Z</time>
      </trkpt>
      <trkpt lat="43.63738" lon="3.79758">
        <ele>114</ele>
        <time>2017-11-15T11:40:44Z</time>
      </trkpt>
      <trkpt lat="43.63741" lon="3.79755">
        <ele>113.9</ele>
        <time>2017-11-15T11:40:45Z</time>
      </trkpt>
      <trkpt lat="43.63745" lon="3.79751">
        <ele>113.9</ele>
        <time>2017-11-15T11:40:46Z</time>
      </trkpt>
      <trkpt lat="43.63747" lon="3.79747">
        <ele>113.8</ele>
        <time>2017-11-15T11:40:47Z</time>
      </trkpt>
      <trkpt lat="43.63749" lon="3.79744">
        <ele>113.8</ele>
        <time>2017-11-15T11:40:48Z</time>
      </trkpt>
      <trkpt lat="43.63752" lon="3.7974">
        <ele>113.7</ele>
        <time>2017-11-15T11:40:49Z</time>
      </trkpt>
      <trkpt lat="43.63755" lon="3.79739">
        <ele>113.5</ele>
        <time>2017-11-15T11:40:50Z</time>
      </trkpt>
      <trkpt lat="43.63758" lon="3.79736">
        <ele>113.3</ele>
        <time>2017-11-15T11:40:51Z</time>
      </trkpt>
      <trkpt lat="43.63761" lon="3.79732">
        <ele>113.1</ele>
        <time>2017-11-15T11:40:52Z</time>
      </trkpt>
      <trkpt lat="43.63765" lon="3.79727">
        <ele>112.9</ele>
        <time>2017-11-15T11:40:53Z</time>
      </trkpt>
      <trkpt lat="43.63768" lon="3.79726">
        <ele>112.8</ele>
        <time>2017-11-15T11:40:54Z</time>
      </trkpt>
      <trkpt lat="43.63772" lon="3.79724">
        <ele>112.7</ele>
        <time>2017-11-15T11:40:55Z</time>
      </trkpt>
      <trkpt lat="43.63776" lon="3.79721">
        <ele>112.6</ele>
        <time>2017-11-15T11:40:56Z</time>
      </trkpt>
      <trkpt lat="43.6378" lon="3.79717">
        <ele>112.6</ele>
        <time>2017-11-15T11:40:57Z</time>
      </trkpt>
      <trkpt lat="43.63784" lon="3.79714">
        <ele>112.6</ele>
        <time>2017-11-15T11:40:58Z</time>
      </trkpt>
      <trkpt lat="43.63791" lon="3.79712">
        <ele>112.5</ele>
        <time>2017-11-15T11:40:59Z</time>
      </trkpt>
      <trkpt lat="43.63796" lon="3.79709">
        <ele>112.5</ele>
        <time>2017-11-15T11:41:00Z</time>
      </trkpt>
      <trkpt lat="43.63801" lon="3.79705">
        <ele>112.6</ele>
        <time>2017-11-15T11:41:01Z</time>
      </trkpt>
      <trkpt lat="43.63803" lon="3.79699">
        <ele>112.6</ele>
        <time>2017-11-15T11:41:02Z</time>
      </trkpt>
      <trkpt lat="43.63806" lon="3.79695">
        <ele>112.6</ele>
        <time>2017-11-15T11:41:03Z</time>
      </trkpt>
      <trkpt lat="43.63809" lon="3.79693">
        <ele>112.7</ele>
        <time>2017-11-15T11:41:04Z</time>
      </trkpt>
      <trkpt lat="43.63814" lon="3.7969">
        <ele>112.8</ele>
        <time>2017-11-15T11:41:05Z</time>
      </trkpt>
      <trkpt lat="43.63818" lon="3.79686">
        <ele>112.9</ele>
        <time>2017-11-15T11:41:06Z</time>
      </trkpt>
      <trkpt lat="43.63823" lon="3.79682">
        <ele>113.1</ele>
        <time>2017-11-15T11:41:07Z</time>
      </trkpt>
      <trkpt lat="43.63828" lon="3.79677">
        <ele>113.5</ele>
        <time>2017-11-15T11:41:08Z</time>
      </trkpt>
      <trkpt lat="43.63834" lon="3.79674">
        <ele>113.9</ele>
        <time>2017-11-15T11:41:09Z</time>
      </trkpt>
      <trkpt lat="43.63839" lon="3.79671">
        <ele>114.2</ele>
        <time>2017-11-15T11:41:10Z</time>
      </trkpt>
      <trkpt lat="43.63843" lon="3.79668">
        <ele>114.4</ele>
        <time>2017-11-15T11:41:11Z</time>
      </trkpt>
      <trkpt lat="43.63848" lon="3.79669">
        <ele>114.7</ele>
        <time>2017-11-15T11:41:13Z</time>
      </trkpt>
      <trkpt lat="43.63852" lon="3.7967">
        <ele>114.8</ele>
        <time>2017-11-15T11:41:14Z</time>
      </trkpt>
      <trkpt lat="43.63856" lon="3.79669">
        <ele>115</ele>
        <time>2017-11-15T11:41:15Z</time>
      </trkpt>
      <trkpt lat="43.63859" lon="3.79665">
        <ele>115</ele>
        <time>2017-11-15T11:41:17Z</time>
      </trkpt>
      <trkpt lat="43.63862" lon="3.7966">
        <ele>115.1</ele>
        <time>2017-11-15T11:41:19Z</time>
      </trkpt>
      <trkpt lat="43.63864" lon="3.79658">
        <ele>115.1</ele>
        <time>2017-11-15T11:41:20Z</time>
      </trkpt>
      <trkpt lat="43.63867" lon="3.79656">
        <ele>115.1</ele>
        <time>2017-11-15T11:41:21Z</time>
      </trkpt>
      <trkpt lat="43.6387" lon="3.79655">
        <ele>115.1</ele>
        <time>2017-11-15T11:41:22Z</time>
      </trkpt>
      <trkpt lat="43.63873" lon="3.79654">
        <ele>115.2</ele>
        <time>2017-11-15T11:41:23Z</time>
      </trkpt>
      <trkpt lat="43.63876" lon="3.79657">
        <ele>115.2</ele>
        <time>2017-11-15T11:41:24Z</time>
      </trkpt>
      <trkpt lat="43.63878" lon="3.79663">
        <ele>115.2</ele>
        <time>2017-11-15T11:41:25Z</time>
      </trkpt>
      <trkpt lat="43.63881" lon="3.79669">
        <ele>115.1</ele>
        <time>2017-11-15T11:41:26Z</time>
      </trkpt>
      <trkpt lat="43.63884" lon="3.79673">
        <ele>115.1</ele>
        <time>2017-11-15T11:41:27Z</time>
      </trkpt>
      <trkpt lat="43.63888" lon="3.79676">
        <ele>114.7</ele>
        <time>2017-11-15T11:41:28Z</time>
      </trkpt>
      <trkpt lat="43.63893" lon="3.79678">
        <ele>114.1</ele>
        <time>2017-11-15T11:41:29Z</time>
      </trkpt>
      <trkpt lat="43.63899" lon="3.79679">
        <ele>114.2</ele>
        <time>2017-11-15T11:41:30Z</time>
      </trkpt>
      <trkpt lat="43.63905" lon="3.79681">
        <ele>113.9</ele>
        <time>2017-11-15T11:41:31Z</time>
      </trkpt>
      <trkpt lat="43.63911" lon="3.79684">
        <ele>113.8</ele>
        <time>2017-11-15T11:41:32Z</time>
      </trkpt>
      <trkpt lat="43.63918" lon="3.79688">
        <ele>113.5</ele>
        <time>2017-11-15T11:41:33Z</time>
      </trkpt>
      <trkpt lat="43.63923" lon="3.79693">
        <ele>113.1</ele>
        <time>2017-11-15T11:41:34Z</time>
      </trkpt>
      <trkpt lat="43.63929" lon="3.79699">
        <ele>112.6</ele>
        <time>2017-11-15T11:41:35Z</time>
      </trkpt>
      <trkpt lat="43.63934" lon="3.79706">
        <ele>112</ele>
        <time>2017-11-15T11:41:36Z</time>
      </trkpt>
      <trkpt lat="43.63941" lon="3.79712">
        <ele>111.2</ele>
        <time>2017-11-15T11:41:37Z</time>
      </trkpt>
      <trkpt lat="43.63949" lon="3.79718">
        <ele>110.4</ele>
        <time>2017-11-15T11:41:38Z</time>
      </trkpt>
      <trkpt lat="43.63955" lon="3.79724">
        <ele>109.3</ele>
        <time>2017-11-15T11:41:39Z</time>
      </trkpt>
      <trkpt lat="43.63961" lon="3.7973">
        <ele>108.2</ele>
        <time>2017-11-15T11:41:40Z</time>
      </trkpt>
      <trkpt lat="43.63967" lon="3.79735">
        <ele>107.1</ele>
        <time>2017-11-15T11:41:41Z</time>
      </trkpt>
      <trkpt lat="43.63973" lon="3.79741">
        <ele>105.9</ele>
        <time>2017-11-15T11:41:42Z</time>
      </trkpt>
      <trkpt lat="43.63979" lon="3.79747">
        <ele>104.5</ele>
        <time>2017-11-15T11:41:43Z</time>
      </trkpt>
      <trkpt lat="43.63985" lon="3.79752">
        <ele>102.6</ele>
        <time>2017-11-15T11:41:44Z</time>
      </trkpt>
      <trkpt lat="43.63992" lon="3.79755">
        <ele>100.8</ele>
        <time>2017-11-15T11:41:45Z</time>
      </trkpt>
      <trkpt lat="43.63998" lon="3.79757">
        <ele>99.2</ele>
        <time>2017-11-15T11:41:46Z</time>
      </trkpt>
      <trkpt lat="43.64003" lon="3.79762">
        <ele>98.3</ele>
        <time>2017-11-15T11:41:47Z</time>
      </trkpt>
      <trkpt lat="43.64007" lon="3.79771">
        <ele>98.5</ele>
        <time>2017-11-15T11:41:48Z</time>
      </trkpt>
      <trkpt lat="43.64009" lon="3.79781">
        <ele>97.9</ele>
        <time>2017-11-15T11:41:49Z</time>
      </trkpt>
      <trkpt lat="43.64009" lon="3.7979">
        <ele>97.3</ele>
        <time>2017-11-15T11:41:50Z</time>
      </trkpt>
      <trkpt lat="43.6401" lon="3.79798">
        <ele>96.3</ele>
        <time>2017-11-15T11:41:51Z</time>
      </trkpt>
      <trkpt lat="43.6401" lon="3.79804">
        <ele>95.7</ele>
        <time>2017-11-15T11:41:52Z</time>
      </trkpt>
      <trkpt lat="43.64012" lon="3.79809">
        <ele>94.8</ele>
        <time>2017-11-15T11:41:53Z</time>
      </trkpt>
      <trkpt lat="43.64015" lon="3.79813">
        <ele>93.8</ele>
        <time>2017-11-15T11:41:54Z</time>
      </trkpt>
      <trkpt lat="43.64019" lon="3.79812">
        <ele>93.4</ele>
        <time>2017-11-15T11:41:55Z</time>
      </trkpt>
      <trkpt lat="43.64023" lon="3.79811">
        <ele>93.1</ele>
        <time>2017-11-15T11:41:56Z</time>
      </trkpt>
      <trkpt lat="43.64027" lon="3.79808">
        <ele>92.8</ele>
        <time>2017-11-15T11:41:57Z</time>
      </trkpt>
      <trkpt lat="43.64031" lon="3.79805">
        <ele>92.4</ele>
        <time>2017-11-15T11:41:58Z</time>
      </trkpt>
      <trkpt lat="43.64034" lon="3.79804">
        <ele>92.4</ele>
        <time>2017-11-15T11:41:59Z</time>
      </trkpt>
      <trkpt lat="43.64037" lon="3.79804">
        <ele>91.8</ele>
        <time>2017-11-15T11:42:00Z</time>
      </trkpt>
      <trkpt lat="43.6404" lon="3.79804">
        <ele>91.1</ele>
        <time>2017-11-15T11:42:01Z</time>
      </trkpt>
      <trkpt lat="43.64044" lon="3.79804">
        <ele>90.5</ele>
        <time>2017-11-15T11:42:02Z</time>
      </trkpt>
      <trkpt lat="43.64047" lon="3.79804">
        <ele>89.8</ele>
        <time>2017-11-15T11:42:03Z</time>
      </trkpt>
      <trkpt lat="43.6405" lon="3.79803">
        <ele>89.1</ele>
        <time>2017-11-15T11:42:04Z</time>
      </trkpt>
      <trkpt lat="43.64054" lon="3.79805">
        <ele>88.5</ele>
        <time>2017-11-15T11:42:05Z</time>
      </trkpt>
      <trkpt lat="43.64057" lon="3.79809">
        <ele>87.4</ele>
        <time>2017-11-15T11:42:06Z</time>
      </trkpt>
      <trkpt lat="43.6406" lon="3.79812">
        <ele>86.3</ele>
        <time>2017-11-15T11:42:07Z</time>
      </trkpt>
      <trkpt lat="43.64063" lon="3.79814">
        <ele>85.1</ele>
        <time>2017-11-15T11:42:08Z</time>
      </trkpt>
      <trkpt lat="43.64065" lon="3.79817">
        <ele>84.5</ele>
        <time>2017-11-15T11:42:09Z</time>
      </trkpt>
      <trkpt lat="43.6407" lon="3.79819">
        <ele>83.4</ele>
        <time>2017-11-15T11:42:11Z</time>
      </trkpt>
      <trkpt lat="43.64073" lon="3.79818">
        <ele>83.3</ele>
        <time>2017-11-15T11:42:12Z</time>
      </trkpt>
      <trkpt lat="43.64076" lon="3.79813">
        <ele>82.9</ele>
        <time>2017-11-15T11:42:13Z</time>
      </trkpt>
      <trkpt lat="43.64079" lon="3.79809">
        <ele>82.5</ele>
        <time>2017-11-15T11:42:14Z</time>
      </trkpt>
      <trkpt lat="43.64083" lon="3.79806">
        <ele>81.8</ele>
        <time>2017-11-15T11:42:15Z</time>
      </trkpt>
      <trkpt lat="43.64087" lon="3.79803">
        <ele>80.6</ele>
        <time>2017-11-15T11:42:16Z</time>
      </trkpt>
      <trkpt lat="43.64091" lon="3.798">
        <ele>80</ele>
        <time>2017-11-15T11:42:17Z</time>
      </trkpt>
      <trkpt lat="43.64095" lon="3.79797">
        <ele>78.2</ele>
        <time>2017-11-15T11:42:18Z</time>
      </trkpt>
      <trkpt lat="43.64099" lon="3.79794">
        <ele>77.5</ele>
        <time>2017-11-15T11:42:19Z</time>
      </trkpt>
      <trkpt lat="43.64102" lon="3.79793">
        <ele>76.7</ele>
        <time>2017-11-15T11:42:20Z</time>
      </trkpt>
      <trkpt lat="43.64107" lon="3.79792">
        <ele>76</ele>
        <time>2017-11-15T11:42:21Z</time>
      </trkpt>
      <trkpt lat="43.64111" lon="3.7979">
        <ele>75.3</ele>
        <time>2017-11-15T11:42:22Z</time>
      </trkpt>
      <trkpt lat="43.64115" lon="3.79787">
        <ele>74.1</ele>
        <time>2017-11-15T11:42:23Z</time>
      </trkpt>
      <trkpt lat="43.64119" lon="3.79786">
        <ele>73.6</ele>
        <time>2017-11-15T11:42:24Z</time>
      </trkpt>
      <trkpt lat="43.64122" lon="3.79786">
        <ele>73</ele>
        <time>2017-11-15T11:42:25Z</time>
      </trkpt>
      <trkpt lat="43.64128" lon="3.79787">
        <ele>71.9</ele>
        <time>2017-11-15T11:42:27Z</time>
      </trkpt>
      <trkpt lat="43.64131" lon="3.79787">
        <ele>71.4</ele>
        <time>2017-11-15T11:42:28Z</time>
      </trkpt>
      <trkpt lat="43.64135" lon="3.79784">
        <ele>70.9</ele>
        <time>2017-11-15T11:42:29Z</time>
      </trkpt>
      <trkpt lat="43.64138" lon="3.79781">
        <ele>70.6</ele>
        <time>2017-11-15T11:42:30Z</time>
      </trkpt>
      <trkpt lat="43.64143" lon="3.79776">
        <ele>69.9</ele>
        <time>2017-11-15T11:42:32Z</time>
      </trkpt>
      <trkpt lat="43.64148" lon="3.79774">
        <ele>69.4</ele>
        <time>2017-11-15T11:42:33Z</time>
      </trkpt>
      <trkpt lat="43.64152" lon="3.79768">
        <ele>68.4</ele>
        <time>2017-11-15T11:42:34Z</time>
      </trkpt>
      <trkpt lat="43.64156" lon="3.79762">
        <ele>68.4</ele>
        <time>2017-11-15T11:42:35Z</time>
      </trkpt>
      <trkpt lat="43.64159" lon="3.79757">
        <ele>68.3</ele>
        <time>2017-11-15T11:42:36Z</time>
      </trkpt>
      <trkpt lat="43.64161" lon="3.79753">
        <ele>68.3</ele>
        <time>2017-11-15T11:42:37Z</time>
      </trkpt>
      <trkpt lat="43.64167" lon="3.79752">
        <ele>67.7</ele>
        <time>2017-11-15T11:42:39Z</time>
      </trkpt>
      <trkpt lat="43.64171" lon="3.79752">
        <ele>67.5</ele>
        <time>2017-11-15T11:42:40Z</time>
      </trkpt>
      <trkpt lat="43.64175" lon="3.79751">
        <ele>67.2</ele>
        <time>2017-11-15T11:42:41Z</time>
      </trkpt>
      <trkpt lat="43.64178" lon="3.79749">
        <ele>66.9</ele>
        <time>2017-11-15T11:42:42Z</time>
      </trkpt>
      <trkpt lat="43.64181" lon="3.79748">
        <ele>67.1</ele>
        <time>2017-11-15T11:42:43Z</time>
      </trkpt>
      <trkpt lat="43.64185" lon="3.79746">
        <ele>66.5</ele>
        <time>2017-11-15T11:42:45Z</time>
      </trkpt>
      <trkpt lat="43.64189" lon="3.79745">
        <ele>66.2</ele>
        <time>2017-11-15T11:42:47Z</time>
      </trkpt>
      <trkpt lat="43.64191" lon="3.79742">
        <ele>66.8</ele>
        <time>2017-11-15T11:42:50Z</time>
      </trkpt>
      <trkpt lat="43.64193" lon="3.79736">
        <ele>67.6</ele>
        <time>2017-11-15T11:42:52Z</time>
      </trkpt>
      <trkpt lat="43.64195" lon="3.79733">
        <ele>67.4</ele>
        <time>2017-11-15T11:42:53Z</time>
      </trkpt>
      <trkpt lat="43.64198" lon="3.79727">
        <ele>68</ele>
        <time>2017-11-15T11:42:55Z</time>
      </trkpt>
      <trkpt lat="43.64199" lon="3.79724">
        <ele>68</ele>
        <time>2017-11-15T11:42:56Z</time>
      </trkpt>
      <trkpt lat="43.642" lon="3.79719">
        <ele>68.6</ele>
        <time>2017-11-15T11:42:57Z</time>
      </trkpt>
      <trkpt lat="43.64201" lon="3.79715">
        <ele>68.2</ele>
        <time>2017-11-15T11:42:58Z</time>
      </trkpt>
      <trkpt lat="43.64203" lon="3.7971">
        <ele>68.7</ele>
        <time>2017-11-15T11:43:00Z</time>
      </trkpt>
      <trkpt lat="43.64205" lon="3.79705">
        <ele>68.5</ele>
        <time>2017-11-15T11:43:02Z</time>
      </trkpt>
      <trkpt lat="43.64206" lon="3.79701">
        <ele>68.7</ele>
        <time>2017-11-15T11:43:03Z</time>
      </trkpt>
      <trkpt lat="43.64209" lon="3.79696">
        <ele>68.4</ele>
        <time>2017-11-15T11:43:05Z</time>
      </trkpt>
      <trkpt lat="43.64209" lon="3.79691">
        <ele>68.7</ele>
        <time>2017-11-15T11:43:11Z</time>
      </trkpt>
      <trkpt lat="43.64207" lon="3.79687">
        <ele>69.1</ele>
        <time>2017-11-15T11:43:18Z</time>
      </trkpt>
      <trkpt lat="43.64208" lon="3.79683">
        <ele>69.7</ele>
        <time>2017-11-15T11:43:19Z</time>
      </trkpt>
      <trkpt lat="43.64209" lon="3.79679">
        <ele>70.4</ele>
        <time>2017-11-15T11:43:20Z</time>
      </trkpt>
      <trkpt lat="43.64209" lon="3.79676">
        <ele>71.1</ele>
        <time>2017-11-15T11:43:21Z</time>
      </trkpt>
      <trkpt lat="43.64209" lon="3.79671">
        <ele>71.9</ele>
        <time>2017-11-15T11:43:23Z</time>
      </trkpt>
      <trkpt lat="43.6421" lon="3.79666">
        <ele>72.8</ele>
        <time>2017-11-15T11:43:25Z</time>
      </trkpt>
      <trkpt lat="43.64212" lon="3.79661">
        <ele>73</ele>
        <time>2017-11-15T11:43:27Z</time>
      </trkpt>
      <trkpt lat="43.64213" lon="3.79657">
        <ele>73.8</ele>
        <time>2017-11-15T11:43:28Z</time>
      </trkpt>
      <trkpt lat="43.64215" lon="3.79653">
        <ele>74</ele>
        <time>2017-11-15T11:43:29Z</time>
      </trkpt>
      <trkpt lat="43.64218" lon="3.79648">
        <ele>74</ele>
        <time>2017-11-15T11:43:30Z</time>
      </trkpt>
      <trkpt lat="43.64222" lon="3.79643">
        <ele>73.9</ele>
        <time>2017-11-15T11:43:31Z</time>
      </trkpt>
      <trkpt lat="43.64225" lon="3.79639">
        <ele>73.7</ele>
        <time>2017-11-15T11:43:32Z</time>
      </trkpt>
      <trkpt lat="43.64228" lon="3.79635">
        <ele>73.4</ele>
        <time>2017-11-15T11:43:33Z</time>
      </trkpt>
      <trkpt lat="43.6423" lon="3.7963">
        <ele>73</ele>
        <time>2017-11-15T11:43:34Z</time>
      </trkpt>
      <trkpt lat="43.64232" lon="3.79626">
        <ele>72.6</ele>
        <time>2017-11-15T11:43:35Z</time>
      </trkpt>
      <trkpt lat="43.64233" lon="3.79621">
        <ele>73.1</ele>
        <time>2017-11-15T11:43:36Z</time>
      </trkpt>
      <trkpt lat="43.64235" lon="3.79615">
        <ele>73</ele>
        <time>2017-11-15T11:43:38Z</time>
      </trkpt>
      <trkpt lat="43.64237" lon="3.79611">
        <ele>73.2</ele>
        <time>2017-11-15T11:43:39Z</time>
      </trkpt>
      <trkpt lat="43.64239" lon="3.79607">
        <ele>73</ele>
        <time>2017-11-15T11:43:40Z</time>
      </trkpt>
      <trkpt lat="43.64241" lon="3.79605">
        <ele>73.1</ele>
        <time>2017-11-15T11:43:41Z</time>
      </trkpt>
      <trkpt lat="43.64244" lon="3.79604">
        <ele>72.9</ele>
        <time>2017-11-15T11:43:42Z</time>
      </trkpt>
      <trkpt lat="43.64249" lon="3.79601">
        <ele>72.9</ele>
        <time>2017-11-15T11:43:45Z</time>
      </trkpt>
      <trkpt lat="43.64251" lon="3.79599">
        <ele>72.9</ele>
        <time>2017-11-15T11:43:47Z</time>
      </trkpt>
      <trkpt lat="43.64255" lon="3.79597">
        <ele>73.3</ele>
        <time>2017-11-15T11:43:49Z</time>
      </trkpt>
      <trkpt lat="43.64259" lon="3.79597">
        <ele>73.2</ele>
        <time>2017-11-15T11:43:52Z</time>
      </trkpt>
      <trkpt lat="43.64262" lon="3.79596">
        <ele>73.1</ele>
        <time>2017-11-15T11:43:54Z</time>
      </trkpt>
      <trkpt lat="43.64266" lon="3.79593">
        <ele>73.4</ele>
        <time>2017-11-15T11:43:56Z</time>
      </trkpt>
      <trkpt lat="43.64268" lon="3.79589">
        <ele>73.7</ele>
        <time>2017-11-15T11:43:58Z</time>
      </trkpt>
      <trkpt lat="43.64271" lon="3.79586">
        <ele>73.9</ele>
        <time>2017-11-15T11:44:00Z</time>
      </trkpt>
      <trkpt lat="43.64274" lon="3.79582">
        <ele>73.8</ele>
        <time>2017-11-15T11:44:02Z</time>
      </trkpt>
      <trkpt lat="43.64283" lon="3.7957">
        <ele>74.4</ele>
        <time>2017-11-15T11:44:37Z</time>
      </trkpt>
      <trkpt lat="43.64285" lon="3.79567">
        <ele>74.6</ele>
        <time>2017-11-15T11:44:42Z</time>
      </trkpt>
      <trkpt lat="43.64287" lon="3.79562">
        <ele>75.1</ele>
        <time>2017-11-15T11:44:44Z</time>
      </trkpt>
      <trkpt lat="43.64292" lon="3.79559">
        <ele>74.8</ele>
        <time>2017-11-15T11:44:46Z</time>
      </trkpt>
      <trkpt lat="43.64294" lon="3.79554">
        <ele>74.8</ele>
        <time>2017-11-15T11:44:48Z</time>
      </trkpt>
      <trkpt lat="43.64296" lon="3.7955">
        <ele>75.3</ele>
        <time>2017-11-15T11:44:50Z</time>
      </trkpt>
      <trkpt lat="43.64295" lon="3.79545">
        <ele>76.1</ele>
        <time>2017-11-15T11:44:53Z</time>
      </trkpt>
      <trkpt lat="43.64298" lon="3.79539">
        <ele>77</ele>
        <time>2017-11-15T11:44:55Z</time>
      </trkpt>
      <trkpt lat="43.64302" lon="3.79533">
        <ele>77.2</ele>
        <time>2017-11-15T11:44:57Z</time>
      </trkpt>
      <trkpt lat="43.64305" lon="3.79531">
        <ele>76.7</ele>
        <time>2017-11-15T11:44:58Z</time>
      </trkpt>
      <trkpt lat="43.64309" lon="3.79529">
        <ele>77.1</ele>
        <time>2017-11-15T11:44:59Z</time>
      </trkpt>
      <trkpt lat="43.64312" lon="3.79525">
        <ele>77.5</ele>
        <time>2017-11-15T11:45:00Z</time>
      </trkpt>
      <trkpt lat="43.64314" lon="3.7952">
        <ele>78.1</ele>
        <time>2017-11-15T11:45:01Z</time>
      </trkpt>
      <trkpt lat="43.64317" lon="3.79516">
        <ele>78.8</ele>
        <time>2017-11-15T11:45:03Z</time>
      </trkpt>
      <trkpt lat="43.6432" lon="3.79514">
        <ele>78.7</ele>
        <time>2017-11-15T11:45:06Z</time>
      </trkpt>
      <trkpt lat="43.64323" lon="3.79514">
        <ele>78.6</ele>
        <time>2017-11-15T11:45:08Z</time>
      </trkpt>
      <trkpt lat="43.64328" lon="3.79518">
        <ele>77.6</ele>
        <time>2017-11-15T11:45:10Z</time>
      </trkpt>
      <trkpt lat="43.64331" lon="3.79519">
        <ele>77.8</ele>
        <time>2017-11-15T11:45:11Z</time>
      </trkpt>
      <trkpt lat="43.64336" lon="3.79518">
        <ele>77.9</ele>
        <time>2017-11-15T11:45:13Z</time>
      </trkpt>
      <trkpt lat="43.64339" lon="3.7952">
        <ele>78.1</ele>
        <time>2017-11-15T11:45:14Z</time>
      </trkpt>
      <trkpt lat="43.64342" lon="3.79522">
        <ele>78.3</ele>
        <time>2017-11-15T11:45:15Z</time>
      </trkpt>
      <trkpt lat="43.64344" lon="3.79527">
        <ele>76.4</ele>
        <time>2017-11-15T11:45:16Z</time>
      </trkpt>
      <trkpt lat="43.64346" lon="3.79535">
        <ele>74.5</ele>
        <time>2017-11-15T11:45:17Z</time>
      </trkpt>
      <trkpt lat="43.64348" lon="3.79541">
        <ele>73.5</ele>
        <time>2017-11-15T11:45:18Z</time>
      </trkpt>
      <trkpt lat="43.6435" lon="3.79543">
        <ele>73.6</ele>
        <time>2017-11-15T11:45:19Z</time>
      </trkpt>
      <trkpt lat="43.64354" lon="3.79541">
        <ele>73.7</ele>
        <time>2017-11-15T11:45:20Z</time>
      </trkpt>
      <trkpt lat="43.64359" lon="3.79539">
        <ele>75</ele>
        <time>2017-11-15T11:45:21Z</time>
      </trkpt>
      <trkpt lat="43.64365" lon="3.79538">
        <ele>75</ele>
        <time>2017-11-15T11:45:22Z</time>
      </trkpt>
      <trkpt lat="43.6437" lon="3.79536">
        <ele>75.6</ele>
        <time>2017-11-15T11:45:23Z</time>
      </trkpt>
      <trkpt lat="43.64377" lon="3.79532">
        <ele>77.6</ele>
        <time>2017-11-15T11:45:24Z</time>
      </trkpt>
      <trkpt lat="43.64383" lon="3.79528">
        <ele>78.4</ele>
        <time>2017-11-15T11:45:25Z</time>
      </trkpt>
      <trkpt lat="43.64387" lon="3.79524">
        <ele>79.1</ele>
        <time>2017-11-15T11:45:26Z</time>
      </trkpt>
      <trkpt lat="43.64391" lon="3.7952">
        <ele>79.8</ele>
        <time>2017-11-15T11:45:27Z</time>
      </trkpt>
      <trkpt lat="43.64395" lon="3.79517">
        <ele>80.4</ele>
        <time>2017-11-15T11:45:28Z</time>
      </trkpt>
      <trkpt lat="43.64398" lon="3.79514">
        <ele>80.3</ele>
        <time>2017-11-15T11:45:29Z</time>
      </trkpt>
      <trkpt lat="43.64402" lon="3.79512">
        <ele>80.3</ele>
        <time>2017-11-15T11:45:30Z</time>
      </trkpt>
      <trkpt lat="43.64406" lon="3.79509">
        <ele>80.2</ele>
        <time>2017-11-15T11:45:31Z</time>
      </trkpt>
      <trkpt lat="43.6441" lon="3.79506">
        <ele>80.1</ele>
        <time>2017-11-15T11:45:32Z</time>
      </trkpt>
      <trkpt lat="43.64413" lon="3.79503">
        <ele>79.7</ele>
        <time>2017-11-15T11:45:33Z</time>
      </trkpt>
      <trkpt lat="43.64416" lon="3.795">
        <ele>79.1</ele>
        <time>2017-11-15T11:45:34Z</time>
      </trkpt>
      <trkpt lat="43.64419" lon="3.79498">
        <ele>78.5</ele>
        <time>2017-11-15T11:45:35Z</time>
      </trkpt>
      <trkpt lat="43.64422" lon="3.79495">
        <ele>77.8</ele>
        <time>2017-11-15T11:45:36Z</time>
      </trkpt>
      <trkpt lat="43.64425" lon="3.79491">
        <ele>77.1</ele>
        <time>2017-11-15T11:45:37Z</time>
      </trkpt>
      <trkpt lat="43.64428" lon="3.79488">
        <ele>77.1</ele>
        <time>2017-11-15T11:45:38Z</time>
      </trkpt>
      <trkpt lat="43.64431" lon="3.79485">
        <ele>77.1</ele>
        <time>2017-11-15T11:45:39Z</time>
      </trkpt>
      <trkpt lat="43.64433" lon="3.79482">
        <ele>77</ele>
        <time>2017-11-15T11:45:40Z</time>
      </trkpt>
      <trkpt lat="43.64435" lon="3.79479">
        <ele>76.9</ele>
        <time>2017-11-15T11:45:41Z</time>
      </trkpt>
      <trkpt lat="43.64438" lon="3.79476">
        <ele>76.7</ele>
        <time>2017-11-15T11:45:42Z</time>
      </trkpt>
      <trkpt lat="43.6444" lon="3.79472">
        <ele>76.7</ele>
        <time>2017-11-15T11:45:43Z</time>
      </trkpt>
      <trkpt lat="43.64445" lon="3.79466">
        <ele>77.1</ele>
        <time>2017-11-15T11:45:45Z</time>
      </trkpt>
      <trkpt lat="43.64447" lon="3.79463">
        <ele>77.3</ele>
        <time>2017-11-15T11:45:46Z</time>
      </trkpt>
      <trkpt lat="43.64451" lon="3.79458">
        <ele>77.5</ele>
        <time>2017-11-15T11:45:47Z</time>
      </trkpt>
      <trkpt lat="43.64453" lon="3.79456">
        <ele>77.6</ele>
        <time>2017-11-15T11:45:48Z</time>
      </trkpt>
      <trkpt lat="43.64458" lon="3.79451">
        <ele>77.8</ele>
        <time>2017-11-15T11:45:50Z</time>
      </trkpt>
      <trkpt lat="43.64462" lon="3.79448">
        <ele>78.2</ele>
        <time>2017-11-15T11:45:51Z</time>
      </trkpt>
      <trkpt lat="43.64466" lon="3.79446">
        <ele>79.2</ele>
        <time>2017-11-15T11:45:52Z</time>
      </trkpt>
      <trkpt lat="43.64469" lon="3.79446">
        <ele>80</ele>
        <time>2017-11-15T11:45:53Z</time>
      </trkpt>
      <trkpt lat="43.64472" lon="3.79443">
        <ele>80.2</ele>
        <time>2017-11-15T11:45:54Z</time>
      </trkpt>
      <trkpt lat="43.64477" lon="3.79439">
        <ele>80.5</ele>
        <time>2017-11-15T11:45:55Z</time>
      </trkpt>
      <trkpt lat="43.64481" lon="3.79436">
        <ele>79.6</ele>
        <time>2017-11-15T11:45:56Z</time>
      </trkpt>
      <trkpt lat="43.64484" lon="3.79435">
        <ele>79.1</ele>
        <time>2017-11-15T11:45:57Z</time>
      </trkpt>
      <trkpt lat="43.64489" lon="3.79434">
        <ele>78.1</ele>
        <time>2017-11-15T11:45:58Z</time>
      </trkpt>
      <trkpt lat="43.64496" lon="3.79431">
        <ele>77.3</ele>
        <time>2017-11-15T11:45:59Z</time>
      </trkpt>
      <trkpt lat="43.64502" lon="3.79431">
        <ele>77.4</ele>
        <time>2017-11-15T11:46:00Z</time>
      </trkpt>
      <trkpt lat="43.64507" lon="3.79433">
        <ele>76.9</ele>
        <time>2017-11-15T11:46:01Z</time>
      </trkpt>
      <trkpt lat="43.64511" lon="3.79433">
        <ele>76.4</ele>
        <time>2017-11-15T11:46:02Z</time>
      </trkpt>
      <trkpt lat="43.64516" lon="3.79432">
        <ele>76</ele>
        <time>2017-11-15T11:46:03Z</time>
      </trkpt>
      <trkpt lat="43.64521" lon="3.79432">
        <ele>75.6</ele>
        <time>2017-11-15T11:46:04Z</time>
      </trkpt>
      <trkpt lat="43.64526" lon="3.79433">
        <ele>75.3</ele>
        <time>2017-11-15T11:46:05Z</time>
      </trkpt>
      <trkpt lat="43.64531" lon="3.79437">
        <ele>74.8</ele>
        <time>2017-11-15T11:46:06Z</time>
      </trkpt>
      <trkpt lat="43.64536" lon="3.79438">
        <ele>74.2</ele>
        <time>2017-11-15T11:46:07Z</time>
      </trkpt>
      <trkpt lat="43.6454" lon="3.79438">
        <ele>73.8</ele>
        <time>2017-11-15T11:46:08Z</time>
      </trkpt>
      <trkpt lat="43.64544" lon="3.79436">
        <ele>73.2</ele>
        <time>2017-11-15T11:46:09Z</time>
      </trkpt>
      <trkpt lat="43.64549" lon="3.79434">
        <ele>73.4</ele>
        <time>2017-11-15T11:46:10Z</time>
      </trkpt>
      <trkpt lat="43.64555" lon="3.79434">
        <ele>73.8</ele>
        <time>2017-11-15T11:46:11Z</time>
      </trkpt>
      <trkpt lat="43.64561" lon="3.79435">
        <ele>73.7</ele>
        <time>2017-11-15T11:46:12Z</time>
      </trkpt>
      <trkpt lat="43.64567" lon="3.79437">
        <ele>73.8</ele>
        <time>2017-11-15T11:46:13Z</time>
      </trkpt>
      <trkpt lat="43.64573" lon="3.79441">
        <ele>73.6</ele>
        <time>2017-11-15T11:46:14Z</time>
      </trkpt>
      <trkpt lat="43.64578" lon="3.79444">
        <ele>72.8</ele>
        <time>2017-11-15T11:46:15Z</time>
      </trkpt>
      <trkpt lat="43.64582" lon="3.79443">
        <ele>70.4</ele>
        <time>2017-11-15T11:46:16Z</time>
      </trkpt>
      <trkpt lat="43.64586" lon="3.79439">
        <ele>65.7</ele>
        <time>2017-11-15T11:46:20Z</time>
      </trkpt>
      <trkpt lat="43.6459" lon="3.79437">
        <ele>66.2</ele>
        <time>2017-11-15T11:46:21Z</time>
      </trkpt>
      <trkpt lat="43.64592" lon="3.79435">
        <ele>66.6</ele>
        <time>2017-11-15T11:46:22Z</time>
      </trkpt>
      <trkpt lat="43.64593" lon="3.79429">
        <ele>66.8</ele>
        <time>2017-11-15T11:46:24Z</time>
      </trkpt>
      <trkpt lat="43.64597" lon="3.79425">
        <ele>67</ele>
        <time>2017-11-15T11:46:25Z</time>
      </trkpt>
      <trkpt lat="43.646" lon="3.79421">
        <ele>67.3</ele>
        <time>2017-11-15T11:46:26Z</time>
      </trkpt>
      <trkpt lat="43.64603" lon="3.79417">
        <ele>67.5</ele>
        <time>2017-11-15T11:46:27Z</time>
      </trkpt>
      <trkpt lat="43.64606" lon="3.79414">
        <ele>67.6</ele>
        <time>2017-11-15T11:46:28Z</time>
      </trkpt>
      <trkpt lat="43.64608" lon="3.7941">
        <ele>67.8</ele>
        <time>2017-11-15T11:46:29Z</time>
      </trkpt>
      <trkpt lat="43.6461" lon="3.79406">
        <ele>68</ele>
        <time>2017-11-15T11:46:30Z</time>
      </trkpt>
      <trkpt lat="43.64612" lon="3.79402">
        <ele>68.1</ele>
        <time>2017-11-15T11:46:31Z</time>
      </trkpt>
      <trkpt lat="43.64615" lon="3.79399">
        <ele>68.2</ele>
        <time>2017-11-15T11:46:32Z</time>
      </trkpt>
      <trkpt lat="43.64618" lon="3.79396">
        <ele>68.4</ele>
        <time>2017-11-15T11:46:33Z</time>
      </trkpt>
      <trkpt lat="43.64621" lon="3.79393">
        <ele>68.5</ele>
        <time>2017-11-15T11:46:34Z</time>
      </trkpt>
      <trkpt lat="43.64623" lon="3.79389">
        <ele>68.7</ele>
        <time>2017-11-15T11:46:35Z</time>
      </trkpt>
      <trkpt lat="43.64626" lon="3.79386">
        <ele>68.8</ele>
        <time>2017-11-15T11:46:36Z</time>
      </trkpt>
      <trkpt lat="43.64629" lon="3.79383">
        <ele>69</ele>
        <time>2017-11-15T11:46:37Z</time>
      </trkpt>
      <trkpt lat="43.64633" lon="3.7938">
        <ele>69.2</ele>
        <time>2017-11-15T11:46:38Z</time>
      </trkpt>
      <trkpt lat="43.64635" lon="3.79376">
        <ele>69.3</ele>
        <time>2017-11-15T11:46:39Z</time>
      </trkpt>
      <trkpt lat="43.64636" lon="3.7937">
        <ele>69.5</ele>
        <time>2017-11-15T11:46:42Z</time>
      </trkpt>
      <trkpt lat="43.64638" lon="3.79367">
        <ele>69.6</ele>
        <time>2017-11-15T11:46:43Z</time>
      </trkpt>
      <trkpt lat="43.6464" lon="3.79363">
        <ele>69.7</ele>
        <time>2017-11-15T11:46:44Z</time>
      </trkpt>
      <trkpt lat="43.64642" lon="3.79358">
        <ele>69.8</ele>
        <time>2017-11-15T11:46:45Z</time>
      </trkpt>
      <trkpt lat="43.64644" lon="3.79353">
        <ele>70</ele>
        <time>2017-11-15T11:46:46Z</time>
      </trkpt>
      <trkpt lat="43.64646" lon="3.79348">
        <ele>70.1</ele>
        <time>2017-11-15T11:46:47Z</time>
      </trkpt>
      <trkpt lat="43.64647" lon="3.79343">
        <ele>70.2</ele>
        <time>2017-11-15T11:46:48Z</time>
      </trkpt>
      <trkpt lat="43.64647" lon="3.79339">
        <ele>70.3</ele>
        <time>2017-11-15T11:46:49Z</time>
      </trkpt>
      <trkpt lat="43.64648" lon="3.79333">
        <ele>70.5</ele>
        <time>2017-11-15T11:46:51Z</time>
      </trkpt>
      <trkpt lat="43.64649" lon="3.79326">
        <ele>70.6</ele>
        <time>2017-11-15T11:46:53Z</time>
      </trkpt>
      <trkpt lat="43.64649" lon="3.7932">
        <ele>70.7</ele>
        <time>2017-11-15T11:46:54Z</time>
      </trkpt>
      <trkpt lat="43.6465" lon="3.79316">
        <ele>70.9</ele>
        <time>2017-11-15T11:46:55Z</time>
      </trkpt>
      <trkpt lat="43.64652" lon="3.79312">
        <ele>70.9</ele>
        <time>2017-11-15T11:46:56Z</time>
      </trkpt>
      <trkpt lat="43.64653" lon="3.79305">
        <ele>71.1</ele>
        <time>2017-11-15T11:46:58Z</time>
      </trkpt>
      <trkpt lat="43.64655" lon="3.79301">
        <ele>71.3</ele>
        <time>2017-11-15T11:46:59Z</time>
      </trkpt>
      <trkpt lat="43.64658" lon="3.79297">
        <ele>71.4</ele>
        <time>2017-11-15T11:47:00Z</time>
      </trkpt>
      <trkpt lat="43.64661" lon="3.79292">
        <ele>71.6</ele>
        <time>2017-11-15T11:47:01Z</time>
      </trkpt>
      <trkpt lat="43.64664" lon="3.79288">
        <ele>71.8</ele>
        <time>2017-11-15T11:47:02Z</time>
      </trkpt>
      <trkpt lat="43.6467" lon="3.79287">
        <ele>72.1</ele>
        <time>2017-11-15T11:47:03Z</time>
      </trkpt>
      <trkpt lat="43.64675" lon="3.79286">
        <ele>72.6</ele>
        <time>2017-11-15T11:47:04Z</time>
      </trkpt>
      <trkpt lat="43.64679" lon="3.79285">
        <ele>73.1</ele>
        <time>2017-11-15T11:47:05Z</time>
      </trkpt>
      <trkpt lat="43.64681" lon="3.79283">
        <ele>73.3</ele>
        <time>2017-11-15T11:47:06Z</time>
      </trkpt>
      <trkpt lat="43.64684" lon="3.7928">
        <ele>73.5</ele>
        <time>2017-11-15T11:47:07Z</time>
      </trkpt>
      <trkpt lat="43.64687" lon="3.79276">
        <ele>73.8</ele>
        <time>2017-11-15T11:47:08Z</time>
      </trkpt>
      <trkpt lat="43.64688" lon="3.79272">
        <ele>74.1</ele>
        <time>2017-11-15T11:47:09Z</time>
      </trkpt>
      <trkpt lat="43.6469" lon="3.79268">
        <ele>74.4</ele>
        <time>2017-11-15T11:47:10Z</time>
      </trkpt>
      <trkpt lat="43.64691" lon="3.79263">
        <ele>74.7</ele>
        <time>2017-11-15T11:47:11Z</time>
      </trkpt>
      <trkpt lat="43.64694" lon="3.79258">
        <ele>75.1</ele>
        <time>2017-11-15T11:47:12Z</time>
      </trkpt>
      <trkpt lat="43.64695" lon="3.79252">
        <ele>75.4</ele>
        <time>2017-11-15T11:47:13Z</time>
      </trkpt>
      <trkpt lat="43.64697" lon="3.79248">
        <ele>75.6</ele>
        <time>2017-11-15T11:47:14Z</time>
      </trkpt>
      <trkpt lat="43.64698" lon="3.79243">
        <ele>75.8</ele>
        <time>2017-11-15T11:47:16Z</time>
      </trkpt>
      <trkpt lat="43.64701" lon="3.79237">
        <ele>76.1</ele>
        <time>2017-11-15T11:47:18Z</time>
      </trkpt>
      <trkpt lat="43.64702" lon="3.79232">
        <ele>76.3</ele>
        <time>2017-11-15T11:47:19Z</time>
      </trkpt>
      <trkpt lat="43.64702" lon="3.79227">
        <ele>76.5</ele>
        <time>2017-11-15T11:47:20Z</time>
      </trkpt>
      <trkpt lat="43.64703" lon="3.79223">
        <ele>76.7</ele>
        <time>2017-11-15T11:47:21Z</time>
      </trkpt>
      <trkpt lat="43.64704" lon="3.79219">
        <ele>77.3</ele>
        <time>2017-11-15T11:47:22Z</time>
      </trkpt>
      <trkpt lat="43.64706" lon="3.79215">
        <ele>77.6</ele>
        <time>2017-11-15T11:47:23Z</time>
      </trkpt>
      <trkpt lat="43.64706" lon="3.7921">
        <ele>78.5</ele>
        <time>2017-11-15T11:47:25Z</time>
      </trkpt>
      <trkpt lat="43.64706" lon="3.79206">
        <ele>79.5</ele>
        <time>2017-11-15T11:47:27Z</time>
      </trkpt>
      <trkpt lat="43.64707" lon="3.79203">
        <ele>80.5</ele>
        <time>2017-11-15T11:47:30Z</time>
      </trkpt>
      <trkpt lat="43.64704" lon="3.79204">
        <ele>80.5</ele>
        <time>2017-11-15T11:47:36Z</time>
      </trkpt>
      <trkpt lat="43.64703" lon="3.79208">
        <ele>79.6</ele>
        <time>2017-11-15T11:47:41Z</time>
      </trkpt>
      <trkpt lat="43.64702" lon="3.79213">
        <ele>77.6</ele>
        <time>2017-11-15T11:47:42Z</time>
      </trkpt>
      <trkpt lat="43.64702" lon="3.79221">
        <ele>76.7</ele>
        <time>2017-11-15T11:47:43Z</time>
      </trkpt>
      <trkpt lat="43.64702" lon="3.79228">
        <ele>76.5</ele>
        <time>2017-11-15T11:47:44Z</time>
      </trkpt>
      <trkpt lat="43.64702" lon="3.79235">
        <ele>76.4</ele>
        <time>2017-11-15T11:47:45Z</time>
      </trkpt>
      <trkpt lat="43.64705" lon="3.7924">
        <ele>76.2</ele>
        <time>2017-11-15T11:47:46Z</time>
      </trkpt>
      <trkpt lat="43.64707" lon="3.79244">
        <ele>76.1</ele>
        <time>2017-11-15T11:47:47Z</time>
      </trkpt>
      <trkpt lat="43.64707" lon="3.7925">
        <ele>76</ele>
        <time>2017-11-15T11:47:49Z</time>
      </trkpt>
      <trkpt lat="43.64709" lon="3.79252">
        <ele>75.9</ele>
        <time>2017-11-15T11:47:52Z</time>
      </trkpt>
      <trkpt lat="43.64706" lon="3.79256">
        <ele>75.8</ele>
        <time>2017-11-15T11:47:55Z</time>
      </trkpt>
      <trkpt lat="43.64704" lon="3.79259">
        <ele>75.7</ele>
        <time>2017-11-15T11:47:58Z</time>
      </trkpt>
      <trkpt lat="43.64701" lon="3.7926">
        <ele>75.6</ele>
        <time>2017-11-15T11:48:00Z</time>
      </trkpt>
      <trkpt lat="43.64699" lon="3.79257">
        <ele>75.6</ele>
        <time>2017-11-15T11:48:03Z</time>
      </trkpt>
      <trkpt lat="43.647" lon="3.79251">
        <ele>75.8</ele>
        <time>2017-11-15T11:48:05Z</time>
      </trkpt>
      <trkpt lat="43.64703" lon="3.79247">
        <ele>76</ele>
        <time>2017-11-15T11:48:07Z</time>
      </trkpt>
      <trkpt lat="43.64704" lon="3.79242">
        <ele>76.2</ele>
        <time>2017-11-15T11:48:08Z</time>
      </trkpt>
      <trkpt lat="43.64707" lon="3.79238">
        <ele>76.5</ele>
        <time>2017-11-15T11:48:10Z</time>
      </trkpt>
      <trkpt lat="43.64709" lon="3.79234">
        <ele>76.6</ele>
        <time>2017-11-15T11:48:12Z</time>
      </trkpt>
      <trkpt lat="43.64711" lon="3.79229">
        <ele>76.9</ele>
        <time>2017-11-15T11:48:14Z</time>
      </trkpt>
      <trkpt lat="43.64715" lon="3.79222">
        <ele>77.7</ele>
        <time>2017-11-15T11:48:16Z</time>
      </trkpt>
      <trkpt lat="43.64717" lon="3.79218">
        <ele>78.5</ele>
        <time>2017-11-15T11:48:17Z</time>
      </trkpt>
      <trkpt lat="43.64719" lon="3.79214">
        <ele>79.2</ele>
        <time>2017-11-15T11:48:18Z</time>
      </trkpt>
      <trkpt lat="43.64721" lon="3.79209">
        <ele>80</ele>
        <time>2017-11-15T11:48:19Z</time>
      </trkpt>
      <trkpt lat="43.64724" lon="3.79206">
        <ele>80.7</ele>
        <time>2017-11-15T11:48:20Z</time>
      </trkpt>
      <trkpt lat="43.64727" lon="3.79203">
        <ele>81.2</ele>
        <time>2017-11-15T11:48:21Z</time>
      </trkpt>
      <trkpt lat="43.64728" lon="3.792">
        <ele>81.5</ele>
        <time>2017-11-15T11:48:22Z</time>
      </trkpt>
      <trkpt lat="43.64731" lon="3.79195">
        <ele>81.9</ele>
        <time>2017-11-15T11:48:24Z</time>
      </trkpt>
      <trkpt lat="43.64731" lon="3.79189">
        <ele>82.2</ele>
        <time>2017-11-15T11:48:30Z</time>
      </trkpt>
      <trkpt lat="43.64733" lon="3.79184">
        <ele>82.3</ele>
        <time>2017-11-15T11:48:31Z</time>
      </trkpt>
      <trkpt lat="43.64735" lon="3.79179">
        <ele>82.5</ele>
        <time>2017-11-15T11:48:33Z</time>
      </trkpt>
      <trkpt lat="43.64738" lon="3.79176">
        <ele>82.7</ele>
        <time>2017-11-15T11:48:34Z</time>
      </trkpt>
      <trkpt lat="43.6474" lon="3.79172">
        <ele>82.9</ele>
        <time>2017-11-15T11:48:35Z</time>
      </trkpt>
      <trkpt lat="43.64745" lon="3.79166">
        <ele>83.1</ele>
        <time>2017-11-15T11:48:37Z</time>
      </trkpt>
      <trkpt lat="43.64747" lon="3.79164">
        <ele>83.3</ele>
        <time>2017-11-15T11:48:38Z</time>
      </trkpt>
      <trkpt lat="43.64749" lon="3.79162">
        <ele>83.4</ele>
        <time>2017-11-15T11:48:39Z</time>
      </trkpt>
      <trkpt lat="43.64752" lon="3.7916">
        <ele>83.5</ele>
        <time>2017-11-15T11:48:40Z</time>
      </trkpt>
      <trkpt lat="43.64756" lon="3.79157">
        <ele>83.7</ele>
        <time>2017-11-15T11:48:41Z</time>
      </trkpt>
      <trkpt lat="43.6476" lon="3.79155">
        <ele>83.9</ele>
        <time>2017-11-15T11:48:42Z</time>
      </trkpt>
      <trkpt lat="43.64763" lon="3.79154">
        <ele>84</ele>
        <time>2017-11-15T11:48:43Z</time>
      </trkpt>
      <trkpt lat="43.64767" lon="3.79151">
        <ele>83.9</ele>
        <time>2017-11-15T11:48:44Z</time>
      </trkpt>
      <trkpt lat="43.64771" lon="3.79148">
        <ele>83.8</ele>
        <time>2017-11-15T11:48:46Z</time>
      </trkpt>
      <trkpt lat="43.64774" lon="3.79146">
        <ele>83.8</ele>
        <time>2017-11-15T11:48:47Z</time>
      </trkpt>
      <trkpt lat="43.64778" lon="3.79144">
        <ele>83.7</ele>
        <time>2017-11-15T11:48:48Z</time>
      </trkpt>
      <trkpt lat="43.64782" lon="3.79139">
        <ele>83.7</ele>
        <time>2017-11-15T11:48:50Z</time>
      </trkpt>
      <trkpt lat="43.64784" lon="3.79137">
        <ele>83.6</ele>
        <time>2017-11-15T11:48:54Z</time>
      </trkpt>
      <trkpt lat="43.64787" lon="3.79136">
        <ele>83.6</ele>
        <time>2017-11-15T11:48:57Z</time>
      </trkpt>
      <trkpt lat="43.6479" lon="3.79136">
        <ele>83.6</ele>
        <time>2017-11-15T11:48:58Z</time>
      </trkpt>
      <trkpt lat="43.64794" lon="3.79135">
        <ele>83.5</ele>
        <time>2017-11-15T11:48:59Z</time>
      </trkpt>
      <trkpt lat="43.64797" lon="3.79131">
        <ele>83.5</ele>
        <time>2017-11-15T11:49:00Z</time>
      </trkpt>
      <trkpt lat="43.64799" lon="3.79127">
        <ele>83.5</ele>
        <time>2017-11-15T11:49:01Z</time>
      </trkpt>
      <trkpt lat="43.64801" lon="3.79124">
        <ele>83.4</ele>
        <time>2017-11-15T11:49:02Z</time>
      </trkpt>
      <trkpt lat="43.64803" lon="3.79121">
        <ele>83.4</ele>
        <time>2017-11-15T11:49:04Z</time>
      </trkpt>
      <trkpt lat="43.64804" lon="3.79115">
        <ele>83.4</ele>
        <time>2017-11-15T11:49:07Z</time>
      </trkpt>
      <trkpt lat="43.64806" lon="3.79108">
        <ele>83.3</ele>
        <time>2017-11-15T11:49:09Z</time>
      </trkpt>
      <trkpt lat="43.64808" lon="3.79105">
        <ele>83.3</ele>
        <time>2017-11-15T11:49:10Z</time>
      </trkpt>
      <trkpt lat="43.6481" lon="3.79102">
        <ele>83.3</ele>
        <time>2017-11-15T11:49:12Z</time>
      </trkpt>
      <trkpt lat="43.64813" lon="3.79099">
        <ele>83.2</ele>
        <time>2017-11-15T11:49:14Z</time>
      </trkpt>
      <trkpt lat="43.64816" lon="3.79097">
        <ele>83.2</ele>
        <time>2017-11-15T11:49:15Z</time>
      </trkpt>
      <trkpt lat="43.64819" lon="3.79095">
        <ele>83.1</ele>
        <time>2017-11-15T11:49:16Z</time>
      </trkpt>
      <trkpt lat="43.64822" lon="3.79093">
        <ele>83.1</ele>
        <time>2017-11-15T11:49:17Z</time>
      </trkpt>
      <trkpt lat="43.64825" lon="3.79089">
        <ele>83</ele>
        <time>2017-11-15T11:49:19Z</time>
      </trkpt>
      <trkpt lat="43.64829" lon="3.79084">
        <ele>83</ele>
        <time>2017-11-15T11:49:20Z</time>
      </trkpt>
      <trkpt lat="43.64832" lon="3.79081">
        <ele>82.9</ele>
        <time>2017-11-15T11:49:21Z</time>
      </trkpt>
      <trkpt lat="43.64835" lon="3.79078">
        <ele>82.9</ele>
        <time>2017-11-15T11:49:22Z</time>
      </trkpt>
      <trkpt lat="43.64839" lon="3.79075">
        <ele>82.8</ele>
        <time>2017-11-15T11:49:23Z</time>
      </trkpt>
      <trkpt lat="43.64843" lon="3.79071">
        <ele>82.7</ele>
        <time>2017-11-15T11:49:24Z</time>
      </trkpt>
      <trkpt lat="43.64848" lon="3.79067">
        <ele>82.6</ele>
        <time>2017-11-15T11:49:25Z</time>
      </trkpt>
      <trkpt lat="43.64853" lon="3.79065">
        <ele>82.6</ele>
        <time>2017-11-15T11:49:26Z</time>
      </trkpt>
      <trkpt lat="43.64856" lon="3.7906">
        <ele>82.5</ele>
        <time>2017-11-15T11:49:27Z</time>
      </trkpt>
      <trkpt lat="43.64859" lon="3.79056">
        <ele>82.4</ele>
        <time>2017-11-15T11:49:28Z</time>
      </trkpt>
      <trkpt lat="43.64863" lon="3.79052">
        <ele>82.3</ele>
        <time>2017-11-15T11:49:29Z</time>
      </trkpt>
      <trkpt lat="43.64867" lon="3.79049">
        <ele>82.3</ele>
        <time>2017-11-15T11:49:30Z</time>
      </trkpt>
      <trkpt lat="43.64871" lon="3.79045">
        <ele>82.2</ele>
        <time>2017-11-15T11:49:31Z</time>
      </trkpt>
      <trkpt lat="43.64874" lon="3.79043">
        <ele>82.1</ele>
        <time>2017-11-15T11:49:32Z</time>
      </trkpt>
      <trkpt lat="43.64879" lon="3.7904">
        <ele>82</ele>
        <time>2017-11-15T11:49:34Z</time>
      </trkpt>
      <trkpt lat="43.64882" lon="3.79037">
        <ele>82</ele>
        <time>2017-11-15T11:49:35Z</time>
      </trkpt>
      <trkpt lat="43.64885" lon="3.79035">
        <ele>81.9</ele>
        <time>2017-11-15T11:49:36Z</time>
      </trkpt>
      <trkpt lat="43.64888" lon="3.79032">
        <ele>81.9</ele>
        <time>2017-11-15T11:49:37Z</time>
      </trkpt>
      <trkpt lat="43.64891" lon="3.79032">
        <ele>81.8</ele>
        <time>2017-11-15T11:49:38Z</time>
      </trkpt>
      <trkpt lat="43.64894" lon="3.79029">
        <ele>81.8</ele>
        <time>2017-11-15T11:49:39Z</time>
      </trkpt>
      <trkpt lat="43.64898" lon="3.79027">
        <ele>81.7</ele>
        <time>2017-11-15T11:49:40Z</time>
      </trkpt>
      <trkpt lat="43.64901" lon="3.79026">
        <ele>81.7</ele>
        <time>2017-11-15T11:49:41Z</time>
      </trkpt>
      <trkpt lat="43.64905" lon="3.79024">
        <ele>81.6</ele>
        <time>2017-11-15T11:49:42Z</time>
      </trkpt>
      <trkpt lat="43.64908" lon="3.79023">
        <ele>81.6</ele>
        <time>2017-11-15T11:49:43Z</time>
      </trkpt>
      <trkpt lat="43.64911" lon="3.7902">
        <ele>81.5</ele>
        <time>2017-11-15T11:49:44Z</time>
      </trkpt>
      <trkpt lat="43.64914" lon="3.79017">
        <ele>81.4</ele>
        <time>2017-11-15T11:49:45Z</time>
      </trkpt>
      <trkpt lat="43.64918" lon="3.79012">
        <ele>81.3</ele>
        <time>2017-11-15T11:49:46Z</time>
      </trkpt>
      <trkpt lat="43.64922" lon="3.79009">
        <ele>81.3</ele>
        <time>2017-11-15T11:49:47Z</time>
      </trkpt>
      <trkpt lat="43.64927" lon="3.79006">
        <ele>81.2</ele>
        <time>2017-11-15T11:49:48Z</time>
      </trkpt>
      <trkpt lat="43.64932" lon="3.79002">
        <ele>81.1</ele>
        <time>2017-11-15T11:49:49Z</time>
      </trkpt>
      <trkpt lat="43.64938" lon="3.78995">
        <ele>80.9</ele>
        <time>2017-11-15T11:49:50Z</time>
      </trkpt>
      <trkpt lat="43.64942" lon="3.78991">
        <ele>80.8</ele>
        <time>2017-11-15T11:49:51Z</time>
      </trkpt>
      <trkpt lat="43.64948" lon="3.78989">
        <ele>80.7</ele>
        <time>2017-11-15T11:49:52Z</time>
      </trkpt>
      <trkpt lat="43.64952" lon="3.78987">
        <ele>80.6</ele>
        <time>2017-11-15T11:49:53Z</time>
      </trkpt>
      <trkpt lat="43.64956" lon="3.78985">
        <ele>80.6</ele>
        <time>2017-11-15T11:49:54Z</time>
      </trkpt>
      <trkpt lat="43.64962" lon="3.78982">
        <ele>80.5</ele>
        <time>2017-11-15T11:49:55Z</time>
      </trkpt>
      <trkpt lat="43.64967" lon="3.78979">
        <ele>80.4</ele>
        <time>2017-11-15T11:49:56Z</time>
      </trkpt>
      <trkpt lat="43.64972" lon="3.78974">
        <ele>80.3</ele>
        <time>2017-11-15T11:49:57Z</time>
      </trkpt>
      <trkpt lat="43.64977" lon="3.7897">
        <ele>80.2</ele>
        <time>2017-11-15T11:49:58Z</time>
      </trkpt>
      <trkpt lat="43.64981" lon="3.78968">
        <ele>80.1</ele>
        <time>2017-11-15T11:49:59Z</time>
      </trkpt>
      <trkpt lat="43.64986" lon="3.78964">
        <ele>80.1</ele>
        <time>2017-11-15T11:50:00Z</time>
      </trkpt>
      <trkpt lat="43.64989" lon="3.78961">
        <ele>80</ele>
        <time>2017-11-15T11:50:01Z</time>
      </trkpt>
      <trkpt lat="43.64993" lon="3.78958">
        <ele>80</ele>
        <time>2017-11-15T11:50:02Z</time>
      </trkpt>
      <trkpt lat="43.64996" lon="3.78955">
        <ele>79.4</ele>
        <time>2017-11-15T11:50:03Z</time>
      </trkpt>
      <trkpt lat="43.65" lon="3.78953">
        <ele>78.8</ele>
        <time>2017-11-15T11:50:04Z</time>
      </trkpt>
      <trkpt lat="43.65004" lon="3.78948">
        <ele>78.6</ele>
        <time>2017-11-15T11:50:05Z</time>
      </trkpt>
      <trkpt lat="43.65008" lon="3.78944">
        <ele>78.4</ele>
        <time>2017-11-15T11:50:06Z</time>
      </trkpt>
      <trkpt lat="43.65011" lon="3.78942">
        <ele>78</ele>
        <time>2017-11-15T11:50:07Z</time>
      </trkpt>
      <trkpt lat="43.65015" lon="3.78939">
        <ele>78</ele>
        <time>2017-11-15T11:50:08Z</time>
      </trkpt>
      <trkpt lat="43.65018" lon="3.78937">
        <ele>78</ele>
        <time>2017-11-15T11:50:09Z</time>
      </trkpt>
      <trkpt lat="43.65021" lon="3.7893">
        <ele>78.3</ele>
        <time>2017-11-15T11:50:11Z</time>
      </trkpt>
      <trkpt lat="43.65024" lon="3.78926">
        <ele>78.5</ele>
        <time>2017-11-15T11:50:12Z</time>
      </trkpt>
      <trkpt lat="43.65026" lon="3.78923">
        <ele>78.5</ele>
        <time>2017-11-15T11:50:13Z</time>
      </trkpt>
      <trkpt lat="43.65029" lon="3.78918">
        <ele>78.6</ele>
        <time>2017-11-15T11:50:15Z</time>
      </trkpt>
      <trkpt lat="43.65032" lon="3.78914">
        <ele>78.7</ele>
        <time>2017-11-15T11:50:17Z</time>
      </trkpt>
      <trkpt lat="43.65035" lon="3.78913">
        <ele>78.7</ele>
        <time>2017-11-15T11:50:18Z</time>
      </trkpt>
      <trkpt lat="43.65038" lon="3.7891">
        <ele>78.8</ele>
        <time>2017-11-15T11:50:19Z</time>
      </trkpt>
      <trkpt lat="43.65041" lon="3.78907">
        <ele>78.7</ele>
        <time>2017-11-15T11:50:20Z</time>
      </trkpt>
      <trkpt lat="43.65045" lon="3.78904">
        <ele>78.5</ele>
        <time>2017-11-15T11:50:21Z</time>
      </trkpt>
      <trkpt lat="43.65048" lon="3.789">
        <ele>78.4</ele>
        <time>2017-11-15T11:50:22Z</time>
      </trkpt>
      <trkpt lat="43.65051" lon="3.78896">
        <ele>78.4</ele>
        <time>2017-11-15T11:50:23Z</time>
      </trkpt>
      <trkpt lat="43.65055" lon="3.78892">
        <ele>78.4</ele>
        <time>2017-11-15T11:50:24Z</time>
      </trkpt>
      <trkpt lat="43.65058" lon="3.78889">
        <ele>78.5</ele>
        <time>2017-11-15T11:50:26Z</time>
      </trkpt>
      <trkpt lat="43.65062" lon="3.78894">
        <ele>78</ele>
        <time>2017-11-15T11:50:28Z</time>
      </trkpt>
      <trkpt lat="43.65064" lon="3.78901">
        <ele>78</ele>
        <time>2017-11-15T11:50:30Z</time>
      </trkpt>
      <trkpt lat="43.65066" lon="3.78906">
        <ele>78</ele>
        <time>2017-11-15T11:50:31Z</time>
      </trkpt>
      <trkpt lat="43.65069" lon="3.78912">
        <ele>78</ele>
        <time>2017-11-15T11:50:32Z</time>
      </trkpt>
      <trkpt lat="43.65072" lon="3.78918">
        <ele>77.8</ele>
        <time>2017-11-15T11:50:33Z</time>
      </trkpt>
      <trkpt lat="43.65075" lon="3.78923">
        <ele>76.4</ele>
        <time>2017-11-15T11:50:34Z</time>
      </trkpt>
      <trkpt lat="43.65077" lon="3.78926">
        <ele>75.7</ele>
        <time>2017-11-15T11:50:35Z</time>
      </trkpt>
      <trkpt lat="43.65079" lon="3.7893">
        <ele>74.7</ele>
        <time>2017-11-15T11:50:36Z</time>
      </trkpt>
      <trkpt lat="43.65082" lon="3.78934">
        <ele>73.6</ele>
        <time>2017-11-15T11:50:37Z</time>
      </trkpt>
      <trkpt lat="43.65084" lon="3.78941">
        <ele>72.2</ele>
        <time>2017-11-15T11:50:38Z</time>
      </trkpt>
      <trkpt lat="43.65086" lon="3.78948">
        <ele>70.7</ele>
        <time>2017-11-15T11:50:39Z</time>
      </trkpt>
      <trkpt lat="43.65089" lon="3.78952">
        <ele>69.6</ele>
        <time>2017-11-15T11:50:40Z</time>
      </trkpt>
      <trkpt lat="43.65091" lon="3.78957">
        <ele>68.2</ele>
        <time>2017-11-15T11:50:41Z</time>
      </trkpt>
      <trkpt lat="43.65093" lon="3.78963">
        <ele>66.4</ele>
        <time>2017-11-15T11:50:42Z</time>
      </trkpt>
      <trkpt lat="43.65094" lon="3.78969">
        <ele>64.7</ele>
        <time>2017-11-15T11:50:43Z</time>
      </trkpt>
      <trkpt lat="43.65096" lon="3.78975">
        <ele>63.1</ele>
        <time>2017-11-15T11:50:44Z</time>
      </trkpt>
      <trkpt lat="43.65097" lon="3.78981">
        <ele>62.9</ele>
        <time>2017-11-15T11:50:45Z</time>
      </trkpt>
      <trkpt lat="43.65098" lon="3.78986">
        <ele>62.7</ele>
        <time>2017-11-15T11:50:46Z</time>
      </trkpt>
      <trkpt lat="43.65098" lon="3.78991">
        <ele>62.6</ele>
        <time>2017-11-15T11:50:47Z</time>
      </trkpt>
      <trkpt lat="43.65098" lon="3.78996">
        <ele>62.5</ele>
        <time>2017-11-15T11:50:48Z</time>
      </trkpt>
      <trkpt lat="43.65097" lon="3.79002">
        <ele>62.4</ele>
        <time>2017-11-15T11:50:49Z</time>
      </trkpt>
      <trkpt lat="43.65095" lon="3.7901">
        <ele>62.3</ele>
        <time>2017-11-15T11:50:50Z</time>
      </trkpt>
      <trkpt lat="43.65093" lon="3.79017">
        <ele>62.1</ele>
        <time>2017-11-15T11:50:51Z</time>
      </trkpt>
      <trkpt lat="43.65092" lon="3.79023">
        <ele>62</ele>
        <time>2017-11-15T11:50:52Z</time>
      </trkpt>
      <trkpt lat="43.65091" lon="3.79029">
        <ele>61.9</ele>
        <time>2017-11-15T11:50:53Z</time>
      </trkpt>
      <trkpt lat="43.65089" lon="3.79035">
        <ele>61.8</ele>
        <time>2017-11-15T11:50:54Z</time>
      </trkpt>
      <trkpt lat="43.65086" lon="3.7904">
        <ele>61.8</ele>
        <time>2017-11-15T11:50:55Z</time>
      </trkpt>
      <trkpt lat="43.65084" lon="3.79045">
        <ele>61.7</ele>
        <time>2017-11-15T11:50:56Z</time>
      </trkpt>
      <trkpt lat="43.65081" lon="3.79049">
        <ele>61.6</ele>
        <time>2017-11-15T11:50:57Z</time>
      </trkpt>
      <trkpt lat="43.65079" lon="3.79052">
        <ele>61.5</ele>
        <time>2017-11-15T11:50:58Z</time>
      </trkpt>
      <trkpt lat="43.65077" lon="3.79055">
        <ele>61.5</ele>
        <time>2017-11-15T11:50:59Z</time>
      </trkpt>
      <trkpt lat="43.65075" lon="3.79058">
        <ele>61.4</ele>
        <time>2017-11-15T11:51:00Z</time>
      </trkpt>
      <trkpt lat="43.65073" lon="3.79062">
        <ele>61.4</ele>
        <time>2017-11-15T11:51:01Z</time>
      </trkpt>
      <trkpt lat="43.65072" lon="3.79066">
        <ele>61.3</ele>
        <time>2017-11-15T11:51:02Z</time>
      </trkpt>
      <trkpt lat="43.65071" lon="3.7907">
        <ele>61.3</ele>
        <time>2017-11-15T11:51:04Z</time>
      </trkpt>
      <trkpt lat="43.6507" lon="3.79075">
        <ele>61.2</ele>
        <time>2017-11-15T11:51:07Z</time>
      </trkpt>
      <trkpt lat="43.65074" lon="3.79076">
        <ele>61</ele>
        <time>2017-11-15T11:51:13Z</time>
      </trkpt>
      <trkpt lat="43.65077" lon="3.79074">
        <ele>61.3</ele>
        <time>2017-11-15T11:51:14Z</time>
      </trkpt>
      <trkpt lat="43.6508" lon="3.79074">
        <ele>61.8</ele>
        <time>2017-11-15T11:51:15Z</time>
      </trkpt>
      <trkpt lat="43.65084" lon="3.79074">
        <ele>62.4</ele>
        <time>2017-11-15T11:51:17Z</time>
      </trkpt>
      <trkpt lat="43.65089" lon="3.7907">
        <ele>62.9</ele>
        <time>2017-11-15T11:51:19Z</time>
      </trkpt>
      <trkpt lat="43.65094" lon="3.79069">
        <ele>63.1</ele>
        <time>2017-11-15T11:51:21Z</time>
      </trkpt>
      <trkpt lat="43.65097" lon="3.79067">
        <ele>63.2</ele>
        <time>2017-11-15T11:51:22Z</time>
      </trkpt>
      <trkpt lat="43.65101" lon="3.79066">
        <ele>63.2</ele>
        <time>2017-11-15T11:51:23Z</time>
      </trkpt>
      <trkpt lat="43.65104" lon="3.79066">
        <ele>63.2</ele>
        <time>2017-11-15T11:51:24Z</time>
      </trkpt>
      <trkpt lat="43.65108" lon="3.79065">
        <ele>63.1</ele>
        <time>2017-11-15T11:51:25Z</time>
      </trkpt>
      <trkpt lat="43.65111" lon="3.79065">
        <ele>63</ele>
        <time>2017-11-15T11:51:26Z</time>
      </trkpt>
      <trkpt lat="43.65118" lon="3.79064">
        <ele>62.8</ele>
        <time>2017-11-15T11:51:28Z</time>
      </trkpt>
      <trkpt lat="43.65121" lon="3.79065">
        <ele>62.7</ele>
        <time>2017-11-15T11:51:29Z</time>
      </trkpt>
      <trkpt lat="43.65125" lon="3.79066">
        <ele>62.6</ele>
        <time>2017-11-15T11:51:30Z</time>
      </trkpt>
      <trkpt lat="43.65128" lon="3.79068">
        <ele>62.6</ele>
        <time>2017-11-15T11:51:31Z</time>
      </trkpt>
      <trkpt lat="43.65132" lon="3.79068">
        <ele>62.6</ele>
        <time>2017-11-15T11:51:32Z</time>
      </trkpt>
      <trkpt lat="43.65137" lon="3.79067">
        <ele>62.5</ele>
        <time>2017-11-15T11:51:33Z</time>
      </trkpt>
      <trkpt lat="43.65142" lon="3.79065">
        <ele>62.2</ele>
        <time>2017-11-15T11:51:34Z</time>
      </trkpt>
      <trkpt lat="43.65147" lon="3.79063">
        <ele>62</ele>
        <time>2017-11-15T11:51:35Z</time>
      </trkpt>
      <trkpt lat="43.65153" lon="3.79062">
        <ele>61.8</ele>
        <time>2017-11-15T11:51:36Z</time>
      </trkpt>
      <trkpt lat="43.65161" lon="3.79059">
        <ele>61.4</ele>
        <time>2017-11-15T11:51:37Z</time>
      </trkpt>
      <trkpt lat="43.65167" lon="3.79057">
        <ele>61.1</ele>
        <time>2017-11-15T11:51:38Z</time>
      </trkpt>
      <trkpt lat="43.65172" lon="3.79056">
        <ele>60.8</ele>
        <time>2017-11-15T11:51:39Z</time>
      </trkpt>
      <trkpt lat="43.65178" lon="3.79054">
        <ele>60.6</ele>
        <time>2017-11-15T11:51:40Z</time>
      </trkpt>
      <trkpt lat="43.65183" lon="3.79053">
        <ele>60.5</ele>
        <time>2017-11-15T11:51:41Z</time>
      </trkpt>
      <trkpt lat="43.65186" lon="3.79052">
        <ele>60.5</ele>
        <time>2017-11-15T11:51:42Z</time>
      </trkpt>
      <trkpt lat="43.65191" lon="3.7905">
        <ele>60.6</ele>
        <time>2017-11-15T11:51:44Z</time>
      </trkpt>
      <trkpt lat="43.65195" lon="3.79054">
        <ele>60.7</ele>
        <time>2017-11-15T11:51:47Z</time>
      </trkpt>
      <trkpt lat="43.65196" lon="3.79058">
        <ele>60.8</ele>
        <time>2017-11-15T11:51:48Z</time>
      </trkpt>
      <trkpt lat="43.65199" lon="3.79062">
        <ele>61</ele>
        <time>2017-11-15T11:51:49Z</time>
      </trkpt>
      <trkpt lat="43.65202" lon="3.79064">
        <ele>61</ele>
        <time>2017-11-15T11:51:51Z</time>
      </trkpt>
      <trkpt lat="43.65205" lon="3.79065">
        <ele>61</ele>
        <time>2017-11-15T11:51:53Z</time>
      </trkpt>
      <trkpt lat="43.6521" lon="3.79066">
        <ele>61</ele>
        <time>2017-11-15T11:51:56Z</time>
      </trkpt>
      <trkpt lat="43.65216" lon="3.7907">
        <ele>61</ele>
        <time>2017-11-15T11:51:58Z</time>
      </trkpt>
      <trkpt lat="43.65221" lon="3.79072">
        <ele>61</ele>
        <time>2017-11-15T11:52:00Z</time>
      </trkpt>
      <trkpt lat="43.65224" lon="3.79073">
        <ele>61</ele>
        <time>2017-11-15T11:52:01Z</time>
      </trkpt>
      <trkpt lat="43.6523" lon="3.79076">
        <ele>61.5</ele>
        <time>2017-11-15T11:52:03Z</time>
      </trkpt>
      <trkpt lat="43.65232" lon="3.79077">
        <ele>62.3</ele>
        <time>2017-11-15T11:52:04Z</time>
      </trkpt>
      <trkpt lat="43.65237" lon="3.7908">
        <ele>63.8</ele>
        <time>2017-11-15T11:52:06Z</time>
      </trkpt>
      <trkpt lat="43.65239" lon="3.79082">
        <ele>64.7</ele>
        <time>2017-11-15T11:52:07Z</time>
      </trkpt>
      <trkpt lat="43.65242" lon="3.79085">
        <ele>65.6</ele>
        <time>2017-11-15T11:52:08Z</time>
      </trkpt>
      <trkpt lat="43.65247" lon="3.79089">
        <ele>67.3</ele>
        <time>2017-11-15T11:52:10Z</time>
      </trkpt>
      <trkpt lat="43.65249" lon="3.79092">
        <ele>68.2</ele>
        <time>2017-11-15T11:52:12Z</time>
      </trkpt>
      <trkpt lat="43.65251" lon="3.79096">
        <ele>69.2</ele>
        <time>2017-11-15T11:52:14Z</time>
      </trkpt>
      <trkpt lat="43.65253" lon="3.79099">
        <ele>70.1</ele>
        <time>2017-11-15T11:52:15Z</time>
      </trkpt>
      <trkpt lat="43.65254" lon="3.79105">
        <ele>72.1</ele>
        <time>2017-11-15T11:52:16Z</time>
      </trkpt>
      <trkpt lat="43.65255" lon="3.7911">
        <ele>72.2</ele>
        <time>2017-11-15T11:52:17Z</time>
      </trkpt>
      <trkpt lat="43.65253" lon="3.79115">
        <ele>72.4</ele>
        <time>2017-11-15T11:52:19Z</time>
      </trkpt>
      <trkpt lat="43.65251" lon="3.79118">
        <ele>72.6</ele>
        <time>2017-11-15T11:52:22Z</time>
      </trkpt>
      <trkpt lat="43.65247" lon="3.79117">
        <ele>72.7</ele>
        <time>2017-11-15T11:52:24Z</time>
      </trkpt>
      <trkpt lat="43.65243" lon="3.79116">
        <ele>72.9</ele>
        <time>2017-11-15T11:52:26Z</time>
      </trkpt>
      <trkpt lat="43.6524" lon="3.79117">
        <ele>73</ele>
        <time>2017-11-15T11:52:27Z</time>
      </trkpt>
      <trkpt lat="43.65236" lon="3.79117">
        <ele>73.2</ele>
        <time>2017-11-15T11:52:30Z</time>
      </trkpt>
      <trkpt lat="43.65231" lon="3.79117">
        <ele>73.4</ele>
        <time>2017-11-15T11:52:32Z</time>
      </trkpt>
      <trkpt lat="43.65227" lon="3.79118">
        <ele>73.6</ele>
        <time>2017-11-15T11:52:34Z</time>
      </trkpt>
      <trkpt lat="43.65224" lon="3.7912">
        <ele>73.7</ele>
        <time>2017-11-15T11:52:36Z</time>
      </trkpt>
      <trkpt lat="43.65218" lon="3.79121">
        <ele>73.9</ele>
        <time>2017-11-15T11:52:38Z</time>
      </trkpt>
      <trkpt lat="43.65214" lon="3.79123">
        <ele>74</ele>
        <time>2017-11-15T11:52:40Z</time>
      </trkpt>
      <trkpt lat="43.65211" lon="3.79124">
        <ele>74.2</ele>
        <time>2017-11-15T11:52:42Z</time>
      </trkpt>
      <trkpt lat="43.65206" lon="3.79127">
        <ele>74.3</ele>
        <time>2017-11-15T11:52:44Z</time>
      </trkpt>
      <trkpt lat="43.65202" lon="3.79128">
        <ele>74.4</ele>
        <time>2017-11-15T11:52:46Z</time>
      </trkpt>
      <trkpt lat="43.65198" lon="3.7913">
        <ele>74.6</ele>
        <time>2017-11-15T11:52:48Z</time>
      </trkpt>
      <trkpt lat="43.65195" lon="3.79132">
        <ele>74.7</ele>
        <time>2017-11-15T11:52:50Z</time>
      </trkpt>
      <trkpt lat="43.65192" lon="3.79134">
        <ele>74.8</ele>
        <time>2017-11-15T11:52:52Z</time>
      </trkpt>
      <trkpt lat="43.65188" lon="3.79137">
        <ele>74.9</ele>
        <time>2017-11-15T11:52:54Z</time>
      </trkpt>
      <trkpt lat="43.65185" lon="3.79138">
        <ele>75</ele>
        <time>2017-11-15T11:52:56Z</time>
      </trkpt>
      <trkpt lat="43.6518" lon="3.79139">
        <ele>75.2</ele>
        <time>2017-11-15T11:52:58Z</time>
      </trkpt>
      <trkpt lat="43.65176" lon="3.7914">
        <ele>75.4</ele>
        <time>2017-11-15T11:53:00Z</time>
      </trkpt>
      <trkpt lat="43.65171" lon="3.79142">
        <ele>75.6</ele>
        <time>2017-11-15T11:53:02Z</time>
      </trkpt>
      <trkpt lat="43.65167" lon="3.79144">
        <ele>75.8</ele>
        <time>2017-11-15T11:53:04Z</time>
      </trkpt>
      <trkpt lat="43.65163" lon="3.79147">
        <ele>75.9</ele>
        <time>2017-11-15T11:53:06Z</time>
      </trkpt>
      <trkpt lat="43.6516" lon="3.79148">
        <ele>76.1</ele>
        <time>2017-11-15T11:53:08Z</time>
      </trkpt>
      <trkpt lat="43.65158" lon="3.79152">
        <ele>76.2</ele>
        <time>2017-11-15T11:53:10Z</time>
      </trkpt>
      <trkpt lat="43.65154" lon="3.79155">
        <ele>76.4</ele>
        <time>2017-11-15T11:53:14Z</time>
      </trkpt>
      <trkpt lat="43.65152" lon="3.79158">
        <ele>76.6</ele>
        <time>2017-11-15T11:53:17Z</time>
      </trkpt>
      <trkpt lat="43.65149" lon="3.79162">
        <ele>76.8</ele>
        <time>2017-11-15T11:53:19Z</time>
      </trkpt>
      <trkpt lat="43.65146" lon="3.79166">
        <ele>77</ele>
        <time>2017-11-15T11:53:20Z</time>
      </trkpt>
      <trkpt lat="43.65144" lon="3.79168">
        <ele>77.2</ele>
        <time>2017-11-15T11:53:21Z</time>
      </trkpt>
      <trkpt lat="43.65142" lon="3.79171">
        <ele>77.3</ele>
        <time>2017-11-15T11:53:23Z</time>
      </trkpt>
      <trkpt lat="43.65139" lon="3.79175">
        <ele>77.5</ele>
        <time>2017-11-15T11:53:25Z</time>
      </trkpt>
      <trkpt lat="43.65137" lon="3.7918">
        <ele>77.7</ele>
        <time>2017-11-15T11:53:28Z</time>
      </trkpt>
      <trkpt lat="43.65135" lon="3.79184">
        <ele>77.9</ele>
        <time>2017-11-15T11:53:30Z</time>
      </trkpt>
      <trkpt lat="43.65133" lon="3.79189">
        <ele>78.1</ele>
        <time>2017-11-15T11:53:32Z</time>
      </trkpt>
      <trkpt lat="43.65131" lon="3.79195">
        <ele>78.3</ele>
        <time>2017-11-15T11:53:35Z</time>
      </trkpt>
      <trkpt lat="43.65129" lon="3.79199">
        <ele>78.4</ele>
        <time>2017-11-15T11:53:37Z</time>
      </trkpt>
      <trkpt lat="43.65126" lon="3.79203">
        <ele>78.5</ele>
        <time>2017-11-15T11:53:39Z</time>
      </trkpt>
      <trkpt lat="43.65124" lon="3.79208">
        <ele>78.6</ele>
        <time>2017-11-15T11:53:41Z</time>
      </trkpt>
      <trkpt lat="43.65122" lon="3.79212">
        <ele>78.7</ele>
        <time>2017-11-15T11:53:43Z</time>
      </trkpt>
      <trkpt lat="43.65119" lon="3.79218">
        <ele>78.9</ele>
        <time>2017-11-15T11:53:45Z</time>
      </trkpt>
      <trkpt lat="43.65117" lon="3.79224">
        <ele>80.3</ele>
        <time>2017-11-15T11:53:47Z</time>
      </trkpt>
      <trkpt lat="43.65115" lon="3.79228">
        <ele>81.1</ele>
        <time>2017-11-15T11:53:50Z</time>
      </trkpt>
      <trkpt lat="43.65113" lon="3.79231">
        <ele>81.6</ele>
        <time>2017-11-15T11:53:52Z</time>
      </trkpt>
      <trkpt lat="43.65111" lon="3.79235">
        <ele>82.2</ele>
        <time>2017-11-15T11:53:54Z</time>
      </trkpt>
      <trkpt lat="43.65108" lon="3.79238">
        <ele>82.9</ele>
        <time>2017-11-15T11:53:57Z</time>
      </trkpt>
      <trkpt lat="43.65106" lon="3.79243">
        <ele>83.7</ele>
        <time>2017-11-15T11:53:59Z</time>
      </trkpt>
      <trkpt lat="43.65105" lon="3.79248">
        <ele>84.5</ele>
        <time>2017-11-15T11:54:02Z</time>
      </trkpt>
      <trkpt lat="43.65104" lon="3.79252">
        <ele>85.1</ele>
        <time>2017-11-15T11:54:05Z</time>
      </trkpt>
      <trkpt lat="43.65103" lon="3.79258">
        <ele>85.9</ele>
        <time>2017-11-15T11:54:08Z</time>
      </trkpt>
      <trkpt lat="43.65103" lon="3.79262">
        <ele>86.5</ele>
        <time>2017-11-15T11:54:10Z</time>
      </trkpt>
      <trkpt lat="43.65104" lon="3.79266">
        <ele>87.2</ele>
        <time>2017-11-15T11:54:14Z</time>
      </trkpt>
      <trkpt lat="43.65103" lon="3.7927">
        <ele>87.7</ele>
        <time>2017-11-15T11:54:17Z</time>
      </trkpt>
      <trkpt lat="43.65103" lon="3.79275">
        <ele>88.3</ele>
        <time>2017-11-15T11:54:19Z</time>
      </trkpt>
      <trkpt lat="43.65104" lon="3.7928">
        <ele>88.9</ele>
        <time>2017-11-15T11:54:21Z</time>
      </trkpt>
      <trkpt lat="43.65105" lon="3.79283">
        <ele>89.4</ele>
        <time>2017-11-15T11:54:24Z</time>
      </trkpt>
      <trkpt lat="43.65107" lon="3.79289">
        <ele>90.1</ele>
        <time>2017-11-15T11:54:27Z</time>
      </trkpt>
      <trkpt lat="43.65108" lon="3.79293">
        <ele>90.6</ele>
        <time>2017-11-15T11:54:30Z</time>
      </trkpt>
      <trkpt lat="43.65109" lon="3.79297">
        <ele>91.1</ele>
        <time>2017-11-15T11:54:31Z</time>
      </trkpt>
      <trkpt lat="43.6511" lon="3.79302">
        <ele>91.7</ele>
        <time>2017-11-15T11:54:34Z</time>
      </trkpt>
      <trkpt lat="43.65112" lon="3.79307">
        <ele>92.3</ele>
        <time>2017-11-15T11:54:36Z</time>
      </trkpt>
      <trkpt lat="43.65113" lon="3.79311">
        <ele>92.8</ele>
        <time>2017-11-15T11:54:39Z</time>
      </trkpt>
      <trkpt lat="43.65114" lon="3.79314">
        <ele>93.2</ele>
        <time>2017-11-15T11:54:41Z</time>
      </trkpt>
      <trkpt lat="43.65115" lon="3.79318">
        <ele>93.7</ele>
        <time>2017-11-15T11:54:43Z</time>
      </trkpt>
      <trkpt lat="43.65117" lon="3.79321">
        <ele>94.1</ele>
        <time>2017-11-15T11:54:44Z</time>
      </trkpt>
      <trkpt lat="43.6512" lon="3.79325">
        <ele>94.6</ele>
        <time>2017-11-15T11:54:46Z</time>
      </trkpt>
      <trkpt lat="43.65122" lon="3.79329">
        <ele>95.1</ele>
        <time>2017-11-15T11:54:48Z</time>
      </trkpt>
      <trkpt lat="43.65124" lon="3.79334">
        <ele>95.5</ele>
        <time>2017-11-15T11:54:50Z</time>
      </trkpt>
      <trkpt lat="43.65125" lon="3.79338">
        <ele>96</ele>
        <time>2017-11-15T11:54:52Z</time>
      </trkpt>
      <trkpt lat="43.65127" lon="3.79343">
        <ele>96.3</ele>
        <time>2017-11-15T11:54:54Z</time>
      </trkpt>
      <trkpt lat="43.65128" lon="3.79348">
        <ele>96.8</ele>
        <time>2017-11-15T11:54:57Z</time>
      </trkpt>
      <trkpt lat="43.6513" lon="3.79352">
        <ele>97.1</ele>
        <time>2017-11-15T11:55:00Z</time>
      </trkpt>
      <trkpt lat="43.65131" lon="3.79357">
        <ele>97.5</ele>
        <time>2017-11-15T11:55:03Z</time>
      </trkpt>
      <trkpt lat="43.65132" lon="3.79362">
        <ele>97.8</ele>
        <time>2017-11-15T11:55:06Z</time>
      </trkpt>
      <trkpt lat="43.65132" lon="3.79366">
        <ele>98.1</ele>
        <time>2017-11-15T11:55:08Z</time>
      </trkpt>
      <trkpt lat="43.65132" lon="3.7937">
        <ele>98.3</ele>
        <time>2017-11-15T11:55:11Z</time>
      </trkpt>
      <trkpt lat="43.65133" lon="3.79374">
        <ele>98.5</ele>
        <time>2017-11-15T11:55:14Z</time>
      </trkpt>
      <trkpt lat="43.65134" lon="3.79377">
        <ele>98.8</ele>
        <time>2017-11-15T11:55:17Z</time>
      </trkpt>
      <trkpt lat="43.65136" lon="3.79383">
        <ele>99.1</ele>
        <time>2017-11-15T11:55:20Z</time>
      </trkpt>
      <trkpt lat="43.65138" lon="3.79387">
        <ele>99.3</ele>
        <time>2017-11-15T11:55:23Z</time>
      </trkpt>
      <trkpt lat="43.65139" lon="3.79391">
        <ele>99.6</ele>
        <time>2017-11-15T11:55:25Z</time>
      </trkpt>
      <trkpt lat="43.65141" lon="3.79394">
        <ele>99.8</ele>
        <time>2017-11-15T11:55:27Z</time>
      </trkpt>
      <trkpt lat="43.65142" lon="3.79398">
        <ele>100</ele>
        <time>2017-11-15T11:55:29Z</time>
      </trkpt>
      <trkpt lat="43.65143" lon="3.79402">
        <ele>100.2</ele>
        <time>2017-11-15T11:55:31Z</time>
      </trkpt>
      <trkpt lat="43.65145" lon="3.79406">
        <ele>100.5</ele>
        <time>2017-11-15T11:55:33Z</time>
      </trkpt>
      <trkpt lat="43.65147" lon="3.7941">
        <ele>100.7</ele>
        <time>2017-11-15T11:55:36Z</time>
      </trkpt>
      <trkpt lat="43.65149" lon="3.79413">
        <ele>100.9</ele>
        <time>2017-11-15T11:55:38Z</time>
      </trkpt>
      <trkpt lat="43.65151" lon="3.79416">
        <ele>101.1</ele>
        <time>2017-11-15T11:55:40Z</time>
      </trkpt>
      <trkpt lat="43.65153" lon="3.7942">
        <ele>101.3</ele>
        <time>2017-11-15T11:55:43Z</time>
      </trkpt>
      <trkpt lat="43.65154" lon="3.79424">
        <ele>101.5</ele>
        <time>2017-11-15T11:55:45Z</time>
      </trkpt>
      <trkpt lat="43.65155" lon="3.79429">
        <ele>101.8</ele>
        <time>2017-11-15T11:55:47Z</time>
      </trkpt>
      <trkpt lat="43.65156" lon="3.79434">
        <ele>102</ele>
        <time>2017-11-15T11:55:49Z</time>
      </trkpt>
      <trkpt lat="43.65158" lon="3.79439">
        <ele>102.3</ele>
        <time>2017-11-15T11:55:51Z</time>
      </trkpt>
      <trkpt lat="43.6516" lon="3.79444">
        <ele>102.5</ele>
        <time>2017-11-15T11:55:53Z</time>
      </trkpt>
      <trkpt lat="43.65161" lon="3.79448">
        <ele>102.7</ele>
        <time>2017-11-15T11:55:56Z</time>
      </trkpt>
      <trkpt lat="43.65162" lon="3.79454">
        <ele>103</ele>
        <time>2017-11-15T11:55:59Z</time>
      </trkpt>
      <trkpt lat="43.65164" lon="3.79457">
        <ele>103.1</ele>
        <time>2017-11-15T11:56:01Z</time>
      </trkpt>
      <trkpt lat="43.65168" lon="3.79462">
        <ele>103.4</ele>
        <time>2017-11-15T11:56:03Z</time>
      </trkpt>
      <trkpt lat="43.65171" lon="3.79468">
        <ele>103.6</ele>
        <time>2017-11-15T11:56:05Z</time>
      </trkpt>
      <trkpt lat="43.65173" lon="3.79472">
        <ele>103.6</ele>
        <time>2017-11-15T11:56:07Z</time>
      </trkpt>
      <trkpt lat="43.65175" lon="3.79477">
        <ele>103.7</ele>
        <time>2017-11-15T11:56:09Z</time>
      </trkpt>
      <trkpt lat="43.65176" lon="3.79481">
        <ele>103.7</ele>
        <time>2017-11-15T11:56:11Z</time>
      </trkpt>
      <trkpt lat="43.65179" lon="3.79486">
        <ele>103.7</ele>
        <time>2017-11-15T11:56:14Z</time>
      </trkpt>
      <trkpt lat="43.65183" lon="3.7949">
        <ele>103.7</ele>
        <time>2017-11-15T11:56:16Z</time>
      </trkpt>
      <trkpt lat="43.65186" lon="3.79492">
        <ele>103.7</ele>
        <time>2017-11-15T11:56:18Z</time>
      </trkpt>
      <trkpt lat="43.65188" lon="3.79494">
        <ele>103.6</ele>
        <time>2017-11-15T11:56:21Z</time>
      </trkpt>
      <trkpt lat="43.65191" lon="3.79496">
        <ele>103.6</ele>
        <time>2017-11-15T11:56:24Z</time>
      </trkpt>
      <trkpt lat="43.65194" lon="3.79499">
        <ele>103.5</ele>
        <time>2017-11-15T11:56:26Z</time>
      </trkpt>
      <trkpt lat="43.65196" lon="3.79503">
        <ele>103.4</ele>
        <time>2017-11-15T11:56:28Z</time>
      </trkpt>
      <trkpt lat="43.65199" lon="3.79509">
        <ele>103.2</ele>
        <time>2017-11-15T11:56:30Z</time>
      </trkpt>
      <trkpt lat="43.65199" lon="3.79515">
        <ele>103</ele>
        <time>2017-11-15T11:56:31Z</time>
      </trkpt>
      <trkpt lat="43.65199" lon="3.7952">
        <ele>102.9</ele>
        <time>2017-11-15T11:56:32Z</time>
      </trkpt>
      <trkpt lat="43.652" lon="3.79525">
        <ele>102.8</ele>
        <time>2017-11-15T11:56:33Z</time>
      </trkpt>
      <trkpt lat="43.652" lon="3.7953">
        <ele>102.8</ele>
        <time>2017-11-15T11:56:34Z</time>
      </trkpt>
      <trkpt lat="43.652" lon="3.79535">
        <ele>102.9</ele>
        <time>2017-11-15T11:56:35Z</time>
      </trkpt>
      <trkpt lat="43.65199" lon="3.79539">
        <ele>102.9</ele>
        <time>2017-11-15T11:56:36Z</time>
      </trkpt>
      <trkpt lat="43.65199" lon="3.79544">
        <ele>103</ele>
        <time>2017-11-15T11:56:37Z</time>
      </trkpt>
      <trkpt lat="43.65198" lon="3.79549">
        <ele>103</ele>
        <time>2017-11-15T11:56:38Z</time>
      </trkpt>
      <trkpt lat="43.65197" lon="3.79556">
        <ele>103.1</ele>
        <time>2017-11-15T11:56:39Z</time>
      </trkpt>
      <trkpt lat="43.65198" lon="3.79563">
        <ele>103.2</ele>
        <time>2017-11-15T11:56:40Z</time>
      </trkpt>
      <trkpt lat="43.65199" lon="3.7957">
        <ele>103.5</ele>
        <time>2017-11-15T11:56:41Z</time>
      </trkpt>
      <trkpt lat="43.65201" lon="3.79576">
        <ele>103.9</ele>
        <time>2017-11-15T11:56:42Z</time>
      </trkpt>
      <trkpt lat="43.65202" lon="3.79583">
        <ele>104.4</ele>
        <time>2017-11-15T11:56:43Z</time>
      </trkpt>
      <trkpt lat="43.65203" lon="3.79588">
        <ele>104.8</ele>
        <time>2017-11-15T11:56:44Z</time>
      </trkpt>
      <trkpt lat="43.65205" lon="3.79592">
        <ele>105.2</ele>
        <time>2017-11-15T11:56:45Z</time>
      </trkpt>
      <trkpt lat="43.65207" lon="3.79597">
        <ele>105.6</ele>
        <time>2017-11-15T11:56:46Z</time>
      </trkpt>
      <trkpt lat="43.65208" lon="3.79601">
        <ele>106</ele>
        <time>2017-11-15T11:56:47Z</time>
      </trkpt>
      <trkpt lat="43.65209" lon="3.79606">
        <ele>106.5</ele>
        <time>2017-11-15T11:56:48Z</time>
      </trkpt>
      <trkpt lat="43.6521" lon="3.7961">
        <ele>106.9</ele>
        <time>2017-11-15T11:56:49Z</time>
      </trkpt>
      <trkpt lat="43.65211" lon="3.79618">
        <ele>107.6</ele>
        <time>2017-11-15T11:56:51Z</time>
      </trkpt>
      <trkpt lat="43.65211" lon="3.79623">
        <ele>108.1</ele>
        <time>2017-11-15T11:56:53Z</time>
      </trkpt>
      <trkpt lat="43.65213" lon="3.79629">
        <ele>108.8</ele>
        <time>2017-11-15T11:56:55Z</time>
      </trkpt>
      <trkpt lat="43.65213" lon="3.79633">
        <ele>109.2</ele>
        <time>2017-11-15T11:56:56Z</time>
      </trkpt>
      <trkpt lat="43.65213" lon="3.79638">
        <ele>109.7</ele>
        <time>2017-11-15T11:56:57Z</time>
      </trkpt>
      <trkpt lat="43.65213" lon="3.79642">
        <ele>110.2</ele>
        <time>2017-11-15T11:56:58Z</time>
      </trkpt>
      <trkpt lat="43.65213" lon="3.79647">
        <ele>110.8</ele>
        <time>2017-11-15T11:56:59Z</time>
      </trkpt>
      <trkpt lat="43.65212" lon="3.79652">
        <ele>111.4</ele>
        <time>2017-11-15T11:57:00Z</time>
      </trkpt>
      <trkpt lat="43.65211" lon="3.79656">
        <ele>112</ele>
        <time>2017-11-15T11:57:01Z</time>
      </trkpt>
      <trkpt lat="43.65209" lon="3.79663">
        <ele>112.9</ele>
        <time>2017-11-15T11:57:03Z</time>
      </trkpt>
      <trkpt lat="43.6521" lon="3.79668">
        <ele>113.7</ele>
        <time>2017-11-15T11:57:05Z</time>
      </trkpt>
      <trkpt lat="43.65211" lon="3.79672">
        <ele>114.3</ele>
        <time>2017-11-15T11:57:08Z</time>
      </trkpt>
      <trkpt lat="43.65213" lon="3.79675">
        <ele>115</ele>
        <time>2017-11-15T11:57:11Z</time>
      </trkpt>
      <trkpt lat="43.65215" lon="3.79678">
        <ele>115.6</ele>
        <time>2017-11-15T11:57:13Z</time>
      </trkpt>
      <trkpt lat="43.65219" lon="3.79681">
        <ele>116.5</ele>
        <time>2017-11-15T11:57:16Z</time>
      </trkpt>
      <trkpt lat="43.65222" lon="3.79683">
        <ele>117.2</ele>
        <time>2017-11-15T11:57:18Z</time>
      </trkpt>
      <trkpt lat="43.65224" lon="3.79685">
        <ele>117.9</ele>
        <time>2017-11-15T11:57:21Z</time>
      </trkpt>
      <trkpt lat="43.65228" lon="3.79689">
        <ele>119</ele>
        <time>2017-11-15T11:57:24Z</time>
      </trkpt>
      <trkpt lat="43.65233" lon="3.79692">
        <ele>120.2</ele>
        <time>2017-11-15T11:57:26Z</time>
      </trkpt>
      <trkpt lat="43.65236" lon="3.79695">
        <ele>120.9</ele>
        <time>2017-11-15T11:57:27Z</time>
      </trkpt>
      <trkpt lat="43.65238" lon="3.79698">
        <ele>121.5</ele>
        <time>2017-11-15T11:57:28Z</time>
      </trkpt>
      <trkpt lat="43.65241" lon="3.79702">
        <ele>122.3</ele>
        <time>2017-11-15T11:57:30Z</time>
      </trkpt>
      <trkpt lat="43.65244" lon="3.79703">
        <ele>122.8</ele>
        <time>2017-11-15T11:57:31Z</time>
      </trkpt>
      <trkpt lat="43.65247" lon="3.79704">
        <ele>123.4</ele>
        <time>2017-11-15T11:57:32Z</time>
      </trkpt>
      <trkpt lat="43.65251" lon="3.79707">
        <ele>124.1</ele>
        <time>2017-11-15T11:57:34Z</time>
      </trkpt>
      <trkpt lat="43.65253" lon="3.79711">
        <ele>124.6</ele>
        <time>2017-11-15T11:57:35Z</time>
      </trkpt>
      <trkpt lat="43.65255" lon="3.79713">
        <ele>125</ele>
        <time>2017-11-15T11:57:36Z</time>
      </trkpt>
      <trkpt lat="43.65259" lon="3.79716">
        <ele>125.6</ele>
        <time>2017-11-15T11:57:38Z</time>
      </trkpt>
      <trkpt lat="43.65261" lon="3.79718">
        <ele>126</ele>
        <time>2017-11-15T11:57:40Z</time>
      </trkpt>
      <trkpt lat="43.65262" lon="3.79722">
        <ele>126.4</ele>
        <time>2017-11-15T11:57:43Z</time>
      </trkpt>
      <trkpt lat="43.65263" lon="3.79728">
        <ele>127</ele>
        <time>2017-11-15T11:57:45Z</time>
      </trkpt>
      <trkpt lat="43.65265" lon="3.79731">
        <ele>127.3</ele>
        <time>2017-11-15T11:57:46Z</time>
      </trkpt>
      <trkpt lat="43.65266" lon="3.79735">
        <ele>127.7</ele>
        <time>2017-11-15T11:57:47Z</time>
      </trkpt>
      <trkpt lat="43.65267" lon="3.7974">
        <ele>128.2</ele>
        <time>2017-11-15T11:57:49Z</time>
      </trkpt>
      <trkpt lat="43.65268" lon="3.79746">
        <ele>128.8</ele>
        <time>2017-11-15T11:57:51Z</time>
      </trkpt>
      <trkpt lat="43.6527" lon="3.79749">
        <ele>129.2</ele>
        <time>2017-11-15T11:57:54Z</time>
      </trkpt>
      <trkpt lat="43.65271" lon="3.79754">
        <ele>130.1</ele>
        <time>2017-11-15T11:57:56Z</time>
      </trkpt>
      <trkpt lat="43.65274" lon="3.79757">
        <ele>130.9</ele>
        <time>2017-11-15T11:57:58Z</time>
      </trkpt>
      <trkpt lat="43.65276" lon="3.79761">
        <ele>131.6</ele>
        <time>2017-11-15T11:58:00Z</time>
      </trkpt>
      <trkpt lat="43.6528" lon="3.79762">
        <ele>132.4</ele>
        <time>2017-11-15T11:58:02Z</time>
      </trkpt>
      <trkpt lat="43.65284" lon="3.79765">
        <ele>133.3</ele>
        <time>2017-11-15T11:58:05Z</time>
      </trkpt>
      <trkpt lat="43.65287" lon="3.79767">
        <ele>133.9</ele>
        <time>2017-11-15T11:58:07Z</time>
      </trkpt>
      <trkpt lat="43.65289" lon="3.79769">
        <ele>134.4</ele>
        <time>2017-11-15T11:58:09Z</time>
      </trkpt>
      <trkpt lat="43.65292" lon="3.79771">
        <ele>135.1</ele>
        <time>2017-11-15T11:58:12Z</time>
      </trkpt>
      <trkpt lat="43.65295" lon="3.79773">
        <ele>135.6</ele>
        <time>2017-11-15T11:58:15Z</time>
      </trkpt>
      <trkpt lat="43.65298" lon="3.79776">
        <ele>136.1</ele>
        <time>2017-11-15T11:58:18Z</time>
      </trkpt>
      <trkpt lat="43.65302" lon="3.79779">
        <ele>136.8</ele>
        <time>2017-11-15T11:58:20Z</time>
      </trkpt>
      <trkpt lat="43.65304" lon="3.79781">
        <ele>137</ele>
        <time>2017-11-15T11:58:22Z</time>
      </trkpt>
      <trkpt lat="43.65307" lon="3.79784">
        <ele>137.3</ele>
        <time>2017-11-15T11:58:25Z</time>
      </trkpt>
      <trkpt lat="43.6531" lon="3.79787">
        <ele>137.6</ele>
        <time>2017-11-15T11:58:27Z</time>
      </trkpt>
      <trkpt lat="43.65313" lon="3.79791">
        <ele>137.9</ele>
        <time>2017-11-15T11:58:29Z</time>
      </trkpt>
      <trkpt lat="43.65315" lon="3.79795">
        <ele>138.1</ele>
        <time>2017-11-15T11:58:31Z</time>
      </trkpt>
      <trkpt lat="43.65318" lon="3.79798">
        <ele>138.4</ele>
        <time>2017-11-15T11:58:33Z</time>
      </trkpt>
      <trkpt lat="43.65321" lon="3.79802">
        <ele>138.9</ele>
        <time>2017-11-15T11:58:35Z</time>
      </trkpt>
      <trkpt lat="43.65325" lon="3.79806">
        <ele>139.3</ele>
        <time>2017-11-15T11:58:37Z</time>
      </trkpt>
      <trkpt lat="43.65328" lon="3.7981">
        <ele>139.6</ele>
        <time>2017-11-15T11:58:39Z</time>
      </trkpt>
      <trkpt lat="43.65331" lon="3.79812">
        <ele>139.8</ele>
        <time>2017-11-15T11:58:42Z</time>
      </trkpt>
      <trkpt lat="43.65334" lon="3.79816">
        <ele>140</ele>
        <time>2017-11-15T11:58:44Z</time>
      </trkpt>
      <trkpt lat="43.65337" lon="3.79819">
        <ele>140.2</ele>
        <time>2017-11-15T11:58:46Z</time>
      </trkpt>
      <trkpt lat="43.65341" lon="3.79822">
        <ele>140.4</ele>
        <time>2017-11-15T11:58:48Z</time>
      </trkpt>
      <trkpt lat="43.65344" lon="3.79823">
        <ele>140.6</ele>
        <time>2017-11-15T11:58:50Z</time>
      </trkpt>
      <trkpt lat="43.65347" lon="3.79826">
        <ele>140.8</ele>
        <time>2017-11-15T11:58:52Z</time>
      </trkpt>
      <trkpt lat="43.6535" lon="3.7983">
        <ele>141.1</ele>
        <time>2017-11-15T11:58:54Z</time>
      </trkpt>
      <trkpt lat="43.65354" lon="3.79834">
        <ele>141.4</ele>
        <time>2017-11-15T11:58:56Z</time>
      </trkpt>
      <trkpt lat="43.65356" lon="3.79837">
        <ele>141.7</ele>
        <time>2017-11-15T11:58:57Z</time>
      </trkpt>
      <trkpt lat="43.6536" lon="3.7984">
        <ele>142.1</ele>
        <time>2017-11-15T11:58:59Z</time>
      </trkpt>
      <trkpt lat="43.65363" lon="3.79842">
        <ele>142.3</ele>
        <time>2017-11-15T11:59:00Z</time>
      </trkpt>
      <trkpt lat="43.65366" lon="3.79843">
        <ele>142.4</ele>
        <time>2017-11-15T11:59:02Z</time>
      </trkpt>
      <trkpt lat="43.65369" lon="3.79845">
        <ele>142.6</ele>
        <time>2017-11-15T11:59:04Z</time>
      </trkpt>
      <trkpt lat="43.65372" lon="3.79848">
        <ele>142.7</ele>
        <time>2017-11-15T11:59:05Z</time>
      </trkpt>
      <trkpt lat="43.65376" lon="3.79851">
        <ele>142.9</ele>
        <time>2017-11-15T11:59:07Z</time>
      </trkpt>
      <trkpt lat="43.65381" lon="3.79854">
        <ele>143.2</ele>
        <time>2017-11-15T11:59:09Z</time>
      </trkpt>
      <trkpt lat="43.65383" lon="3.79856">
        <ele>143.3</ele>
        <time>2017-11-15T11:59:10Z</time>
      </trkpt>
      <trkpt lat="43.65385" lon="3.79859">
        <ele>143.4</ele>
        <time>2017-11-15T11:59:11Z</time>
      </trkpt>
      <trkpt lat="43.6539" lon="3.79863">
        <ele>143.8</ele>
        <time>2017-11-15T11:59:13Z</time>
      </trkpt>
      <trkpt lat="43.65393" lon="3.79865">
        <ele>144.1</ele>
        <time>2017-11-15T11:59:14Z</time>
      </trkpt>
      <trkpt lat="43.65395" lon="3.79867">
        <ele>144.3</ele>
        <time>2017-11-15T11:59:15Z</time>
      </trkpt>
      <trkpt lat="43.65398" lon="3.79869">
        <ele>144.5</ele>
        <time>2017-11-15T11:59:16Z</time>
      </trkpt>
      <trkpt lat="43.65401" lon="3.7987">
        <ele>144.7</ele>
        <time>2017-11-15T11:59:17Z</time>
      </trkpt>
      <trkpt lat="43.65404" lon="3.79873">
        <ele>144.8</ele>
        <time>2017-11-15T11:59:18Z</time>
      </trkpt>
      <trkpt lat="43.65406" lon="3.79876">
        <ele>145</ele>
        <time>2017-11-15T11:59:19Z</time>
      </trkpt>
      <trkpt lat="43.65409" lon="3.79878">
        <ele>145.2</ele>
        <time>2017-11-15T11:59:20Z</time>
      </trkpt>
      <trkpt lat="43.65411" lon="3.79881">
        <ele>145.4</ele>
        <time>2017-11-15T11:59:21Z</time>
      </trkpt>
      <trkpt lat="43.65414" lon="3.79884">
        <ele>145.6</ele>
        <time>2017-11-15T11:59:22Z</time>
      </trkpt>
      <trkpt lat="43.65417" lon="3.79886">
        <ele>145.7</ele>
        <time>2017-11-15T11:59:23Z</time>
      </trkpt>
      <trkpt lat="43.6542" lon="3.79889">
        <ele>146</ele>
        <time>2017-11-15T11:59:24Z</time>
      </trkpt>
      <trkpt lat="43.65424" lon="3.79893">
        <ele>146.3</ele>
        <time>2017-11-15T11:59:25Z</time>
      </trkpt>
      <trkpt lat="43.65427" lon="3.79897">
        <ele>146.5</ele>
        <time>2017-11-15T11:59:26Z</time>
      </trkpt>
      <trkpt lat="43.6543" lon="3.79902">
        <ele>146.8</ele>
        <time>2017-11-15T11:59:27Z</time>
      </trkpt>
      <trkpt lat="43.65435" lon="3.79905">
        <ele>147</ele>
        <time>2017-11-15T11:59:28Z</time>
      </trkpt>
      <trkpt lat="43.65438" lon="3.79907">
        <ele>147.1</ele>
        <time>2017-11-15T11:59:29Z</time>
      </trkpt>
      <trkpt lat="43.65441" lon="3.7991">
        <ele>147.3</ele>
        <time>2017-11-15T11:59:30Z</time>
      </trkpt>
      <trkpt lat="43.65445" lon="3.79914">
        <ele>147.5</ele>
        <time>2017-11-15T11:59:31Z</time>
      </trkpt>
      <trkpt lat="43.65449" lon="3.79918">
        <ele>147.6</ele>
        <time>2017-11-15T11:59:32Z</time>
      </trkpt>
      <trkpt lat="43.65453" lon="3.79922">
        <ele>147.8</ele>
        <time>2017-11-15T11:59:33Z</time>
      </trkpt>
      <trkpt lat="43.65456" lon="3.79925">
        <ele>148</ele>
        <time>2017-11-15T11:59:34Z</time>
      </trkpt>
      <trkpt lat="43.6546" lon="3.7993">
        <ele>148</ele>
        <time>2017-11-15T11:59:35Z</time>
      </trkpt>
      <trkpt lat="43.65463" lon="3.79934">
        <ele>148</ele>
        <time>2017-11-15T11:59:36Z</time>
      </trkpt>
      <trkpt lat="43.65466" lon="3.79938">
        <ele>148</ele>
        <time>2017-11-15T11:59:37Z</time>
      </trkpt>
      <trkpt lat="43.65469" lon="3.79942">
        <ele>148</ele>
        <time>2017-11-15T11:59:38Z</time>
      </trkpt>
      <trkpt lat="43.65473" lon="3.79947">
        <ele>148</ele>
        <time>2017-11-15T11:59:39Z</time>
      </trkpt>
      <trkpt lat="43.65476" lon="3.79953">
        <ele>148</ele>
        <time>2017-11-15T11:59:40Z</time>
      </trkpt>
      <trkpt lat="43.65478" lon="3.79956">
        <ele>148</ele>
        <time>2017-11-15T11:59:41Z</time>
      </trkpt>
      <trkpt lat="43.65481" lon="3.79961">
        <ele>147.9</ele>
        <time>2017-11-15T11:59:42Z</time>
      </trkpt>
      <trkpt lat="43.65484" lon="3.79965">
        <ele>147.8</ele>
        <time>2017-11-15T11:59:43Z</time>
      </trkpt>
      <trkpt lat="43.65487" lon="3.79969">
        <ele>147.6</ele>
        <time>2017-11-15T11:59:44Z</time>
      </trkpt>
      <trkpt lat="43.65489" lon="3.79973">
        <ele>147.5</ele>
        <time>2017-11-15T11:59:45Z</time>
      </trkpt>
      <trkpt lat="43.65492" lon="3.79978">
        <ele>147.3</ele>
        <time>2017-11-15T11:59:46Z</time>
      </trkpt>
      <trkpt lat="43.65495" lon="3.79981">
        <ele>147.2</ele>
        <time>2017-11-15T11:59:47Z</time>
      </trkpt>
      <trkpt lat="43.65498" lon="3.79986">
        <ele>147.2</ele>
        <time>2017-11-15T11:59:48Z</time>
      </trkpt>
      <trkpt lat="43.655" lon="3.79992">
        <ele>147.1</ele>
        <time>2017-11-15T11:59:49Z</time>
      </trkpt>
      <trkpt lat="43.65503" lon="3.79997">
        <ele>147.1</ele>
        <time>2017-11-15T11:59:50Z</time>
      </trkpt>
      <trkpt lat="43.65505" lon="3.8">
        <ele>147.1</ele>
        <time>2017-11-15T11:59:51Z</time>
      </trkpt>
      <trkpt lat="43.65509" lon="3.80005">
        <ele>147</ele>
        <time>2017-11-15T11:59:52Z</time>
      </trkpt>
      <trkpt lat="43.65512" lon="3.8001">
        <ele>147</ele>
        <time>2017-11-15T11:59:53Z</time>
      </trkpt>
      <trkpt lat="43.65516" lon="3.80015">
        <ele>146.9</ele>
        <time>2017-11-15T11:59:54Z</time>
      </trkpt>
      <trkpt lat="43.6552" lon="3.80022">
        <ele>146.9</ele>
        <time>2017-11-15T11:59:55Z</time>
      </trkpt>
      <trkpt lat="43.65523" lon="3.80026">
        <ele>146.9</ele>
        <time>2017-11-15T11:59:56Z</time>
      </trkpt>
      <trkpt lat="43.65526" lon="3.80032">
        <ele>146.9</ele>
        <time>2017-11-15T11:59:57Z</time>
      </trkpt>
      <trkpt lat="43.6553" lon="3.80038">
        <ele>146.8</ele>
        <time>2017-11-15T11:59:58Z</time>
      </trkpt>
      <trkpt lat="43.65533" lon="3.80043">
        <ele>146.8</ele>
        <time>2017-11-15T11:59:59Z</time>
      </trkpt>
      <trkpt lat="43.65536" lon="3.80048">
        <ele>146.8</ele>
        <time>2017-11-15T12:00:00Z</time>
      </trkpt>
      <trkpt lat="43.65539" lon="3.80053">
        <ele>146.8</ele>
        <time>2017-11-15T12:00:01Z</time>
      </trkpt>
      <trkpt lat="43.65543" lon="3.80057">
        <ele>146.8</ele>
        <time>2017-11-15T12:00:02Z</time>
      </trkpt>
      <trkpt lat="43.65546" lon="3.80063">
        <ele>146.8</ele>
        <time>2017-11-15T12:00:03Z</time>
      </trkpt>
      <trkpt lat="43.65549" lon="3.80068">
        <ele>146.8</ele>
        <time>2017-11-15T12:00:04Z</time>
      </trkpt>
      <trkpt lat="43.65552" lon="3.80073">
        <ele>146.8</ele>
        <time>2017-11-15T12:00:05Z</time>
      </trkpt>
      <trkpt lat="43.65555" lon="3.80079">
        <ele>146.9</ele>
        <time>2017-11-15T12:00:06Z</time>
      </trkpt>
      <trkpt lat="43.65558" lon="3.80084">
        <ele>146.9</ele>
        <time>2017-11-15T12:00:07Z</time>
      </trkpt>
      <trkpt lat="43.65562" lon="3.8009">
        <ele>146.9</ele>
        <time>2017-11-15T12:00:08Z</time>
      </trkpt>
      <trkpt lat="43.65567" lon="3.80096">
        <ele>146.9</ele>
        <time>2017-11-15T12:00:09Z</time>
      </trkpt>
      <trkpt lat="43.6557" lon="3.80101">
        <ele>146.9</ele>
        <time>2017-11-15T12:00:10Z</time>
      </trkpt>
      <trkpt lat="43.65573" lon="3.80107">
        <ele>146.9</ele>
        <time>2017-11-15T12:00:11Z</time>
      </trkpt>
      <trkpt lat="43.65576" lon="3.80113">
        <ele>146.9</ele>
        <time>2017-11-15T12:00:12Z</time>
      </trkpt>
      <trkpt lat="43.6558" lon="3.80118">
        <ele>146.8</ele>
        <time>2017-11-15T12:00:13Z</time>
      </trkpt>
      <trkpt lat="43.65584" lon="3.80124">
        <ele>146.5</ele>
        <time>2017-11-15T12:00:14Z</time>
      </trkpt>
      <trkpt lat="43.65587" lon="3.80128">
        <ele>146.3</ele>
        <time>2017-11-15T12:00:15Z</time>
      </trkpt>
      <trkpt lat="43.65589" lon="3.80135">
        <ele>146</ele>
        <time>2017-11-15T12:00:16Z</time>
      </trkpt>
      <trkpt lat="43.65592" lon="3.80142">
        <ele>145.7</ele>
        <time>2017-11-15T12:00:17Z</time>
      </trkpt>
      <trkpt lat="43.65595" lon="3.80146">
        <ele>145.7</ele>
        <time>2017-11-15T12:00:18Z</time>
      </trkpt>
      <trkpt lat="43.656" lon="3.80149">
        <ele>145.6</ele>
        <time>2017-11-15T12:00:19Z</time>
      </trkpt>
      <trkpt lat="43.65605" lon="3.80153">
        <ele>145.5</ele>
        <time>2017-11-15T12:00:20Z</time>
      </trkpt>
      <trkpt lat="43.65608" lon="3.80158">
        <ele>145.5</ele>
        <time>2017-11-15T12:00:21Z</time>
      </trkpt>
      <trkpt lat="43.65609" lon="3.80162">
        <ele>145.5</ele>
        <time>2017-11-15T12:00:22Z</time>
      </trkpt>
      <trkpt lat="43.65609" lon="3.80169">
        <ele>145.5</ele>
        <time>2017-11-15T12:00:23Z</time>
      </trkpt>
      <trkpt lat="43.65607" lon="3.80173">
        <ele>145.5</ele>
        <time>2017-11-15T12:00:24Z</time>
      </trkpt>
      <trkpt lat="43.65604" lon="3.80176">
        <ele>145.5</ele>
        <time>2017-11-15T12:00:25Z</time>
      </trkpt>
      <trkpt lat="43.65601" lon="3.80178">
        <ele>147.1</ele>
        <time>2017-11-15T12:00:26Z</time>
      </trkpt>
      <trkpt lat="43.65598" lon="3.8018">
        <ele>148.8</ele>
        <time>2017-11-15T12:00:27Z</time>
      </trkpt>
      <trkpt lat="43.65595" lon="3.80183">
        <ele>148.9</ele>
        <time>2017-11-15T12:00:28Z</time>
      </trkpt>
      <trkpt lat="43.65591" lon="3.80186">
        <ele>149</ele>
        <time>2017-11-15T12:00:29Z</time>
      </trkpt>
      <trkpt lat="43.65588" lon="3.80192">
        <ele>149.1</ele>
        <time>2017-11-15T12:00:30Z</time>
      </trkpt>
      <trkpt lat="43.65586" lon="3.80197">
        <ele>149.2</ele>
        <time>2017-11-15T12:00:31Z</time>
      </trkpt>
      <trkpt lat="43.65583" lon="3.802">
        <ele>149.3</ele>
        <time>2017-11-15T12:00:32Z</time>
      </trkpt>
      <trkpt lat="43.65581" lon="3.80204">
        <ele>149.4</ele>
        <time>2017-11-15T12:00:33Z</time>
      </trkpt>
      <trkpt lat="43.65577" lon="3.80208">
        <ele>149.5</ele>
        <time>2017-11-15T12:00:34Z</time>
      </trkpt>
      <trkpt lat="43.65574" lon="3.80212">
        <ele>149.6</ele>
        <time>2017-11-15T12:00:35Z</time>
      </trkpt>
      <trkpt lat="43.65571" lon="3.80214">
        <ele>149.7</ele>
        <time>2017-11-15T12:00:36Z</time>
      </trkpt>
      <trkpt lat="43.65567" lon="3.80218">
        <ele>149.6</ele>
        <time>2017-11-15T12:00:37Z</time>
      </trkpt>
      <trkpt lat="43.65563" lon="3.8022">
        <ele>149.6</ele>
        <time>2017-11-15T12:00:38Z</time>
      </trkpt>
      <trkpt lat="43.6556" lon="3.80221">
        <ele>149.6</ele>
        <time>2017-11-15T12:00:39Z</time>
      </trkpt>
      <trkpt lat="43.65556" lon="3.80223">
        <ele>149.3</ele>
        <time>2017-11-15T12:00:40Z</time>
      </trkpt>
      <trkpt lat="43.6555" lon="3.80227">
        <ele>148.9</ele>
        <time>2017-11-15T12:00:42Z</time>
      </trkpt>
      <trkpt lat="43.65546" lon="3.80229">
        <ele>148.8</ele>
        <time>2017-11-15T12:00:43Z</time>
      </trkpt>
      <trkpt lat="43.65543" lon="3.8023">
        <ele>148.7</ele>
        <time>2017-11-15T12:00:44Z</time>
      </trkpt>
      <trkpt lat="43.6554" lon="3.80231">
        <ele>148.5</ele>
        <time>2017-11-15T12:00:45Z</time>
      </trkpt>
      <trkpt lat="43.65536" lon="3.80234">
        <ele>148.3</ele>
        <time>2017-11-15T12:00:46Z</time>
      </trkpt>
      <trkpt lat="43.65528" lon="3.80236">
        <ele>148.3</ele>
        <time>2017-11-15T12:00:48Z</time>
      </trkpt>
      <trkpt lat="43.65524" lon="3.80237">
        <ele>148.3</ele>
        <time>2017-11-15T12:00:49Z</time>
      </trkpt>
      <trkpt lat="43.65519" lon="3.8024">
        <ele>148.2</ele>
        <time>2017-11-15T12:00:50Z</time>
      </trkpt>
      <trkpt lat="43.65515" lon="3.80244">
        <ele>148.1</ele>
        <time>2017-11-15T12:00:51Z</time>
      </trkpt>
      <trkpt lat="43.65511" lon="3.80249">
        <ele>147.8</ele>
        <time>2017-11-15T12:00:52Z</time>
      </trkpt>
      <trkpt lat="43.65505" lon="3.80254">
        <ele>147.4</ele>
        <time>2017-11-15T12:00:53Z</time>
      </trkpt>
      <trkpt lat="43.65499" lon="3.80259">
        <ele>147.1</ele>
        <time>2017-11-15T12:00:54Z</time>
      </trkpt>
      <trkpt lat="43.65494" lon="3.80264">
        <ele>146.2</ele>
        <time>2017-11-15T12:00:55Z</time>
      </trkpt>
      <trkpt lat="43.65489" lon="3.80268">
        <ele>145.3</ele>
        <time>2017-11-15T12:00:56Z</time>
      </trkpt>
      <trkpt lat="43.65485" lon="3.80276">
        <ele>144.1</ele>
        <time>2017-11-15T12:00:57Z</time>
      </trkpt>
      <trkpt lat="43.65483" lon="3.80282">
        <ele>142.9</ele>
        <time>2017-11-15T12:00:58Z</time>
      </trkpt>
      <trkpt lat="43.65482" lon="3.80291">
        <ele>142.2</ele>
        <time>2017-11-15T12:00:59Z</time>
      </trkpt>
      <trkpt lat="43.65483" lon="3.803">
        <ele>141.6</ele>
        <time>2017-11-15T12:01:00Z</time>
      </trkpt>
      <trkpt lat="43.65485" lon="3.80306">
        <ele>142</ele>
        <time>2017-11-15T12:01:01Z</time>
      </trkpt>
      <trkpt lat="43.65488" lon="3.80312">
        <ele>142</ele>
        <time>2017-11-15T12:01:02Z</time>
      </trkpt>
      <trkpt lat="43.65492" lon="3.80315">
        <ele>142.5</ele>
        <time>2017-11-15T12:01:03Z</time>
      </trkpt>
      <trkpt lat="43.65495" lon="3.80316">
        <ele>142.5</ele>
        <time>2017-11-15T12:01:04Z</time>
      </trkpt>
      <trkpt lat="43.65499" lon="3.80319">
        <ele>143.2</ele>
        <time>2017-11-15T12:01:05Z</time>
      </trkpt>
      <trkpt lat="43.65502" lon="3.80321">
        <ele>142.9</ele>
        <time>2017-11-15T12:01:06Z</time>
      </trkpt>
      <trkpt lat="43.65506" lon="3.80325">
        <ele>142.6</ele>
        <time>2017-11-15T12:01:08Z</time>
      </trkpt>
      <trkpt lat="43.65504" lon="3.80332">
        <ele>141.9</ele>
        <time>2017-11-15T12:01:10Z</time>
      </trkpt>
      <trkpt lat="43.65502" lon="3.80336">
        <ele>141.4</ele>
        <time>2017-11-15T12:01:11Z</time>
      </trkpt>
      <trkpt lat="43.655" lon="3.80338">
        <ele>140.6</ele>
        <time>2017-11-15T12:01:12Z</time>
      </trkpt>
      <trkpt lat="43.65499" lon="3.80343">
        <ele>139.7</ele>
        <time>2017-11-15T12:01:14Z</time>
      </trkpt>
      <trkpt lat="43.65501" lon="3.80345">
        <ele>140</ele>
        <time>2017-11-15T12:01:15Z</time>
      </trkpt>
      <trkpt lat="43.65504" lon="3.80347">
        <ele>139.6</ele>
        <time>2017-11-15T12:01:16Z</time>
      </trkpt>
      <trkpt lat="43.65508" lon="3.80354">
        <ele>139.6</ele>
        <time>2017-11-15T12:01:18Z</time>
      </trkpt>
      <trkpt lat="43.65511" lon="3.80361">
        <ele>138.9</ele>
        <time>2017-11-15T12:01:19Z</time>
      </trkpt>
      <trkpt lat="43.65514" lon="3.80366">
        <ele>138.7</ele>
        <time>2017-11-15T12:01:20Z</time>
      </trkpt>
      <trkpt lat="43.65518" lon="3.8037">
        <ele>138.3</ele>
        <time>2017-11-15T12:01:21Z</time>
      </trkpt>
      <trkpt lat="43.65523" lon="3.80372">
        <ele>137.7</ele>
        <time>2017-11-15T12:01:22Z</time>
      </trkpt>
      <trkpt lat="43.65529" lon="3.80373">
        <ele>138.1</ele>
        <time>2017-11-15T12:01:23Z</time>
      </trkpt>
      <trkpt lat="43.65535" lon="3.80376">
        <ele>137.6</ele>
        <time>2017-11-15T12:01:24Z</time>
      </trkpt>
      <trkpt lat="43.65541" lon="3.80378">
        <ele>138.1</ele>
        <time>2017-11-15T12:01:25Z</time>
      </trkpt>
      <trkpt lat="43.65548" lon="3.8038">
        <ele>138.7</ele>
        <time>2017-11-15T12:01:26Z</time>
      </trkpt>
      <trkpt lat="43.65556" lon="3.80382">
        <ele>139</ele>
        <time>2017-11-15T12:01:27Z</time>
      </trkpt>
      <trkpt lat="43.65564" lon="3.80383">
        <ele>139.5</ele>
        <time>2017-11-15T12:01:28Z</time>
      </trkpt>
      <trkpt lat="43.65571" lon="3.80386">
        <ele>139.8</ele>
        <time>2017-11-15T12:01:29Z</time>
      </trkpt>
      <trkpt lat="43.65578" lon="3.80389">
        <ele>139.7</ele>
        <time>2017-11-15T12:01:30Z</time>
      </trkpt>
      <trkpt lat="43.65585" lon="3.80391">
        <ele>140.1</ele>
        <time>2017-11-15T12:01:31Z</time>
      </trkpt>
      <trkpt lat="43.65592" lon="3.80393">
        <ele>139.9</ele>
        <time>2017-11-15T12:01:32Z</time>
      </trkpt>
      <trkpt lat="43.65597" lon="3.80396">
        <ele>140.4</ele>
        <time>2017-11-15T12:01:33Z</time>
      </trkpt>
      <trkpt lat="43.65604" lon="3.80401">
        <ele>140</ele>
        <time>2017-11-15T12:01:34Z</time>
      </trkpt>
      <trkpt lat="43.65611" lon="3.80403">
        <ele>139.4</ele>
        <time>2017-11-15T12:01:35Z</time>
      </trkpt>
      <trkpt lat="43.65617" lon="3.80404">
        <ele>139.5</ele>
        <time>2017-11-15T12:01:36Z</time>
      </trkpt>
      <trkpt lat="43.65623" lon="3.80411">
        <ele>137.6</ele>
        <time>2017-11-15T12:01:37Z</time>
      </trkpt>
      <trkpt lat="43.6563" lon="3.8042">
        <ele>136.4</ele>
        <time>2017-11-15T12:01:38Z</time>
      </trkpt>
      <trkpt lat="43.65638" lon="3.80422">
        <ele>136.6</ele>
        <time>2017-11-15T12:01:39Z</time>
      </trkpt>
      <trkpt lat="43.65646" lon="3.80422">
        <ele>136.7</ele>
        <time>2017-11-15T12:01:40Z</time>
      </trkpt>
      <trkpt lat="43.65653" lon="3.80424">
        <ele>136.1</ele>
        <time>2017-11-15T12:01:41Z</time>
      </trkpt>
      <trkpt lat="43.65658" lon="3.80427">
        <ele>136.4</ele>
        <time>2017-11-15T12:01:42Z</time>
      </trkpt>
      <trkpt lat="43.65663" lon="3.8043">
        <ele>136.1</ele>
        <time>2017-11-15T12:01:43Z</time>
      </trkpt>
      <trkpt lat="43.65669" lon="3.8043">
        <ele>136.7</ele>
        <time>2017-11-15T12:01:44Z</time>
      </trkpt>
      <trkpt lat="43.65675" lon="3.80432">
        <ele>136.9</ele>
        <time>2017-11-15T12:01:45Z</time>
      </trkpt>
      <trkpt lat="43.65682" lon="3.80434">
        <ele>137.7</ele>
        <time>2017-11-15T12:01:46Z</time>
      </trkpt>
      <trkpt lat="43.65687" lon="3.80434">
        <ele>138.6</ele>
        <time>2017-11-15T12:01:47Z</time>
      </trkpt>
      <trkpt lat="43.65692" lon="3.80436">
        <ele>138.4</ele>
        <time>2017-11-15T12:01:48Z</time>
      </trkpt>
      <trkpt lat="43.65696" lon="3.80439">
        <ele>138.7</ele>
        <time>2017-11-15T12:01:49Z</time>
      </trkpt>
      <trkpt lat="43.65701" lon="3.80442">
        <ele>138.3</ele>
        <time>2017-11-15T12:01:50Z</time>
      </trkpt>
      <trkpt lat="43.65706" lon="3.80443">
        <ele>138.5</ele>
        <time>2017-11-15T12:01:51Z</time>
      </trkpt>
      <trkpt lat="43.6571" lon="3.80446">
        <ele>138</ele>
        <time>2017-11-15T12:01:52Z</time>
      </trkpt>
      <trkpt lat="43.65714" lon="3.80451">
        <ele>137.6</ele>
        <time>2017-11-15T12:01:53Z</time>
      </trkpt>
      <trkpt lat="43.6572" lon="3.80452">
        <ele>137.9</ele>
        <time>2017-11-15T12:01:54Z</time>
      </trkpt>
      <trkpt lat="43.65724" lon="3.80454">
        <ele>137</ele>
        <time>2017-11-15T12:01:55Z</time>
      </trkpt>
      <trkpt lat="43.65727" lon="3.80458">
        <ele>136</ele>
        <time>2017-11-15T12:01:56Z</time>
      </trkpt>
      <trkpt lat="43.65732" lon="3.8046">
        <ele>136.2</ele>
        <time>2017-11-15T12:01:57Z</time>
      </trkpt>
      <trkpt lat="43.65738" lon="3.80462">
        <ele>135.3</ele>
        <time>2017-11-15T12:01:58Z</time>
      </trkpt>
      <trkpt lat="43.65744" lon="3.80461">
        <ele>136.5</ele>
        <time>2017-11-15T12:01:59Z</time>
      </trkpt>
      <trkpt lat="43.65749" lon="3.80461">
        <ele>136.6</ele>
        <time>2017-11-15T12:02:00Z</time>
      </trkpt>
      <trkpt lat="43.65754" lon="3.80464">
        <ele>135.5</ele>
        <time>2017-11-15T12:02:01Z</time>
      </trkpt>
      <trkpt lat="43.65758" lon="3.80469">
        <ele>134.3</ele>
        <time>2017-11-15T12:02:02Z</time>
      </trkpt>
      <trkpt lat="43.65763" lon="3.8047">
        <ele>133.3</ele>
        <time>2017-11-15T12:02:03Z</time>
      </trkpt>
      <trkpt lat="43.65768" lon="3.80471">
        <ele>133.5</ele>
        <time>2017-11-15T12:02:04Z</time>
      </trkpt>
      <trkpt lat="43.65773" lon="3.80471">
        <ele>133.9</ele>
        <time>2017-11-15T12:02:05Z</time>
      </trkpt>
      <trkpt lat="43.65777" lon="3.80472">
        <ele>134.2</ele>
        <time>2017-11-15T12:02:06Z</time>
      </trkpt>
      <trkpt lat="43.6578" lon="3.80472">
        <ele>134.5</ele>
        <time>2017-11-15T12:02:07Z</time>
      </trkpt>
      <trkpt lat="43.65783" lon="3.80475">
        <ele>134</ele>
        <time>2017-11-15T12:02:08Z</time>
      </trkpt>
      <trkpt lat="43.65788" lon="3.80478">
        <ele>134.9</ele>
        <time>2017-11-15T12:02:09Z</time>
      </trkpt>
      <trkpt lat="43.65793" lon="3.80479">
        <ele>134.3</ele>
        <time>2017-11-15T12:02:10Z</time>
      </trkpt>
      <trkpt lat="43.658" lon="3.80481">
        <ele>135.3</ele>
        <time>2017-11-15T12:02:11Z</time>
      </trkpt>
      <trkpt lat="43.65806" lon="3.80481">
        <ele>136</ele>
        <time>2017-11-15T12:02:12Z</time>
      </trkpt>
      <trkpt lat="43.65812" lon="3.80482">
        <ele>136.5</ele>
        <time>2017-11-15T12:02:13Z</time>
      </trkpt>
      <trkpt lat="43.65817" lon="3.80481">
        <ele>137</ele>
        <time>2017-11-15T12:02:14Z</time>
      </trkpt>
      <trkpt lat="43.65822" lon="3.80484">
        <ele>136.3</ele>
        <time>2017-11-15T12:02:15Z</time>
      </trkpt>
      <trkpt lat="43.65828" lon="3.80487">
        <ele>136.6</ele>
        <time>2017-11-15T12:02:16Z</time>
      </trkpt>
      <trkpt lat="43.65833" lon="3.80489">
        <ele>136.2</ele>
        <time>2017-11-15T12:02:17Z</time>
      </trkpt>
      <trkpt lat="43.65838" lon="3.80492">
        <ele>136.9</ele>
        <time>2017-11-15T12:02:18Z</time>
      </trkpt>
      <trkpt lat="43.65841" lon="3.80497">
        <ele>135.8</ele>
        <time>2017-11-15T12:02:19Z</time>
      </trkpt>
      <trkpt lat="43.65845" lon="3.80501">
        <ele>135.7</ele>
        <time>2017-11-15T12:02:20Z</time>
      </trkpt>
      <trkpt lat="43.6585" lon="3.80504">
        <ele>136.6</ele>
        <time>2017-11-15T12:02:21Z</time>
      </trkpt>
      <trkpt lat="43.65855" lon="3.80505">
        <ele>136.4</ele>
        <time>2017-11-15T12:02:22Z</time>
      </trkpt>
      <trkpt lat="43.65858" lon="3.80508">
        <ele>136.9</ele>
        <time>2017-11-15T12:02:23Z</time>
      </trkpt>
      <trkpt lat="43.65862" lon="3.80511">
        <ele>137</ele>
        <time>2017-11-15T12:02:24Z</time>
      </trkpt>
      <trkpt lat="43.65868" lon="3.80516">
        <ele>136.6</ele>
        <time>2017-11-15T12:02:25Z</time>
      </trkpt>
      <trkpt lat="43.65873" lon="3.80519">
        <ele>136.7</ele>
        <time>2017-11-15T12:02:26Z</time>
      </trkpt>
      <trkpt lat="43.65879" lon="3.80523">
        <ele>136.8</ele>
        <time>2017-11-15T12:02:27Z</time>
      </trkpt>
      <trkpt lat="43.65882" lon="3.80526">
        <ele>136.5</ele>
        <time>2017-11-15T12:02:28Z</time>
      </trkpt>
      <trkpt lat="43.65885" lon="3.80527">
        <ele>136.9</ele>
        <time>2017-11-15T12:02:29Z</time>
      </trkpt>
      <trkpt lat="43.65889" lon="3.80527">
        <ele>137.2</ele>
        <time>2017-11-15T12:02:30Z</time>
      </trkpt>
      <trkpt lat="43.65893" lon="3.80528">
        <ele>137.6</ele>
        <time>2017-11-15T12:02:31Z</time>
      </trkpt>
      <trkpt lat="43.65897" lon="3.80532">
        <ele>137.5</ele>
        <time>2017-11-15T12:02:32Z</time>
      </trkpt>
      <trkpt lat="43.65902" lon="3.80535">
        <ele>137</ele>
        <time>2017-11-15T12:02:33Z</time>
      </trkpt>
      <trkpt lat="43.65907" lon="3.80538">
        <ele>137.7</ele>
        <time>2017-11-15T12:02:34Z</time>
      </trkpt>
      <trkpt lat="43.65912" lon="3.80542">
        <ele>137.3</ele>
        <time>2017-11-15T12:02:35Z</time>
      </trkpt>
      <trkpt lat="43.65916" lon="3.80548">
        <ele>135.5</ele>
        <time>2017-11-15T12:02:36Z</time>
      </trkpt>
      <trkpt lat="43.65922" lon="3.80552">
        <ele>135</ele>
        <time>2017-11-15T12:02:37Z</time>
      </trkpt>
      <trkpt lat="43.65925" lon="3.80555">
        <ele>135.3</ele>
        <time>2017-11-15T12:02:38Z</time>
      </trkpt>
      <trkpt lat="43.65928" lon="3.80559">
        <ele>134.8</ele>
        <time>2017-11-15T12:02:39Z</time>
      </trkpt>
      <trkpt lat="43.65927" lon="3.80565">
        <ele>132.8</ele>
        <time>2017-11-15T12:02:41Z</time>
      </trkpt>
      <trkpt lat="43.65926" lon="3.80571">
        <ele>131.9</ele>
        <time>2017-11-15T12:02:43Z</time>
      </trkpt>
      <trkpt lat="43.65927" lon="3.80578">
        <ele>130.2</ele>
        <time>2017-11-15T12:02:44Z</time>
      </trkpt>
      <trkpt lat="43.65929" lon="3.80585">
        <ele>129.9</ele>
        <time>2017-11-15T12:02:48Z</time>
      </trkpt>
      <trkpt lat="43.65932" lon="3.80588">
        <ele>129.5</ele>
        <time>2017-11-15T12:02:49Z</time>
      </trkpt>
      <trkpt lat="43.65935" lon="3.8059">
        <ele>129.9</ele>
        <time>2017-11-15T12:02:50Z</time>
      </trkpt>
      <trkpt lat="43.65936" lon="3.80595">
        <ele>127.9</ele>
        <time>2017-11-15T12:02:51Z</time>
      </trkpt>
      <trkpt lat="43.65937" lon="3.806">
        <ele>127.1</ele>
        <time>2017-11-15T12:02:52Z</time>
      </trkpt>
      <trkpt lat="43.65937" lon="3.80605">
        <ele>126.1</ele>
        <time>2017-11-15T12:02:53Z</time>
      </trkpt>
      <trkpt lat="43.65936" lon="3.80609">
        <ele>124.9</ele>
        <time>2017-11-15T12:02:54Z</time>
      </trkpt>
      <trkpt lat="43.65935" lon="3.80613">
        <ele>124</ele>
        <time>2017-11-15T12:02:55Z</time>
      </trkpt>
      <trkpt lat="43.65934" lon="3.80616">
        <ele>123.1</ele>
        <time>2017-11-15T12:02:56Z</time>
      </trkpt>
      <trkpt lat="43.65932" lon="3.80624">
        <ele>121.6</ele>
        <time>2017-11-15T12:02:58Z</time>
      </trkpt>
      <trkpt lat="43.65932" lon="3.80628">
        <ele>120.5</ele>
        <time>2017-11-15T12:02:59Z</time>
      </trkpt>
      <trkpt lat="43.65929" lon="3.80633">
        <ele>118.9</ele>
        <time>2017-11-15T12:03:00Z</time>
      </trkpt>
      <trkpt lat="43.65927" lon="3.80637">
        <ele>117.3</ele>
        <time>2017-11-15T12:03:01Z</time>
      </trkpt>
      <trkpt lat="43.65921" lon="3.80639">
        <ele>115.9</ele>
        <time>2017-11-15T12:03:03Z</time>
      </trkpt>
      <trkpt lat="43.65917" lon="3.80641">
        <ele>115.1</ele>
        <time>2017-11-15T12:03:04Z</time>
      </trkpt>
      <trkpt lat="43.65915" lon="3.80643">
        <ele>114.1</ele>
        <time>2017-11-15T12:03:05Z</time>
      </trkpt>
      <trkpt lat="43.65912" lon="3.80647">
        <ele>112.8</ele>
        <time>2017-11-15T12:03:06Z</time>
      </trkpt>
      <trkpt lat="43.65912" lon="3.80652">
        <ele>111.4</ele>
        <time>2017-11-15T12:03:07Z</time>
      </trkpt>
      <trkpt lat="43.65911" lon="3.80659">
        <ele>110.4</ele>
        <time>2017-11-15T12:03:08Z</time>
      </trkpt>
      <trkpt lat="43.65911" lon="3.80665">
        <ele>108.9</ele>
        <time>2017-11-15T12:03:09Z</time>
      </trkpt>
      <trkpt lat="43.65914" lon="3.80671">
        <ele>108.6</ele>
        <time>2017-11-15T12:03:10Z</time>
      </trkpt>
      <trkpt lat="43.65916" lon="3.80676">
        <ele>108.3</ele>
        <time>2017-11-15T12:03:11Z</time>
      </trkpt>
      <trkpt lat="43.65918" lon="3.8068">
        <ele>107.8</ele>
        <time>2017-11-15T12:03:12Z</time>
      </trkpt>
      <trkpt lat="43.6592" lon="3.80684">
        <ele>107.6</ele>
        <time>2017-11-15T12:03:13Z</time>
      </trkpt>
      <trkpt lat="43.65922" lon="3.80691">
        <ele>107.1</ele>
        <time>2017-11-15T12:03:14Z</time>
      </trkpt>
      <trkpt lat="43.65925" lon="3.80698">
        <ele>106.8</ele>
        <time>2017-11-15T12:03:15Z</time>
      </trkpt>
      <trkpt lat="43.65928" lon="3.80706">
        <ele>106.7</ele>
        <time>2017-11-15T12:03:16Z</time>
      </trkpt>
      <trkpt lat="43.65929" lon="3.80715">
        <ele>105.7</ele>
        <time>2017-11-15T12:03:17Z</time>
      </trkpt>
      <trkpt lat="43.65927" lon="3.80722">
        <ele>105.5</ele>
        <time>2017-11-15T12:03:18Z</time>
      </trkpt>
      <trkpt lat="43.65923" lon="3.80729">
        <ele>105.3</ele>
        <time>2017-11-15T12:03:19Z</time>
      </trkpt>
      <trkpt lat="43.65919" lon="3.80737">
        <ele>105.1</ele>
        <time>2017-11-15T12:03:20Z</time>
      </trkpt>
      <trkpt lat="43.65915" lon="3.80744">
        <ele>104.9</ele>
        <time>2017-11-15T12:03:21Z</time>
      </trkpt>
      <trkpt lat="43.65912" lon="3.80754">
        <ele>104.8</ele>
        <time>2017-11-15T12:03:22Z</time>
      </trkpt>
      <trkpt lat="43.65908" lon="3.80763">
        <ele>104.6</ele>
        <time>2017-11-15T12:03:23Z</time>
      </trkpt>
      <trkpt lat="43.65904" lon="3.80772">
        <ele>104.3</ele>
        <time>2017-11-15T12:03:24Z</time>
      </trkpt>
      <trkpt lat="43.65901" lon="3.80777">
        <ele>104.1</ele>
        <time>2017-11-15T12:03:25Z</time>
      </trkpt>
      <trkpt lat="43.65896" lon="3.80779">
        <ele>103.9</ele>
        <time>2017-11-15T12:03:26Z</time>
      </trkpt>
      <trkpt lat="43.6589" lon="3.80777">
        <ele>103.9</ele>
        <time>2017-11-15T12:03:27Z</time>
      </trkpt>
      <trkpt lat="43.65884" lon="3.80775">
        <ele>104</ele>
        <time>2017-11-15T12:03:28Z</time>
      </trkpt>
      <trkpt lat="43.6588" lon="3.80774">
        <ele>104</ele>
        <time>2017-11-15T12:03:29Z</time>
      </trkpt>
      <trkpt lat="43.65873" lon="3.80772">
        <ele>103.7</ele>
        <time>2017-11-15T12:03:30Z</time>
      </trkpt>
      <trkpt lat="43.65868" lon="3.8077">
        <ele>103.4</ele>
        <time>2017-11-15T12:03:31Z</time>
      </trkpt>
      <trkpt lat="43.65863" lon="3.80768">
        <ele>103.1</ele>
        <time>2017-11-15T12:03:32Z</time>
      </trkpt>
      <trkpt lat="43.65858" lon="3.80766">
        <ele>102.5</ele>
        <time>2017-11-15T12:03:33Z</time>
      </trkpt>
      <trkpt lat="43.65853" lon="3.80764">
        <ele>102.1</ele>
        <time>2017-11-15T12:03:34Z</time>
      </trkpt>
      <trkpt lat="43.65849" lon="3.80761">
        <ele>101.2</ele>
        <time>2017-11-15T12:03:35Z</time>
      </trkpt>
      <trkpt lat="43.65844" lon="3.80759">
        <ele>100.7</ele>
        <time>2017-11-15T12:03:36Z</time>
      </trkpt>
      <trkpt lat="43.65839" lon="3.80756">
        <ele>100</ele>
        <time>2017-11-15T12:03:37Z</time>
      </trkpt>
      <trkpt lat="43.65834" lon="3.80753">
        <ele>99.5</ele>
        <time>2017-11-15T12:03:38Z</time>
      </trkpt>
      <trkpt lat="43.65828" lon="3.80752">
        <ele>98.7</ele>
        <time>2017-11-15T12:03:39Z</time>
      </trkpt>
      <trkpt lat="43.65822" lon="3.8075">
        <ele>98.5</ele>
        <time>2017-11-15T12:03:40Z</time>
      </trkpt>
      <trkpt lat="43.65817" lon="3.80746">
        <ele>98.6</ele>
        <time>2017-11-15T12:03:41Z</time>
      </trkpt>
      <trkpt lat="43.65812" lon="3.80742">
        <ele>98.6</ele>
        <time>2017-11-15T12:03:42Z</time>
      </trkpt>
      <trkpt lat="43.65807" lon="3.80739">
        <ele>98.5</ele>
        <time>2017-11-15T12:03:43Z</time>
      </trkpt>
      <trkpt lat="43.65801" lon="3.80736">
        <ele>98.1</ele>
        <time>2017-11-15T12:03:44Z</time>
      </trkpt>
      <trkpt lat="43.65795" lon="3.80733">
        <ele>97.9</ele>
        <time>2017-11-15T12:03:45Z</time>
      </trkpt>
      <trkpt lat="43.65789" lon="3.80733">
        <ele>97.5</ele>
        <time>2017-11-15T12:03:46Z</time>
      </trkpt>
      <trkpt lat="43.65784" lon="3.80734">
        <ele>97.2</ele>
        <time>2017-11-15T12:03:47Z</time>
      </trkpt>
      <trkpt lat="43.65778" lon="3.80735">
        <ele>97.2</ele>
        <time>2017-11-15T12:03:48Z</time>
      </trkpt>
      <trkpt lat="43.65772" lon="3.80734">
        <ele>97.2</ele>
        <time>2017-11-15T12:03:49Z</time>
      </trkpt>
      <trkpt lat="43.65767" lon="3.80732">
        <ele>97</ele>
        <time>2017-11-15T12:03:50Z</time>
      </trkpt>
      <trkpt lat="43.65762" lon="3.80731">
        <ele>97</ele>
        <time>2017-11-15T12:03:51Z</time>
      </trkpt>
      <trkpt lat="43.65756" lon="3.8073">
        <ele>97</ele>
        <time>2017-11-15T12:03:52Z</time>
      </trkpt>
      <trkpt lat="43.65752" lon="3.80729">
        <ele>97.1</ele>
        <time>2017-11-15T12:03:53Z</time>
      </trkpt>
      <trkpt lat="43.65748" lon="3.80727">
        <ele>97.3</ele>
        <time>2017-11-15T12:03:54Z</time>
      </trkpt>
      <trkpt lat="43.65744" lon="3.80725">
        <ele>97.4</ele>
        <time>2017-11-15T12:03:55Z</time>
      </trkpt>
      <trkpt lat="43.6574" lon="3.80723">
        <ele>97.6</ele>
        <time>2017-11-15T12:03:56Z</time>
      </trkpt>
      <trkpt lat="43.65735" lon="3.80719">
        <ele>97.8</ele>
        <time>2017-11-15T12:03:57Z</time>
      </trkpt>
      <trkpt lat="43.6573" lon="3.80715">
        <ele>98</ele>
        <time>2017-11-15T12:03:58Z</time>
      </trkpt>
      <trkpt lat="43.65724" lon="3.80711">
        <ele>98</ele>
        <time>2017-11-15T12:03:59Z</time>
      </trkpt>
      <trkpt lat="43.65719" lon="3.80707">
        <ele>97.9</ele>
        <time>2017-11-15T12:04:00Z</time>
      </trkpt>
      <trkpt lat="43.65714" lon="3.80703">
        <ele>98</ele>
        <time>2017-11-15T12:04:01Z</time>
      </trkpt>
      <trkpt lat="43.65709" lon="3.80701">
        <ele>98</ele>
        <time>2017-11-15T12:04:02Z</time>
      </trkpt>
      <trkpt lat="43.65703" lon="3.807">
        <ele>97.4</ele>
        <time>2017-11-15T12:04:03Z</time>
      </trkpt>
      <trkpt lat="43.65696" lon="3.80701">
        <ele>96.6</ele>
        <time>2017-11-15T12:04:04Z</time>
      </trkpt>
      <trkpt lat="43.65689" lon="3.80702">
        <ele>95.7</ele>
        <time>2017-11-15T12:04:05Z</time>
      </trkpt>
      <trkpt lat="43.65683" lon="3.80706">
        <ele>95.2</ele>
        <time>2017-11-15T12:04:06Z</time>
      </trkpt>
      <trkpt lat="43.65677" lon="3.80709">
        <ele>94.5</ele>
        <time>2017-11-15T12:04:07Z</time>
      </trkpt>
      <trkpt lat="43.6567" lon="3.80713">
        <ele>93.8</ele>
        <time>2017-11-15T12:04:08Z</time>
      </trkpt>
      <trkpt lat="43.65663" lon="3.80716">
        <ele>93.2</ele>
        <time>2017-11-15T12:04:09Z</time>
      </trkpt>
      <trkpt lat="43.65656" lon="3.8072">
        <ele>92.4</ele>
        <time>2017-11-15T12:04:10Z</time>
      </trkpt>
      <trkpt lat="43.6565" lon="3.80725">
        <ele>91.3</ele>
        <time>2017-11-15T12:04:11Z</time>
      </trkpt>
      <trkpt lat="43.65642" lon="3.8073">
        <ele>90.4</ele>
        <time>2017-11-15T12:04:12Z</time>
      </trkpt>
      <trkpt lat="43.65635" lon="3.80735">
        <ele>90</ele>
        <time>2017-11-15T12:04:13Z</time>
      </trkpt>
      <trkpt lat="43.65628" lon="3.80741">
        <ele>89.6</ele>
        <time>2017-11-15T12:04:14Z</time>
      </trkpt>
      <trkpt lat="43.65621" lon="3.80747">
        <ele>89.3</ele>
        <time>2017-11-15T12:04:15Z</time>
      </trkpt>
      <trkpt lat="43.65614" lon="3.80754">
        <ele>88.7</ele>
        <time>2017-11-15T12:04:16Z</time>
      </trkpt>
      <trkpt lat="43.65606" lon="3.8076">
        <ele>88.2</ele>
        <time>2017-11-15T12:04:17Z</time>
      </trkpt>
      <trkpt lat="43.656" lon="3.80768">
        <ele>87.9</ele>
        <time>2017-11-15T12:04:18Z</time>
      </trkpt>
      <trkpt lat="43.65592" lon="3.80775">
        <ele>87.5</ele>
        <time>2017-11-15T12:04:19Z</time>
      </trkpt>
      <trkpt lat="43.65585" lon="3.80781">
        <ele>87</ele>
        <time>2017-11-15T12:04:20Z</time>
      </trkpt>
      <trkpt lat="43.65578" lon="3.80787">
        <ele>86.1</ele>
        <time>2017-11-15T12:04:21Z</time>
      </trkpt>
      <trkpt lat="43.6557" lon="3.80791">
        <ele>85</ele>
        <time>2017-11-15T12:04:22Z</time>
      </trkpt>
      <trkpt lat="43.65562" lon="3.80793">
        <ele>84.6</ele>
        <time>2017-11-15T12:04:23Z</time>
      </trkpt>
      <trkpt lat="43.65555" lon="3.80792">
        <ele>84.5</ele>
        <time>2017-11-15T12:04:24Z</time>
      </trkpt>
      <trkpt lat="43.65548" lon="3.80789">
        <ele>84.2</ele>
        <time>2017-11-15T12:04:25Z</time>
      </trkpt>
      <trkpt lat="43.65541" lon="3.80785">
        <ele>83.8</ele>
        <time>2017-11-15T12:04:26Z</time>
      </trkpt>
      <trkpt lat="43.65535" lon="3.80783">
        <ele>83.7</ele>
        <time>2017-11-15T12:04:27Z</time>
      </trkpt>
      <trkpt lat="43.65529" lon="3.80779">
        <ele>83.3</ele>
        <time>2017-11-15T12:04:28Z</time>
      </trkpt>
      <trkpt lat="43.65524" lon="3.80777">
        <ele>83.3</ele>
        <time>2017-11-15T12:04:29Z</time>
      </trkpt>
      <trkpt lat="43.65518" lon="3.80777">
        <ele>83.1</ele>
        <time>2017-11-15T12:04:30Z</time>
      </trkpt>
      <trkpt lat="43.65512" lon="3.80778">
        <ele>82.7</ele>
        <time>2017-11-15T12:04:31Z</time>
      </trkpt>
      <trkpt lat="43.65505" lon="3.80779">
        <ele>82.2</ele>
        <time>2017-11-15T12:04:32Z</time>
      </trkpt>
      <trkpt lat="43.65497" lon="3.8078">
        <ele>81.4</ele>
        <time>2017-11-15T12:04:33Z</time>
      </trkpt>
      <trkpt lat="43.6549" lon="3.80778">
        <ele>81</ele>
        <time>2017-11-15T12:04:34Z</time>
      </trkpt>
      <trkpt lat="43.65482" lon="3.80774">
        <ele>81.2</ele>
        <time>2017-11-15T12:04:35Z</time>
      </trkpt>
      <trkpt lat="43.65475" lon="3.8077">
        <ele>81.7</ele>
        <time>2017-11-15T12:04:36Z</time>
      </trkpt>
      <trkpt lat="43.65469" lon="3.80766">
        <ele>82.2</ele>
        <time>2017-11-15T12:04:37Z</time>
      </trkpt>
      <trkpt lat="43.65462" lon="3.80763">
        <ele>82.5</ele>
        <time>2017-11-15T12:04:38Z</time>
      </trkpt>
      <trkpt lat="43.65455" lon="3.80762">
        <ele>82.3</ele>
        <time>2017-11-15T12:04:39Z</time>
      </trkpt>
      <trkpt lat="43.65448" lon="3.80762">
        <ele>82.1</ele>
        <time>2017-11-15T12:04:40Z</time>
      </trkpt>
      <trkpt lat="43.65442" lon="3.80761">
        <ele>82.1</ele>
        <time>2017-11-15T12:04:41Z</time>
      </trkpt>
      <trkpt lat="43.65436" lon="3.80758">
        <ele>82.2</ele>
        <time>2017-11-15T12:04:42Z</time>
      </trkpt>
      <trkpt lat="43.6543" lon="3.80757">
        <ele>82.2</ele>
        <time>2017-11-15T12:04:43Z</time>
      </trkpt>
      <trkpt lat="43.65424" lon="3.80755">
        <ele>82.3</ele>
        <time>2017-11-15T12:04:44Z</time>
      </trkpt>
      <trkpt lat="43.65419" lon="3.80754">
        <ele>82.5</ele>
        <time>2017-11-15T12:04:45Z</time>
      </trkpt>
      <trkpt lat="43.65414" lon="3.80754">
        <ele>82.9</ele>
        <time>2017-11-15T12:04:46Z</time>
      </trkpt>
      <trkpt lat="43.65408" lon="3.80752">
        <ele>83.2</ele>
        <time>2017-11-15T12:04:47Z</time>
      </trkpt>
      <trkpt lat="43.65403" lon="3.80749">
        <ele>83.6</ele>
        <time>2017-11-15T12:04:48Z</time>
      </trkpt>
      <trkpt lat="43.65398" lon="3.80747">
        <ele>84.1</ele>
        <time>2017-11-15T12:04:49Z</time>
      </trkpt>
      <trkpt lat="43.65393" lon="3.80746">
        <ele>84.5</ele>
        <time>2017-11-15T12:04:50Z</time>
      </trkpt>
      <trkpt lat="43.65387" lon="3.80745">
        <ele>85</ele>
        <time>2017-11-15T12:04:51Z</time>
      </trkpt>
      <trkpt lat="43.65381" lon="3.80745">
        <ele>85.2</ele>
        <time>2017-11-15T12:04:52Z</time>
      </trkpt>
      <trkpt lat="43.65375" lon="3.80744">
        <ele>85.5</ele>
        <time>2017-11-15T12:04:53Z</time>
      </trkpt>
      <trkpt lat="43.65369" lon="3.80743">
        <ele>85.9</ele>
        <time>2017-11-15T12:04:54Z</time>
      </trkpt>
      <trkpt lat="43.65364" lon="3.80742">
        <ele>86.3</ele>
        <time>2017-11-15T12:04:55Z</time>
      </trkpt>
      <trkpt lat="43.65358" lon="3.8074">
        <ele>86.5</ele>
        <time>2017-11-15T12:04:56Z</time>
      </trkpt>
      <trkpt lat="43.65354" lon="3.80737">
        <ele>86.7</ele>
        <time>2017-11-15T12:04:57Z</time>
      </trkpt>
      <trkpt lat="43.65349" lon="3.80738">
        <ele>86.9</ele>
        <time>2017-11-15T12:04:58Z</time>
      </trkpt>
      <trkpt lat="43.65344" lon="3.80742">
        <ele>86.2</ele>
        <time>2017-11-15T12:04:59Z</time>
      </trkpt>
      <trkpt lat="43.65341" lon="3.80749">
        <ele>85.8</ele>
        <time>2017-11-15T12:05:00Z</time>
      </trkpt>
      <trkpt lat="43.65339" lon="3.80757">
        <ele>85.5</ele>
        <time>2017-11-15T12:05:01Z</time>
      </trkpt>
      <trkpt lat="43.65335" lon="3.80766">
        <ele>85.1</ele>
        <time>2017-11-15T12:05:02Z</time>
      </trkpt>
      <trkpt lat="43.65332" lon="3.80774">
        <ele>84.8</ele>
        <time>2017-11-15T12:05:03Z</time>
      </trkpt>
      <trkpt lat="43.65328" lon="3.80782">
        <ele>84.5</ele>
        <time>2017-11-15T12:05:04Z</time>
      </trkpt>
      <trkpt lat="43.65325" lon="3.8079">
        <ele>84.1</ele>
        <time>2017-11-15T12:05:05Z</time>
      </trkpt>
      <trkpt lat="43.65321" lon="3.80798">
        <ele>83.6</ele>
        <time>2017-11-15T12:05:06Z</time>
      </trkpt>
      <trkpt lat="43.65318" lon="3.80806">
        <ele>83.1</ele>
        <time>2017-11-15T12:05:07Z</time>
      </trkpt>
      <trkpt lat="43.65314" lon="3.80814">
        <ele>82.5</ele>
        <time>2017-11-15T12:05:08Z</time>
      </trkpt>
      <trkpt lat="43.6531" lon="3.80821">
        <ele>81.6</ele>
        <time>2017-11-15T12:05:09Z</time>
      </trkpt>
      <trkpt lat="43.65306" lon="3.80829">
        <ele>80.2</ele>
        <time>2017-11-15T12:05:10Z</time>
      </trkpt>
      <trkpt lat="43.65302" lon="3.80836">
        <ele>79.4</ele>
        <time>2017-11-15T12:05:11Z</time>
      </trkpt>
      <trkpt lat="43.65299" lon="3.80844">
        <ele>78.8</ele>
        <time>2017-11-15T12:05:12Z</time>
      </trkpt>
      <trkpt lat="43.65295" lon="3.80852">
        <ele>78.4</ele>
        <time>2017-11-15T12:05:13Z</time>
      </trkpt>
      <trkpt lat="43.65292" lon="3.80861">
        <ele>78.1</ele>
        <time>2017-11-15T12:05:14Z</time>
      </trkpt>
      <trkpt lat="43.65288" lon="3.80869">
        <ele>77.6</ele>
        <time>2017-11-15T12:05:15Z</time>
      </trkpt>
      <trkpt lat="43.65284" lon="3.80876">
        <ele>76.9</ele>
        <time>2017-11-15T12:05:16Z</time>
      </trkpt>
      <trkpt lat="43.65281" lon="3.80883">
        <ele>76.1</ele>
        <time>2017-11-15T12:05:17Z</time>
      </trkpt>
      <trkpt lat="43.65278" lon="3.80891">
        <ele>75.7</ele>
        <time>2017-11-15T12:05:18Z</time>
      </trkpt>
      <trkpt lat="43.65273" lon="3.80898">
        <ele>75.4</ele>
        <time>2017-11-15T12:05:19Z</time>
      </trkpt>
      <trkpt lat="43.65269" lon="3.80905">
        <ele>75.3</ele>
        <time>2017-11-15T12:05:20Z</time>
      </trkpt>
      <trkpt lat="43.65265" lon="3.80913">
        <ele>75</ele>
        <time>2017-11-15T12:05:21Z</time>
      </trkpt>
      <trkpt lat="43.65262" lon="3.8092">
        <ele>75</ele>
        <time>2017-11-15T12:05:22Z</time>
      </trkpt>
      <trkpt lat="43.65259" lon="3.80926">
        <ele>74.4</ele>
        <time>2017-11-15T12:05:23Z</time>
      </trkpt>
      <trkpt lat="43.65257" lon="3.8093">
        <ele>74</ele>
        <time>2017-11-15T12:05:24Z</time>
      </trkpt>
      <trkpt lat="43.65255" lon="3.80934">
        <ele>73.6</ele>
        <time>2017-11-15T12:05:25Z</time>
      </trkpt>
      <trkpt lat="43.65253" lon="3.80938">
        <ele>73</ele>
        <time>2017-11-15T12:05:26Z</time>
      </trkpt>
      <trkpt lat="43.65252" lon="3.80943">
        <ele>73</ele>
        <time>2017-11-15T12:05:27Z</time>
      </trkpt>
      <trkpt lat="43.65252" lon="3.80949">
        <ele>73</ele>
        <time>2017-11-15T12:05:28Z</time>
      </trkpt>
      <trkpt lat="43.65252" lon="3.80956">
        <ele>73</ele>
        <time>2017-11-15T12:05:29Z</time>
      </trkpt>
      <trkpt lat="43.65252" lon="3.80962">
        <ele>73</ele>
        <time>2017-11-15T12:05:30Z</time>
      </trkpt>
      <trkpt lat="43.6525" lon="3.80968">
        <ele>73</ele>
        <time>2017-11-15T12:05:31Z</time>
      </trkpt>
      <trkpt lat="43.65247" lon="3.80973">
        <ele>73</ele>
        <time>2017-11-15T12:05:32Z</time>
      </trkpt>
      <trkpt lat="43.65245" lon="3.8098">
        <ele>73</ele>
        <time>2017-11-15T12:05:33Z</time>
      </trkpt>
      <trkpt lat="43.65242" lon="3.80985">
        <ele>73</ele>
        <time>2017-11-15T12:05:34Z</time>
      </trkpt>
      <trkpt lat="43.6524" lon="3.80991">
        <ele>73</ele>
        <time>2017-11-15T12:05:35Z</time>
      </trkpt>
      <trkpt lat="43.65238" lon="3.80997">
        <ele>73</ele>
        <time>2017-11-15T12:05:36Z</time>
      </trkpt>
      <trkpt lat="43.65235" lon="3.81003">
        <ele>73</ele>
        <time>2017-11-15T12:05:37Z</time>
      </trkpt>
      <trkpt lat="43.65232" lon="3.81008">
        <ele>73</ele>
        <time>2017-11-15T12:05:38Z</time>
      </trkpt>
      <trkpt lat="43.65228" lon="3.81014">
        <ele>73</ele>
        <time>2017-11-15T12:05:39Z</time>
      </trkpt>
      <trkpt lat="43.65224" lon="3.81019">
        <ele>73</ele>
        <time>2017-11-15T12:05:40Z</time>
      </trkpt>
      <trkpt lat="43.65221" lon="3.81026">
        <ele>73</ele>
        <time>2017-11-15T12:05:41Z</time>
      </trkpt>
      <trkpt lat="43.65216" lon="3.81032">
        <ele>73</ele>
        <time>2017-11-15T12:05:42Z</time>
      </trkpt>
      <trkpt lat="43.65213" lon="3.81037">
        <ele>73.1</ele>
        <time>2017-11-15T12:05:43Z</time>
      </trkpt>
      <trkpt lat="43.65209" lon="3.81042">
        <ele>73.2</ele>
        <time>2017-11-15T12:05:44Z</time>
      </trkpt>
      <trkpt lat="43.65206" lon="3.81048">
        <ele>73.5</ele>
        <time>2017-11-15T12:05:45Z</time>
      </trkpt>
      <trkpt lat="43.65202" lon="3.81054">
        <ele>74.1</ele>
        <time>2017-11-15T12:05:46Z</time>
      </trkpt>
      <trkpt lat="43.65199" lon="3.81059">
        <ele>74.6</ele>
        <time>2017-11-15T12:05:47Z</time>
      </trkpt>
      <trkpt lat="43.65196" lon="3.81065">
        <ele>75</ele>
        <time>2017-11-15T12:05:48Z</time>
      </trkpt>
      <trkpt lat="43.65192" lon="3.81072">
        <ele>75.4</ele>
        <time>2017-11-15T12:05:49Z</time>
      </trkpt>
      <trkpt lat="43.65189" lon="3.81079">
        <ele>75.8</ele>
        <time>2017-11-15T12:05:50Z</time>
      </trkpt>
      <trkpt lat="43.65187" lon="3.81086">
        <ele>76</ele>
        <time>2017-11-15T12:05:51Z</time>
      </trkpt>
      <trkpt lat="43.65186" lon="3.81093">
        <ele>76.3</ele>
        <time>2017-11-15T12:05:52Z</time>
      </trkpt>
      <trkpt lat="43.65186" lon="3.81099">
        <ele>76.6</ele>
        <time>2017-11-15T12:05:53Z</time>
      </trkpt>
      <trkpt lat="43.65186" lon="3.81104">
        <ele>76.9</ele>
        <time>2017-11-15T12:05:54Z</time>
      </trkpt>
      <trkpt lat="43.65184" lon="3.81108">
        <ele>77</ele>
        <time>2017-11-15T12:05:55Z</time>
      </trkpt>
      <trkpt lat="43.6518" lon="3.81112">
        <ele>77.1</ele>
        <time>2017-11-15T12:05:56Z</time>
      </trkpt>
      <trkpt lat="43.65178" lon="3.81117">
        <ele>77.2</ele>
        <time>2017-11-15T12:05:57Z</time>
      </trkpt>
      <trkpt lat="43.65177" lon="3.81122">
        <ele>77.2</ele>
        <time>2017-11-15T12:05:58Z</time>
      </trkpt>
      <trkpt lat="43.65176" lon="3.81126">
        <ele>77.1</ele>
        <time>2017-11-15T12:05:59Z</time>
      </trkpt>
      <trkpt lat="43.65177" lon="3.81131">
        <ele>77.1</ele>
        <time>2017-11-15T12:06:00Z</time>
      </trkpt>
      <trkpt lat="43.65178" lon="3.81135">
        <ele>77</ele>
        <time>2017-11-15T12:06:01Z</time>
      </trkpt>
      <trkpt lat="43.65179" lon="3.8114">
        <ele>76.9</ele>
        <time>2017-11-15T12:06:02Z</time>
      </trkpt>
      <trkpt lat="43.6518" lon="3.81144">
        <ele>76.9</ele>
        <time>2017-11-15T12:06:03Z</time>
      </trkpt>
      <trkpt lat="43.65185" lon="3.81146">
        <ele>76.8</ele>
        <time>2017-11-15T12:06:05Z</time>
      </trkpt>
      <trkpt lat="43.65187" lon="3.8115">
        <ele>76.9</ele>
        <time>2017-11-15T12:06:06Z</time>
      </trkpt>
      <trkpt lat="43.65189" lon="3.81155">
        <ele>77</ele>
        <time>2017-11-15T12:06:07Z</time>
      </trkpt>
      <trkpt lat="43.65192" lon="3.81157">
        <ele>77</ele>
        <time>2017-11-15T12:06:08Z</time>
      </trkpt>
      <trkpt lat="43.65195" lon="3.81159">
        <ele>76.8</ele>
        <time>2017-11-15T12:06:09Z</time>
      </trkpt>
      <trkpt lat="43.65198" lon="3.81162">
        <ele>76.8</ele>
        <time>2017-11-15T12:06:10Z</time>
      </trkpt>
      <trkpt lat="43.65201" lon="3.81166">
        <ele>76.7</ele>
        <time>2017-11-15T12:06:11Z</time>
      </trkpt>
      <trkpt lat="43.65204" lon="3.8117">
        <ele>76.6</ele>
        <time>2017-11-15T12:06:12Z</time>
      </trkpt>
      <trkpt lat="43.65208" lon="3.81173">
        <ele>76.5</ele>
        <time>2017-11-15T12:06:13Z</time>
      </trkpt>
      <trkpt lat="43.65212" lon="3.81177">
        <ele>76.4</ele>
        <time>2017-11-15T12:06:14Z</time>
      </trkpt>
      <trkpt lat="43.65215" lon="3.8118">
        <ele>76.3</ele>
        <time>2017-11-15T12:06:15Z</time>
      </trkpt>
      <trkpt lat="43.65219" lon="3.81184">
        <ele>76.2</ele>
        <time>2017-11-15T12:06:16Z</time>
      </trkpt>
      <trkpt lat="43.65223" lon="3.81187">
        <ele>76</ele>
        <time>2017-11-15T12:06:17Z</time>
      </trkpt>
      <trkpt lat="43.65227" lon="3.81191">
        <ele>75.8</ele>
        <time>2017-11-15T12:06:18Z</time>
      </trkpt>
      <trkpt lat="43.6523" lon="3.81197">
        <ele>75.4</ele>
        <time>2017-11-15T12:06:19Z</time>
      </trkpt>
      <trkpt lat="43.65231" lon="3.81203">
        <ele>75.1</ele>
        <time>2017-11-15T12:06:20Z</time>
      </trkpt>
      <trkpt lat="43.65232" lon="3.81211">
        <ele>74.3</ele>
        <time>2017-11-15T12:06:21Z</time>
      </trkpt>
      <trkpt lat="43.65232" lon="3.81222">
        <ele>72.8</ele>
        <time>2017-11-15T12:06:22Z</time>
      </trkpt>
      <trkpt lat="43.65232" lon="3.81234">
        <ele>71.8</ele>
        <time>2017-11-15T12:06:23Z</time>
      </trkpt>
      <trkpt lat="43.65233" lon="3.81245">
        <ele>70.3</ele>
        <time>2017-11-15T12:06:24Z</time>
      </trkpt>
      <trkpt lat="43.65235" lon="3.81257">
        <ele>69.2</ele>
        <time>2017-11-15T12:06:25Z</time>
      </trkpt>
      <trkpt lat="43.65236" lon="3.81268">
        <ele>68.7</ele>
        <time>2017-11-15T12:06:26Z</time>
      </trkpt>
      <trkpt lat="43.65237" lon="3.81277">
        <ele>68.4</ele>
        <time>2017-11-15T12:06:27Z</time>
      </trkpt>
      <trkpt lat="43.65238" lon="3.81286">
        <ele>68.1</ele>
        <time>2017-11-15T12:06:28Z</time>
      </trkpt>
      <trkpt lat="43.65238" lon="3.81293">
        <ele>68</ele>
        <time>2017-11-15T12:06:29Z</time>
      </trkpt>
      <trkpt lat="43.65239" lon="3.81297">
        <ele>68</ele>
        <time>2017-11-15T12:06:30Z</time>
      </trkpt>
      <trkpt lat="43.6524" lon="3.81303">
        <ele>68.1</ele>
        <time>2017-11-15T12:06:32Z</time>
      </trkpt>
      <trkpt lat="43.65241" lon="3.81308">
        <ele>68.2</ele>
        <time>2017-11-15T12:06:33Z</time>
      </trkpt>
      <trkpt lat="43.65243" lon="3.81312">
        <ele>68.4</ele>
        <time>2017-11-15T12:06:34Z</time>
      </trkpt>
      <trkpt lat="43.65244" lon="3.81316">
        <ele>68.3</ele>
        <time>2017-11-15T12:06:35Z</time>
      </trkpt>
      <trkpt lat="43.65245" lon="3.81321">
        <ele>68.6</ele>
        <time>2017-11-15T12:06:36Z</time>
      </trkpt>
      <trkpt lat="43.65247" lon="3.81325">
        <ele>68.8</ele>
        <time>2017-11-15T12:06:37Z</time>
      </trkpt>
      <trkpt lat="43.65248" lon="3.8133">
        <ele>68.8</ele>
        <time>2017-11-15T12:06:38Z</time>
      </trkpt>
      <trkpt lat="43.65249" lon="3.81335">
        <ele>69</ele>
        <time>2017-11-15T12:06:39Z</time>
      </trkpt>
      <trkpt lat="43.6525" lon="3.8134">
        <ele>69.2</ele>
        <time>2017-11-15T12:06:40Z</time>
      </trkpt>
      <trkpt lat="43.6525" lon="3.81345">
        <ele>69.3</ele>
        <time>2017-11-15T12:06:41Z</time>
      </trkpt>
      <trkpt lat="43.65252" lon="3.81351">
        <ele>69.6</ele>
        <time>2017-11-15T12:06:43Z</time>
      </trkpt>
      <trkpt lat="43.65253" lon="3.81355">
        <ele>69.7</ele>
        <time>2017-11-15T12:06:44Z</time>
      </trkpt>
      <trkpt lat="43.65254" lon="3.81359">
        <ele>69.9</ele>
        <time>2017-11-15T12:06:45Z</time>
      </trkpt>
      <trkpt lat="43.65254" lon="3.81364">
        <ele>70.1</ele>
        <time>2017-11-15T12:06:46Z</time>
      </trkpt>
      <trkpt lat="43.65254" lon="3.81369">
        <ele>70.2</ele>
        <time>2017-11-15T12:06:47Z</time>
      </trkpt>
      <trkpt lat="43.65256" lon="3.81373">
        <ele>70.4</ele>
        <time>2017-11-15T12:06:48Z</time>
      </trkpt>
      <trkpt lat="43.6526" lon="3.81376">
        <ele>70.7</ele>
        <time>2017-11-15T12:06:49Z</time>
      </trkpt>
      <trkpt lat="43.65262" lon="3.81381">
        <ele>71</ele>
        <time>2017-11-15T12:06:50Z</time>
      </trkpt>
      <trkpt lat="43.65264" lon="3.81386">
        <ele>71.5</ele>
        <time>2017-11-15T12:06:51Z</time>
      </trkpt>
      <trkpt lat="43.65266" lon="3.8139">
        <ele>71.9</ele>
        <time>2017-11-15T12:06:52Z</time>
      </trkpt>
      <trkpt lat="43.65267" lon="3.81394">
        <ele>72.3</ele>
        <time>2017-11-15T12:06:53Z</time>
      </trkpt>
      <trkpt lat="43.6527" lon="3.81398">
        <ele>72.7</ele>
        <time>2017-11-15T12:06:54Z</time>
      </trkpt>
      <trkpt lat="43.65271" lon="3.81401">
        <ele>72.9</ele>
        <time>2017-11-15T12:06:55Z</time>
      </trkpt>
      <trkpt lat="43.65272" lon="3.81409">
        <ele>73.3</ele>
        <time>2017-11-15T12:06:57Z</time>
      </trkpt>
      <trkpt lat="43.65272" lon="3.81414">
        <ele>73.4</ele>
        <time>2017-11-15T12:06:58Z</time>
      </trkpt>
      <trkpt lat="43.65272" lon="3.81418">
        <ele>73.7</ele>
        <time>2017-11-15T12:06:59Z</time>
      </trkpt>
      <trkpt lat="43.65272" lon="3.81424">
        <ele>73.9</ele>
        <time>2017-11-15T12:07:00Z</time>
      </trkpt>
      <trkpt lat="43.65273" lon="3.81429">
        <ele>74.1</ele>
        <time>2017-11-15T12:07:01Z</time>
      </trkpt>
      <trkpt lat="43.65274" lon="3.81436">
        <ele>74.5</ele>
        <time>2017-11-15T12:07:02Z</time>
      </trkpt>
      <trkpt lat="43.65275" lon="3.81443">
        <ele>74.8</ele>
        <time>2017-11-15T12:07:03Z</time>
      </trkpt>
      <trkpt lat="43.65276" lon="3.8145">
        <ele>75.1</ele>
        <time>2017-11-15T12:07:04Z</time>
      </trkpt>
      <trkpt lat="43.65278" lon="3.81457">
        <ele>75.5</ele>
        <time>2017-11-15T12:07:05Z</time>
      </trkpt>
      <trkpt lat="43.6528" lon="3.81463">
        <ele>76</ele>
        <time>2017-11-15T12:07:06Z</time>
      </trkpt>
      <trkpt lat="43.65282" lon="3.8147">
        <ele>76.2</ele>
        <time>2017-11-15T12:07:07Z</time>
      </trkpt>
      <trkpt lat="43.65284" lon="3.81476">
        <ele>76.5</ele>
        <time>2017-11-15T12:07:08Z</time>
      </trkpt>
      <trkpt lat="43.65285" lon="3.8148">
        <ele>76.7</ele>
        <time>2017-11-15T12:07:09Z</time>
      </trkpt>
      <trkpt lat="43.65288" lon="3.81484">
        <ele>76.9</ele>
        <time>2017-11-15T12:07:10Z</time>
      </trkpt>
      <trkpt lat="43.65288" lon="3.8149">
        <ele>77.1</ele>
        <time>2017-11-15T12:07:11Z</time>
      </trkpt>
      <trkpt lat="43.6529" lon="3.81497">
        <ele>77.4</ele>
        <time>2017-11-15T12:07:12Z</time>
      </trkpt>
      <trkpt lat="43.65292" lon="3.81502">
        <ele>77.7</ele>
        <time>2017-11-15T12:07:13Z</time>
      </trkpt>
      <trkpt lat="43.65294" lon="3.81507">
        <ele>78</ele>
        <time>2017-11-15T12:07:14Z</time>
      </trkpt>
      <trkpt lat="43.65297" lon="3.81511">
        <ele>78.2</ele>
        <time>2017-11-15T12:07:15Z</time>
      </trkpt>
      <trkpt lat="43.65299" lon="3.81517">
        <ele>78.5</ele>
        <time>2017-11-15T12:07:16Z</time>
      </trkpt>
      <trkpt lat="43.65301" lon="3.81523">
        <ele>78.8</ele>
        <time>2017-11-15T12:07:17Z</time>
      </trkpt>
      <trkpt lat="43.65304" lon="3.8153">
        <ele>79.1</ele>
        <time>2017-11-15T12:07:18Z</time>
      </trkpt>
      <trkpt lat="43.65306" lon="3.81536">
        <ele>79.3</ele>
        <time>2017-11-15T12:07:19Z</time>
      </trkpt>
      <trkpt lat="43.65308" lon="3.81542">
        <ele>79.4</ele>
        <time>2017-11-15T12:07:20Z</time>
      </trkpt>
      <trkpt lat="43.65309" lon="3.81547">
        <ele>79.5</ele>
        <time>2017-11-15T12:07:21Z</time>
      </trkpt>
      <trkpt lat="43.6531" lon="3.81552">
        <ele>79.5</ele>
        <time>2017-11-15T12:07:22Z</time>
      </trkpt>
      <trkpt lat="43.65311" lon="3.81559">
        <ele>79.6</ele>
        <time>2017-11-15T12:07:23Z</time>
      </trkpt>
      <trkpt lat="43.65312" lon="3.81565">
        <ele>79.6</ele>
        <time>2017-11-15T12:07:24Z</time>
      </trkpt>
      <trkpt lat="43.65313" lon="3.81571">
        <ele>79.7</ele>
        <time>2017-11-15T12:07:25Z</time>
      </trkpt>
      <trkpt lat="43.65313" lon="3.81575">
        <ele>79.7</ele>
        <time>2017-11-15T12:07:26Z</time>
      </trkpt>
      <trkpt lat="43.65314" lon="3.8158">
        <ele>79.8</ele>
        <time>2017-11-15T12:07:27Z</time>
      </trkpt>
      <trkpt lat="43.65314" lon="3.81584">
        <ele>79.8</ele>
        <time>2017-11-15T12:07:28Z</time>
      </trkpt>
      <trkpt lat="43.65314" lon="3.81588">
        <ele>79.9</ele>
        <time>2017-11-15T12:07:29Z</time>
      </trkpt>
      <trkpt lat="43.65315" lon="3.81593">
        <ele>80</ele>
        <time>2017-11-15T12:07:30Z</time>
      </trkpt>
      <trkpt lat="43.65316" lon="3.81598">
        <ele>80</ele>
        <time>2017-11-15T12:07:31Z</time>
      </trkpt>
      <trkpt lat="43.65316" lon="3.81602">
        <ele>80</ele>
        <time>2017-11-15T12:07:32Z</time>
      </trkpt>
      <trkpt lat="43.65317" lon="3.81607">
        <ele>80</ele>
        <time>2017-11-15T12:07:33Z</time>
      </trkpt>
      <trkpt lat="43.65318" lon="3.81613">
        <ele>80</ele>
        <time>2017-11-15T12:07:34Z</time>
      </trkpt>
      <trkpt lat="43.65319" lon="3.81619">
        <ele>80</ele>
        <time>2017-11-15T12:07:35Z</time>
      </trkpt>
      <trkpt lat="43.6532" lon="3.81623">
        <ele>80</ele>
        <time>2017-11-15T12:07:36Z</time>
      </trkpt>
      <trkpt lat="43.65322" lon="3.81629">
        <ele>80</ele>
        <time>2017-11-15T12:07:37Z</time>
      </trkpt>
      <trkpt lat="43.65324" lon="3.81634">
        <ele>80</ele>
        <time>2017-11-15T12:07:38Z</time>
      </trkpt>
      <trkpt lat="43.65326" lon="3.81639">
        <ele>80</ele>
        <time>2017-11-15T12:07:39Z</time>
      </trkpt>
      <trkpt lat="43.65327" lon="3.81644">
        <ele>80</ele>
        <time>2017-11-15T12:07:40Z</time>
      </trkpt>
      <trkpt lat="43.65329" lon="3.8165">
        <ele>80</ele>
        <time>2017-11-15T12:07:41Z</time>
      </trkpt>
      <trkpt lat="43.65331" lon="3.81656">
        <ele>80</ele>
        <time>2017-11-15T12:07:42Z</time>
      </trkpt>
      <trkpt lat="43.65333" lon="3.81662">
        <ele>80</ele>
        <time>2017-11-15T12:07:43Z</time>
      </trkpt>
      <trkpt lat="43.65335" lon="3.81667">
        <ele>80</ele>
        <time>2017-11-15T12:07:44Z</time>
      </trkpt>
      <trkpt lat="43.65338" lon="3.81673">
        <ele>80</ele>
        <time>2017-11-15T12:07:45Z</time>
      </trkpt>
      <trkpt lat="43.6534" lon="3.8168">
        <ele>80</ele>
        <time>2017-11-15T12:07:46Z</time>
      </trkpt>
      <trkpt lat="43.65342" lon="3.81685">
        <ele>80</ele>
        <time>2017-11-15T12:07:47Z</time>
      </trkpt>
      <trkpt lat="43.65343" lon="3.81692">
        <ele>80</ele>
        <time>2017-11-15T12:07:48Z</time>
      </trkpt>
      <trkpt lat="43.65345" lon="3.81699">
        <ele>80</ele>
        <time>2017-11-15T12:07:49Z</time>
      </trkpt>
      <trkpt lat="43.65346" lon="3.81705">
        <ele>79.8</ele>
        <time>2017-11-15T12:07:50Z</time>
      </trkpt>
      <trkpt lat="43.65349" lon="3.81711">
        <ele>79.7</ele>
        <time>2017-11-15T12:07:51Z</time>
      </trkpt>
      <trkpt lat="43.65351" lon="3.81716">
        <ele>79.6</ele>
        <time>2017-11-15T12:07:52Z</time>
      </trkpt>
      <trkpt lat="43.65355" lon="3.81721">
        <ele>79.5</ele>
        <time>2017-11-15T12:07:53Z</time>
      </trkpt>
      <trkpt lat="43.65358" lon="3.81727">
        <ele>79.5</ele>
        <time>2017-11-15T12:07:54Z</time>
      </trkpt>
      <trkpt lat="43.6536" lon="3.81734">
        <ele>79.4</ele>
        <time>2017-11-15T12:07:55Z</time>
      </trkpt>
      <trkpt lat="43.65362" lon="3.81741">
        <ele>79.4</ele>
        <time>2017-11-15T12:07:56Z</time>
      </trkpt>
      <trkpt lat="43.65364" lon="3.81746">
        <ele>79.3</ele>
        <time>2017-11-15T12:07:57Z</time>
      </trkpt>
      <trkpt lat="43.65367" lon="3.8175">
        <ele>79.3</ele>
        <time>2017-11-15T12:07:58Z</time>
      </trkpt>
      <trkpt lat="43.65369" lon="3.81754">
        <ele>79.3</ele>
        <time>2017-11-15T12:07:59Z</time>
      </trkpt>
      <trkpt lat="43.65371" lon="3.81757">
        <ele>79.2</ele>
        <time>2017-11-15T12:08:00Z</time>
      </trkpt>
      <trkpt lat="43.65374" lon="3.81761">
        <ele>79.1</ele>
        <time>2017-11-15T12:08:01Z</time>
      </trkpt>
      <trkpt lat="43.65376" lon="3.81765">
        <ele>79.1</ele>
        <time>2017-11-15T12:08:02Z</time>
      </trkpt>
      <trkpt lat="43.65379" lon="3.81769">
        <ele>78.9</ele>
        <time>2017-11-15T12:08:03Z</time>
      </trkpt>
      <trkpt lat="43.65383" lon="3.81774">
        <ele>78.8</ele>
        <time>2017-11-15T12:08:04Z</time>
      </trkpt>
      <trkpt lat="43.65385" lon="3.81779">
        <ele>78.7</ele>
        <time>2017-11-15T12:08:05Z</time>
      </trkpt>
      <trkpt lat="43.65388" lon="3.81783">
        <ele>78.6</ele>
        <time>2017-11-15T12:08:06Z</time>
      </trkpt>
      <trkpt lat="43.65391" lon="3.81788">
        <ele>78.5</ele>
        <time>2017-11-15T12:08:07Z</time>
      </trkpt>
      <trkpt lat="43.65394" lon="3.81797">
        <ele>78.4</ele>
        <time>2017-11-15T12:08:08Z</time>
      </trkpt>
      <trkpt lat="43.65395" lon="3.81807">
        <ele>78.2</ele>
        <time>2017-11-15T12:08:09Z</time>
      </trkpt>
      <trkpt lat="43.65396" lon="3.81815">
        <ele>77.9</ele>
        <time>2017-11-15T12:08:10Z</time>
      </trkpt>
      <trkpt lat="43.65398" lon="3.81821">
        <ele>77.7</ele>
        <time>2017-11-15T12:08:11Z</time>
      </trkpt>
      <trkpt lat="43.65403" lon="3.81825">
        <ele>77.5</ele>
        <time>2017-11-15T12:08:12Z</time>
      </trkpt>
      <trkpt lat="43.65407" lon="3.81829">
        <ele>77</ele>
        <time>2017-11-15T12:08:13Z</time>
      </trkpt>
      <trkpt lat="43.65412" lon="3.8183">
        <ele>75.6</ele>
        <time>2017-11-15T12:08:14Z</time>
      </trkpt>
      <trkpt lat="43.65417" lon="3.81828">
        <ele>75.1</ele>
        <time>2017-11-15T12:08:15Z</time>
      </trkpt>
      <trkpt lat="43.65421" lon="3.81826">
        <ele>74.8</ele>
        <time>2017-11-15T12:08:16Z</time>
      </trkpt>
      <trkpt lat="43.65425" lon="3.81824">
        <ele>74.6</ele>
        <time>2017-11-15T12:08:17Z</time>
      </trkpt>
      <trkpt lat="43.65431" lon="3.81822">
        <ele>74.4</ele>
        <time>2017-11-15T12:08:18Z</time>
      </trkpt>
      <trkpt lat="43.65437" lon="3.81821">
        <ele>74.3</ele>
        <time>2017-11-15T12:08:19Z</time>
      </trkpt>
      <trkpt lat="43.65441" lon="3.81819">
        <ele>74.2</ele>
        <time>2017-11-15T12:08:20Z</time>
      </trkpt>
      <trkpt lat="43.65446" lon="3.81815">
        <ele>74.1</ele>
        <time>2017-11-15T12:08:21Z</time>
      </trkpt>
      <trkpt lat="43.65451" lon="3.81812">
        <ele>74</ele>
        <time>2017-11-15T12:08:22Z</time>
      </trkpt>
      <trkpt lat="43.65456" lon="3.8181">
        <ele>74</ele>
        <time>2017-11-15T12:08:23Z</time>
      </trkpt>
      <trkpt lat="43.65462" lon="3.81808">
        <ele>74</ele>
        <time>2017-11-15T12:08:24Z</time>
      </trkpt>
      <trkpt lat="43.65467" lon="3.81806">
        <ele>73.9</ele>
        <time>2017-11-15T12:08:25Z</time>
      </trkpt>
      <trkpt lat="43.65473" lon="3.81803">
        <ele>73.9</ele>
        <time>2017-11-15T12:08:26Z</time>
      </trkpt>
      <trkpt lat="43.65478" lon="3.818">
        <ele>73.9</ele>
        <time>2017-11-15T12:08:27Z</time>
      </trkpt>
      <trkpt lat="43.65482" lon="3.81796">
        <ele>73.9</ele>
        <time>2017-11-15T12:08:28Z</time>
      </trkpt>
      <trkpt lat="43.65486" lon="3.81792">
        <ele>73.9</ele>
        <time>2017-11-15T12:08:29Z</time>
      </trkpt>
      <trkpt lat="43.65491" lon="3.81789">
        <ele>73.9</ele>
        <time>2017-11-15T12:08:30Z</time>
      </trkpt>
      <trkpt lat="43.65495" lon="3.81786">
        <ele>74</ele>
        <time>2017-11-15T12:08:31Z</time>
      </trkpt>
      <trkpt lat="43.65498" lon="3.81782">
        <ele>74</ele>
        <time>2017-11-15T12:08:32Z</time>
      </trkpt>
      <trkpt lat="43.65502" lon="3.81779">
        <ele>74</ele>
        <time>2017-11-15T12:08:33Z</time>
      </trkpt>
      <trkpt lat="43.65506" lon="3.81775">
        <ele>74</ele>
        <time>2017-11-15T12:08:34Z</time>
      </trkpt>
      <trkpt lat="43.6551" lon="3.81771">
        <ele>74.1</ele>
        <time>2017-11-15T12:08:35Z</time>
      </trkpt>
      <trkpt lat="43.65514" lon="3.81768">
        <ele>74.1</ele>
        <time>2017-11-15T12:08:36Z</time>
      </trkpt>
      <trkpt lat="43.65517" lon="3.81764">
        <ele>74.1</ele>
        <time>2017-11-15T12:08:37Z</time>
      </trkpt>
      <trkpt lat="43.65521" lon="3.81761">
        <ele>74.1</ele>
        <time>2017-11-15T12:08:38Z</time>
      </trkpt>
      <trkpt lat="43.65526" lon="3.81757">
        <ele>74.2</ele>
        <time>2017-11-15T12:08:39Z</time>
      </trkpt>
      <trkpt lat="43.6553" lon="3.81754">
        <ele>74.2</ele>
        <time>2017-11-15T12:08:40Z</time>
      </trkpt>
      <trkpt lat="43.65534" lon="3.81749">
        <ele>74.2</ele>
        <time>2017-11-15T12:08:41Z</time>
      </trkpt>
      <trkpt lat="43.65537" lon="3.81744">
        <ele>74.3</ele>
        <time>2017-11-15T12:08:42Z</time>
      </trkpt>
      <trkpt lat="43.65541" lon="3.8174">
        <ele>74.3</ele>
        <time>2017-11-15T12:08:43Z</time>
      </trkpt>
      <trkpt lat="43.65545" lon="3.81736">
        <ele>74.4</ele>
        <time>2017-11-15T12:08:44Z</time>
      </trkpt>
      <trkpt lat="43.6555" lon="3.81732">
        <ele>74.5</ele>
        <time>2017-11-15T12:08:45Z</time>
      </trkpt>
      <trkpt lat="43.65554" lon="3.81729">
        <ele>74.5</ele>
        <time>2017-11-15T12:08:46Z</time>
      </trkpt>
      <trkpt lat="43.65559" lon="3.81725">
        <ele>74.6</ele>
        <time>2017-11-15T12:08:47Z</time>
      </trkpt>
      <trkpt lat="43.65563" lon="3.8172">
        <ele>74.6</ele>
        <time>2017-11-15T12:08:48Z</time>
      </trkpt>
      <trkpt lat="43.65568" lon="3.81716">
        <ele>74.7</ele>
        <time>2017-11-15T12:08:49Z</time>
      </trkpt>
      <trkpt lat="43.65572" lon="3.81712">
        <ele>74.9</ele>
        <time>2017-11-15T12:08:50Z</time>
      </trkpt>
      <trkpt lat="43.65577" lon="3.81708">
        <ele>75</ele>
        <time>2017-11-15T12:08:51Z</time>
      </trkpt>
      <trkpt lat="43.65581" lon="3.81704">
        <ele>75</ele>
        <time>2017-11-15T12:08:52Z</time>
      </trkpt>
      <trkpt lat="43.65585" lon="3.817">
        <ele>75.1</ele>
        <time>2017-11-15T12:08:53Z</time>
      </trkpt>
      <trkpt lat="43.65589" lon="3.81695">
        <ele>75.2</ele>
        <time>2017-11-15T12:08:54Z</time>
      </trkpt>
      <trkpt lat="43.65592" lon="3.8169">
        <ele>75.3</ele>
        <time>2017-11-15T12:08:55Z</time>
      </trkpt>
      <trkpt lat="43.65596" lon="3.81686">
        <ele>75.3</ele>
        <time>2017-11-15T12:08:56Z</time>
      </trkpt>
      <trkpt lat="43.65601" lon="3.81684">
        <ele>75.4</ele>
        <time>2017-11-15T12:08:57Z</time>
      </trkpt>
      <trkpt lat="43.65605" lon="3.81682">
        <ele>75.5</ele>
        <time>2017-11-15T12:08:58Z</time>
      </trkpt>
      <trkpt lat="43.65609" lon="3.8168">
        <ele>75.6</ele>
        <time>2017-11-15T12:08:59Z</time>
      </trkpt>
      <trkpt lat="43.65613" lon="3.81678">
        <ele>75.7</ele>
        <time>2017-11-15T12:09:00Z</time>
      </trkpt>
      <trkpt lat="43.65618" lon="3.81677">
        <ele>75.8</ele>
        <time>2017-11-15T12:09:01Z</time>
      </trkpt>
      <trkpt lat="43.65622" lon="3.81675">
        <ele>76</ele>
        <time>2017-11-15T12:09:02Z</time>
      </trkpt>
      <trkpt lat="43.65626" lon="3.81674">
        <ele>76.1</ele>
        <time>2017-11-15T12:09:03Z</time>
      </trkpt>
      <trkpt lat="43.65629" lon="3.81671">
        <ele>76.2</ele>
        <time>2017-11-15T12:09:04Z</time>
      </trkpt>
      <trkpt lat="43.65632" lon="3.81668">
        <ele>76.4</ele>
        <time>2017-11-15T12:09:05Z</time>
      </trkpt>
      <trkpt lat="43.65635" lon="3.81666">
        <ele>76.5</ele>
        <time>2017-11-15T12:09:06Z</time>
      </trkpt>
      <trkpt lat="43.65639" lon="3.81664">
        <ele>76.6</ele>
        <time>2017-11-15T12:09:07Z</time>
      </trkpt>
      <trkpt lat="43.65643" lon="3.81662">
        <ele>76.7</ele>
        <time>2017-11-15T12:09:08Z</time>
      </trkpt>
      <trkpt lat="43.65646" lon="3.81661">
        <ele>77</ele>
        <time>2017-11-15T12:09:09Z</time>
      </trkpt>
      <trkpt lat="43.6565" lon="3.81659">
        <ele>77.2</ele>
        <time>2017-11-15T12:09:10Z</time>
      </trkpt>
      <trkpt lat="43.65653" lon="3.81659">
        <ele>77.4</ele>
        <time>2017-11-15T12:09:11Z</time>
      </trkpt>
      <trkpt lat="43.65656" lon="3.81659">
        <ele>77.6</ele>
        <time>2017-11-15T12:09:12Z</time>
      </trkpt>
      <trkpt lat="43.6566" lon="3.81658">
        <ele>77.7</ele>
        <time>2017-11-15T12:09:13Z</time>
      </trkpt>
      <trkpt lat="43.65663" lon="3.81658">
        <ele>77.8</ele>
        <time>2017-11-15T12:09:14Z</time>
      </trkpt>
      <trkpt lat="43.65666" lon="3.81657">
        <ele>77.9</ele>
        <time>2017-11-15T12:09:15Z</time>
      </trkpt>
      <trkpt lat="43.65669" lon="3.81656">
        <ele>78</ele>
        <time>2017-11-15T12:09:16Z</time>
      </trkpt>
      <trkpt lat="43.65672" lon="3.81656">
        <ele>78.1</ele>
        <time>2017-11-15T12:09:17Z</time>
      </trkpt>
      <trkpt lat="43.65675" lon="3.81655">
        <ele>78.2</ele>
        <time>2017-11-15T12:09:18Z</time>
      </trkpt>
      <trkpt lat="43.65679" lon="3.81656">
        <ele>78.2</ele>
        <time>2017-11-15T12:09:19Z</time>
      </trkpt>
      <trkpt lat="43.65682" lon="3.81657">
        <ele>78.1</ele>
        <time>2017-11-15T12:09:20Z</time>
      </trkpt>
      <trkpt lat="43.65686" lon="3.81659">
        <ele>78.1</ele>
        <time>2017-11-15T12:09:21Z</time>
      </trkpt>
      <trkpt lat="43.6569" lon="3.81661">
        <ele>78.5</ele>
        <time>2017-11-15T12:09:22Z</time>
      </trkpt>
      <trkpt lat="43.65695" lon="3.81663">
        <ele>83.9</ele>
        <time>2017-11-15T12:09:23Z</time>
      </trkpt>
      <trkpt lat="43.65699" lon="3.81663">
        <ele>83.8</ele>
        <time>2017-11-15T12:09:24Z</time>
      </trkpt>
      <trkpt lat="43.65701" lon="3.8166">
        <ele>83.8</ele>
        <time>2017-11-15T12:09:25Z</time>
      </trkpt>
      <trkpt lat="43.65704" lon="3.81656">
        <ele>83.7</ele>
        <time>2017-11-15T12:09:26Z</time>
      </trkpt>
      <trkpt lat="43.65707" lon="3.81652">
        <ele>83.8</ele>
        <time>2017-11-15T12:09:27Z</time>
      </trkpt>
      <trkpt lat="43.65709" lon="3.81648">
        <ele>83.8</ele>
        <time>2017-11-15T12:09:28Z</time>
      </trkpt>
      <trkpt lat="43.65712" lon="3.81645">
        <ele>83.8</ele>
        <time>2017-11-15T12:09:29Z</time>
      </trkpt>
      <trkpt lat="43.65714" lon="3.81641">
        <ele>83.8</ele>
        <time>2017-11-15T12:09:30Z</time>
      </trkpt>
      <trkpt lat="43.65716" lon="3.81638">
        <ele>83.9</ele>
        <time>2017-11-15T12:09:31Z</time>
      </trkpt>
      <trkpt lat="43.65718" lon="3.81634">
        <ele>84</ele>
        <time>2017-11-15T12:09:32Z</time>
      </trkpt>
      <trkpt lat="43.65721" lon="3.81631">
        <ele>84.1</ele>
        <time>2017-11-15T12:09:33Z</time>
      </trkpt>
      <trkpt lat="43.65723" lon="3.81628">
        <ele>84.2</ele>
        <time>2017-11-15T12:09:34Z</time>
      </trkpt>
      <trkpt lat="43.65725" lon="3.81625">
        <ele>84.4</ele>
        <time>2017-11-15T12:09:35Z</time>
      </trkpt>
      <trkpt lat="43.65727" lon="3.81623">
        <ele>84.5</ele>
        <time>2017-11-15T12:09:36Z</time>
      </trkpt>
      <trkpt lat="43.6573" lon="3.8162">
        <ele>84.5</ele>
        <time>2017-11-15T12:09:37Z</time>
      </trkpt>
      <trkpt lat="43.65733" lon="3.81617">
        <ele>84.5</ele>
        <time>2017-11-15T12:09:38Z</time>
      </trkpt>
      <trkpt lat="43.65736" lon="3.81615">
        <ele>84.6</ele>
        <time>2017-11-15T12:09:39Z</time>
      </trkpt>
      <trkpt lat="43.65738" lon="3.81612">
        <ele>84.6</ele>
        <time>2017-11-15T12:09:40Z</time>
      </trkpt>
      <trkpt lat="43.65741" lon="3.81609">
        <ele>84.6</ele>
        <time>2017-11-15T12:09:41Z</time>
      </trkpt>
      <trkpt lat="43.65745" lon="3.81606">
        <ele>84.6</ele>
        <time>2017-11-15T12:09:42Z</time>
      </trkpt>
      <trkpt lat="43.6575" lon="3.81604">
        <ele>84.6</ele>
        <time>2017-11-15T12:09:43Z</time>
      </trkpt>
      <trkpt lat="43.65754" lon="3.81602">
        <ele>84.6</ele>
        <time>2017-11-15T12:09:44Z</time>
      </trkpt>
      <trkpt lat="43.65758" lon="3.816">
        <ele>84.6</ele>
        <time>2017-11-15T12:09:45Z</time>
      </trkpt>
      <trkpt lat="43.65761" lon="3.81596">
        <ele>84.6</ele>
        <time>2017-11-15T12:09:46Z</time>
      </trkpt>
      <trkpt lat="43.65765" lon="3.81592">
        <ele>84.6</ele>
        <time>2017-11-15T12:09:47Z</time>
      </trkpt>
      <trkpt lat="43.65769" lon="3.81588">
        <ele>84.6</ele>
        <time>2017-11-15T12:09:48Z</time>
      </trkpt>
      <trkpt lat="43.65772" lon="3.81584">
        <ele>84.5</ele>
        <time>2017-11-15T12:09:49Z</time>
      </trkpt>
      <trkpt lat="43.65776" lon="3.8158">
        <ele>84.5</ele>
        <time>2017-11-15T12:09:50Z</time>
      </trkpt>
      <trkpt lat="43.6578" lon="3.81576">
        <ele>84.5</ele>
        <time>2017-11-15T12:09:51Z</time>
      </trkpt>
      <trkpt lat="43.65783" lon="3.81572">
        <ele>84.5</ele>
        <time>2017-11-15T12:09:52Z</time>
      </trkpt>
      <trkpt lat="43.65786" lon="3.81568">
        <ele>84.5</ele>
        <time>2017-11-15T12:09:53Z</time>
      </trkpt>
      <trkpt lat="43.6579" lon="3.81564">
        <ele>84.5</ele>
        <time>2017-11-15T12:09:54Z</time>
      </trkpt>
      <trkpt lat="43.65793" lon="3.81561">
        <ele>84.5</ele>
        <time>2017-11-15T12:09:55Z</time>
      </trkpt>
      <trkpt lat="43.65797" lon="3.81556">
        <ele>84.4</ele>
        <time>2017-11-15T12:09:56Z</time>
      </trkpt>
      <trkpt lat="43.65801" lon="3.81553">
        <ele>84.4</ele>
        <time>2017-11-15T12:09:57Z</time>
      </trkpt>
      <trkpt lat="43.65805" lon="3.81549">
        <ele>84.4</ele>
        <time>2017-11-15T12:09:58Z</time>
      </trkpt>
      <trkpt lat="43.65808" lon="3.81545">
        <ele>84.4</ele>
        <time>2017-11-15T12:09:59Z</time>
      </trkpt>
      <trkpt lat="43.65811" lon="3.81541">
        <ele>84.4</ele>
        <time>2017-11-15T12:10:00Z</time>
      </trkpt>
      <trkpt lat="43.65815" lon="3.81538">
        <ele>84.4</ele>
        <time>2017-11-15T12:10:01Z</time>
      </trkpt>
      <trkpt lat="43.65819" lon="3.81535">
        <ele>84.3</ele>
        <time>2017-11-15T12:10:02Z</time>
      </trkpt>
      <trkpt lat="43.65822" lon="3.81532">
        <ele>84.3</ele>
        <time>2017-11-15T12:10:03Z</time>
      </trkpt>
      <trkpt lat="43.65825" lon="3.81528">
        <ele>84.3</ele>
        <time>2017-11-15T12:10:04Z</time>
      </trkpt>
      <trkpt lat="43.65829" lon="3.81524">
        <ele>84.3</ele>
        <time>2017-11-15T12:10:05Z</time>
      </trkpt>
      <trkpt lat="43.65832" lon="3.81521">
        <ele>84.2</ele>
        <time>2017-11-15T12:10:06Z</time>
      </trkpt>
      <trkpt lat="43.65835" lon="3.81517">
        <ele>84.2</ele>
        <time>2017-11-15T12:10:07Z</time>
      </trkpt>
      <trkpt lat="43.65839" lon="3.81512">
        <ele>84.1</ele>
        <time>2017-11-15T12:10:08Z</time>
      </trkpt>
      <trkpt lat="43.65843" lon="3.81508">
        <ele>84.1</ele>
        <time>2017-11-15T12:10:09Z</time>
      </trkpt>
      <trkpt lat="43.65847" lon="3.81504">
        <ele>84</ele>
        <time>2017-11-15T12:10:10Z</time>
      </trkpt>
      <trkpt lat="43.6585" lon="3.815">
        <ele>84</ele>
        <time>2017-11-15T12:10:11Z</time>
      </trkpt>
      <trkpt lat="43.65853" lon="3.81496">
        <ele>83.9</ele>
        <time>2017-11-15T12:10:12Z</time>
      </trkpt>
      <trkpt lat="43.65857" lon="3.81492">
        <ele>83.9</ele>
        <time>2017-11-15T12:10:13Z</time>
      </trkpt>
      <trkpt lat="43.65861" lon="3.81488">
        <ele>83.8</ele>
        <time>2017-11-15T12:10:14Z</time>
      </trkpt>
      <trkpt lat="43.65865" lon="3.81484">
        <ele>83.8</ele>
        <time>2017-11-15T12:10:15Z</time>
      </trkpt>
      <trkpt lat="43.65869" lon="3.8148">
        <ele>83.6</ele>
        <time>2017-11-15T12:10:16Z</time>
      </trkpt>
      <trkpt lat="43.65874" lon="3.81477">
        <ele>83.4</ele>
        <time>2017-11-15T12:10:17Z</time>
      </trkpt>
      <trkpt lat="43.65878" lon="3.81474">
        <ele>83.2</ele>
        <time>2017-11-15T12:10:18Z</time>
      </trkpt>
      <trkpt lat="43.65881" lon="3.8147">
        <ele>83.1</ele>
        <time>2017-11-15T12:10:19Z</time>
      </trkpt>
      <trkpt lat="43.65884" lon="3.81466">
        <ele>82.9</ele>
        <time>2017-11-15T12:10:20Z</time>
      </trkpt>
      <trkpt lat="43.65888" lon="3.81461">
        <ele>82.7</ele>
        <time>2017-11-15T12:10:21Z</time>
      </trkpt>
      <trkpt lat="43.65891" lon="3.81456">
        <ele>81.4</ele>
        <time>2017-11-15T12:10:22Z</time>
      </trkpt>
      <trkpt lat="43.65895" lon="3.81451">
        <ele>81.1</ele>
        <time>2017-11-15T12:10:23Z</time>
      </trkpt>
      <trkpt lat="43.659" lon="3.81447">
        <ele>80.8</ele>
        <time>2017-11-15T12:10:24Z</time>
      </trkpt>
      <trkpt lat="43.65904" lon="3.81443">
        <ele>80.7</ele>
        <time>2017-11-15T12:10:25Z</time>
      </trkpt>
      <trkpt lat="43.65909" lon="3.81439">
        <ele>80.6</ele>
        <time>2017-11-15T12:10:26Z</time>
      </trkpt>
      <trkpt lat="43.65914" lon="3.81435">
        <ele>80.5</ele>
        <time>2017-11-15T12:10:27Z</time>
      </trkpt>
      <trkpt lat="43.65918" lon="3.81432">
        <ele>80.4</ele>
        <time>2017-11-15T12:10:28Z</time>
      </trkpt>
      <trkpt lat="43.65923" lon="3.81428">
        <ele>80.3</ele>
        <time>2017-11-15T12:10:29Z</time>
      </trkpt>
      <trkpt lat="43.65927" lon="3.81424">
        <ele>80.2</ele>
        <time>2017-11-15T12:10:30Z</time>
      </trkpt>
      <trkpt lat="43.65933" lon="3.8142">
        <ele>80.1</ele>
        <time>2017-11-15T12:10:31Z</time>
      </trkpt>
      <trkpt lat="43.65938" lon="3.81416">
        <ele>80.1</ele>
        <time>2017-11-15T12:10:32Z</time>
      </trkpt>
      <trkpt lat="43.65942" lon="3.81413">
        <ele>80</ele>
        <time>2017-11-15T12:10:33Z</time>
      </trkpt>
      <trkpt lat="43.65947" lon="3.8141">
        <ele>80</ele>
        <time>2017-11-15T12:10:34Z</time>
      </trkpt>
      <trkpt lat="43.65953" lon="3.81408">
        <ele>80.1</ele>
        <time>2017-11-15T12:10:35Z</time>
      </trkpt>
      <trkpt lat="43.65958" lon="3.81407">
        <ele>80.1</ele>
        <time>2017-11-15T12:10:36Z</time>
      </trkpt>
      <trkpt lat="43.65963" lon="3.81405">
        <ele>80.1</ele>
        <time>2017-11-15T12:10:37Z</time>
      </trkpt>
      <trkpt lat="43.65968" lon="3.81403">
        <ele>80.2</ele>
        <time>2017-11-15T12:10:38Z</time>
      </trkpt>
      <trkpt lat="43.65972" lon="3.81401">
        <ele>80.2</ele>
        <time>2017-11-15T12:10:39Z</time>
      </trkpt>
      <trkpt lat="43.65977" lon="3.81399">
        <ele>80.2</ele>
        <time>2017-11-15T12:10:40Z</time>
      </trkpt>
      <trkpt lat="43.65981" lon="3.81397">
        <ele>80.3</ele>
        <time>2017-11-15T12:10:41Z</time>
      </trkpt>
      <trkpt lat="43.65986" lon="3.81395">
        <ele>80.3</ele>
        <time>2017-11-15T12:10:42Z</time>
      </trkpt>
      <trkpt lat="43.65991" lon="3.81393">
        <ele>80.3</ele>
        <time>2017-11-15T12:10:43Z</time>
      </trkpt>
      <trkpt lat="43.65996" lon="3.81391">
        <ele>80.4</ele>
        <time>2017-11-15T12:10:44Z</time>
      </trkpt>
      <trkpt lat="43.66" lon="3.81389">
        <ele>80.4</ele>
        <time>2017-11-15T12:10:45Z</time>
      </trkpt>
      <trkpt lat="43.66004" lon="3.81387">
        <ele>80.4</ele>
        <time>2017-11-15T12:10:46Z</time>
      </trkpt>
      <trkpt lat="43.66008" lon="3.81385">
        <ele>80.5</ele>
        <time>2017-11-15T12:10:47Z</time>
      </trkpt>
      <trkpt lat="43.66012" lon="3.81384">
        <ele>80.5</ele>
        <time>2017-11-15T12:10:48Z</time>
      </trkpt>
      <trkpt lat="43.66016" lon="3.81382">
        <ele>80.5</ele>
        <time>2017-11-15T12:10:49Z</time>
      </trkpt>
      <trkpt lat="43.6602" lon="3.81382">
        <ele>80.6</ele>
        <time>2017-11-15T12:10:50Z</time>
      </trkpt>
      <trkpt lat="43.66024" lon="3.81382">
        <ele>80.6</ele>
        <time>2017-11-15T12:10:51Z</time>
      </trkpt>
      <trkpt lat="43.66029" lon="3.8138">
        <ele>80.7</ele>
        <time>2017-11-15T12:10:52Z</time>
      </trkpt>
      <trkpt lat="43.66033" lon="3.81378">
        <ele>80.7</ele>
        <time>2017-11-15T12:10:53Z</time>
      </trkpt>
      <trkpt lat="43.66038" lon="3.81377">
        <ele>80.8</ele>
        <time>2017-11-15T12:10:54Z</time>
      </trkpt>
      <trkpt lat="43.66042" lon="3.81375">
        <ele>80.8</ele>
        <time>2017-11-15T12:10:55Z</time>
      </trkpt>
      <trkpt lat="43.66046" lon="3.81374">
        <ele>80.8</ele>
        <time>2017-11-15T12:10:56Z</time>
      </trkpt>
      <trkpt lat="43.66051" lon="3.81372">
        <ele>80.9</ele>
        <time>2017-11-15T12:10:57Z</time>
      </trkpt>
      <trkpt lat="43.66054" lon="3.81371">
        <ele>80.9</ele>
        <time>2017-11-15T12:10:58Z</time>
      </trkpt>
      <trkpt lat="43.66058" lon="3.81369">
        <ele>80.9</ele>
        <time>2017-11-15T12:10:59Z</time>
      </trkpt>
      <trkpt lat="43.66061" lon="3.81367">
        <ele>81</ele>
        <time>2017-11-15T12:11:00Z</time>
      </trkpt>
      <trkpt lat="43.66065" lon="3.81365">
        <ele>81</ele>
        <time>2017-11-15T12:11:01Z</time>
      </trkpt>
      <trkpt lat="43.66069" lon="3.81363">
        <ele>81</ele>
        <time>2017-11-15T12:11:02Z</time>
      </trkpt>
      <trkpt lat="43.66073" lon="3.81361">
        <ele>81.1</ele>
        <time>2017-11-15T12:11:03Z</time>
      </trkpt>
      <trkpt lat="43.66076" lon="3.8136">
        <ele>81.1</ele>
        <time>2017-11-15T12:11:04Z</time>
      </trkpt>
      <trkpt lat="43.6608" lon="3.81358">
        <ele>81.2</ele>
        <time>2017-11-15T12:11:05Z</time>
      </trkpt>
      <trkpt lat="43.66084" lon="3.81356">
        <ele>81.2</ele>
        <time>2017-11-15T12:11:06Z</time>
      </trkpt>
      <trkpt lat="43.66087" lon="3.81354">
        <ele>81.3</ele>
        <time>2017-11-15T12:11:07Z</time>
      </trkpt>
      <trkpt lat="43.66091" lon="3.81352">
        <ele>81.3</ele>
        <time>2017-11-15T12:11:08Z</time>
      </trkpt>
      <trkpt lat="43.66094" lon="3.8135">
        <ele>81.4</ele>
        <time>2017-11-15T12:11:09Z</time>
      </trkpt>
      <trkpt lat="43.66097" lon="3.81347">
        <ele>81.4</ele>
        <time>2017-11-15T12:11:10Z</time>
      </trkpt>
      <trkpt lat="43.661" lon="3.81346">
        <ele>81.5</ele>
        <time>2017-11-15T12:11:11Z</time>
      </trkpt>
      <trkpt lat="43.66103" lon="3.81343">
        <ele>81.6</ele>
        <time>2017-11-15T12:11:12Z</time>
      </trkpt>
      <trkpt lat="43.66106" lon="3.81341">
        <ele>81.6</ele>
        <time>2017-11-15T12:11:13Z</time>
      </trkpt>
      <trkpt lat="43.66109" lon="3.81339">
        <ele>81.7</ele>
        <time>2017-11-15T12:11:14Z</time>
      </trkpt>
      <trkpt lat="43.66112" lon="3.81338">
        <ele>81.8</ele>
        <time>2017-11-15T12:11:15Z</time>
      </trkpt>
      <trkpt lat="43.66115" lon="3.81336">
        <ele>81.9</ele>
        <time>2017-11-15T12:11:16Z</time>
      </trkpt>
      <trkpt lat="43.66117" lon="3.81334">
        <ele>82</ele>
        <time>2017-11-15T12:11:17Z</time>
      </trkpt>
      <trkpt lat="43.6612" lon="3.81332">
        <ele>82.1</ele>
        <time>2017-11-15T12:11:18Z</time>
      </trkpt>
      <trkpt lat="43.66123" lon="3.8133">
        <ele>82.2</ele>
        <time>2017-11-15T12:11:19Z</time>
      </trkpt>
      <trkpt lat="43.66127" lon="3.81327">
        <ele>82.3</ele>
        <time>2017-11-15T12:11:20Z</time>
      </trkpt>
      <trkpt lat="43.6613" lon="3.81325">
        <ele>82.4</ele>
        <time>2017-11-15T12:11:21Z</time>
      </trkpt>
      <trkpt lat="43.66133" lon="3.81324">
        <ele>82.6</ele>
        <time>2017-11-15T12:11:22Z</time>
      </trkpt>
      <trkpt lat="43.66135" lon="3.81325">
        <ele>82.8</ele>
        <time>2017-11-15T12:11:23Z</time>
      </trkpt>
      <trkpt lat="43.66137" lon="3.81329">
        <ele>83</ele>
        <time>2017-11-15T12:11:24Z</time>
      </trkpt>
      <trkpt lat="43.66138" lon="3.81334">
        <ele>83.3</ele>
        <time>2017-11-15T12:11:25Z</time>
      </trkpt>
      <trkpt lat="43.6614" lon="3.8134">
        <ele>83.6</ele>
        <time>2017-11-15T12:11:27Z</time>
      </trkpt>
      <trkpt lat="43.66142" lon="3.81347">
        <ele>83.8</ele>
        <time>2017-11-15T12:11:29Z</time>
      </trkpt>
      <trkpt lat="43.66144" lon="3.81351">
        <ele>84</ele>
        <time>2017-11-15T12:11:30Z</time>
      </trkpt>
      <trkpt lat="43.66146" lon="3.81355">
        <ele>84.1</ele>
        <time>2017-11-15T12:11:31Z</time>
      </trkpt>
      <trkpt lat="43.66147" lon="3.81359">
        <ele>84.2</ele>
        <time>2017-11-15T12:11:32Z</time>
      </trkpt>
      <trkpt lat="43.66148" lon="3.81364">
        <ele>84.9</ele>
        <time>2017-11-15T12:11:33Z</time>
      </trkpt>
      <trkpt lat="43.66149" lon="3.81369">
        <ele>85.1</ele>
        <time>2017-11-15T12:11:34Z</time>
      </trkpt>
      <trkpt lat="43.6615" lon="3.81372">
        <ele>85.3</ele>
        <time>2017-11-15T12:11:35Z</time>
      </trkpt>
      <trkpt lat="43.66152" lon="3.81376">
        <ele>86.2</ele>
        <time>2017-11-15T12:11:36Z</time>
      </trkpt>
      <trkpt lat="43.66154" lon="3.81381">
        <ele>87</ele>
        <time>2017-11-15T12:11:38Z</time>
      </trkpt>
      <trkpt lat="43.66156" lon="3.81387">
        <ele>87.2</ele>
        <time>2017-11-15T12:11:40Z</time>
      </trkpt>
      <trkpt lat="43.66157" lon="3.81392">
        <ele>87.9</ele>
        <time>2017-11-15T12:11:42Z</time>
      </trkpt>
      <trkpt lat="43.6616" lon="3.81397">
        <ele>88</ele>
        <time>2017-11-15T12:11:44Z</time>
      </trkpt>
      <trkpt lat="43.66162" lon="3.81401">
        <ele>88.6</ele>
        <time>2017-11-15T12:11:46Z</time>
      </trkpt>
      <trkpt lat="43.66166" lon="3.81405">
        <ele>89.7</ele>
        <time>2017-11-15T12:11:48Z</time>
      </trkpt>
      <trkpt lat="43.66168" lon="3.81409">
        <ele>89.7</ele>
        <time>2017-11-15T12:11:49Z</time>
      </trkpt>
      <trkpt lat="43.66169" lon="3.81413">
        <ele>89.7</ele>
        <time>2017-11-15T12:11:50Z</time>
      </trkpt>
      <trkpt lat="43.6617" lon="3.81421">
        <ele>90.6</ele>
        <time>2017-11-15T12:11:53Z</time>
      </trkpt>
      <trkpt lat="43.6617" lon="3.81427">
        <ele>91</ele>
        <time>2017-11-15T12:11:55Z</time>
      </trkpt>
      <trkpt lat="43.6617" lon="3.81434">
        <ele>91.2</ele>
        <time>2017-11-15T12:11:57Z</time>
      </trkpt>
      <trkpt lat="43.6617" lon="3.81439">
        <ele>91.5</ele>
        <time>2017-11-15T12:11:59Z</time>
      </trkpt>
      <trkpt lat="43.66171" lon="3.81444">
        <ele>91.7</ele>
        <time>2017-11-15T12:12:01Z</time>
      </trkpt>
      <trkpt lat="43.66172" lon="3.8145">
        <ele>92.1</ele>
        <time>2017-11-15T12:12:04Z</time>
      </trkpt>
      <trkpt lat="43.66173" lon="3.81455">
        <ele>93.2</ele>
        <time>2017-11-15T12:12:06Z</time>
      </trkpt>
      <trkpt lat="43.66175" lon="3.81458">
        <ele>93.4</ele>
        <time>2017-11-15T12:12:08Z</time>
      </trkpt>
      <trkpt lat="43.66177" lon="3.81463">
        <ele>94.5</ele>
        <time>2017-11-15T12:12:11Z</time>
      </trkpt>
      <trkpt lat="43.66178" lon="3.81467">
        <ele>94.6</ele>
        <time>2017-11-15T12:12:13Z</time>
      </trkpt>
      <trkpt lat="43.6618" lon="3.81471">
        <ele>95.8</ele>
        <time>2017-11-15T12:12:15Z</time>
      </trkpt>
      <trkpt lat="43.66182" lon="3.81475">
        <ele>96</ele>
        <time>2017-11-15T12:12:18Z</time>
      </trkpt>
      <trkpt lat="43.66186" lon="3.81476">
        <ele>98.1</ele>
        <time>2017-11-15T12:12:21Z</time>
      </trkpt>
      <trkpt lat="43.66188" lon="3.81479">
        <ele>98.4</ele>
        <time>2017-11-15T12:12:23Z</time>
      </trkpt>
      <trkpt lat="43.6619" lon="3.81483">
        <ele>99.7</ele>
        <time>2017-11-15T12:12:25Z</time>
      </trkpt>
      <trkpt lat="43.66191" lon="3.81489">
        <ele>100</ele>
        <time>2017-11-15T12:12:28Z</time>
      </trkpt>
      <trkpt lat="43.66193" lon="3.81494">
        <ele>101.2</ele>
        <time>2017-11-15T12:12:31Z</time>
      </trkpt>
      <trkpt lat="43.66194" lon="3.81498">
        <ele>101.5</ele>
        <time>2017-11-15T12:12:33Z</time>
      </trkpt>
      <trkpt lat="43.66195" lon="3.81504">
        <ele>102.4</ele>
        <time>2017-11-15T12:12:35Z</time>
      </trkpt>
      <trkpt lat="43.66197" lon="3.81508">
        <ele>102.5</ele>
        <time>2017-11-15T12:12:37Z</time>
      </trkpt>
      <trkpt lat="43.66199" lon="3.81511">
        <ele>103.3</ele>
        <time>2017-11-15T12:12:39Z</time>
      </trkpt>
      <trkpt lat="43.66202" lon="3.81514">
        <ele>104.2</ele>
        <time>2017-11-15T12:12:42Z</time>
      </trkpt>
      <trkpt lat="43.66204" lon="3.81522">
        <ele>105.3</ele>
        <time>2017-11-15T12:12:47Z</time>
      </trkpt>
      <trkpt lat="43.66205" lon="3.81526">
        <ele>105.3</ele>
        <time>2017-11-15T12:12:49Z</time>
      </trkpt>
      <trkpt lat="43.66208" lon="3.81531">
        <ele>106.6</ele>
        <time>2017-11-15T12:12:52Z</time>
      </trkpt>
      <trkpt lat="43.66209" lon="3.81536">
        <ele>106.9</ele>
        <time>2017-11-15T12:12:54Z</time>
      </trkpt>
      <trkpt lat="43.6621" lon="3.81542">
        <ele>108.2</ele>
        <time>2017-11-15T12:12:56Z</time>
      </trkpt>
      <trkpt lat="43.66209" lon="3.81545">
        <ele>107.5</ele>
        <time>2017-11-15T12:12:57Z</time>
      </trkpt>
      <trkpt lat="43.66208" lon="3.81549">
        <ele>107.8</ele>
        <time>2017-11-15T12:12:58Z</time>
      </trkpt>
      <trkpt lat="43.66207" lon="3.81553">
        <ele>106.9</ele>
        <time>2017-11-15T12:12:59Z</time>
      </trkpt>
      <trkpt lat="43.66206" lon="3.81557">
        <ele>106.9</ele>
        <time>2017-11-15T12:13:00Z</time>
      </trkpt>
      <trkpt lat="43.66205" lon="3.8156">
        <ele>106.8</ele>
        <time>2017-11-15T12:13:01Z</time>
      </trkpt>
      <trkpt lat="43.66206" lon="3.81569">
        <ele>106.7</ele>
        <time>2017-11-15T12:13:06Z</time>
      </trkpt>
      <trkpt lat="43.6621" lon="3.81571">
        <ele>107.9</ele>
        <time>2017-11-15T12:13:09Z</time>
      </trkpt>
      <trkpt lat="43.66211" lon="3.81576">
        <ele>109.2</ele>
        <time>2017-11-15T12:13:15Z</time>
      </trkpt>
      <trkpt lat="43.66213" lon="3.81582">
        <ele>109</ele>
        <time>2017-11-15T12:13:17Z</time>
      </trkpt>
      <trkpt lat="43.66214" lon="3.81588">
        <ele>110.2</ele>
        <time>2017-11-15T12:13:19Z</time>
      </trkpt>
      <trkpt lat="43.66214" lon="3.81594">
        <ele>110</ele>
        <time>2017-11-15T12:13:23Z</time>
      </trkpt>
      <trkpt lat="43.66214" lon="3.81599">
        <ele>109.9</ele>
        <time>2017-11-15T12:13:24Z</time>
      </trkpt>
      <trkpt lat="43.66215" lon="3.81603">
        <ele>109.8</ele>
        <time>2017-11-15T12:13:25Z</time>
      </trkpt>
      <trkpt lat="43.66216" lon="3.81611">
        <ele>110.8</ele>
        <time>2017-11-15T12:13:27Z</time>
      </trkpt>
      <trkpt lat="43.66219" lon="3.81615">
        <ele>110.7</ele>
        <time>2017-11-15T12:13:29Z</time>
      </trkpt>
      <trkpt lat="43.66221" lon="3.81617">
        <ele>111.8</ele>
        <time>2017-11-15T12:13:31Z</time>
      </trkpt>
      <trkpt lat="43.66222" lon="3.81621">
        <ele>112.8</ele>
        <time>2017-11-15T12:13:32Z</time>
      </trkpt>
      <trkpt lat="43.66221" lon="3.81628">
        <ele>111.9</ele>
        <time>2017-11-15T12:13:34Z</time>
      </trkpt>
      <trkpt lat="43.6622" lon="3.81637">
        <ele>112.1</ele>
        <time>2017-11-15T12:13:36Z</time>
      </trkpt>
      <trkpt lat="43.6622" lon="3.81642">
        <ele>112.5</ele>
        <time>2017-11-15T12:13:37Z</time>
      </trkpt>
      <trkpt lat="43.6622" lon="3.81646">
        <ele>112.5</ele>
        <time>2017-11-15T12:13:38Z</time>
      </trkpt>
      <trkpt lat="43.66221" lon="3.8165">
        <ele>112.8</ele>
        <time>2017-11-15T12:13:39Z</time>
      </trkpt>
      <trkpt lat="43.66221" lon="3.81654">
        <ele>113</ele>
        <time>2017-11-15T12:13:40Z</time>
      </trkpt>
      <trkpt lat="43.66221" lon="3.8166">
        <ele>113.4</ele>
        <time>2017-11-15T12:13:42Z</time>
      </trkpt>
      <trkpt lat="43.66222" lon="3.81665">
        <ele>113.5</ele>
        <time>2017-11-15T12:13:45Z</time>
      </trkpt>
      <trkpt lat="43.66225" lon="3.81667">
        <ele>114.8</ele>
        <time>2017-11-15T12:13:49Z</time>
      </trkpt>
      <trkpt lat="43.66227" lon="3.81672">
        <ele>114.8</ele>
        <time>2017-11-15T12:13:51Z</time>
      </trkpt>
      <trkpt lat="43.66225" lon="3.81677">
        <ele>114</ele>
        <time>2017-11-15T12:13:54Z</time>
      </trkpt>
      <trkpt lat="43.66223" lon="3.81686">
        <ele>113.6</ele>
        <time>2017-11-15T12:13:56Z</time>
      </trkpt>
      <trkpt lat="43.66224" lon="3.8169">
        <ele>113.5</ele>
        <time>2017-11-15T12:13:57Z</time>
      </trkpt>
      <trkpt lat="43.66226" lon="3.81695">
        <ele>114.3</ele>
        <time>2017-11-15T12:13:59Z</time>
      </trkpt>
      <trkpt lat="43.66228" lon="3.81702">
        <ele>114.3</ele>
        <time>2017-11-15T12:14:01Z</time>
      </trkpt>
      <trkpt lat="43.66228" lon="3.81706">
        <ele>114.3</ele>
        <time>2017-11-15T12:14:02Z</time>
      </trkpt>
      <trkpt lat="43.66228" lon="3.81713">
        <ele>114.4</ele>
        <time>2017-11-15T12:14:04Z</time>
      </trkpt>
      <trkpt lat="43.66229" lon="3.8172">
        <ele>116</ele>
        <time>2017-11-15T12:14:06Z</time>
      </trkpt>
      <trkpt lat="43.66231" lon="3.81724">
        <ele>116.2</ele>
        <time>2017-11-15T12:14:08Z</time>
      </trkpt>
      <trkpt lat="43.6623" lon="3.81732">
        <ele>116.4</ele>
        <time>2017-11-15T12:14:10Z</time>
      </trkpt>
      <trkpt lat="43.66231" lon="3.81738">
        <ele>116.8</ele>
        <time>2017-11-15T12:14:11Z</time>
      </trkpt>
      <trkpt lat="43.66233" lon="3.81745">
        <ele>118.2</ele>
        <time>2017-11-15T12:14:13Z</time>
      </trkpt>
      <trkpt lat="43.66234" lon="3.81751">
        <ele>118.2</ele>
        <time>2017-11-15T12:14:14Z</time>
      </trkpt>
      <trkpt lat="43.66235" lon="3.81759">
        <ele>119</ele>
        <time>2017-11-15T12:14:16Z</time>
      </trkpt>
      <trkpt lat="43.66236" lon="3.81766">
        <ele>118.8</ele>
        <time>2017-11-15T12:14:17Z</time>
      </trkpt>
      <trkpt lat="43.66236" lon="3.81771">
        <ele>118.6</ele>
        <time>2017-11-15T12:14:18Z</time>
      </trkpt>
      <trkpt lat="43.66233" lon="3.81775">
        <ele>117.1</ele>
        <time>2017-11-15T12:14:19Z</time>
      </trkpt>
      <trkpt lat="43.66231" lon="3.81782">
        <ele>115.9</ele>
        <time>2017-11-15T12:14:20Z</time>
      </trkpt>
      <trkpt lat="43.66229" lon="3.81789">
        <ele>115.7</ele>
        <time>2017-11-15T12:14:21Z</time>
      </trkpt>
      <trkpt lat="43.66229" lon="3.81795">
        <ele>115.7</ele>
        <time>2017-11-15T12:14:22Z</time>
      </trkpt>
      <trkpt lat="43.66228" lon="3.81803">
        <ele>114.7</ele>
        <time>2017-11-15T12:14:23Z</time>
      </trkpt>
      <trkpt lat="43.66227" lon="3.81813">
        <ele>114.7</ele>
        <time>2017-11-15T12:14:24Z</time>
      </trkpt>
      <trkpt lat="43.66227" lon="3.81819">
        <ele>114.6</ele>
        <time>2017-11-15T12:14:25Z</time>
      </trkpt>
      <trkpt lat="43.66228" lon="3.81825">
        <ele>114.6</ele>
        <time>2017-11-15T12:14:26Z</time>
      </trkpt>
      <trkpt lat="43.66229" lon="3.81831">
        <ele>115.4</ele>
        <time>2017-11-15T12:14:27Z</time>
      </trkpt>
      <trkpt lat="43.66229" lon="3.81838">
        <ele>115.5</ele>
        <time>2017-11-15T12:14:28Z</time>
      </trkpt>
      <trkpt lat="43.66227" lon="3.81844">
        <ele>114.8</ele>
        <time>2017-11-15T12:14:29Z</time>
      </trkpt>
      <trkpt lat="43.66226" lon="3.81851">
        <ele>114.8</ele>
        <time>2017-11-15T12:14:31Z</time>
      </trkpt>
      <trkpt lat="43.66226" lon="3.81856">
        <ele>114.8</ele>
        <time>2017-11-15T12:14:32Z</time>
      </trkpt>
      <trkpt lat="43.66226" lon="3.81862">
        <ele>114.7</ele>
        <time>2017-11-15T12:14:33Z</time>
      </trkpt>
      <trkpt lat="43.66225" lon="3.81866">
        <ele>113.8</ele>
        <time>2017-11-15T12:14:34Z</time>
      </trkpt>
      <trkpt lat="43.66225" lon="3.8187">
        <ele>113.6</ele>
        <time>2017-11-15T12:14:35Z</time>
      </trkpt>
      <trkpt lat="43.66225" lon="3.81877">
        <ele>113.4</ele>
        <time>2017-11-15T12:14:36Z</time>
      </trkpt>
      <trkpt lat="43.66225" lon="3.81884">
        <ele>113.8</ele>
        <time>2017-11-15T12:14:37Z</time>
      </trkpt>
      <trkpt lat="43.66226" lon="3.8189">
        <ele>113.7</ele>
        <time>2017-11-15T12:14:38Z</time>
      </trkpt>
      <trkpt lat="43.66225" lon="3.81898">
        <ele>113</ele>
        <time>2017-11-15T12:14:39Z</time>
      </trkpt>
      <trkpt lat="43.66223" lon="3.81906">
        <ele>113</ele>
        <time>2017-11-15T12:14:40Z</time>
      </trkpt>
      <trkpt lat="43.66221" lon="3.81915">
        <ele>112.5</ele>
        <time>2017-11-15T12:14:41Z</time>
      </trkpt>
      <trkpt lat="43.66219" lon="3.81926">
        <ele>111.8</ele>
        <time>2017-11-15T12:14:42Z</time>
      </trkpt>
      <trkpt lat="43.66217" lon="3.81934">
        <ele>111.4</ele>
        <time>2017-11-15T12:14:43Z</time>
      </trkpt>
      <trkpt lat="43.66216" lon="3.81941">
        <ele>110.7</ele>
        <time>2017-11-15T12:14:44Z</time>
      </trkpt>
      <trkpt lat="43.66214" lon="3.8195">
        <ele>110.4</ele>
        <time>2017-11-15T12:14:45Z</time>
      </trkpt>
      <trkpt lat="43.66213" lon="3.81958">
        <ele>110.1</ele>
        <time>2017-11-15T12:14:46Z</time>
      </trkpt>
      <trkpt lat="43.66212" lon="3.81964">
        <ele>109.4</ele>
        <time>2017-11-15T12:14:47Z</time>
      </trkpt>
      <trkpt lat="43.66212" lon="3.8197">
        <ele>109</ele>
        <time>2017-11-15T12:14:48Z</time>
      </trkpt>
      <trkpt lat="43.66209" lon="3.81977">
        <ele>107.8</ele>
        <time>2017-11-15T12:14:49Z</time>
      </trkpt>
      <trkpt lat="43.66207" lon="3.81983">
        <ele>106.7</ele>
        <time>2017-11-15T12:14:50Z</time>
      </trkpt>
      <trkpt lat="43.66205" lon="3.81992">
        <ele>105.7</ele>
        <time>2017-11-15T12:14:51Z</time>
      </trkpt>
      <trkpt lat="43.66206" lon="3.81996">
        <ele>105.3</ele>
        <time>2017-11-15T12:14:52Z</time>
      </trkpt>
      <trkpt lat="43.66208" lon="3.81999">
        <ele>105.9</ele>
        <time>2017-11-15T12:14:53Z</time>
      </trkpt>
      <trkpt lat="43.66212" lon="3.82001">
        <ele>106.9</ele>
        <time>2017-11-15T12:14:54Z</time>
      </trkpt>
      <trkpt lat="43.66216" lon="3.82002">
        <ele>107.9</ele>
        <time>2017-11-15T12:14:55Z</time>
      </trkpt>
      <trkpt lat="43.66219" lon="3.82003">
        <ele>109.4</ele>
        <time>2017-11-15T12:14:56Z</time>
      </trkpt>
      <trkpt lat="43.66223" lon="3.82005">
        <ele>110.2</ele>
        <time>2017-11-15T12:14:57Z</time>
      </trkpt>
      <trkpt lat="43.66228" lon="3.82009">
        <ele>110.5</ele>
        <time>2017-11-15T12:14:59Z</time>
      </trkpt>
      <trkpt lat="43.6623" lon="3.82012">
        <ele>110.8</ele>
        <time>2017-11-15T12:15:00Z</time>
      </trkpt>
      <trkpt lat="43.66234" lon="3.82017">
        <ele>111.1</ele>
        <time>2017-11-15T12:15:01Z</time>
      </trkpt>
      <trkpt lat="43.66237" lon="3.82018">
        <ele>112</ele>
        <time>2017-11-15T12:15:02Z</time>
      </trkpt>
      <trkpt lat="43.66241" lon="3.8202">
        <ele>113.2</ele>
        <time>2017-11-15T12:15:05Z</time>
      </trkpt>
      <trkpt lat="43.66243" lon="3.82022">
        <ele>113.2</ele>
        <time>2017-11-15T12:15:06Z</time>
      </trkpt>
      <trkpt lat="43.66245" lon="3.82026">
        <ele>113.5</ele>
        <time>2017-11-15T12:15:09Z</time>
      </trkpt>
      <trkpt lat="43.66246" lon="3.8203">
        <ele>113.1</ele>
        <time>2017-11-15T12:15:10Z</time>
      </trkpt>
      <trkpt lat="43.66248" lon="3.82035">
        <ele>113.3</ele>
        <time>2017-11-15T12:15:11Z</time>
      </trkpt>
      <trkpt lat="43.6625" lon="3.82042">
        <ele>112.3</ele>
        <time>2017-11-15T12:15:12Z</time>
      </trkpt>
      <trkpt lat="43.66252" lon="3.82052">
        <ele>112</ele>
        <time>2017-11-15T12:15:13Z</time>
      </trkpt>
      <trkpt lat="43.66255" lon="3.8206">
        <ele>111.9</ele>
        <time>2017-11-15T12:15:14Z</time>
      </trkpt>
      <trkpt lat="43.66258" lon="3.82066">
        <ele>112.2</ele>
        <time>2017-11-15T12:15:15Z</time>
      </trkpt>
      <trkpt lat="43.66259" lon="3.8207">
        <ele>111.9</ele>
        <time>2017-11-15T12:15:16Z</time>
      </trkpt>
      <trkpt lat="43.66261" lon="3.82075">
        <ele>112.3</ele>
        <time>2017-11-15T12:15:17Z</time>
      </trkpt>
      <trkpt lat="43.66261" lon="3.82079">
        <ele>112</ele>
        <time>2017-11-15T12:15:18Z</time>
      </trkpt>
      <trkpt lat="43.66263" lon="3.82083">
        <ele>112.6</ele>
        <time>2017-11-15T12:15:19Z</time>
      </trkpt>
      <trkpt lat="43.66266" lon="3.82087">
        <ele>112.4</ele>
        <time>2017-11-15T12:15:20Z</time>
      </trkpt>
      <trkpt lat="43.66267" lon="3.82091">
        <ele>113</ele>
        <time>2017-11-15T12:15:21Z</time>
      </trkpt>
      <trkpt lat="43.6627" lon="3.82096">
        <ele>113.6</ele>
        <time>2017-11-15T12:15:23Z</time>
      </trkpt>
      <trkpt lat="43.66272" lon="3.82102">
        <ele>113.2</ele>
        <time>2017-11-15T12:15:26Z</time>
      </trkpt>
      <trkpt lat="43.66273" lon="3.82106">
        <ele>113.8</ele>
        <time>2017-11-15T12:15:27Z</time>
      </trkpt>
      <trkpt lat="43.66275" lon="3.82114">
        <ele>114.4</ele>
        <time>2017-11-15T12:15:28Z</time>
      </trkpt>
      <trkpt lat="43.66279" lon="3.82122">
        <ele>114.4</ele>
        <time>2017-11-15T12:15:30Z</time>
      </trkpt>
      <trkpt lat="43.66281" lon="3.82129">
        <ele>114.1</ele>
        <time>2017-11-15T12:15:31Z</time>
      </trkpt>
      <trkpt lat="43.66283" lon="3.82134">
        <ele>113.6</ele>
        <time>2017-11-15T12:15:32Z</time>
      </trkpt>
      <trkpt lat="43.66287" lon="3.8214">
        <ele>114</ele>
        <time>2017-11-15T12:15:33Z</time>
      </trkpt>
      <trkpt lat="43.6629" lon="3.82142">
        <ele>114.4</ele>
        <time>2017-11-15T12:15:34Z</time>
      </trkpt>
      <trkpt lat="43.66292" lon="3.82145">
        <ele>114.9</ele>
        <time>2017-11-15T12:15:35Z</time>
      </trkpt>
      <trkpt lat="43.66293" lon="3.82149">
        <ele>114.4</ele>
        <time>2017-11-15T12:15:36Z</time>
      </trkpt>
      <trkpt lat="43.66295" lon="3.82152">
        <ele>115.2</ele>
        <time>2017-11-15T12:15:37Z</time>
      </trkpt>
      <trkpt lat="43.66298" lon="3.82156">
        <ele>115.5</ele>
        <time>2017-11-15T12:15:38Z</time>
      </trkpt>
      <trkpt lat="43.663" lon="3.82161">
        <ele>115.3</ele>
        <time>2017-11-15T12:15:39Z</time>
      </trkpt>
      <trkpt lat="43.66301" lon="3.82165">
        <ele>115.3</ele>
        <time>2017-11-15T12:15:41Z</time>
      </trkpt>
      <trkpt lat="43.66303" lon="3.8217">
        <ele>115.4</ele>
        <time>2017-11-15T12:15:42Z</time>
      </trkpt>
      <trkpt lat="43.66304" lon="3.82174">
        <ele>115.4</ele>
        <time>2017-11-15T12:15:43Z</time>
      </trkpt>
      <trkpt lat="43.66306" lon="3.82181">
        <ele>115.6</ele>
        <time>2017-11-15T12:15:44Z</time>
      </trkpt>
      <trkpt lat="43.66307" lon="3.82188">
        <ele>115</ele>
        <time>2017-11-15T12:15:45Z</time>
      </trkpt>
      <trkpt lat="43.66307" lon="3.82192">
        <ele>114.7</ele>
        <time>2017-11-15T12:15:46Z</time>
      </trkpt>
      <trkpt lat="43.66307" lon="3.82197">
        <ele>114.4</ele>
        <time>2017-11-15T12:15:47Z</time>
      </trkpt>
      <trkpt lat="43.66309" lon="3.82205">
        <ele>114.6</ele>
        <time>2017-11-15T12:15:48Z</time>
      </trkpt>
      <trkpt lat="43.66311" lon="3.82215">
        <ele>114.1</ele>
        <time>2017-11-15T12:15:50Z</time>
      </trkpt>
      <trkpt lat="43.6631" lon="3.82222">
        <ele>114.2</ele>
        <time>2017-11-15T12:15:51Z</time>
      </trkpt>
      <trkpt lat="43.6631" lon="3.82227">
        <ele>114.4</ele>
        <time>2017-11-15T12:15:52Z</time>
      </trkpt>
      <trkpt lat="43.66311" lon="3.82234">
        <ele>115</ele>
        <time>2017-11-15T12:15:53Z</time>
      </trkpt>
      <trkpt lat="43.66311" lon="3.82241">
        <ele>115.4</ele>
        <time>2017-11-15T12:15:54Z</time>
      </trkpt>
      <trkpt lat="43.66313" lon="3.82248">
        <ele>117.4</ele>
        <time>2017-11-15T12:15:55Z</time>
      </trkpt>
      <trkpt lat="43.66315" lon="3.82255">
        <ele>117.6</ele>
        <time>2017-11-15T12:15:56Z</time>
      </trkpt>
      <trkpt lat="43.66315" lon="3.82261">
        <ele>117.8</ele>
        <time>2017-11-15T12:15:57Z</time>
      </trkpt>
      <trkpt lat="43.66315" lon="3.82268">
        <ele>118.7</ele>
        <time>2017-11-15T12:15:58Z</time>
      </trkpt>
      <trkpt lat="43.66316" lon="3.82278">
        <ele>117.6</ele>
        <time>2017-11-15T12:15:59Z</time>
      </trkpt>
      <trkpt lat="43.66317" lon="3.82285">
        <ele>117.1</ele>
        <time>2017-11-15T12:16:00Z</time>
      </trkpt>
      <trkpt lat="43.66321" lon="3.82293">
        <ele>116.9</ele>
        <time>2017-11-15T12:16:01Z</time>
      </trkpt>
      <trkpt lat="43.66323" lon="3.823">
        <ele>116.7</ele>
        <time>2017-11-15T12:16:02Z</time>
      </trkpt>
      <trkpt lat="43.66325" lon="3.82306">
        <ele>117.3</ele>
        <time>2017-11-15T12:16:03Z</time>
      </trkpt>
      <trkpt lat="43.66329" lon="3.82314">
        <ele>117.4</ele>
        <time>2017-11-15T12:16:04Z</time>
      </trkpt>
      <trkpt lat="43.66332" lon="3.8232">
        <ele>117.4</ele>
        <time>2017-11-15T12:16:05Z</time>
      </trkpt>
      <trkpt lat="43.66334" lon="3.82327">
        <ele>117.9</ele>
        <time>2017-11-15T12:16:06Z</time>
      </trkpt>
      <trkpt lat="43.66337" lon="3.82334">
        <ele>117.1</ele>
        <time>2017-11-15T12:16:07Z</time>
      </trkpt>
      <trkpt lat="43.66338" lon="3.82337">
        <ele>117.9</ele>
        <time>2017-11-15T12:16:08Z</time>
      </trkpt>
      <trkpt lat="43.66341" lon="3.8234">
        <ele>118.4</ele>
        <time>2017-11-15T12:16:09Z</time>
      </trkpt>
      <trkpt lat="43.66344" lon="3.82341">
        <ele>119.3</ele>
        <time>2017-11-15T12:16:10Z</time>
      </trkpt>
      <trkpt lat="43.66346" lon="3.82343">
        <ele>118.9</ele>
        <time>2017-11-15T12:16:11Z</time>
      </trkpt>
      <trkpt lat="43.66348" lon="3.82347">
        <ele>119.3</ele>
        <time>2017-11-15T12:16:12Z</time>
      </trkpt>
      <trkpt lat="43.66349" lon="3.8235">
        <ele>119</ele>
        <time>2017-11-15T12:16:13Z</time>
      </trkpt>
      <trkpt lat="43.66351" lon="3.82354">
        <ele>119.9</ele>
        <time>2017-11-15T12:16:14Z</time>
      </trkpt>
      <trkpt lat="43.66354" lon="3.82356">
        <ele>120.4</ele>
        <time>2017-11-15T12:16:15Z</time>
      </trkpt>
      <trkpt lat="43.66356" lon="3.82358">
        <ele>121.2</ele>
        <time>2017-11-15T12:16:16Z</time>
      </trkpt>
      <trkpt lat="43.66358" lon="3.82362">
        <ele>121</ele>
        <time>2017-11-15T12:16:17Z</time>
      </trkpt>
      <trkpt lat="43.66359" lon="3.82366">
        <ele>121.5</ele>
        <time>2017-11-15T12:16:18Z</time>
      </trkpt>
      <trkpt lat="43.66359" lon="3.82371">
        <ele>120.5</ele>
        <time>2017-11-15T12:16:19Z</time>
      </trkpt>
      <trkpt lat="43.6636" lon="3.82375">
        <ele>121</ele>
        <time>2017-11-15T12:16:20Z</time>
      </trkpt>
      <trkpt lat="43.66363" lon="3.82378">
        <ele>121.4</ele>
        <time>2017-11-15T12:16:22Z</time>
      </trkpt>
      <trkpt lat="43.66364" lon="3.82384">
        <ele>121.1</ele>
        <time>2017-11-15T12:16:23Z</time>
      </trkpt>
      <trkpt lat="43.66364" lon="3.82389">
        <ele>120.4</ele>
        <time>2017-11-15T12:16:24Z</time>
      </trkpt>
      <trkpt lat="43.66362" lon="3.82395">
        <ele>120.1</ele>
        <time>2017-11-15T12:16:25Z</time>
      </trkpt>
      <trkpt lat="43.66361" lon="3.824">
        <ele>118.9</ele>
        <time>2017-11-15T12:16:26Z</time>
      </trkpt>
      <trkpt lat="43.66359" lon="3.82404">
        <ele>118.6</ele>
        <time>2017-11-15T12:16:27Z</time>
      </trkpt>
      <trkpt lat="43.66358" lon="3.82409">
        <ele>117.5</ele>
        <time>2017-11-15T12:16:28Z</time>
      </trkpt>
      <trkpt lat="43.66352" lon="3.82415">
        <ele>115.3</ele>
        <time>2017-11-15T12:16:29Z</time>
      </trkpt>
      <trkpt lat="43.66347" lon="3.82421">
        <ele>114.2</ele>
        <time>2017-11-15T12:16:30Z</time>
      </trkpt>
      <trkpt lat="43.66342" lon="3.82428">
        <ele>111.8</ele>
        <time>2017-11-15T12:16:31Z</time>
      </trkpt>
      <trkpt lat="43.66335" lon="3.82432">
        <ele>110.1</ele>
        <time>2017-11-15T12:16:32Z</time>
      </trkpt>
      <trkpt lat="43.66327" lon="3.82436">
        <ele>108.4</ele>
        <time>2017-11-15T12:16:33Z</time>
      </trkpt>
      <trkpt lat="43.66321" lon="3.82443">
        <ele>107.7</ele>
        <time>2017-11-15T12:16:34Z</time>
      </trkpt>
      <trkpt lat="43.66316" lon="3.8245">
        <ele>107.9</ele>
        <time>2017-11-15T12:16:35Z</time>
      </trkpt>
      <trkpt lat="43.66311" lon="3.82455">
        <ele>107.3</ele>
        <time>2017-11-15T12:16:36Z</time>
      </trkpt>
      <trkpt lat="43.66308" lon="3.82462">
        <ele>107</ele>
        <time>2017-11-15T12:16:37Z</time>
      </trkpt>
      <trkpt lat="43.66309" lon="3.82468">
        <ele>107.4</ele>
        <time>2017-11-15T12:16:38Z</time>
      </trkpt>
      <trkpt lat="43.66309" lon="3.82475">
        <ele>108</ele>
        <time>2017-11-15T12:16:39Z</time>
      </trkpt>
      <trkpt lat="43.66309" lon="3.8248">
        <ele>108.3</ele>
        <time>2017-11-15T12:16:40Z</time>
      </trkpt>
      <trkpt lat="43.66308" lon="3.82485">
        <ele>108.7</ele>
        <time>2017-11-15T12:16:41Z</time>
      </trkpt>
      <trkpt lat="43.66307" lon="3.8249">
        <ele>109.1</ele>
        <time>2017-11-15T12:16:42Z</time>
      </trkpt>
      <trkpt lat="43.66306" lon="3.82495">
        <ele>109.5</ele>
        <time>2017-11-15T12:16:43Z</time>
      </trkpt>
      <trkpt lat="43.66306" lon="3.825">
        <ele>110</ele>
        <time>2017-11-15T12:16:44Z</time>
      </trkpt>
      <trkpt lat="43.66306" lon="3.82505">
        <ele>109.5</ele>
        <time>2017-11-15T12:16:45Z</time>
      </trkpt>
      <trkpt lat="43.66307" lon="3.82513">
        <ele>110.4</ele>
        <time>2017-11-15T12:16:47Z</time>
      </trkpt>
      <trkpt lat="43.66306" lon="3.82519">
        <ele>110</ele>
        <time>2017-11-15T12:16:49Z</time>
      </trkpt>
      <trkpt lat="43.66306" lon="3.82523">
        <ele>110.2</ele>
        <time>2017-11-15T12:16:50Z</time>
      </trkpt>
      <trkpt lat="43.66305" lon="3.82528">
        <ele>110.3</ele>
        <time>2017-11-15T12:16:52Z</time>
      </trkpt>
      <trkpt lat="43.66306" lon="3.82535">
        <ele>110.8</ele>
        <time>2017-11-15T12:16:54Z</time>
      </trkpt>
      <trkpt lat="43.66306" lon="3.82541">
        <ele>112</ele>
        <time>2017-11-15T12:16:56Z</time>
      </trkpt>
      <trkpt lat="43.66306" lon="3.82548">
        <ele>112.7</ele>
        <time>2017-11-15T12:16:58Z</time>
      </trkpt>
      <trkpt lat="43.66307" lon="3.82554">
        <ele>113</ele>
        <time>2017-11-15T12:17:00Z</time>
      </trkpt>
      <trkpt lat="43.66306" lon="3.82559">
        <ele>113.4</ele>
        <time>2017-11-15T12:17:02Z</time>
      </trkpt>
      <trkpt lat="43.66305" lon="3.82563">
        <ele>113.1</ele>
        <time>2017-11-15T12:17:03Z</time>
      </trkpt>
      <trkpt lat="43.66302" lon="3.82567">
        <ele>112.9</ele>
        <time>2017-11-15T12:17:04Z</time>
      </trkpt>
      <trkpt lat="43.66299" lon="3.8257">
        <ele>112.7</ele>
        <time>2017-11-15T12:17:05Z</time>
      </trkpt>
      <trkpt lat="43.66295" lon="3.82573">
        <ele>112</ele>
        <time>2017-11-15T12:17:06Z</time>
      </trkpt>
      <trkpt lat="43.66291" lon="3.82578">
        <ele>112.2</ele>
        <time>2017-11-15T12:17:07Z</time>
      </trkpt>
      <trkpt lat="43.66286" lon="3.82582">
        <ele>110.9</ele>
        <time>2017-11-15T12:17:08Z</time>
      </trkpt>
      <trkpt lat="43.66281" lon="3.82585">
        <ele>110.2</ele>
        <time>2017-11-15T12:17:09Z</time>
      </trkpt>
      <trkpt lat="43.66275" lon="3.82586">
        <ele>110</ele>
        <time>2017-11-15T12:17:10Z</time>
      </trkpt>
      <trkpt lat="43.66269" lon="3.82589">
        <ele>108.9</ele>
        <time>2017-11-15T12:17:11Z</time>
      </trkpt>
      <trkpt lat="43.66263" lon="3.82592">
        <ele>107.8</ele>
        <time>2017-11-15T12:17:12Z</time>
      </trkpt>
      <trkpt lat="43.66256" lon="3.82595">
        <ele>106.2</ele>
        <time>2017-11-15T12:17:13Z</time>
      </trkpt>
      <trkpt lat="43.66248" lon="3.82599">
        <ele>105.3</ele>
        <time>2017-11-15T12:17:14Z</time>
      </trkpt>
      <trkpt lat="43.66241" lon="3.82603">
        <ele>104.6</ele>
        <time>2017-11-15T12:17:15Z</time>
      </trkpt>
      <trkpt lat="43.66233" lon="3.82609">
        <ele>103.6</ele>
        <time>2017-11-15T12:17:16Z</time>
      </trkpt>
      <trkpt lat="43.66227" lon="3.82617">
        <ele>103.3</ele>
        <time>2017-11-15T12:17:17Z</time>
      </trkpt>
      <trkpt lat="43.66222" lon="3.82626">
        <ele>103.6</ele>
        <time>2017-11-15T12:17:18Z</time>
      </trkpt>
      <trkpt lat="43.66217" lon="3.82635">
        <ele>104.4</ele>
        <time>2017-11-15T12:17:19Z</time>
      </trkpt>
      <trkpt lat="43.66214" lon="3.82643">
        <ele>105.1</ele>
        <time>2017-11-15T12:17:20Z</time>
      </trkpt>
      <trkpt lat="43.66213" lon="3.8265">
        <ele>105.3</ele>
        <time>2017-11-15T12:17:21Z</time>
      </trkpt>
      <trkpt lat="43.66211" lon="3.82655">
        <ele>106.3</ele>
        <time>2017-11-15T12:17:22Z</time>
      </trkpt>
      <trkpt lat="43.66208" lon="3.82659">
        <ele>106</ele>
        <time>2017-11-15T12:17:23Z</time>
      </trkpt>
      <trkpt lat="43.66207" lon="3.82664">
        <ele>106.4</ele>
        <time>2017-11-15T12:17:24Z</time>
      </trkpt>
      <trkpt lat="43.66204" lon="3.8267">
        <ele>106.7</ele>
        <time>2017-11-15T12:17:25Z</time>
      </trkpt>
      <trkpt lat="43.66202" lon="3.82675">
        <ele>106.7</ele>
        <time>2017-11-15T12:17:26Z</time>
      </trkpt>
      <trkpt lat="43.662" lon="3.82679">
        <ele>106.9</ele>
        <time>2017-11-15T12:17:27Z</time>
      </trkpt>
      <trkpt lat="43.66197" lon="3.82684">
        <ele>107.4</ele>
        <time>2017-11-15T12:17:28Z</time>
      </trkpt>
      <trkpt lat="43.66195" lon="3.82689">
        <ele>107.7</ele>
        <time>2017-11-15T12:17:29Z</time>
      </trkpt>
      <trkpt lat="43.66193" lon="3.82693">
        <ele>108</ele>
        <time>2017-11-15T12:17:30Z</time>
      </trkpt>
      <trkpt lat="43.66191" lon="3.82697">
        <ele>108.4</ele>
        <time>2017-11-15T12:17:31Z</time>
      </trkpt>
      <trkpt lat="43.6619" lon="3.82701">
        <ele>108.7</ele>
        <time>2017-11-15T12:17:32Z</time>
      </trkpt>
      <trkpt lat="43.66187" lon="3.82708">
        <ele>109.4</ele>
        <time>2017-11-15T12:17:34Z</time>
      </trkpt>
      <trkpt lat="43.66184" lon="3.82712">
        <ele>109.7</ele>
        <time>2017-11-15T12:17:36Z</time>
      </trkpt>
      <trkpt lat="43.66179" lon="3.82711">
        <ele>109.2</ele>
        <time>2017-11-15T12:17:38Z</time>
      </trkpt>
      <trkpt lat="43.66174" lon="3.82708">
        <ele>108.5</ele>
        <time>2017-11-15T12:17:39Z</time>
      </trkpt>
      <trkpt lat="43.6617" lon="3.82705">
        <ele>107.8</ele>
        <time>2017-11-15T12:17:40Z</time>
      </trkpt>
      <trkpt lat="43.66164" lon="3.82702">
        <ele>107</ele>
        <time>2017-11-15T12:17:41Z</time>
      </trkpt>
      <trkpt lat="43.66158" lon="3.82698">
        <ele>106.7</ele>
        <time>2017-11-15T12:17:42Z</time>
      </trkpt>
      <trkpt lat="43.66152" lon="3.82695">
        <ele>105.7</ele>
        <time>2017-11-15T12:17:43Z</time>
      </trkpt>
      <trkpt lat="43.66146" lon="3.82693">
        <ele>104.7</ele>
        <time>2017-11-15T12:17:44Z</time>
      </trkpt>
      <trkpt lat="43.66138" lon="3.82692">
        <ele>104.1</ele>
        <time>2017-11-15T12:17:45Z</time>
      </trkpt>
      <trkpt lat="43.6613" lon="3.82691">
        <ele>103.6</ele>
        <time>2017-11-15T12:17:46Z</time>
      </trkpt>
      <trkpt lat="43.66122" lon="3.82689">
        <ele>102.9</ele>
        <time>2017-11-15T12:17:47Z</time>
      </trkpt>
      <trkpt lat="43.66114" lon="3.82687">
        <ele>101.6</ele>
        <time>2017-11-15T12:17:48Z</time>
      </trkpt>
      <trkpt lat="43.66106" lon="3.82684">
        <ele>100.1</ele>
        <time>2017-11-15T12:17:49Z</time>
      </trkpt>
      <trkpt lat="43.66099" lon="3.8268">
        <ele>99.1</ele>
        <time>2017-11-15T12:17:50Z</time>
      </trkpt>
      <trkpt lat="43.66092" lon="3.8268">
        <ele>98.9</ele>
        <time>2017-11-15T12:17:51Z</time>
      </trkpt>
      <trkpt lat="43.66086" lon="3.82682">
        <ele>99.4</ele>
        <time>2017-11-15T12:17:52Z</time>
      </trkpt>
      <trkpt lat="43.66082" lon="3.82689">
        <ele>100.4</ele>
        <time>2017-11-15T12:17:53Z</time>
      </trkpt>
      <trkpt lat="43.66077" lon="3.82694">
        <ele>100.8</ele>
        <time>2017-11-15T12:17:54Z</time>
      </trkpt>
      <trkpt lat="43.66071" lon="3.82694">
        <ele>100.5</ele>
        <time>2017-11-15T12:17:55Z</time>
      </trkpt>
      <trkpt lat="43.66065" lon="3.8269">
        <ele>99.8</ele>
        <time>2017-11-15T12:17:56Z</time>
      </trkpt>
      <trkpt lat="43.6606" lon="3.82685">
        <ele>99.2</ele>
        <time>2017-11-15T12:17:57Z</time>
      </trkpt>
      <trkpt lat="43.66055" lon="3.82681">
        <ele>98.8</ele>
        <time>2017-11-15T12:17:58Z</time>
      </trkpt>
      <trkpt lat="43.66049" lon="3.82679">
        <ele>98.3</ele>
        <time>2017-11-15T12:17:59Z</time>
      </trkpt>
      <trkpt lat="43.66044" lon="3.82676">
        <ele>97.5</ele>
        <time>2017-11-15T12:18:00Z</time>
      </trkpt>
      <trkpt lat="43.66038" lon="3.82674">
        <ele>97</ele>
        <time>2017-11-15T12:18:01Z</time>
      </trkpt>
      <trkpt lat="43.66032" lon="3.82674">
        <ele>96.4</ele>
        <time>2017-11-15T12:18:02Z</time>
      </trkpt>
      <trkpt lat="43.66028" lon="3.82676">
        <ele>96.8</ele>
        <time>2017-11-15T12:18:03Z</time>
      </trkpt>
      <trkpt lat="43.66025" lon="3.82682">
        <ele>97.2</ele>
        <time>2017-11-15T12:18:04Z</time>
      </trkpt>
      <trkpt lat="43.66023" lon="3.82688">
        <ele>97.6</ele>
        <time>2017-11-15T12:18:05Z</time>
      </trkpt>
      <trkpt lat="43.66022" lon="3.82693">
        <ele>98.3</ele>
        <time>2017-11-15T12:18:06Z</time>
      </trkpt>
      <trkpt lat="43.66021" lon="3.82697">
        <ele>98.8</ele>
        <time>2017-11-15T12:18:07Z</time>
      </trkpt>
      <trkpt lat="43.66019" lon="3.82701">
        <ele>98.9</ele>
        <time>2017-11-15T12:18:08Z</time>
      </trkpt>
      <trkpt lat="43.66017" lon="3.82706">
        <ele>99.4</ele>
        <time>2017-11-15T12:18:09Z</time>
      </trkpt>
      <trkpt lat="43.66016" lon="3.82711">
        <ele>100.2</ele>
        <time>2017-11-15T12:18:10Z</time>
      </trkpt>
      <trkpt lat="43.66014" lon="3.82715">
        <ele>100</ele>
        <time>2017-11-15T12:18:11Z</time>
      </trkpt>
      <trkpt lat="43.66012" lon="3.82719">
        <ele>100.5</ele>
        <time>2017-11-15T12:18:12Z</time>
      </trkpt>
      <trkpt lat="43.6601" lon="3.82722">
        <ele>100.9</ele>
        <time>2017-11-15T12:18:13Z</time>
      </trkpt>
      <trkpt lat="43.66008" lon="3.82726">
        <ele>101.2</ele>
        <time>2017-11-15T12:18:14Z</time>
      </trkpt>
      <trkpt lat="43.66005" lon="3.8273">
        <ele>101.7</ele>
        <time>2017-11-15T12:18:15Z</time>
      </trkpt>
      <trkpt lat="43.66004" lon="3.82734">
        <ele>101.9</ele>
        <time>2017-11-15T12:18:16Z</time>
      </trkpt>
      <trkpt lat="43.66002" lon="3.82738">
        <ele>102.4</ele>
        <time>2017-11-15T12:18:17Z</time>
      </trkpt>
      <trkpt lat="43.66" lon="3.82741">
        <ele>102.3</ele>
        <time>2017-11-15T12:18:18Z</time>
      </trkpt>
      <trkpt lat="43.65998" lon="3.82745">
        <ele>101.8</ele>
        <time>2017-11-15T12:18:19Z</time>
      </trkpt>
      <trkpt lat="43.65996" lon="3.82748">
        <ele>102</ele>
        <time>2017-11-15T12:18:20Z</time>
      </trkpt>
      <trkpt lat="43.65994" lon="3.82751">
        <ele>101.6</ele>
        <time>2017-11-15T12:18:21Z</time>
      </trkpt>
      <trkpt lat="43.65991" lon="3.82756">
        <ele>101.3</ele>
        <time>2017-11-15T12:18:22Z</time>
      </trkpt>
      <trkpt lat="43.65989" lon="3.82761">
        <ele>101.1</ele>
        <time>2017-11-15T12:18:23Z</time>
      </trkpt>
      <trkpt lat="43.65987" lon="3.82765">
        <ele>101.5</ele>
        <time>2017-11-15T12:18:24Z</time>
      </trkpt>
      <trkpt lat="43.65985" lon="3.8277">
        <ele>101.4</ele>
        <time>2017-11-15T12:18:25Z</time>
      </trkpt>
      <trkpt lat="43.65983" lon="3.82775">
        <ele>101.7</ele>
        <time>2017-11-15T12:18:26Z</time>
      </trkpt>
      <trkpt lat="43.65981" lon="3.82778">
        <ele>101.6</ele>
        <time>2017-11-15T12:18:27Z</time>
      </trkpt>
      <trkpt lat="43.65979" lon="3.82782">
        <ele>101.5</ele>
        <time>2017-11-15T12:18:28Z</time>
      </trkpt>
      <trkpt lat="43.65977" lon="3.82787">
        <ele>101.6</ele>
        <time>2017-11-15T12:18:29Z</time>
      </trkpt>
      <trkpt lat="43.65976" lon="3.82791">
        <ele>101.5</ele>
        <time>2017-11-15T12:18:30Z</time>
      </trkpt>
      <trkpt lat="43.65974" lon="3.82795">
        <ele>101.7</ele>
        <time>2017-11-15T12:18:31Z</time>
      </trkpt>
      <trkpt lat="43.65973" lon="3.82799">
        <ele>101.6</ele>
        <time>2017-11-15T12:18:32Z</time>
      </trkpt>
      <trkpt lat="43.65971" lon="3.82803">
        <ele>101.8</ele>
        <time>2017-11-15T12:18:33Z</time>
      </trkpt>
      <trkpt lat="43.6597" lon="3.82807">
        <ele>101.6</ele>
        <time>2017-11-15T12:18:34Z</time>
      </trkpt>
      <trkpt lat="43.65968" lon="3.8281">
        <ele>101.8</ele>
        <time>2017-11-15T12:18:35Z</time>
      </trkpt>
      <trkpt lat="43.65966" lon="3.82814">
        <ele>101.6</ele>
        <time>2017-11-15T12:18:36Z</time>
      </trkpt>
      <trkpt lat="43.65964" lon="3.82819">
        <ele>101.3</ele>
        <time>2017-11-15T12:18:37Z</time>
      </trkpt>
      <trkpt lat="43.65963" lon="3.82824">
        <ele>101.5</ele>
        <time>2017-11-15T12:18:38Z</time>
      </trkpt>
      <trkpt lat="43.65961" lon="3.82829">
        <ele>101.1</ele>
        <time>2017-11-15T12:18:39Z</time>
      </trkpt>
      <trkpt lat="43.6596" lon="3.82834">
        <ele>101.4</ele>
        <time>2017-11-15T12:18:40Z</time>
      </trkpt>
      <trkpt lat="43.65958" lon="3.82839">
        <ele>101.8</ele>
        <time>2017-11-15T12:18:41Z</time>
      </trkpt>
      <trkpt lat="43.65957" lon="3.82844">
        <ele>102.3</ele>
        <time>2017-11-15T12:18:42Z</time>
      </trkpt>
      <trkpt lat="43.65955" lon="3.82849">
        <ele>102.3</ele>
        <time>2017-11-15T12:18:43Z</time>
      </trkpt>
      <trkpt lat="43.65953" lon="3.82853">
        <ele>102.9</ele>
        <time>2017-11-15T12:18:44Z</time>
      </trkpt>
      <trkpt lat="43.65951" lon="3.82857">
        <ele>102.9</ele>
        <time>2017-11-15T12:18:45Z</time>
      </trkpt>
      <trkpt lat="43.65949" lon="3.82862">
        <ele>103.3</ele>
        <time>2017-11-15T12:18:46Z</time>
      </trkpt>
      <trkpt lat="43.65947" lon="3.82867">
        <ele>103.1</ele>
        <time>2017-11-15T12:18:47Z</time>
      </trkpt>
      <trkpt lat="43.65946" lon="3.82873">
        <ele>102.9</ele>
        <time>2017-11-15T12:18:48Z</time>
      </trkpt>
      <trkpt lat="43.65943" lon="3.82878">
        <ele>103.1</ele>
        <time>2017-11-15T12:18:49Z</time>
      </trkpt>
      <trkpt lat="43.65939" lon="3.8288">
        <ele>102.4</ele>
        <time>2017-11-15T12:18:50Z</time>
      </trkpt>
      <trkpt lat="43.65934" lon="3.82882">
        <ele>102</ele>
        <time>2017-11-15T12:18:51Z</time>
      </trkpt>
      <trkpt lat="43.65927" lon="3.82885">
        <ele>101.4</ele>
        <time>2017-11-15T12:18:52Z</time>
      </trkpt>
      <trkpt lat="43.6592" lon="3.82887">
        <ele>100.6</ele>
        <time>2017-11-15T12:18:53Z</time>
      </trkpt>
      <trkpt lat="43.65913" lon="3.82889">
        <ele>100</ele>
        <time>2017-11-15T12:18:54Z</time>
      </trkpt>
      <trkpt lat="43.65907" lon="3.82891">
        <ele>99.5</ele>
        <time>2017-11-15T12:18:55Z</time>
      </trkpt>
      <trkpt lat="43.659" lon="3.82894">
        <ele>98.8</ele>
        <time>2017-11-15T12:18:56Z</time>
      </trkpt>
      <trkpt lat="43.65893" lon="3.82898">
        <ele>98.1</ele>
        <time>2017-11-15T12:18:57Z</time>
      </trkpt>
      <trkpt lat="43.65886" lon="3.82901">
        <ele>97.4</ele>
        <time>2017-11-15T12:18:58Z</time>
      </trkpt>
      <trkpt lat="43.65877" lon="3.82905">
        <ele>96.5</ele>
        <time>2017-11-15T12:18:59Z</time>
      </trkpt>
      <trkpt lat="43.65869" lon="3.82908">
        <ele>96</ele>
        <time>2017-11-15T12:19:00Z</time>
      </trkpt>
      <trkpt lat="43.65861" lon="3.82911">
        <ele>95.4</ele>
        <time>2017-11-15T12:19:01Z</time>
      </trkpt>
      <trkpt lat="43.65855" lon="3.82916">
        <ele>95</ele>
        <time>2017-11-15T12:19:02Z</time>
      </trkpt>
      <trkpt lat="43.65849" lon="3.82921">
        <ele>94.7</ele>
        <time>2017-11-15T12:19:03Z</time>
      </trkpt>
      <trkpt lat="43.65845" lon="3.82928">
        <ele>94.5</ele>
        <time>2017-11-15T12:19:04Z</time>
      </trkpt>
      <trkpt lat="43.65843" lon="3.82936">
        <ele>94.3</ele>
        <time>2017-11-15T12:19:05Z</time>
      </trkpt>
      <trkpt lat="43.65841" lon="3.82945">
        <ele>94.5</ele>
        <time>2017-11-15T12:19:06Z</time>
      </trkpt>
      <trkpt lat="43.6584" lon="3.82954">
        <ele>94.7</ele>
        <time>2017-11-15T12:19:07Z</time>
      </trkpt>
      <trkpt lat="43.65841" lon="3.82963">
        <ele>94.9</ele>
        <time>2017-11-15T12:19:08Z</time>
      </trkpt>
      <trkpt lat="43.6584" lon="3.82971">
        <ele>95</ele>
        <time>2017-11-15T12:19:09Z</time>
      </trkpt>
      <trkpt lat="43.65839" lon="3.82979">
        <ele>94.8</ele>
        <time>2017-11-15T12:19:10Z</time>
      </trkpt>
      <trkpt lat="43.65839" lon="3.82985">
        <ele>94.6</ele>
        <time>2017-11-15T12:19:11Z</time>
      </trkpt>
      <trkpt lat="43.65837" lon="3.82991">
        <ele>94.5</ele>
        <time>2017-11-15T12:19:12Z</time>
      </trkpt>
      <trkpt lat="43.65834" lon="3.82995">
        <ele>94.3</ele>
        <time>2017-11-15T12:19:13Z</time>
      </trkpt>
      <trkpt lat="43.65832" lon="3.82999">
        <ele>94.2</ele>
        <time>2017-11-15T12:19:15Z</time>
      </trkpt>
      <trkpt lat="43.65829" lon="3.83005">
        <ele>94</ele>
        <time>2017-11-15T12:19:17Z</time>
      </trkpt>
      <trkpt lat="43.65827" lon="3.83007">
        <ele>94</ele>
        <time>2017-11-15T12:19:18Z</time>
      </trkpt>
      <trkpt lat="43.65824" lon="3.83008">
        <ele>94</ele>
        <time>2017-11-15T12:19:19Z</time>
      </trkpt>
      <trkpt lat="43.65821" lon="3.8301">
        <ele>94</ele>
        <time>2017-11-15T12:19:20Z</time>
      </trkpt>
      <trkpt lat="43.65819" lon="3.83013">
        <ele>94</ele>
        <time>2017-11-15T12:19:21Z</time>
      </trkpt>
      <trkpt lat="43.65817" lon="3.83019">
        <ele>94</ele>
        <time>2017-11-15T12:19:22Z</time>
      </trkpt>
      <trkpt lat="43.65814" lon="3.83023">
        <ele>94</ele>
        <time>2017-11-15T12:19:23Z</time>
      </trkpt>
      <trkpt lat="43.65809" lon="3.83026">
        <ele>94</ele>
        <time>2017-11-15T12:19:24Z</time>
      </trkpt>
      <trkpt lat="43.65805" lon="3.83029">
        <ele>94</ele>
        <time>2017-11-15T12:19:25Z</time>
      </trkpt>
      <trkpt lat="43.65801" lon="3.83033">
        <ele>94</ele>
        <time>2017-11-15T12:19:26Z</time>
      </trkpt>
      <trkpt lat="43.65797" lon="3.83037">
        <ele>94</ele>
        <time>2017-11-15T12:19:27Z</time>
      </trkpt>
      <trkpt lat="43.65793" lon="3.83041">
        <ele>94</ele>
        <time>2017-11-15T12:19:28Z</time>
      </trkpt>
      <trkpt lat="43.65788" lon="3.83043">
        <ele>94</ele>
        <time>2017-11-15T12:19:29Z</time>
      </trkpt>
      <trkpt lat="43.65783" lon="3.83043">
        <ele>94</ele>
        <time>2017-11-15T12:19:30Z</time>
      </trkpt>
      <trkpt lat="43.65779" lon="3.83039">
        <ele>94</ele>
        <time>2017-11-15T12:19:31Z</time>
      </trkpt>
      <trkpt lat="43.65777" lon="3.83033">
        <ele>93.5</ele>
        <time>2017-11-15T12:19:32Z</time>
      </trkpt>
      <trkpt lat="43.65774" lon="3.83028">
        <ele>93.1</ele>
        <time>2017-11-15T12:19:33Z</time>
      </trkpt>
      <trkpt lat="43.65772" lon="3.83022">
        <ele>92.7</ele>
        <time>2017-11-15T12:19:34Z</time>
      </trkpt>
      <trkpt lat="43.65771" lon="3.83015">
        <ele>92.3</ele>
        <time>2017-11-15T12:19:35Z</time>
      </trkpt>
      <trkpt lat="43.6577" lon="3.83009">
        <ele>91.9</ele>
        <time>2017-11-15T12:19:36Z</time>
      </trkpt>
      <trkpt lat="43.65768" lon="3.83002">
        <ele>91.7</ele>
        <time>2017-11-15T12:19:37Z</time>
      </trkpt>
      <trkpt lat="43.65766" lon="3.82996">
        <ele>91.6</ele>
        <time>2017-11-15T12:19:38Z</time>
      </trkpt>
      <trkpt lat="43.65765" lon="3.8299">
        <ele>91.6</ele>
        <time>2017-11-15T12:19:39Z</time>
      </trkpt>
      <trkpt lat="43.65763" lon="3.82983">
        <ele>91.6</ele>
        <time>2017-11-15T12:19:40Z</time>
      </trkpt>
      <trkpt lat="43.65761" lon="3.82978">
        <ele>91.7</ele>
        <time>2017-11-15T12:19:41Z</time>
      </trkpt>
      <trkpt lat="43.65759" lon="3.82973">
        <ele>91.8</ele>
        <time>2017-11-15T12:19:42Z</time>
      </trkpt>
      <trkpt lat="43.65757" lon="3.82968">
        <ele>92.1</ele>
        <time>2017-11-15T12:19:43Z</time>
      </trkpt>
      <trkpt lat="43.65755" lon="3.82964">
        <ele>92.5</ele>
        <time>2017-11-15T12:19:44Z</time>
      </trkpt>
      <trkpt lat="43.65753" lon="3.82959">
        <ele>92.9</ele>
        <time>2017-11-15T12:19:45Z</time>
      </trkpt>
      <trkpt lat="43.6575" lon="3.82955">
        <ele>93.4</ele>
        <time>2017-11-15T12:19:46Z</time>
      </trkpt>
      <trkpt lat="43.65748" lon="3.82951">
        <ele>93.9</ele>
        <time>2017-11-15T12:19:47Z</time>
      </trkpt>
      <trkpt lat="43.65747" lon="3.82946">
        <ele>94.2</ele>
        <time>2017-11-15T12:19:48Z</time>
      </trkpt>
      <trkpt lat="43.65744" lon="3.82941">
        <ele>94.4</ele>
        <time>2017-11-15T12:19:49Z</time>
      </trkpt>
      <trkpt lat="43.65741" lon="3.82937">
        <ele>94.5</ele>
        <time>2017-11-15T12:19:50Z</time>
      </trkpt>
      <trkpt lat="43.65738" lon="3.82934">
        <ele>94.6</ele>
        <time>2017-11-15T12:19:51Z</time>
      </trkpt>
      <trkpt lat="43.65735" lon="3.82932">
        <ele>94.6</ele>
        <time>2017-11-15T12:19:52Z</time>
      </trkpt>
      <trkpt lat="43.65732" lon="3.82928">
        <ele>94.7</ele>
        <time>2017-11-15T12:19:54Z</time>
      </trkpt>
      <trkpt lat="43.6573" lon="3.82927">
        <ele>94.8</ele>
        <time>2017-11-15T12:19:56Z</time>
      </trkpt>
      <trkpt lat="43.65728" lon="3.82931">
        <ele>95.6</ele>
        <time>2017-11-15T12:19:59Z</time>
      </trkpt>
      <trkpt lat="43.65726" lon="3.82933">
        <ele>95.6</ele>
        <time>2017-11-15T12:20:01Z</time>
      </trkpt>
      <trkpt lat="43.65723" lon="3.82932">
        <ele>96.4</ele>
        <time>2017-11-15T12:20:02Z</time>
      </trkpt>
      <trkpt lat="43.6572" lon="3.82931">
        <ele>97.1</ele>
        <time>2017-11-15T12:20:03Z</time>
      </trkpt>
      <trkpt lat="43.65717" lon="3.82931">
        <ele>97.8</ele>
        <time>2017-11-15T12:20:04Z</time>
      </trkpt>
      <trkpt lat="43.65714" lon="3.82932">
        <ele>98.6</ele>
        <time>2017-11-15T12:20:07Z</time>
      </trkpt>
      <trkpt lat="43.65711" lon="3.82933">
        <ele>99.3</ele>
        <time>2017-11-15T12:20:09Z</time>
      </trkpt>
      <trkpt lat="43.65707" lon="3.82932">
        <ele>100.8</ele>
        <time>2017-11-15T12:20:11Z</time>
      </trkpt>
      <trkpt lat="43.65704" lon="3.82932">
        <ele>100.8</ele>
        <time>2017-11-15T12:20:12Z</time>
      </trkpt>
      <trkpt lat="43.65701" lon="3.82934">
        <ele>102.2</ele>
        <time>2017-11-15T12:20:14Z</time>
      </trkpt>
      <trkpt lat="43.65698" lon="3.82935">
        <ele>102.5</ele>
        <time>2017-11-15T12:20:16Z</time>
      </trkpt>
      <trkpt lat="43.65693" lon="3.82933">
        <ele>103.3</ele>
        <time>2017-11-15T12:20:18Z</time>
      </trkpt>
      <trkpt lat="43.6569" lon="3.82934">
        <ele>103.8</ele>
        <time>2017-11-15T12:20:19Z</time>
      </trkpt>
      <trkpt lat="43.65687" lon="3.82933">
        <ele>104.4</ele>
        <time>2017-11-15T12:20:20Z</time>
      </trkpt>
      <trkpt lat="43.65682" lon="3.82932">
        <ele>105.7</ele>
        <time>2017-11-15T12:20:22Z</time>
      </trkpt>
      <trkpt lat="43.65679" lon="3.82928">
        <ele>105.3</ele>
        <time>2017-11-15T12:20:26Z</time>
      </trkpt>
      <trkpt lat="43.65677" lon="3.82925">
        <ele>105.5</ele>
        <time>2017-11-15T12:20:28Z</time>
      </trkpt>
      <trkpt lat="43.65673" lon="3.82925">
        <ele>106.1</ele>
        <time>2017-11-15T12:20:30Z</time>
      </trkpt>
      <trkpt lat="43.65669" lon="3.82922">
        <ele>107.2</ele>
        <time>2017-11-15T12:20:32Z</time>
      </trkpt>
      <trkpt lat="43.65666" lon="3.82921">
        <ele>107.7</ele>
        <time>2017-11-15T12:20:33Z</time>
      </trkpt>
      <trkpt lat="43.65662" lon="3.8292">
        <ele>107.8</ele>
        <time>2017-11-15T12:20:35Z</time>
      </trkpt>
      <trkpt lat="43.65659" lon="3.82918">
        <ele>108.4</ele>
        <time>2017-11-15T12:20:37Z</time>
      </trkpt>
      <trkpt lat="43.65655" lon="3.82915">
        <ele>108.7</ele>
        <time>2017-11-15T12:20:39Z</time>
      </trkpt>
      <trkpt lat="43.65651" lon="3.82913">
        <ele>109.3</ele>
        <time>2017-11-15T12:20:41Z</time>
      </trkpt>
      <trkpt lat="43.65648" lon="3.82911">
        <ele>109.6</ele>
        <time>2017-11-15T12:20:42Z</time>
      </trkpt>
      <trkpt lat="43.65646" lon="3.82909">
        <ele>110.2</ele>
        <time>2017-11-15T12:20:43Z</time>
      </trkpt>
      <trkpt lat="43.65642" lon="3.82906">
        <ele>110.4</ele>
        <time>2017-11-15T12:20:45Z</time>
      </trkpt>
      <trkpt lat="43.65639" lon="3.82903">
        <ele>110.6</ele>
        <time>2017-11-15T12:20:47Z</time>
      </trkpt>
      <trkpt lat="43.65635" lon="3.829">
        <ele>111.5</ele>
        <time>2017-11-15T12:20:49Z</time>
      </trkpt>
      <trkpt lat="43.65632" lon="3.82898">
        <ele>111.6</ele>
        <time>2017-11-15T12:20:51Z</time>
      </trkpt>
      <trkpt lat="43.65629" lon="3.82897">
        <ele>112.2</ele>
        <time>2017-11-15T12:20:53Z</time>
      </trkpt>
      <trkpt lat="43.65624" lon="3.82894">
        <ele>112.3</ele>
        <time>2017-11-15T12:20:56Z</time>
      </trkpt>
      <trkpt lat="43.65619" lon="3.82892">
        <ele>113.3</ele>
        <time>2017-11-15T12:20:58Z</time>
      </trkpt>
      <trkpt lat="43.65615" lon="3.82891">
        <ele>113.8</ele>
        <time>2017-11-15T12:21:01Z</time>
      </trkpt>
      <trkpt lat="43.65612" lon="3.8289">
        <ele>113.9</ele>
        <time>2017-11-15T12:21:02Z</time>
      </trkpt>
      <trkpt lat="43.6561" lon="3.82889">
        <ele>114.4</ele>
        <time>2017-11-15T12:21:03Z</time>
      </trkpt>
      <trkpt lat="43.65605" lon="3.82886">
        <ele>114.6</ele>
        <time>2017-11-15T12:21:05Z</time>
      </trkpt>
      <trkpt lat="43.65602" lon="3.82883">
        <ele>115.2</ele>
        <time>2017-11-15T12:21:07Z</time>
      </trkpt>
      <trkpt lat="43.65599" lon="3.82878">
        <ele>115.3</ele>
        <time>2017-11-15T12:21:12Z</time>
      </trkpt>
      <trkpt lat="43.65596" lon="3.82875">
        <ele>116.1</ele>
        <time>2017-11-15T12:21:14Z</time>
      </trkpt>
      <trkpt lat="43.65589" lon="3.8287">
        <ele>118.1</ele>
        <time>2017-11-15T12:21:18Z</time>
      </trkpt>
      <trkpt lat="43.65584" lon="3.82868">
        <ele>118.5</ele>
        <time>2017-11-15T12:21:19Z</time>
      </trkpt>
      <trkpt lat="43.6558" lon="3.82867">
        <ele>119.2</ele>
        <time>2017-11-15T12:21:20Z</time>
      </trkpt>
      <trkpt lat="43.65573" lon="3.82864">
        <ele>121.1</ele>
        <time>2017-11-15T12:21:23Z</time>
      </trkpt>
      <trkpt lat="43.6557" lon="3.82861">
        <ele>121.1</ele>
        <time>2017-11-15T12:21:24Z</time>
      </trkpt>
      <trkpt lat="43.65568" lon="3.82858">
        <ele>121.4</ele>
        <time>2017-11-15T12:21:25Z</time>
      </trkpt>
      <trkpt lat="43.65562" lon="3.82854">
        <ele>122.2</ele>
        <time>2017-11-15T12:21:28Z</time>
      </trkpt>
      <trkpt lat="43.65557" lon="3.82851">
        <ele>122.7</ele>
        <time>2017-11-15T12:21:30Z</time>
      </trkpt>
      <trkpt lat="43.65554" lon="3.82849">
        <ele>123.2</ele>
        <time>2017-11-15T12:21:31Z</time>
      </trkpt>
      <trkpt lat="43.6555" lon="3.82847">
        <ele>122.9</ele>
        <time>2017-11-15T12:21:33Z</time>
      </trkpt>
      <trkpt lat="43.65546" lon="3.82844">
        <ele>123.3</ele>
        <time>2017-11-15T12:21:36Z</time>
      </trkpt>
      <trkpt lat="43.65538" lon="3.8284">
        <ele>123.7</ele>
        <time>2017-11-15T12:21:44Z</time>
      </trkpt>
      <trkpt lat="43.65534" lon="3.82839">
        <ele>123.3</ele>
        <time>2017-11-15T12:21:48Z</time>
      </trkpt>
      <trkpt lat="43.6553" lon="3.82838">
        <ele>123.5</ele>
        <time>2017-11-15T12:21:51Z</time>
      </trkpt>
      <trkpt lat="43.65527" lon="3.82836">
        <ele>123.7</ele>
        <time>2017-11-15T12:21:54Z</time>
      </trkpt>
      <trkpt lat="43.6552" lon="3.82842">
        <ele>124.4</ele>
        <time>2017-11-15T12:22:01Z</time>
      </trkpt>
      <trkpt lat="43.65515" lon="3.82843">
        <ele>124.5</ele>
        <time>2017-11-15T12:22:03Z</time>
      </trkpt>
      <trkpt lat="43.6551" lon="3.82841">
        <ele>124.4</ele>
        <time>2017-11-15T12:22:05Z</time>
      </trkpt>
      <trkpt lat="43.65507" lon="3.82839">
        <ele>123.9</ele>
        <time>2017-11-15T12:22:06Z</time>
      </trkpt>
      <trkpt lat="43.65504" lon="3.82837">
        <ele>123.8</ele>
        <time>2017-11-15T12:22:08Z</time>
      </trkpt>
      <trkpt lat="43.65502" lon="3.82831">
        <ele>123.4</ele>
        <time>2017-11-15T12:22:10Z</time>
      </trkpt>
      <trkpt lat="43.655" lon="3.82828">
        <ele>122.8</ele>
        <time>2017-11-15T12:22:11Z</time>
      </trkpt>
      <trkpt lat="43.65497" lon="3.82824">
        <ele>122.3</ele>
        <time>2017-11-15T12:22:13Z</time>
      </trkpt>
      <trkpt lat="43.65493" lon="3.82822">
        <ele>121.8</ele>
        <time>2017-11-15T12:22:15Z</time>
      </trkpt>
      <trkpt lat="43.65488" lon="3.82818">
        <ele>121.9</ele>
        <time>2017-11-15T12:22:17Z</time>
      </trkpt>
      <trkpt lat="43.65485" lon="3.82815">
        <ele>121.8</ele>
        <time>2017-11-15T12:22:18Z</time>
      </trkpt>
      <trkpt lat="43.65483" lon="3.8281">
        <ele>121.8</ele>
        <time>2017-11-15T12:22:19Z</time>
      </trkpt>
      <trkpt lat="43.6548" lon="3.82805">
        <ele>121.9</ele>
        <time>2017-11-15T12:22:20Z</time>
      </trkpt>
      <trkpt lat="43.65477" lon="3.82801">
        <ele>121.8</ele>
        <time>2017-11-15T12:22:21Z</time>
      </trkpt>
      <trkpt lat="43.65474" lon="3.82798">
        <ele>121.9</ele>
        <time>2017-11-15T12:22:22Z</time>
      </trkpt>
      <trkpt lat="43.65472" lon="3.82796">
        <ele>122.3</ele>
        <time>2017-11-15T12:22:23Z</time>
      </trkpt>
      <trkpt lat="43.65469" lon="3.82793">
        <ele>122.5</ele>
        <time>2017-11-15T12:22:25Z</time>
      </trkpt>
      <trkpt lat="43.65467" lon="3.82789">
        <ele>122.9</ele>
        <time>2017-11-15T12:22:27Z</time>
      </trkpt>
      <trkpt lat="43.65463" lon="3.82786">
        <ele>123.3</ele>
        <time>2017-11-15T12:22:30Z</time>
      </trkpt>
      <trkpt lat="43.6546" lon="3.82784">
        <ele>123.9</ele>
        <time>2017-11-15T12:22:32Z</time>
      </trkpt>
      <trkpt lat="43.65458" lon="3.82782">
        <ele>124.5</ele>
        <time>2017-11-15T12:22:34Z</time>
      </trkpt>
      <trkpt lat="43.65453" lon="3.82782">
        <ele>125.1</ele>
        <time>2017-11-15T12:22:37Z</time>
      </trkpt>
      <trkpt lat="43.65449" lon="3.8278">
        <ele>125.6</ele>
        <time>2017-11-15T12:22:39Z</time>
      </trkpt>
      <trkpt lat="43.65445" lon="3.82781">
        <ele>126.3</ele>
        <time>2017-11-15T12:22:41Z</time>
      </trkpt>
      <trkpt lat="43.65443" lon="3.82781">
        <ele>126.6</ele>
        <time>2017-11-15T12:22:42Z</time>
      </trkpt>
      <trkpt lat="43.6544" lon="3.82781">
        <ele>126.8</ele>
        <time>2017-11-15T12:22:43Z</time>
      </trkpt>
      <trkpt lat="43.65436" lon="3.82781">
        <ele>126.9</ele>
        <time>2017-11-15T12:22:44Z</time>
      </trkpt>
      <trkpt lat="43.65434" lon="3.82777">
        <ele>127.1</ele>
        <time>2017-11-15T12:22:45Z</time>
      </trkpt>
      <trkpt lat="43.65431" lon="3.82773">
        <ele>127.1</ele>
        <time>2017-11-15T12:22:46Z</time>
      </trkpt>
      <trkpt lat="43.65427" lon="3.82769">
        <ele>126.9</ele>
        <time>2017-11-15T12:22:47Z</time>
      </trkpt>
      <trkpt lat="43.65423" lon="3.82767">
        <ele>126.8</ele>
        <time>2017-11-15T12:22:48Z</time>
      </trkpt>
      <trkpt lat="43.65419" lon="3.82765">
        <ele>126.5</ele>
        <time>2017-11-15T12:22:49Z</time>
      </trkpt>
      <trkpt lat="43.65416" lon="3.82764">
        <ele>126.4</ele>
        <time>2017-11-15T12:22:50Z</time>
      </trkpt>
      <trkpt lat="43.65413" lon="3.82761">
        <ele>126</ele>
        <time>2017-11-15T12:22:51Z</time>
      </trkpt>
      <trkpt lat="43.65409" lon="3.82758">
        <ele>125.7</ele>
        <time>2017-11-15T12:22:52Z</time>
      </trkpt>
      <trkpt lat="43.65405" lon="3.82754">
        <ele>125.6</ele>
        <time>2017-11-15T12:22:53Z</time>
      </trkpt>
      <trkpt lat="43.65401" lon="3.8275">
        <ele>125.5</ele>
        <time>2017-11-15T12:22:54Z</time>
      </trkpt>
      <trkpt lat="43.65397" lon="3.82747">
        <ele>125.3</ele>
        <time>2017-11-15T12:22:55Z</time>
      </trkpt>
      <trkpt lat="43.65394" lon="3.82744">
        <ele>125</ele>
        <time>2017-11-15T12:22:56Z</time>
      </trkpt>
      <trkpt lat="43.6539" lon="3.82742">
        <ele>125.2</ele>
        <time>2017-11-15T12:22:57Z</time>
      </trkpt>
      <trkpt lat="43.65385" lon="3.8274">
        <ele>125</ele>
        <time>2017-11-15T12:22:58Z</time>
      </trkpt>
      <trkpt lat="43.65381" lon="3.82739">
        <ele>125.2</ele>
        <time>2017-11-15T12:22:59Z</time>
      </trkpt>
      <trkpt lat="43.65376" lon="3.82738">
        <ele>125.7</ele>
        <time>2017-11-15T12:23:00Z</time>
      </trkpt>
      <trkpt lat="43.65371" lon="3.82736">
        <ele>126.1</ele>
        <time>2017-11-15T12:23:01Z</time>
      </trkpt>
      <trkpt lat="43.65367" lon="3.82736">
        <ele>126</ele>
        <time>2017-11-15T12:23:02Z</time>
      </trkpt>
      <trkpt lat="43.65362" lon="3.82734">
        <ele>126.3</ele>
        <time>2017-11-15T12:23:03Z</time>
      </trkpt>
      <trkpt lat="43.65357" lon="3.8273">
        <ele>126.2</ele>
        <time>2017-11-15T12:23:04Z</time>
      </trkpt>
      <trkpt lat="43.65352" lon="3.82727">
        <ele>126.1</ele>
        <time>2017-11-15T12:23:05Z</time>
      </trkpt>
      <trkpt lat="43.65347" lon="3.82726">
        <ele>126.1</ele>
        <time>2017-11-15T12:23:06Z</time>
      </trkpt>
      <trkpt lat="43.6534" lon="3.82725">
        <ele>125.8</ele>
        <time>2017-11-15T12:23:07Z</time>
      </trkpt>
      <trkpt lat="43.65334" lon="3.82723">
        <ele>125.5</ele>
        <time>2017-11-15T12:23:08Z</time>
      </trkpt>
      <trkpt lat="43.65328" lon="3.8272">
        <ele>125.6</ele>
        <time>2017-11-15T12:23:09Z</time>
      </trkpt>
      <trkpt lat="43.65323" lon="3.82716">
        <ele>125.4</ele>
        <time>2017-11-15T12:23:10Z</time>
      </trkpt>
      <trkpt lat="43.65317" lon="3.82711">
        <ele>124.9</ele>
        <time>2017-11-15T12:23:11Z</time>
      </trkpt>
      <trkpt lat="43.65312" lon="3.82707">
        <ele>124.1</ele>
        <time>2017-11-15T12:23:12Z</time>
      </trkpt>
      <trkpt lat="43.65306" lon="3.82703">
        <ele>123.2</ele>
        <time>2017-11-15T12:23:13Z</time>
      </trkpt>
      <trkpt lat="43.65301" lon="3.82699">
        <ele>122.8</ele>
        <time>2017-11-15T12:23:14Z</time>
      </trkpt>
      <trkpt lat="43.65295" lon="3.82694">
        <ele>122.4</ele>
        <time>2017-11-15T12:23:15Z</time>
      </trkpt>
      <trkpt lat="43.65291" lon="3.82691">
        <ele>122.3</ele>
        <time>2017-11-15T12:23:16Z</time>
      </trkpt>
      <trkpt lat="43.65285" lon="3.82687">
        <ele>122.3</ele>
        <time>2017-11-15T12:23:17Z</time>
      </trkpt>
      <trkpt lat="43.6528" lon="3.82683">
        <ele>122.3</ele>
        <time>2017-11-15T12:23:18Z</time>
      </trkpt>
      <trkpt lat="43.65274" lon="3.82679">
        <ele>122.5</ele>
        <time>2017-11-15T12:23:19Z</time>
      </trkpt>
      <trkpt lat="43.65269" lon="3.82674">
        <ele>122.8</ele>
        <time>2017-11-15T12:23:20Z</time>
      </trkpt>
      <trkpt lat="43.65264" lon="3.82668">
        <ele>123</ele>
        <time>2017-11-15T12:23:21Z</time>
      </trkpt>
      <trkpt lat="43.65259" lon="3.8266">
        <ele>123.4</ele>
        <time>2017-11-15T12:23:22Z</time>
      </trkpt>
      <trkpt lat="43.65254" lon="3.82654">
        <ele>123.1</ele>
        <time>2017-11-15T12:23:23Z</time>
      </trkpt>
      <trkpt lat="43.65249" lon="3.82648">
        <ele>122.8</ele>
        <time>2017-11-15T12:23:24Z</time>
      </trkpt>
      <trkpt lat="43.65243" lon="3.82645">
        <ele>122.5</ele>
        <time>2017-11-15T12:23:25Z</time>
      </trkpt>
      <trkpt lat="43.65238" lon="3.82641">
        <ele>122.3</ele>
        <time>2017-11-15T12:23:26Z</time>
      </trkpt>
      <trkpt lat="43.65233" lon="3.82637">
        <ele>122.3</ele>
        <time>2017-11-15T12:23:27Z</time>
      </trkpt>
      <trkpt lat="43.65227" lon="3.82634">
        <ele>122.7</ele>
        <time>2017-11-15T12:23:28Z</time>
      </trkpt>
      <trkpt lat="43.6522" lon="3.82629">
        <ele>122.3</ele>
        <time>2017-11-15T12:23:29Z</time>
      </trkpt>
      <trkpt lat="43.65214" lon="3.82622">
        <ele>122.2</ele>
        <time>2017-11-15T12:23:30Z</time>
      </trkpt>
      <trkpt lat="43.65206" lon="3.82614">
        <ele>121.9</ele>
        <time>2017-11-15T12:23:31Z</time>
      </trkpt>
      <trkpt lat="43.652" lon="3.82606">
        <ele>121.7</ele>
        <time>2017-11-15T12:23:32Z</time>
      </trkpt>
      <trkpt lat="43.65195" lon="3.82596">
        <ele>121.4</ele>
        <time>2017-11-15T12:23:33Z</time>
      </trkpt>
      <trkpt lat="43.6519" lon="3.82586">
        <ele>121.4</ele>
        <time>2017-11-15T12:23:34Z</time>
      </trkpt>
      <trkpt lat="43.65186" lon="3.82577">
        <ele>121.6</ele>
        <time>2017-11-15T12:23:35Z</time>
      </trkpt>
      <trkpt lat="43.65182" lon="3.82571">
        <ele>122.2</ele>
        <time>2017-11-15T12:23:36Z</time>
      </trkpt>
      <trkpt lat="43.65178" lon="3.82564">
        <ele>122.1</ele>
        <time>2017-11-15T12:23:37Z</time>
      </trkpt>
      <trkpt lat="43.65173" lon="3.8256">
        <ele>122.3</ele>
        <time>2017-11-15T12:23:38Z</time>
      </trkpt>
      <trkpt lat="43.65168" lon="3.82555">
        <ele>121.9</ele>
        <time>2017-11-15T12:23:39Z</time>
      </trkpt>
      <trkpt lat="43.65163" lon="3.82549">
        <ele>121.5</ele>
        <time>2017-11-15T12:23:40Z</time>
      </trkpt>
      <trkpt lat="43.6516" lon="3.82543">
        <ele>121.2</ele>
        <time>2017-11-15T12:23:41Z</time>
      </trkpt>
      <trkpt lat="43.65157" lon="3.82538">
        <ele>120.6</ele>
        <time>2017-11-15T12:23:42Z</time>
      </trkpt>
      <trkpt lat="43.65154" lon="3.82533">
        <ele>120.3</ele>
        <time>2017-11-15T12:23:43Z</time>
      </trkpt>
      <trkpt lat="43.65151" lon="3.82528">
        <ele>119.9</ele>
        <time>2017-11-15T12:23:44Z</time>
      </trkpt>
      <trkpt lat="43.65148" lon="3.82523">
        <ele>119.5</ele>
        <time>2017-11-15T12:23:45Z</time>
      </trkpt>
      <trkpt lat="43.65146" lon="3.82518">
        <ele>119.6</ele>
        <time>2017-11-15T12:23:46Z</time>
      </trkpt>
      <trkpt lat="43.65145" lon="3.82512">
        <ele>119.6</ele>
        <time>2017-11-15T12:23:47Z</time>
      </trkpt>
      <trkpt lat="43.65143" lon="3.82506">
        <ele>119.7</ele>
        <time>2017-11-15T12:23:48Z</time>
      </trkpt>
      <trkpt lat="43.65143" lon="3.82499">
        <ele>119.7</ele>
        <time>2017-11-15T12:23:49Z</time>
      </trkpt>
      <trkpt lat="43.65145" lon="3.82492">
        <ele>119.8</ele>
        <time>2017-11-15T12:23:50Z</time>
      </trkpt>
      <trkpt lat="43.65148" lon="3.82486">
        <ele>119.8</ele>
        <time>2017-11-15T12:23:51Z</time>
      </trkpt>
      <trkpt lat="43.6515" lon="3.8248">
        <ele>119.7</ele>
        <time>2017-11-15T12:23:52Z</time>
      </trkpt>
      <trkpt lat="43.65152" lon="3.82474">
        <ele>119.7</ele>
        <time>2017-11-15T12:23:53Z</time>
      </trkpt>
      <trkpt lat="43.65153" lon="3.82468">
        <ele>119.6</ele>
        <time>2017-11-15T12:23:54Z</time>
      </trkpt>
      <trkpt lat="43.65154" lon="3.82461">
        <ele>119.5</ele>
        <time>2017-11-15T12:23:55Z</time>
      </trkpt>
      <trkpt lat="43.65154" lon="3.82455">
        <ele>119.4</ele>
        <time>2017-11-15T12:23:56Z</time>
      </trkpt>
      <trkpt lat="43.65154" lon="3.82449">
        <ele>119.2</ele>
        <time>2017-11-15T12:23:57Z</time>
      </trkpt>
      <trkpt lat="43.65154" lon="3.82444">
        <ele>119.1</ele>
        <time>2017-11-15T12:23:58Z</time>
      </trkpt>
      <trkpt lat="43.65154" lon="3.82439">
        <ele>119</ele>
        <time>2017-11-15T12:23:59Z</time>
      </trkpt>
      <trkpt lat="43.65153" lon="3.82435">
        <ele>119</ele>
        <time>2017-11-15T12:24:00Z</time>
      </trkpt>
      <trkpt lat="43.65152" lon="3.82431">
        <ele>119</ele>
        <time>2017-11-15T12:24:01Z</time>
      </trkpt>
      <trkpt lat="43.65151" lon="3.82427">
        <ele>118.9</ele>
        <time>2017-11-15T12:24:02Z</time>
      </trkpt>
      <trkpt lat="43.65149" lon="3.82423">
        <ele>118.8</ele>
        <time>2017-11-15T12:24:03Z</time>
      </trkpt>
      <trkpt lat="43.65148" lon="3.82419">
        <ele>118.5</ele>
        <time>2017-11-15T12:24:04Z</time>
      </trkpt>
      <trkpt lat="43.65146" lon="3.82415">
        <ele>118.1</ele>
        <time>2017-11-15T12:24:05Z</time>
      </trkpt>
      <trkpt lat="43.65144" lon="3.82411">
        <ele>117.7</ele>
        <time>2017-11-15T12:24:06Z</time>
      </trkpt>
      <trkpt lat="43.65142" lon="3.82407">
        <ele>117.3</ele>
        <time>2017-11-15T12:24:07Z</time>
      </trkpt>
      <trkpt lat="43.6514" lon="3.82403">
        <ele>116.8</ele>
        <time>2017-11-15T12:24:08Z</time>
      </trkpt>
      <trkpt lat="43.65138" lon="3.82399">
        <ele>116.2</ele>
        <time>2017-11-15T12:24:09Z</time>
      </trkpt>
      <trkpt lat="43.65136" lon="3.82395">
        <ele>115.5</ele>
        <time>2017-11-15T12:24:10Z</time>
      </trkpt>
      <trkpt lat="43.65134" lon="3.82391">
        <ele>114.9</ele>
        <time>2017-11-15T12:24:11Z</time>
      </trkpt>
      <trkpt lat="43.65132" lon="3.82386">
        <ele>114.2</ele>
        <time>2017-11-15T12:24:12Z</time>
      </trkpt>
      <trkpt lat="43.6513" lon="3.82382">
        <ele>113.5</ele>
        <time>2017-11-15T12:24:13Z</time>
      </trkpt>
      <trkpt lat="43.65127" lon="3.82378">
        <ele>112.8</ele>
        <time>2017-11-15T12:24:14Z</time>
      </trkpt>
      <trkpt lat="43.65123" lon="3.82374">
        <ele>112</ele>
        <time>2017-11-15T12:24:15Z</time>
      </trkpt>
      <trkpt lat="43.65121" lon="3.8237">
        <ele>111.6</ele>
        <time>2017-11-15T12:24:16Z</time>
      </trkpt>
      <trkpt lat="43.65118" lon="3.82368">
        <ele>111.4</ele>
        <time>2017-11-15T12:24:17Z</time>
      </trkpt>
      <trkpt lat="43.65115" lon="3.82365">
        <ele>111.2</ele>
        <time>2017-11-15T12:24:18Z</time>
      </trkpt>
      <trkpt lat="43.65111" lon="3.82362">
        <ele>111</ele>
        <time>2017-11-15T12:24:19Z</time>
      </trkpt>
      <trkpt lat="43.65108" lon="3.82359">
        <ele>110.7</ele>
        <time>2017-11-15T12:24:20Z</time>
      </trkpt>
      <trkpt lat="43.65104" lon="3.82356">
        <ele>110.4</ele>
        <time>2017-11-15T12:24:21Z</time>
      </trkpt>
      <trkpt lat="43.651" lon="3.82355">
        <ele>110.3</ele>
        <time>2017-11-15T12:24:22Z</time>
      </trkpt>
      <trkpt lat="43.65095" lon="3.82354">
        <ele>110.2</ele>
        <time>2017-11-15T12:24:23Z</time>
      </trkpt>
      <trkpt lat="43.6509" lon="3.82353">
        <ele>109.9</ele>
        <time>2017-11-15T12:24:24Z</time>
      </trkpt>
      <trkpt lat="43.65087" lon="3.82352">
        <ele>109.6</ele>
        <time>2017-11-15T12:24:25Z</time>
      </trkpt>
      <trkpt lat="43.65086" lon="3.82347">
        <ele>109.1</ele>
        <time>2017-11-15T12:24:27Z</time>
      </trkpt>
      <trkpt lat="43.65087" lon="3.82343">
        <ele>108.7</ele>
        <time>2017-11-15T12:24:28Z</time>
      </trkpt>
      <trkpt lat="43.65089" lon="3.82338">
        <ele>108.3</ele>
        <time>2017-11-15T12:24:29Z</time>
      </trkpt>
      <trkpt lat="43.65089" lon="3.8233">
        <ele>107.2</ele>
        <time>2017-11-15T12:24:30Z</time>
      </trkpt>
      <trkpt lat="43.65088" lon="3.82323">
        <ele>106.1</ele>
        <time>2017-11-15T12:24:31Z</time>
      </trkpt>
      <trkpt lat="43.65089" lon="3.82317">
        <ele>105.6</ele>
        <time>2017-11-15T12:24:32Z</time>
      </trkpt>
      <trkpt lat="43.65089" lon="3.82313">
        <ele>105.1</ele>
        <time>2017-11-15T12:24:33Z</time>
      </trkpt>
      <trkpt lat="43.65089" lon="3.82306">
        <ele>103.8</ele>
        <time>2017-11-15T12:24:35Z</time>
      </trkpt>
      <trkpt lat="43.65089" lon="3.82301">
        <ele>103.3</ele>
        <time>2017-11-15T12:24:37Z</time>
      </trkpt>
      <trkpt lat="43.65092" lon="3.82294">
        <ele>101.7</ele>
        <time>2017-11-15T12:24:39Z</time>
      </trkpt>
      <trkpt lat="43.65094" lon="3.8229">
        <ele>101.1</ele>
        <time>2017-11-15T12:24:40Z</time>
      </trkpt>
      <trkpt lat="43.65095" lon="3.82286">
        <ele>101.4</ele>
        <time>2017-11-15T12:24:41Z</time>
      </trkpt>
      <trkpt lat="43.65096" lon="3.82282">
        <ele>100.8</ele>
        <time>2017-11-15T12:24:42Z</time>
      </trkpt>
      <trkpt lat="43.65098" lon="3.82277">
        <ele>100.4</ele>
        <time>2017-11-15T12:24:43Z</time>
      </trkpt>
      <trkpt lat="43.651" lon="3.82272">
        <ele>99.2</ele>
        <time>2017-11-15T12:24:44Z</time>
      </trkpt>
      <trkpt lat="43.65101" lon="3.82266">
        <ele>98.7</ele>
        <time>2017-11-15T12:24:45Z</time>
      </trkpt>
      <trkpt lat="43.65102" lon="3.82261">
        <ele>98.1</ele>
        <time>2017-11-15T12:24:46Z</time>
      </trkpt>
      <trkpt lat="43.65103" lon="3.82255">
        <ele>97.7</ele>
        <time>2017-11-15T12:24:48Z</time>
      </trkpt>
      <trkpt lat="43.65097" lon="3.82255">
        <ele>97.3</ele>
        <time>2017-11-15T12:24:50Z</time>
      </trkpt>
      <trkpt lat="43.65094" lon="3.82255">
        <ele>97.1</ele>
        <time>2017-11-15T12:24:51Z</time>
      </trkpt>
      <trkpt lat="43.65091" lon="3.82255">
        <ele>97</ele>
        <time>2017-11-15T12:24:52Z</time>
      </trkpt>
      <trkpt lat="43.65088" lon="3.82256">
        <ele>96.9</ele>
        <time>2017-11-15T12:24:53Z</time>
      </trkpt>
      <trkpt lat="43.65084" lon="3.82257">
        <ele>96.7</ele>
        <time>2017-11-15T12:24:54Z</time>
      </trkpt>
      <trkpt lat="43.6508" lon="3.82256">
        <ele>96.7</ele>
        <time>2017-11-15T12:24:55Z</time>
      </trkpt>
      <trkpt lat="43.65077" lon="3.82253">
        <ele>96.3</ele>
        <time>2017-11-15T12:24:56Z</time>
      </trkpt>
      <trkpt lat="43.65074" lon="3.8225">
        <ele>95.8</ele>
        <time>2017-11-15T12:24:57Z</time>
      </trkpt>
      <trkpt lat="43.6507" lon="3.8225">
        <ele>95.6</ele>
        <time>2017-11-15T12:24:58Z</time>
      </trkpt>
      <trkpt lat="43.65065" lon="3.82252">
        <ele>95.4</ele>
        <time>2017-11-15T12:24:59Z</time>
      </trkpt>
      <trkpt lat="43.65061" lon="3.82252">
        <ele>95.3</ele>
        <time>2017-11-15T12:25:00Z</time>
      </trkpt>
      <trkpt lat="43.65056" lon="3.82254">
        <ele>95.3</ele>
        <time>2017-11-15T12:25:01Z</time>
      </trkpt>
      <trkpt lat="43.65051" lon="3.82254">
        <ele>95.5</ele>
        <time>2017-11-15T12:25:02Z</time>
      </trkpt>
      <trkpt lat="43.65045" lon="3.82254">
        <ele>95.3</ele>
        <time>2017-11-15T12:25:03Z</time>
      </trkpt>
      <trkpt lat="43.6504" lon="3.82255">
        <ele>95</ele>
        <time>2017-11-15T12:25:04Z</time>
      </trkpt>
      <trkpt lat="43.65036" lon="3.82255">
        <ele>94.9</ele>
        <time>2017-11-15T12:25:05Z</time>
      </trkpt>
      <trkpt lat="43.65032" lon="3.82255">
        <ele>94.8</ele>
        <time>2017-11-15T12:25:06Z</time>
      </trkpt>
      <trkpt lat="43.65028" lon="3.82255">
        <ele>94.6</ele>
        <time>2017-11-15T12:25:07Z</time>
      </trkpt>
      <trkpt lat="43.65025" lon="3.82255">
        <ele>94.8</ele>
        <time>2017-11-15T12:25:08Z</time>
      </trkpt>
      <trkpt lat="43.65022" lon="3.82256">
        <ele>94.9</ele>
        <time>2017-11-15T12:25:09Z</time>
      </trkpt>
      <trkpt lat="43.65019" lon="3.82256">
        <ele>95</ele>
        <time>2017-11-15T12:25:10Z</time>
      </trkpt>
      <trkpt lat="43.65014" lon="3.8225">
        <ele>92.5</ele>
        <time>2017-11-15T12:25:12Z</time>
      </trkpt>
      <trkpt lat="43.65013" lon="3.82246">
        <ele>91.5</ele>
        <time>2017-11-15T12:25:13Z</time>
      </trkpt>
      <trkpt lat="43.6501" lon="3.8224">
        <ele>89.9</ele>
        <time>2017-11-15T12:25:14Z</time>
      </trkpt>
      <trkpt lat="43.65007" lon="3.82233">
        <ele>88.2</ele>
        <time>2017-11-15T12:25:15Z</time>
      </trkpt>
      <trkpt lat="43.65006" lon="3.82225">
        <ele>86.7</ele>
        <time>2017-11-15T12:25:16Z</time>
      </trkpt>
      <trkpt lat="43.65003" lon="3.82217">
        <ele>85.2</ele>
        <time>2017-11-15T12:25:17Z</time>
      </trkpt>
      <trkpt lat="43.64998" lon="3.8221">
        <ele>83.7</ele>
        <time>2017-11-15T12:25:18Z</time>
      </trkpt>
      <trkpt lat="43.64991" lon="3.82204">
        <ele>82.7</ele>
        <time>2017-11-15T12:25:19Z</time>
      </trkpt>
      <trkpt lat="43.64985" lon="3.82201">
        <ele>82.2</ele>
        <time>2017-11-15T12:25:20Z</time>
      </trkpt>
      <trkpt lat="43.6498" lon="3.82196">
        <ele>82</ele>
        <time>2017-11-15T12:25:21Z</time>
      </trkpt>
      <trkpt lat="43.64976" lon="3.82192">
        <ele>82</ele>
        <time>2017-11-15T12:25:22Z</time>
      </trkpt>
      <trkpt lat="43.64971" lon="3.82188">
        <ele>82</ele>
        <time>2017-11-15T12:25:23Z</time>
      </trkpt>
      <trkpt lat="43.64967" lon="3.82188">
        <ele>82</ele>
        <time>2017-11-15T12:25:24Z</time>
      </trkpt>
      <trkpt lat="43.64964" lon="3.82191">
        <ele>80.7</ele>
        <time>2017-11-15T12:25:25Z</time>
      </trkpt>
      <trkpt lat="43.64961" lon="3.82194">
        <ele>80.8</ele>
        <time>2017-11-15T12:25:26Z</time>
      </trkpt>
      <trkpt lat="43.64957" lon="3.82196">
        <ele>80.9</ele>
        <time>2017-11-15T12:25:27Z</time>
      </trkpt>
      <trkpt lat="43.64954" lon="3.82198">
        <ele>81</ele>
        <time>2017-11-15T12:25:28Z</time>
      </trkpt>
      <trkpt lat="43.6495" lon="3.822">
        <ele>81.1</ele>
        <time>2017-11-15T12:25:29Z</time>
      </trkpt>
      <trkpt lat="43.64946" lon="3.82202">
        <ele>81.3</ele>
        <time>2017-11-15T12:25:30Z</time>
      </trkpt>
      <trkpt lat="43.64942" lon="3.82205">
        <ele>81.5</ele>
        <time>2017-11-15T12:25:31Z</time>
      </trkpt>
      <trkpt lat="43.64938" lon="3.82207">
        <ele>81.6</ele>
        <time>2017-11-15T12:25:32Z</time>
      </trkpt>
      <trkpt lat="43.64934" lon="3.8221">
        <ele>81.8</ele>
        <time>2017-11-15T12:25:33Z</time>
      </trkpt>
      <trkpt lat="43.6493" lon="3.82212">
        <ele>81.9</ele>
        <time>2017-11-15T12:25:34Z</time>
      </trkpt>
      <trkpt lat="43.64926" lon="3.82215">
        <ele>82</ele>
        <time>2017-11-15T12:25:35Z</time>
      </trkpt>
      <trkpt lat="43.64922" lon="3.82218">
        <ele>82.2</ele>
        <time>2017-11-15T12:25:36Z</time>
      </trkpt>
      <trkpt lat="43.64918" lon="3.82221">
        <ele>82.3</ele>
        <time>2017-11-15T12:25:37Z</time>
      </trkpt>
      <trkpt lat="43.64914" lon="3.82224">
        <ele>82.4</ele>
        <time>2017-11-15T12:25:38Z</time>
      </trkpt>
      <trkpt lat="43.64909" lon="3.82226">
        <ele>82.5</ele>
        <time>2017-11-15T12:25:39Z</time>
      </trkpt>
      <trkpt lat="43.64905" lon="3.8223">
        <ele>82.7</ele>
        <time>2017-11-15T12:25:40Z</time>
      </trkpt>
      <trkpt lat="43.649" lon="3.82232">
        <ele>82.8</ele>
        <time>2017-11-15T12:25:41Z</time>
      </trkpt>
      <trkpt lat="43.64896" lon="3.82235">
        <ele>83</ele>
        <time>2017-11-15T12:25:42Z</time>
      </trkpt>
      <trkpt lat="43.64891" lon="3.82238">
        <ele>83.1</ele>
        <time>2017-11-15T12:25:43Z</time>
      </trkpt>
      <trkpt lat="43.64887" lon="3.8224">
        <ele>83.3</ele>
        <time>2017-11-15T12:25:44Z</time>
      </trkpt>
      <trkpt lat="43.64883" lon="3.82243">
        <ele>83.4</ele>
        <time>2017-11-15T12:25:45Z</time>
      </trkpt>
      <trkpt lat="43.6488" lon="3.82247">
        <ele>83.6</ele>
        <time>2017-11-15T12:25:46Z</time>
      </trkpt>
      <trkpt lat="43.64876" lon="3.82251">
        <ele>83.8</ele>
        <time>2017-11-15T12:25:47Z</time>
      </trkpt>
      <trkpt lat="43.64873" lon="3.82255">
        <ele>84</ele>
        <time>2017-11-15T12:25:48Z</time>
      </trkpt>
      <trkpt lat="43.64869" lon="3.82259">
        <ele>84.2</ele>
        <time>2017-11-15T12:25:49Z</time>
      </trkpt>
      <trkpt lat="43.64866" lon="3.82263">
        <ele>84.4</ele>
        <time>2017-11-15T12:25:50Z</time>
      </trkpt>
      <trkpt lat="43.64863" lon="3.82268">
        <ele>84.6</ele>
        <time>2017-11-15T12:25:51Z</time>
      </trkpt>
      <trkpt lat="43.6486" lon="3.82271">
        <ele>84.7</ele>
        <time>2017-11-15T12:25:52Z</time>
      </trkpt>
      <trkpt lat="43.64856" lon="3.82274">
        <ele>84.9</ele>
        <time>2017-11-15T12:25:53Z</time>
      </trkpt>
      <trkpt lat="43.64852" lon="3.82276">
        <ele>85</ele>
        <time>2017-11-15T12:25:54Z</time>
      </trkpt>
      <trkpt lat="43.64849" lon="3.82278">
        <ele>85.2</ele>
        <time>2017-11-15T12:25:55Z</time>
      </trkpt>
      <trkpt lat="43.64845" lon="3.8228">
        <ele>85.4</ele>
        <time>2017-11-15T12:25:56Z</time>
      </trkpt>
      <trkpt lat="43.6484" lon="3.82281">
        <ele>85.6</ele>
        <time>2017-11-15T12:25:57Z</time>
      </trkpt>
      <trkpt lat="43.64836" lon="3.82283">
        <ele>85.9</ele>
        <time>2017-11-15T12:25:58Z</time>
      </trkpt>
      <trkpt lat="43.64832" lon="3.82284">
        <ele>86.2</ele>
        <time>2017-11-15T12:25:59Z</time>
      </trkpt>
      <trkpt lat="43.64828" lon="3.82286">
        <ele>86.4</ele>
        <time>2017-11-15T12:26:00Z</time>
      </trkpt>
      <trkpt lat="43.64824" lon="3.82287">
        <ele>86.6</ele>
        <time>2017-11-15T12:26:01Z</time>
      </trkpt>
      <trkpt lat="43.6482" lon="3.82288">
        <ele>86.7</ele>
        <time>2017-11-15T12:26:02Z</time>
      </trkpt>
      <trkpt lat="43.64816" lon="3.8229">
        <ele>86.9</ele>
        <time>2017-11-15T12:26:03Z</time>
      </trkpt>
      <trkpt lat="43.64811" lon="3.82293">
        <ele>87.1</ele>
        <time>2017-11-15T12:26:04Z</time>
      </trkpt>
      <trkpt lat="43.64806" lon="3.82295">
        <ele>87.3</ele>
        <time>2017-11-15T12:26:05Z</time>
      </trkpt>
      <trkpt lat="43.64802" lon="3.82298">
        <ele>87.5</ele>
        <time>2017-11-15T12:26:06Z</time>
      </trkpt>
      <trkpt lat="43.64797" lon="3.82302">
        <ele>87.7</ele>
        <time>2017-11-15T12:26:07Z</time>
      </trkpt>
      <trkpt lat="43.64793" lon="3.82306">
        <ele>87.9</ele>
        <time>2017-11-15T12:26:08Z</time>
      </trkpt>
      <trkpt lat="43.6479" lon="3.82309">
        <ele>88.3</ele>
        <time>2017-11-15T12:26:09Z</time>
      </trkpt>
      <trkpt lat="43.64785" lon="3.82311">
        <ele>88.6</ele>
        <time>2017-11-15T12:26:10Z</time>
      </trkpt>
      <trkpt lat="43.64781" lon="3.82312">
        <ele>88.9</ele>
        <time>2017-11-15T12:26:11Z</time>
      </trkpt>
      <trkpt lat="43.64777" lon="3.82314">
        <ele>89.2</ele>
        <time>2017-11-15T12:26:12Z</time>
      </trkpt>
      <trkpt lat="43.64772" lon="3.82315">
        <ele>89.5</ele>
        <time>2017-11-15T12:26:13Z</time>
      </trkpt>
      <trkpt lat="43.64768" lon="3.82317">
        <ele>89.7</ele>
        <time>2017-11-15T12:26:14Z</time>
      </trkpt>
      <trkpt lat="43.64763" lon="3.82318">
        <ele>90.2</ele>
        <time>2017-11-15T12:26:15Z</time>
      </trkpt>
      <trkpt lat="43.64759" lon="3.82319">
        <ele>90.6</ele>
        <time>2017-11-15T12:26:16Z</time>
      </trkpt>
      <trkpt lat="43.64755" lon="3.82321">
        <ele>90.9</ele>
        <time>2017-11-15T12:26:17Z</time>
      </trkpt>
      <trkpt lat="43.64751" lon="3.82322">
        <ele>91.2</ele>
        <time>2017-11-15T12:26:18Z</time>
      </trkpt>
      <trkpt lat="43.64747" lon="3.82324">
        <ele>91.5</ele>
        <time>2017-11-15T12:26:19Z</time>
      </trkpt>
      <trkpt lat="43.64743" lon="3.82325">
        <ele>91.8</ele>
        <time>2017-11-15T12:26:20Z</time>
      </trkpt>
      <trkpt lat="43.64739" lon="3.82326">
        <ele>92.2</ele>
        <time>2017-11-15T12:26:21Z</time>
      </trkpt>
      <trkpt lat="43.64735" lon="3.82327">
        <ele>92.5</ele>
        <time>2017-11-15T12:26:22Z</time>
      </trkpt>
      <trkpt lat="43.64732" lon="3.82327">
        <ele>92.9</ele>
        <time>2017-11-15T12:26:23Z</time>
      </trkpt>
      <trkpt lat="43.64728" lon="3.82328">
        <ele>93.3</ele>
        <time>2017-11-15T12:26:24Z</time>
      </trkpt>
      <trkpt lat="43.64724" lon="3.82329">
        <ele>93.6</ele>
        <time>2017-11-15T12:26:25Z</time>
      </trkpt>
      <trkpt lat="43.64719" lon="3.8233">
        <ele>93.9</ele>
        <time>2017-11-15T12:26:26Z</time>
      </trkpt>
      <trkpt lat="43.64715" lon="3.82331">
        <ele>94.2</ele>
        <time>2017-11-15T12:26:27Z</time>
      </trkpt>
      <trkpt lat="43.6471" lon="3.82331">
        <ele>94.5</ele>
        <time>2017-11-15T12:26:28Z</time>
      </trkpt>
      <trkpt lat="43.64705" lon="3.82331">
        <ele>95.2</ele>
        <time>2017-11-15T12:26:29Z</time>
      </trkpt>
      <trkpt lat="43.64699" lon="3.8233">
        <ele>95.5</ele>
        <time>2017-11-15T12:26:30Z</time>
      </trkpt>
      <trkpt lat="43.64695" lon="3.82329">
        <ele>95.8</ele>
        <time>2017-11-15T12:26:31Z</time>
      </trkpt>
      <trkpt lat="43.64691" lon="3.82327">
        <ele>96</ele>
        <time>2017-11-15T12:26:32Z</time>
      </trkpt>
      <trkpt lat="43.64688" lon="3.82323">
        <ele>95.9</ele>
        <time>2017-11-15T12:26:33Z</time>
      </trkpt>
      <trkpt lat="43.64684" lon="3.82319">
        <ele>95.8</ele>
        <time>2017-11-15T12:26:34Z</time>
      </trkpt>
      <trkpt lat="43.64681" lon="3.82317">
        <ele>95.8</ele>
        <time>2017-11-15T12:26:35Z</time>
      </trkpt>
      <trkpt lat="43.64677" lon="3.82315">
        <ele>95.8</ele>
        <time>2017-11-15T12:26:36Z</time>
      </trkpt>
      <trkpt lat="43.64673" lon="3.82315">
        <ele>95.7</ele>
        <time>2017-11-15T12:26:37Z</time>
      </trkpt>
      <trkpt lat="43.6467" lon="3.82316">
        <ele>95.7</ele>
        <time>2017-11-15T12:26:38Z</time>
      </trkpt>
      <trkpt lat="43.64667" lon="3.82317">
        <ele>95.7</ele>
        <time>2017-11-15T12:26:39Z</time>
      </trkpt>
      <trkpt lat="43.64663" lon="3.82318">
        <ele>95.7</ele>
        <time>2017-11-15T12:26:40Z</time>
      </trkpt>
      <trkpt lat="43.6466" lon="3.82318">
        <ele>95.7</ele>
        <time>2017-11-15T12:26:41Z</time>
      </trkpt>
      <trkpt lat="43.64657" lon="3.82319">
        <ele>95.6</ele>
        <time>2017-11-15T12:26:42Z</time>
      </trkpt>
      <trkpt lat="43.64652" lon="3.82323">
        <ele>95.6</ele>
        <time>2017-11-15T12:26:44Z</time>
      </trkpt>
      <trkpt lat="43.64649" lon="3.82325">
        <ele>95.6</ele>
        <time>2017-11-15T12:26:45Z</time>
      </trkpt>
      <trkpt lat="43.64646" lon="3.82326">
        <ele>95.6</ele>
        <time>2017-11-15T12:26:46Z</time>
      </trkpt>
      <trkpt lat="43.64643" lon="3.82327">
        <ele>95.6</ele>
        <time>2017-11-15T12:26:47Z</time>
      </trkpt>
      <trkpt lat="43.64638" lon="3.82328">
        <ele>95.7</ele>
        <time>2017-11-15T12:26:49Z</time>
      </trkpt>
      <trkpt lat="43.64635" lon="3.82329">
        <ele>95.7</ele>
        <time>2017-11-15T12:26:50Z</time>
      </trkpt>
      <trkpt lat="43.64632" lon="3.8233">
        <ele>95.7</ele>
        <time>2017-11-15T12:26:51Z</time>
      </trkpt>
      <trkpt lat="43.64628" lon="3.82331">
        <ele>95.7</ele>
        <time>2017-11-15T12:26:52Z</time>
      </trkpt>
      <trkpt lat="43.64625" lon="3.82332">
        <ele>95.8</ele>
        <time>2017-11-15T12:26:53Z</time>
      </trkpt>
      <trkpt lat="43.64619" lon="3.82331">
        <ele>95.8</ele>
        <time>2017-11-15T12:26:55Z</time>
      </trkpt>
      <trkpt lat="43.64616" lon="3.8233">
        <ele>95.8</ele>
        <time>2017-11-15T12:26:56Z</time>
      </trkpt>
      <trkpt lat="43.64611" lon="3.82329">
        <ele>95.9</ele>
        <time>2017-11-15T12:26:58Z</time>
      </trkpt>
      <trkpt lat="43.64605" lon="3.82328">
        <ele>95.9</ele>
        <time>2017-11-15T12:27:00Z</time>
      </trkpt>
      <trkpt lat="43.64602" lon="3.82327">
        <ele>95.9</ele>
        <time>2017-11-15T12:27:01Z</time>
      </trkpt>
      <trkpt lat="43.64598" lon="3.82325">
        <ele>95.9</ele>
        <time>2017-11-15T12:27:02Z</time>
      </trkpt>
      <trkpt lat="43.64595" lon="3.82324">
        <ele>96</ele>
        <time>2017-11-15T12:27:03Z</time>
      </trkpt>
      <trkpt lat="43.64591" lon="3.82324">
        <ele>96</ele>
        <time>2017-11-15T12:27:04Z</time>
      </trkpt>
      <trkpt lat="43.64588" lon="3.82324">
        <ele>96</ele>
        <time>2017-11-15T12:27:05Z</time>
      </trkpt>
      <trkpt lat="43.64585" lon="3.82324">
        <ele>96</ele>
        <time>2017-11-15T12:27:06Z</time>
      </trkpt>
      <trkpt lat="43.64582" lon="3.82324">
        <ele>96</ele>
        <time>2017-11-15T12:27:07Z</time>
      </trkpt>
      <trkpt lat="43.64579" lon="3.82323">
        <ele>96</ele>
        <time>2017-11-15T12:27:08Z</time>
      </trkpt>
      <trkpt lat="43.64576" lon="3.82322">
        <ele>96.1</ele>
        <time>2017-11-15T12:27:09Z</time>
      </trkpt>
      <trkpt lat="43.64572" lon="3.82321">
        <ele>96.4</ele>
        <time>2017-11-15T12:27:10Z</time>
      </trkpt>
      <trkpt lat="43.64569" lon="3.8232">
        <ele>96.8</ele>
        <time>2017-11-15T12:27:11Z</time>
      </trkpt>
      <trkpt lat="43.64566" lon="3.82318">
        <ele>96.9</ele>
        <time>2017-11-15T12:27:12Z</time>
      </trkpt>
      <trkpt lat="43.64563" lon="3.82317">
        <ele>97</ele>
        <time>2017-11-15T12:27:13Z</time>
      </trkpt>
      <trkpt lat="43.6456" lon="3.82316">
        <ele>97.1</ele>
        <time>2017-11-15T12:27:14Z</time>
      </trkpt>
      <trkpt lat="43.64556" lon="3.82314">
        <ele>97.1</ele>
        <time>2017-11-15T12:27:15Z</time>
      </trkpt>
      <trkpt lat="43.64552" lon="3.82313">
        <ele>97</ele>
        <time>2017-11-15T12:27:16Z</time>
      </trkpt>
      <trkpt lat="43.64548" lon="3.82312">
        <ele>96.8</ele>
        <time>2017-11-15T12:27:17Z</time>
      </trkpt>
      <trkpt lat="43.64544" lon="3.82311">
        <ele>96.6</ele>
        <time>2017-11-15T12:27:18Z</time>
      </trkpt>
      <trkpt lat="43.6454" lon="3.8231">
        <ele>96.2</ele>
        <time>2017-11-15T12:27:19Z</time>
      </trkpt>
      <trkpt lat="43.64535" lon="3.82309">
        <ele>96</ele>
        <time>2017-11-15T12:27:20Z</time>
      </trkpt>
      <trkpt lat="43.64531" lon="3.82308">
        <ele>96.1</ele>
        <time>2017-11-15T12:27:21Z</time>
      </trkpt>
      <trkpt lat="43.64527" lon="3.82307">
        <ele>96.2</ele>
        <time>2017-11-15T12:27:22Z</time>
      </trkpt>
      <trkpt lat="43.64523" lon="3.82306">
        <ele>96.3</ele>
        <time>2017-11-15T12:27:23Z</time>
      </trkpt>
      <trkpt lat="43.64519" lon="3.82305">
        <ele>96.3</ele>
        <time>2017-11-15T12:27:24Z</time>
      </trkpt>
      <trkpt lat="43.64514" lon="3.82304">
        <ele>96.4</ele>
        <time>2017-11-15T12:27:25Z</time>
      </trkpt>
      <trkpt lat="43.64509" lon="3.82303">
        <ele>96.5</ele>
        <time>2017-11-15T12:27:26Z</time>
      </trkpt>
      <trkpt lat="43.64505" lon="3.82301">
        <ele>96.6</ele>
        <time>2017-11-15T12:27:27Z</time>
      </trkpt>
      <trkpt lat="43.64501" lon="3.82299">
        <ele>96.7</ele>
        <time>2017-11-15T12:27:28Z</time>
      </trkpt>
      <trkpt lat="43.64497" lon="3.82296">
        <ele>96.7</ele>
        <time>2017-11-15T12:27:29Z</time>
      </trkpt>
      <trkpt lat="43.64492" lon="3.82291">
        <ele>96.8</ele>
        <time>2017-11-15T12:27:30Z</time>
      </trkpt>
      <trkpt lat="43.64486" lon="3.82288">
        <ele>96.9</ele>
        <time>2017-11-15T12:27:31Z</time>
      </trkpt>
      <trkpt lat="43.6448" lon="3.82286">
        <ele>97</ele>
        <time>2017-11-15T12:27:32Z</time>
      </trkpt>
      <trkpt lat="43.64474" lon="3.82287">
        <ele>97</ele>
        <time>2017-11-15T12:27:33Z</time>
      </trkpt>
      <trkpt lat="43.6447" lon="3.82292">
        <ele>97</ele>
        <time>2017-11-15T12:27:34Z</time>
      </trkpt>
      <trkpt lat="43.64467" lon="3.82293">
        <ele>97</ele>
        <time>2017-11-15T12:27:35Z</time>
      </trkpt>
      <trkpt lat="43.64465" lon="3.8229">
        <ele>97</ele>
        <time>2017-11-15T12:27:36Z</time>
      </trkpt>
      <trkpt lat="43.64464" lon="3.82286">
        <ele>97</ele>
        <time>2017-11-15T12:27:37Z</time>
      </trkpt>
      <trkpt lat="43.64462" lon="3.82281">
        <ele>97</ele>
        <time>2017-11-15T12:27:38Z</time>
      </trkpt>
      <trkpt lat="43.64458" lon="3.82277">
        <ele>97</ele>
        <time>2017-11-15T12:27:39Z</time>
      </trkpt>
      <trkpt lat="43.64454" lon="3.82277">
        <ele>97</ele>
        <time>2017-11-15T12:27:40Z</time>
      </trkpt>
      <trkpt lat="43.64449" lon="3.82276">
        <ele>97</ele>
        <time>2017-11-15T12:27:41Z</time>
      </trkpt>
      <trkpt lat="43.64446" lon="3.82273">
        <ele>97</ele>
        <time>2017-11-15T12:27:42Z</time>
      </trkpt>
      <trkpt lat="43.64442" lon="3.82268">
        <ele>97</ele>
        <time>2017-11-15T12:27:43Z</time>
      </trkpt>
      <trkpt lat="43.64438" lon="3.82264">
        <ele>97</ele>
        <time>2017-11-15T12:27:44Z</time>
      </trkpt>
      <trkpt lat="43.64434" lon="3.82261">
        <ele>97</ele>
        <time>2017-11-15T12:27:45Z</time>
      </trkpt>
      <trkpt lat="43.64431" lon="3.82258">
        <ele>97</ele>
        <time>2017-11-15T12:27:46Z</time>
      </trkpt>
      <trkpt lat="43.64427" lon="3.82255">
        <ele>97</ele>
        <time>2017-11-15T12:27:47Z</time>
      </trkpt>
      <trkpt lat="43.64423" lon="3.82251">
        <ele>97</ele>
        <time>2017-11-15T12:27:48Z</time>
      </trkpt>
      <trkpt lat="43.64421" lon="3.82245">
        <ele>101.7</ele>
        <time>2017-11-15T12:27:49Z</time>
      </trkpt>
      <trkpt lat="43.64419" lon="3.8224">
        <ele>103.4</ele>
        <time>2017-11-15T12:27:50Z</time>
      </trkpt>
      <trkpt lat="43.64415" lon="3.82237">
        <ele>105.2</ele>
        <time>2017-11-15T12:27:51Z</time>
      </trkpt>
      <trkpt lat="43.64412" lon="3.82236">
        <ele>105.6</ele>
        <time>2017-11-15T12:27:52Z</time>
      </trkpt>
      <trkpt lat="43.64409" lon="3.82241">
        <ele>105.3</ele>
        <time>2017-11-15T12:27:53Z</time>
      </trkpt>
      <trkpt lat="43.64407" lon="3.82246">
        <ele>104.9</ele>
        <time>2017-11-15T12:27:54Z</time>
      </trkpt>
      <trkpt lat="43.64405" lon="3.8225">
        <ele>104.6</ele>
        <time>2017-11-15T12:27:55Z</time>
      </trkpt>
      <trkpt lat="43.64402" lon="3.82253">
        <ele>104.3</ele>
        <time>2017-11-15T12:27:56Z</time>
      </trkpt>
      <trkpt lat="43.64398" lon="3.82254">
        <ele>104</ele>
        <time>2017-11-15T12:27:57Z</time>
      </trkpt>
      <trkpt lat="43.64394" lon="3.82256">
        <ele>103.7</ele>
        <time>2017-11-15T12:27:58Z</time>
      </trkpt>
      <trkpt lat="43.6439" lon="3.82258">
        <ele>103.4</ele>
        <time>2017-11-15T12:27:59Z</time>
      </trkpt>
      <trkpt lat="43.64387" lon="3.8226">
        <ele>103.1</ele>
        <time>2017-11-15T12:28:00Z</time>
      </trkpt>
      <trkpt lat="43.64383" lon="3.82262">
        <ele>102.8</ele>
        <time>2017-11-15T12:28:01Z</time>
      </trkpt>
      <trkpt lat="43.64378" lon="3.82263">
        <ele>102.5</ele>
        <time>2017-11-15T12:28:02Z</time>
      </trkpt>
      <trkpt lat="43.64373" lon="3.82262">
        <ele>102.1</ele>
        <time>2017-11-15T12:28:03Z</time>
      </trkpt>
      <trkpt lat="43.64368" lon="3.82263">
        <ele>102</ele>
        <time>2017-11-15T12:28:04Z</time>
      </trkpt>
      <trkpt lat="43.64365" lon="3.82264">
        <ele>102</ele>
        <time>2017-11-15T12:28:05Z</time>
      </trkpt>
      <trkpt lat="43.64361" lon="3.82266">
        <ele>102</ele>
        <time>2017-11-15T12:28:06Z</time>
      </trkpt>
      <trkpt lat="43.64357" lon="3.8227">
        <ele>102</ele>
        <time>2017-11-15T12:28:07Z</time>
      </trkpt>
      <trkpt lat="43.64352" lon="3.82274">
        <ele>102</ele>
        <time>2017-11-15T12:28:08Z</time>
      </trkpt>
      <trkpt lat="43.64349" lon="3.82277">
        <ele>102</ele>
        <time>2017-11-15T12:28:09Z</time>
      </trkpt>
      <trkpt lat="43.64347" lon="3.82281">
        <ele>102</ele>
        <time>2017-11-15T12:28:10Z</time>
      </trkpt>
      <trkpt lat="43.64345" lon="3.82286">
        <ele>102</ele>
        <time>2017-11-15T12:28:11Z</time>
      </trkpt>
      <trkpt lat="43.64341" lon="3.82291">
        <ele>102</ele>
        <time>2017-11-15T12:28:12Z</time>
      </trkpt>
      <trkpt lat="43.64337" lon="3.82293">
        <ele>102.1</ele>
        <time>2017-11-15T12:28:13Z</time>
      </trkpt>
      <trkpt lat="43.64332" lon="3.82294">
        <ele>102.5</ele>
        <time>2017-11-15T12:28:14Z</time>
      </trkpt>
      <trkpt lat="43.64326" lon="3.82296">
        <ele>103</ele>
        <time>2017-11-15T12:28:15Z</time>
      </trkpt>
      <trkpt lat="43.64321" lon="3.82298">
        <ele>103.4</ele>
        <time>2017-11-15T12:28:16Z</time>
      </trkpt>
      <trkpt lat="43.64315" lon="3.823">
        <ele>103.7</ele>
        <time>2017-11-15T12:28:17Z</time>
      </trkpt>
      <trkpt lat="43.64308" lon="3.82301">
        <ele>104.2</ele>
        <time>2017-11-15T12:28:18Z</time>
      </trkpt>
      <trkpt lat="43.64302" lon="3.823">
        <ele>104.7</ele>
        <time>2017-11-15T12:28:19Z</time>
      </trkpt>
      <trkpt lat="43.64296" lon="3.82298">
        <ele>105.1</ele>
        <time>2017-11-15T12:28:20Z</time>
      </trkpt>
      <trkpt lat="43.64291" lon="3.82303">
        <ele>105</ele>
        <time>2017-11-15T12:28:21Z</time>
      </trkpt>
      <trkpt lat="43.64288" lon="3.82311">
        <ele>104.2</ele>
        <time>2017-11-15T12:28:22Z</time>
      </trkpt>
      <trkpt lat="43.64283" lon="3.82315">
        <ele>104</ele>
        <time>2017-11-15T12:28:23Z</time>
      </trkpt>
      <trkpt lat="43.64278" lon="3.82315">
        <ele>104</ele>
        <time>2017-11-15T12:28:24Z</time>
      </trkpt>
      <trkpt lat="43.64272" lon="3.82316">
        <ele>104</ele>
        <time>2017-11-15T12:28:25Z</time>
      </trkpt>
      <trkpt lat="43.64267" lon="3.82313">
        <ele>104.5</ele>
        <time>2017-11-15T12:28:26Z</time>
      </trkpt>
      <trkpt lat="43.64263" lon="3.8231">
        <ele>104.9</ele>
        <time>2017-11-15T12:28:27Z</time>
      </trkpt>
      <trkpt lat="43.64258" lon="3.82307">
        <ele>105.4</ele>
        <time>2017-11-15T12:28:28Z</time>
      </trkpt>
      <trkpt lat="43.64253" lon="3.82308">
        <ele>105.3</ele>
        <time>2017-11-15T12:28:29Z</time>
      </trkpt>
      <trkpt lat="43.64249" lon="3.82308">
        <ele>105</ele>
        <time>2017-11-15T12:28:30Z</time>
      </trkpt>
      <trkpt lat="43.64244" lon="3.82309">
        <ele>104.6</ele>
        <time>2017-11-15T12:28:31Z</time>
      </trkpt>
      <trkpt lat="43.64241" lon="3.8231">
        <ele>104.6</ele>
        <time>2017-11-15T12:28:32Z</time>
      </trkpt>
      <trkpt lat="43.64238" lon="3.82311">
        <ele>104.6</ele>
        <time>2017-11-15T12:28:33Z</time>
      </trkpt>
      <trkpt lat="43.64234" lon="3.82311">
        <ele>104.6</ele>
        <time>2017-11-15T12:28:34Z</time>
      </trkpt>
      <trkpt lat="43.6423" lon="3.82311">
        <ele>104.6</ele>
        <time>2017-11-15T12:28:35Z</time>
      </trkpt>
      <trkpt lat="43.64227" lon="3.82311">
        <ele>104.6</ele>
        <time>2017-11-15T12:28:36Z</time>
      </trkpt>
      <trkpt lat="43.64223" lon="3.82311">
        <ele>104.6</ele>
        <time>2017-11-15T12:28:37Z</time>
      </trkpt>
      <trkpt lat="43.64218" lon="3.82314">
        <ele>104.6</ele>
        <time>2017-11-15T12:28:39Z</time>
      </trkpt>
      <trkpt lat="43.64213" lon="3.82317">
        <ele>104.5</ele>
        <time>2017-11-15T12:28:40Z</time>
      </trkpt>
      <trkpt lat="43.64208" lon="3.82319">
        <ele>104.3</ele>
        <time>2017-11-15T12:28:41Z</time>
      </trkpt>
      <trkpt lat="43.64203" lon="3.82322">
        <ele>104.2</ele>
        <time>2017-11-15T12:28:42Z</time>
      </trkpt>
      <trkpt lat="43.64199" lon="3.82325">
        <ele>104.2</ele>
        <time>2017-11-15T12:28:43Z</time>
      </trkpt>
      <trkpt lat="43.64196" lon="3.82328">
        <ele>104</ele>
        <time>2017-11-15T12:28:44Z</time>
      </trkpt>
      <trkpt lat="43.64193" lon="3.82332">
        <ele>103.9</ele>
        <time>2017-11-15T12:28:45Z</time>
      </trkpt>
      <trkpt lat="43.6419" lon="3.82339">
        <ele>104</ele>
        <time>2017-11-15T12:28:46Z</time>
      </trkpt>
      <trkpt lat="43.64189" lon="3.82345">
        <ele>104.1</ele>
        <time>2017-11-15T12:28:47Z</time>
      </trkpt>
      <trkpt lat="43.64188" lon="3.8235">
        <ele>104.1</ele>
        <time>2017-11-15T12:28:48Z</time>
      </trkpt>
      <trkpt lat="43.64187" lon="3.82355">
        <ele>104</ele>
        <time>2017-11-15T12:28:49Z</time>
      </trkpt>
      <trkpt lat="43.64186" lon="3.82359">
        <ele>104</ele>
        <time>2017-11-15T12:28:50Z</time>
      </trkpt>
      <trkpt lat="43.64185" lon="3.82364">
        <ele>103.9</ele>
        <time>2017-11-15T12:28:51Z</time>
      </trkpt>
      <trkpt lat="43.64184" lon="3.82368">
        <ele>103.8</ele>
        <time>2017-11-15T12:28:52Z</time>
      </trkpt>
      <trkpt lat="43.64183" lon="3.82372">
        <ele>103.6</ele>
        <time>2017-11-15T12:28:53Z</time>
      </trkpt>
      <trkpt lat="43.64178" lon="3.82376">
        <ele>103.5</ele>
        <time>2017-11-15T12:28:55Z</time>
      </trkpt>
      <trkpt lat="43.64176" lon="3.8238">
        <ele>103.4</ele>
        <time>2017-11-15T12:28:56Z</time>
      </trkpt>
      <trkpt lat="43.64174" lon="3.82384">
        <ele>103.4</ele>
        <time>2017-11-15T12:28:57Z</time>
      </trkpt>
      <trkpt lat="43.64172" lon="3.82389">
        <ele>103.5</ele>
        <time>2017-11-15T12:28:58Z</time>
      </trkpt>
      <trkpt lat="43.6417" lon="3.82393">
        <ele>103.5</ele>
        <time>2017-11-15T12:28:59Z</time>
      </trkpt>
      <trkpt lat="43.64169" lon="3.82399">
        <ele>103.5</ele>
        <time>2017-11-15T12:29:00Z</time>
      </trkpt>
      <trkpt lat="43.64165" lon="3.82404">
        <ele>103.4</ele>
        <time>2017-11-15T12:29:01Z</time>
      </trkpt>
      <trkpt lat="43.64161" lon="3.8241">
        <ele>103.1</ele>
        <time>2017-11-15T12:29:02Z</time>
      </trkpt>
      <trkpt lat="43.64158" lon="3.82417">
        <ele>102.9</ele>
        <time>2017-11-15T12:29:03Z</time>
      </trkpt>
      <trkpt lat="43.64157" lon="3.82423">
        <ele>102.8</ele>
        <time>2017-11-15T12:29:04Z</time>
      </trkpt>
      <trkpt lat="43.64156" lon="3.82428">
        <ele>102.8</ele>
        <time>2017-11-15T12:29:05Z</time>
      </trkpt>
      <trkpt lat="43.64157" lon="3.82435">
        <ele>102.6</ele>
        <time>2017-11-15T12:29:07Z</time>
      </trkpt>
      <trkpt lat="43.64155" lon="3.82438">
        <ele>102.5</ele>
        <time>2017-11-15T12:29:08Z</time>
      </trkpt>
      <trkpt lat="43.64153" lon="3.82443">
        <ele>102.3</ele>
        <time>2017-11-15T12:29:09Z</time>
      </trkpt>
      <trkpt lat="43.64153" lon="3.8245">
        <ele>102</ele>
        <time>2017-11-15T12:29:10Z</time>
      </trkpt>
      <trkpt lat="43.64153" lon="3.82457">
        <ele>101.7</ele>
        <time>2017-11-15T12:29:11Z</time>
      </trkpt>
      <trkpt lat="43.64153" lon="3.82463">
        <ele>101.5</ele>
        <time>2017-11-15T12:29:12Z</time>
      </trkpt>
      <trkpt lat="43.64151" lon="3.82467">
        <ele>101.4</ele>
        <time>2017-11-15T12:29:13Z</time>
      </trkpt>
      <trkpt lat="43.64149" lon="3.82473">
        <ele>101.1</ele>
        <time>2017-11-15T12:29:14Z</time>
      </trkpt>
      <trkpt lat="43.64149" lon="3.82478">
        <ele>100.8</ele>
        <time>2017-11-15T12:29:15Z</time>
      </trkpt>
      <trkpt lat="43.64149" lon="3.82485">
        <ele>100.4</ele>
        <time>2017-11-15T12:29:16Z</time>
      </trkpt>
      <trkpt lat="43.64145" lon="3.82491">
        <ele>100</ele>
        <time>2017-11-15T12:29:17Z</time>
      </trkpt>
      <trkpt lat="43.64141" lon="3.82496">
        <ele>99.4</ele>
        <time>2017-11-15T12:29:18Z</time>
      </trkpt>
      <trkpt lat="43.64136" lon="3.82504">
        <ele>98.8</ele>
        <time>2017-11-15T12:29:19Z</time>
      </trkpt>
      <trkpt lat="43.64134" lon="3.8251">
        <ele>98.4</ele>
        <time>2017-11-15T12:29:20Z</time>
      </trkpt>
      <trkpt lat="43.64133" lon="3.82518">
        <ele>98.1</ele>
        <time>2017-11-15T12:29:21Z</time>
      </trkpt>
      <trkpt lat="43.64129" lon="3.82525">
        <ele>97.9</ele>
        <time>2017-11-15T12:29:22Z</time>
      </trkpt>
      <trkpt lat="43.64126" lon="3.82537">
        <ele>98</ele>
        <time>2017-11-15T12:29:23Z</time>
      </trkpt>
      <trkpt lat="43.64123" lon="3.82548">
        <ele>98.3</ele>
        <time>2017-11-15T12:29:24Z</time>
      </trkpt>
      <trkpt lat="43.64117" lon="3.82561">
        <ele>98.2</ele>
        <time>2017-11-15T12:29:25Z</time>
      </trkpt>
      <trkpt lat="43.64113" lon="3.82573">
        <ele>97.2</ele>
        <time>2017-11-15T12:29:26Z</time>
      </trkpt>
      <trkpt lat="43.64109" lon="3.82585">
        <ele>96.1</ele>
        <time>2017-11-15T12:29:27Z</time>
      </trkpt>
      <trkpt lat="43.64105" lon="3.82596">
        <ele>95.5</ele>
        <time>2017-11-15T12:29:28Z</time>
      </trkpt>
      <trkpt lat="43.64101" lon="3.82606">
        <ele>94.6</ele>
        <time>2017-11-15T12:29:29Z</time>
      </trkpt>
      <trkpt lat="43.64097" lon="3.82617">
        <ele>93.3</ele>
        <time>2017-11-15T12:29:30Z</time>
      </trkpt>
      <trkpt lat="43.64093" lon="3.82627">
        <ele>91.5</ele>
        <time>2017-11-15T12:29:31Z</time>
      </trkpt>
      <trkpt lat="43.64093" lon="3.82638">
        <ele>90.1</ele>
        <time>2017-11-15T12:29:32Z</time>
      </trkpt>
      <trkpt lat="43.6409" lon="3.82648">
        <ele>88.7</ele>
        <time>2017-11-15T12:29:33Z</time>
      </trkpt>
      <trkpt lat="43.64086" lon="3.82657">
        <ele>87.3</ele>
        <time>2017-11-15T12:29:34Z</time>
      </trkpt>
      <trkpt lat="43.64078" lon="3.8267">
        <ele>86.3</ele>
        <time>2017-11-15T12:29:35Z</time>
      </trkpt>
      <trkpt lat="43.64072" lon="3.82682">
        <ele>85.9</ele>
        <time>2017-11-15T12:29:36Z</time>
      </trkpt>
      <trkpt lat="43.64068" lon="3.82694">
        <ele>85.4</ele>
        <time>2017-11-15T12:29:37Z</time>
      </trkpt>
      <trkpt lat="43.64065" lon="3.82707">
        <ele>85.5</ele>
        <time>2017-11-15T12:29:38Z</time>
      </trkpt>
      <trkpt lat="43.64061" lon="3.82717">
        <ele>86</ele>
        <time>2017-11-15T12:29:39Z</time>
      </trkpt>
      <trkpt lat="43.64055" lon="3.82728">
        <ele>86.1</ele>
        <time>2017-11-15T12:29:40Z</time>
      </trkpt>
      <trkpt lat="43.64049" lon="3.82739">
        <ele>85.3</ele>
        <time>2017-11-15T12:29:41Z</time>
      </trkpt>
      <trkpt lat="43.64042" lon="3.82749">
        <ele>84.5</ele>
        <time>2017-11-15T12:29:42Z</time>
      </trkpt>
      <trkpt lat="43.64038" lon="3.8276">
        <ele>84.1</ele>
        <time>2017-11-15T12:29:43Z</time>
      </trkpt>
      <trkpt lat="43.64033" lon="3.82771">
        <ele>83.3</ele>
        <time>2017-11-15T12:29:44Z</time>
      </trkpt>
      <trkpt lat="43.64026" lon="3.82779">
        <ele>82.3</ele>
        <time>2017-11-15T12:29:45Z</time>
      </trkpt>
      <trkpt lat="43.64021" lon="3.82787">
        <ele>82</ele>
        <time>2017-11-15T12:29:46Z</time>
      </trkpt>
      <trkpt lat="43.6402" lon="3.82794">
        <ele>82</ele>
        <time>2017-11-15T12:29:47Z</time>
      </trkpt>
      <trkpt lat="43.64017" lon="3.82797">
        <ele>81.9</ele>
        <time>2017-11-15T12:29:48Z</time>
      </trkpt>
      <trkpt lat="43.64011" lon="3.82799">
        <ele>81.6</ele>
        <time>2017-11-15T12:29:49Z</time>
      </trkpt>
      <trkpt lat="43.64005" lon="3.82799">
        <ele>81.4</ele>
        <time>2017-11-15T12:29:50Z</time>
      </trkpt>
      <trkpt lat="43.63998" lon="3.82799">
        <ele>81.1</ele>
        <time>2017-11-15T12:29:51Z</time>
      </trkpt>
      <trkpt lat="43.63992" lon="3.82799">
        <ele>80.7</ele>
        <time>2017-11-15T12:29:52Z</time>
      </trkpt>
      <trkpt lat="43.63985" lon="3.828">
        <ele>80.4</ele>
        <time>2017-11-15T12:29:53Z</time>
      </trkpt>
      <trkpt lat="43.63978" lon="3.82802">
        <ele>80</ele>
        <time>2017-11-15T12:29:54Z</time>
      </trkpt>
      <trkpt lat="43.63971" lon="3.82805">
        <ele>80</ele>
        <time>2017-11-15T12:29:55Z</time>
      </trkpt>
      <trkpt lat="43.63965" lon="3.8281">
        <ele>80</ele>
        <time>2017-11-15T12:29:56Z</time>
      </trkpt>
      <trkpt lat="43.63961" lon="3.82815">
        <ele>80</ele>
        <time>2017-11-15T12:29:57Z</time>
      </trkpt>
      <trkpt lat="43.63956" lon="3.8282">
        <ele>80</ele>
        <time>2017-11-15T12:29:58Z</time>
      </trkpt>
      <trkpt lat="43.63951" lon="3.82824">
        <ele>80</ele>
        <time>2017-11-15T12:29:59Z</time>
      </trkpt>
      <trkpt lat="43.63945" lon="3.82826">
        <ele>80</ele>
        <time>2017-11-15T12:30:00Z</time>
      </trkpt>
      <trkpt lat="43.63939" lon="3.82827">
        <ele>80</ele>
        <time>2017-11-15T12:30:01Z</time>
      </trkpt>
      <trkpt lat="43.63933" lon="3.8283">
        <ele>80</ele>
        <time>2017-11-15T12:30:02Z</time>
      </trkpt>
      <trkpt lat="43.63927" lon="3.82832">
        <ele>80</ele>
        <time>2017-11-15T12:30:03Z</time>
      </trkpt>
      <trkpt lat="43.63924" lon="3.82831">
        <ele>80</ele>
        <time>2017-11-15T12:30:04Z</time>
      </trkpt>
      <trkpt lat="43.63923" lon="3.82828">
        <ele>80</ele>
        <time>2017-11-15T12:30:05Z</time>
      </trkpt>
      <trkpt lat="43.63921" lon="3.82823">
        <ele>80</ele>
        <time>2017-11-15T12:30:06Z</time>
      </trkpt>
      <trkpt lat="43.63918" lon="3.82819">
        <ele>80</ele>
        <time>2017-11-15T12:30:07Z</time>
      </trkpt>
      <trkpt lat="43.63915" lon="3.82815">
        <ele>80</ele>
        <time>2017-11-15T12:30:08Z</time>
      </trkpt>
      <trkpt lat="43.63911" lon="3.82813">
        <ele>80</ele>
        <time>2017-11-15T12:30:10Z</time>
      </trkpt>
      <trkpt lat="43.63907" lon="3.82816">
        <ele>80</ele>
        <time>2017-11-15T12:30:12Z</time>
      </trkpt>
      <trkpt lat="43.63902" lon="3.82813">
        <ele>80</ele>
        <time>2017-11-15T12:30:13Z</time>
      </trkpt>
      <trkpt lat="43.63898" lon="3.8281">
        <ele>80</ele>
        <time>2017-11-15T12:30:14Z</time>
      </trkpt>
      <trkpt lat="43.63894" lon="3.82807">
        <ele>80</ele>
        <time>2017-11-15T12:30:15Z</time>
      </trkpt>
      <trkpt lat="43.63892" lon="3.82802">
        <ele>80</ele>
        <time>2017-11-15T12:30:16Z</time>
      </trkpt>
      <trkpt lat="43.63889" lon="3.82796">
        <ele>80</ele>
        <time>2017-11-15T12:30:17Z</time>
      </trkpt>
      <trkpt lat="43.63885" lon="3.82789">
        <ele>80</ele>
        <time>2017-11-15T12:30:18Z</time>
      </trkpt>
      <trkpt lat="43.63882" lon="3.82783">
        <ele>80</ele>
        <time>2017-11-15T12:30:19Z</time>
      </trkpt>
      <trkpt lat="43.63879" lon="3.8278">
        <ele>80</ele>
        <time>2017-11-15T12:30:20Z</time>
      </trkpt>
      <trkpt lat="43.63877" lon="3.82782">
        <ele>80</ele>
        <time>2017-11-15T12:30:21Z</time>
      </trkpt>
      <trkpt lat="43.63874" lon="3.82784">
        <ele>80</ele>
        <time>2017-11-15T12:30:22Z</time>
      </trkpt>
      <trkpt lat="43.6387" lon="3.82788">
        <ele>80</ele>
        <time>2017-11-15T12:30:23Z</time>
      </trkpt>
      <trkpt lat="43.63867" lon="3.8279">
        <ele>80</ele>
        <time>2017-11-15T12:30:24Z</time>
      </trkpt>
      <trkpt lat="43.63862" lon="3.82794">
        <ele>80</ele>
        <time>2017-11-15T12:30:25Z</time>
      </trkpt>
      <trkpt lat="43.63857" lon="3.82798">
        <ele>80</ele>
        <time>2017-11-15T12:30:26Z</time>
      </trkpt>
      <trkpt lat="43.63854" lon="3.82801">
        <ele>80</ele>
        <time>2017-11-15T12:30:27Z</time>
      </trkpt>
      <trkpt lat="43.63851" lon="3.82802">
        <ele>80</ele>
        <time>2017-11-15T12:30:28Z</time>
      </trkpt>
      <trkpt lat="43.63847" lon="3.82802">
        <ele>80</ele>
        <time>2017-11-15T12:30:29Z</time>
      </trkpt>
      <trkpt lat="43.63844" lon="3.82802">
        <ele>80</ele>
        <time>2017-11-15T12:30:30Z</time>
      </trkpt>
      <trkpt lat="43.6384" lon="3.82801">
        <ele>79.8</ele>
        <time>2017-11-15T12:30:31Z</time>
      </trkpt>
      <trkpt lat="43.63836" lon="3.82803">
        <ele>79.7</ele>
        <time>2017-11-15T12:30:32Z</time>
      </trkpt>
      <trkpt lat="43.63831" lon="3.82807">
        <ele>79.7</ele>
        <time>2017-11-15T12:30:33Z</time>
      </trkpt>
      <trkpt lat="43.63825" lon="3.82809">
        <ele>79</ele>
        <time>2017-11-15T12:30:34Z</time>
      </trkpt>
      <trkpt lat="43.63819" lon="3.82811">
        <ele>79</ele>
        <time>2017-11-15T12:30:35Z</time>
      </trkpt>
      <trkpt lat="43.63812" lon="3.82813">
        <ele>79</ele>
        <time>2017-11-15T12:30:36Z</time>
      </trkpt>
      <trkpt lat="43.63805" lon="3.82815">
        <ele>79</ele>
        <time>2017-11-15T12:30:37Z</time>
      </trkpt>
      <trkpt lat="43.63799" lon="3.82816">
        <ele>79</ele>
        <time>2017-11-15T12:30:38Z</time>
      </trkpt>
      <trkpt lat="43.63794" lon="3.82818">
        <ele>79</ele>
        <time>2017-11-15T12:30:39Z</time>
      </trkpt>
      <trkpt lat="43.63788" lon="3.8282">
        <ele>79</ele>
        <time>2017-11-15T12:30:40Z</time>
      </trkpt>
      <trkpt lat="43.63784" lon="3.82821">
        <ele>79</ele>
        <time>2017-11-15T12:30:41Z</time>
      </trkpt>
      <trkpt lat="43.6378" lon="3.82822">
        <ele>79</ele>
        <time>2017-11-15T12:30:42Z</time>
      </trkpt>
      <trkpt lat="43.63777" lon="3.82824">
        <ele>79</ele>
        <time>2017-11-15T12:30:43Z</time>
      </trkpt>
      <trkpt lat="43.63775" lon="3.8283">
        <ele>79</ele>
        <time>2017-11-15T12:30:45Z</time>
      </trkpt>
      <trkpt lat="43.63776" lon="3.82836">
        <ele>79</ele>
        <time>2017-11-15T12:30:47Z</time>
      </trkpt>
      <trkpt lat="43.63777" lon="3.8284">
        <ele>79</ele>
        <time>2017-11-15T12:30:48Z</time>
      </trkpt>
      <trkpt lat="43.63778" lon="3.82844">
        <ele>79</ele>
        <time>2017-11-15T12:30:49Z</time>
      </trkpt>
      <trkpt lat="43.63779" lon="3.82848">
        <ele>79</ele>
        <time>2017-11-15T12:30:50Z</time>
      </trkpt>
      <trkpt lat="43.6378" lon="3.82852">
        <ele>79</ele>
        <time>2017-11-15T12:30:51Z</time>
      </trkpt>
      <trkpt lat="43.63776" lon="3.82858">
        <ele>79</ele>
        <time>2017-11-15T12:31:07Z</time>
      </trkpt>
      <trkpt lat="43.63773" lon="3.82857">
        <ele>78.9</ele>
        <time>2017-11-15T12:31:10Z</time>
      </trkpt>
      <trkpt lat="43.6377" lon="3.82855">
        <ele>78.9</ele>
        <time>2017-11-15T12:31:12Z</time>
      </trkpt>
    </trkseg>
  </trk>
</gpx>